﻿<?xml version="1.0" encoding="utf-8"?><gpx creator="Garmin Desktop App" version="1.1" xsi:schemaLocation="http://www.topografix.com/GPX/1/1 http://www.topografix.com/GPX/1/1/gpx.xsd http://www.garmin.com/xmlschemas/WaypointExtension/v1 http://www8.garmin.com/xmlschemas/WaypointExtensionv1.xsd http://www.garmin.com/xmlschemas/TrackPointExtension/v1 http://www.garmin.com/xmlschemas/TrackPointExtensionv1.xsd http://www.garmin.com/xmlschemas/GpxExtensions/v3 http://www8.garmin.com/xmlschemas/GpxExtensionsv3.xsd http://www.garmin.com/xmlschemas/ActivityExtension/v1 http://www8.garmin.com/xmlschemas/ActivityExtensionv1.xsd http://www.garmin.com/xmlschemas/AdventuresExtensions/v1 http://www8.garmin.com/xmlschemas/AdventuresExtensionv1.xsd http://www.garmin.com/xmlschemas/PressureExtension/v1 http://www.garmin.com/xmlschemas/PressureExtensionv1.xsd http://www.garmin.com/xmlschemas/TripExtensions/v1 http://www.garmin.com/xmlschemas/TripExtensionsv1.xsd http://www.garmin.com/xmlschemas/TripMetaDataExtensions/v1 http://www.garmin.com/xmlschemas/TripMetaDataExtensionsv1.xsd http://www.garmin.com/xmlschemas/ViaPointTransportationModeExtensions/v1 http://www.garmin.com/xmlschemas/ViaPointTransportationModeExtensionsv1.xsd http://www.garmin.com/xmlschemas/CreationTimeExtension/v1 http://www.garmin.com/xmlschemas/CreationTimeExtensionsv1.xsd http://www.garmin.com/xmlschemas/AccelerationExtension/v1 http://www.garmin.com/xmlschemas/AccelerationExtensionv1.xsd http://www.garmin.com/xmlschemas/PowerExtension/v1 http://www.garmin.com/xmlschemas/PowerExtensionv1.xsd http://www.garmin.com/xmlschemas/VideoExtension/v1 http://www.garmin.com/xmlschemas/VideoExtensionv1.xsd" xmlns="http://www.topografix.com/GPX/1/1" xmlns:xsi="http://www.w3.org/2001/XMLSchema-instance" xmlns:wptx1="http://www.garmin.com/xmlschemas/WaypointExtension/v1" xmlns:gpxtrx="http://www.garmin.com/xmlschemas/GpxExtensions/v3" xmlns:gpxtpx="http://www.garmin.com/xmlschemas/TrackPointExtension/v1" xmlns:gpxx="http://www.garmin.com/xmlschemas/GpxExtensions/v3" xmlns:trp="http://www.garmin.com/xmlschemas/TripExtensions/v1" xmlns:adv="http://www.garmin.com/xmlschemas/AdventuresExtensions/v1" xmlns:prs="http://www.garmin.com/xmlschemas/PressureExtension/v1" xmlns:tmd="http://www.garmin.com/xmlschemas/TripMetaDataExtensions/v1" xmlns:vptm="http://www.garmin.com/xmlschemas/ViaPointTransportationModeExtensions/v1" xmlns:ctx="http://www.garmin.com/xmlschemas/CreationTimeExtension/v1" xmlns:gpxacc="http://www.garmin.com/xmlschemas/AccelerationExtension/v1" xmlns:gpxpx="http://www.garmin.com/xmlschemas/PowerExtension/v1" xmlns:vidx1="http://www.garmin.com/xmlschemas/VideoExtension/v1">

  <metadata>
    <link href="http://www.garmin.com">
      <text>Garmin International</text>
    </link>
    <time>2021-01-25T14:33:34Z</time>
    <bounds maxlat="45.77092370018363" maxlon="8.013194734230638" minlat="45.724640004336834" minlon="7.94148956425488" />
  </metadata>

  <trk>
    <name>val-sorba-val-gronda-da-rassa</name>
    <desc>ACTIVE LOG </desc>
    <extensions>
      <gpxx:TrackExtension>
        <gpxx:DisplayColor>Yellow</gpxx:DisplayColor>
      </gpxx:TrackExtension>
    </extensions>
    <trkseg>
      <trkpt lat="45.767679987475276" lon="8.01192001439631">
        <ele>951.29999999999995</ele>
        <time>2010-08-29T14:05:50Z</time>
      </trkpt>
      <trkpt lat="45.76760002411902" lon="8.011980028823018">
        <ele>954.60000000000002</ele>
        <time>2010-08-29T14:03:36Z</time>
      </trkpt>
      <trkpt lat="45.76755995862186" lon="8.011859999969602">
        <ele>954.60000000000002</ele>
        <time>2010-08-29T14:03:19Z</time>
      </trkpt>
      <trkpt lat="45.767479995265603" lon="8.011720022186637">
        <ele>955.89999999999998</ele>
        <time>2010-08-29T14:03:09Z</time>
      </trkpt>
      <trkpt lat="45.767410006374121" lon="8.011590018868446">
        <ele>958.60000000000002</ele>
        <time>2010-08-29T14:03:01Z</time>
      </trkpt>
      <trkpt lat="45.767329959198833" lon="8.01146999001503">
        <ele>961</ele>
        <time>2010-08-29T14:02:55Z</time>
      </trkpt>
      <trkpt lat="45.76730003580451" lon="8.011369993910193">
        <ele>962.60000000000002</ele>
        <time>2010-08-29T14:02:25Z</time>
      </trkpt>
      <trkpt lat="45.767219988629222" lon="8.011220041662455">
        <ele>963.79999999999995</ele>
        <time>2010-08-29T14:02:15Z</time>
      </trkpt>
      <trkpt lat="45.76714999973774" lon="8.011079980060458">
        <ele>965.89999999999998</ele>
        <time>2010-08-29T14:02:07Z</time>
      </trkpt>
      <trkpt lat="45.767059978097677" lon="8.010960035026074">
        <ele>967.10000000000002</ele>
        <time>2010-08-29T14:01:58Z</time>
      </trkpt>
      <trkpt lat="45.766980014741421" lon="8.010889962315559">
        <ele>967.70000000000005</ele>
        <time>2010-08-29T14:01:51Z</time>
      </trkpt>
      <trkpt lat="45.766889993101358" lon="8.010789966210723">
        <ele>969.29999999999995</ele>
        <time>2010-08-29T14:01:43Z</time>
      </trkpt>
      <trkpt lat="45.766810029745102" lon="8.010719977319241">
        <ele>969.60000000000002</ele>
        <time>2010-08-29T14:01:36Z</time>
      </trkpt>
      <trkpt lat="45.76672000810504" lon="8.010679995641112">
        <ele>970.5</ele>
        <time>2010-08-29T14:01:30Z</time>
      </trkpt>
      <trkpt lat="45.766629986464977" lon="8.010659962892532">
        <ele>971.10000000000002</ele>
        <time>2010-08-29T14:01:23Z</time>
      </trkpt>
      <trkpt lat="45.766529990360141" lon="8.010640013962984">
        <ele>973.79999999999995</ele>
        <time>2010-08-29T14:01:16Z</time>
      </trkpt>
      <trkpt lat="45.766429994255304" lon="8.01061000674963">
        <ele>975.39999999999998</ele>
        <time>2010-08-29T14:01:08Z</time>
      </trkpt>
      <trkpt lat="45.766329998150468" lon="8.010579999536276">
        <ele>976.89999999999998</ele>
        <time>2010-08-29T14:01:01Z</time>
      </trkpt>
      <trkpt lat="45.766230002045631" lon="8.010549992322922">
        <ele>978.70000000000005</ele>
        <time>2010-08-29T14:00:54Z</time>
      </trkpt>
      <trkpt lat="45.766150038689375" lon="8.010510010644794">
        <ele>979.60000000000002</ele>
        <time>2010-08-29T14:00:48Z</time>
      </trkpt>
      <trkpt lat="45.766060017049313" lon="8.010470028966665">
        <ele>981.20000000000005</ele>
        <time>2010-08-29T14:00:41Z</time>
      </trkpt>
      <trkpt lat="45.76596999540925" lon="8.010419989004731">
        <ele>982.10000000000002</ele>
        <time>2010-08-29T14:00:34Z</time>
      </trkpt>
      <trkpt lat="45.765879973769188" lon="8.010370032861829">
        <ele>984.20000000000005</ele>
        <time>2010-08-29T14:00:26Z</time>
      </trkpt>
      <trkpt lat="45.765779977664351" lon="8.010319992899895">
        <ele>985.39999999999998</ele>
        <time>2010-08-29T14:00:19Z</time>
      </trkpt>
      <trkpt lat="45.765700014308095" lon="8.010250004008412">
        <ele>988.5</ele>
        <time>2010-08-29T14:00:11Z</time>
      </trkpt>
      <trkpt lat="45.765619967132807" lon="8.01018001511693">
        <ele>988.79999999999995</ele>
        <time>2010-08-29T14:00:03Z</time>
      </trkpt>
      <trkpt lat="45.765549978241324" lon="8.010089993476868">
        <ele>990.89999999999998</ele>
        <time>2010-08-29T13:59:55Z</time>
      </trkpt>
      <trkpt lat="45.765489963814616" lon="8.010010030120611">
        <ele>991.20000000000005</ele>
        <time>2010-08-29T13:59:48Z</time>
      </trkpt>
      <trkpt lat="45.765400025993586" lon="8.009920008480549">
        <ele>992.70000000000005</ele>
        <time>2010-08-29T13:59:42Z</time>
      </trkpt>
      <trkpt lat="45.765310004353523" lon="8.009820012375712">
        <ele>995.5</ele>
        <time>2010-08-29T13:59:35Z</time>
      </trkpt>
      <trkpt lat="45.765240015462041" lon="8.009739965200424">
        <ele>998.5</ele>
        <time>2010-08-29T13:59:28Z</time>
      </trkpt>
      <trkpt lat="45.765159968286753" lon="8.009669976308942">
        <ele>998.79999999999995</ele>
        <time>2010-08-29T13:59:21Z</time>
      </trkpt>
      <trkpt lat="45.765049997717142" lon="8.009580038487911">
        <ele>1001.3</ele>
        <time>2010-08-29T13:59:13Z</time>
      </trkpt>
      <trkpt lat="45.764910019934177" lon="8.009460009634495">
        <ele>1003.4</ele>
        <time>2010-08-29T13:59:05Z</time>
      </trkpt>
      <trkpt lat="45.764840031042695" lon="8.009360013529658">
        <ele>1005.8</ele>
        <time>2010-08-29T13:58:57Z</time>
      </trkpt>
      <trkpt lat="45.764769958332181" lon="8.009269991889596">
        <ele>1008.6</ele>
        <time>2010-08-29T13:58:49Z</time>
      </trkpt>
      <trkpt lat="45.764699969440699" lon="8.00916999578476">
        <ele>1010.4</ele>
        <time>2010-08-29T13:58:42Z</time>
      </trkpt>
      <trkpt lat="45.764620006084442" lon="8.009090032428503">
        <ele>1012.5</ele>
        <time>2010-08-29T13:58:35Z</time>
      </trkpt>
      <trkpt lat="45.76452998444438" lon="8.009009985253215">
        <ele>1012.9</ele>
        <time>2010-08-29T13:58:27Z</time>
      </trkpt>
      <trkpt lat="45.764450021088123" lon="8.008960029110313">
        <ele>1014.7</ele>
        <time>2010-08-29T13:58:21Z</time>
      </trkpt>
      <trkpt lat="45.764320017769933" lon="8.00887000747025">
        <ele>1017.1</ele>
        <time>2010-08-29T13:58:14Z</time>
      </trkpt>
      <trkpt lat="45.76422999612987" lon="8.008809993043542">
        <ele>1019.6</ele>
        <time>2010-08-29T13:58:04Z</time>
      </trkpt>
      <trkpt lat="45.764130000025034" lon="8.00874000415206">
        <ele>1022</ele>
        <time>2010-08-29T13:57:56Z</time>
      </trkpt>
      <trkpt lat="45.764039978384972" lon="8.008670015260577">
        <ele>1024.4000000000001</ele>
        <time>2010-08-29T13:57:48Z</time>
      </trkpt>
      <trkpt lat="45.763950040563941" lon="8.008600026369095">
        <ele>1027.8</ele>
        <time>2010-08-29T13:57:40Z</time>
      </trkpt>
      <trkpt lat="45.763839986175299" lon="8.008519979193807">
        <ele>1028.7</ele>
        <time>2010-08-29T13:57:33Z</time>
      </trkpt>
      <trkpt lat="45.763749964535236" lon="8.008430041372776">
        <ele>1030.2</ele>
        <time>2010-08-29T13:57:27Z</time>
      </trkpt>
      <trkpt lat="45.763660026714206" lon="8.008329961448908">
        <ele>1033</ele>
        <time>2010-08-29T13:57:20Z</time>
      </trkpt>
      <trkpt lat="45.763579979538918" lon="8.008249998092651">
        <ele>1035.0999999999999</ele>
        <time>2010-08-29T13:57:13Z</time>
      </trkpt>
      <trkpt lat="45.763460034504533" lon="8.008180009201169">
        <ele>1037.5</ele>
        <time>2010-08-29T13:57:05Z</time>
      </trkpt>
      <trkpt lat="45.76337001286447" lon="8.008129969239235">
        <ele>1041.2</ele>
        <time>2010-08-29T13:56:58Z</time>
      </trkpt>
      <trkpt lat="45.763259958475828" lon="8.008089987561107">
        <ele>1042.7</ele>
        <time>2010-08-29T13:56:50Z</time>
      </trkpt>
      <trkpt lat="45.763149987906218" lon="8.008040031418204">
        <ele>1046.0999999999999</ele>
        <time>2010-08-29T13:56:41Z</time>
      </trkpt>
      <trkpt lat="45.763059966266155" lon="8.007980016991496">
        <ele>1048.8</ele>
        <time>2010-08-29T13:56:31Z</time>
      </trkpt>
      <trkpt lat="45.762959970161319" lon="8.007920002564788">
        <ele>1050</ele>
        <time>2010-08-29T13:56:23Z</time>
      </trkpt>
      <trkpt lat="45.762859974056482" lon="8.007850013673306">
        <ele>1053.7</ele>
        <time>2010-08-29T13:56:16Z</time>
      </trkpt>
      <trkpt lat="45.762740029022098" lon="8.007739959284663">
        <ele>1056.7</ele>
        <time>2010-08-29T13:56:10Z</time>
      </trkpt>
      <trkpt lat="45.762629974633455" lon="8.007690003141761">
        <ele>1057</ele>
        <time>2010-08-29T13:56:00Z</time>
      </trkpt>
      <trkpt lat="45.762489996850491" lon="8.007739959284663">
        <ele>1058.5999999999999</ele>
        <time>2010-08-29T13:55:51Z</time>
      </trkpt>
      <trkpt lat="45.762399975210428" lon="8.007739959284663">
        <ele>1059.2</ele>
        <time>2010-08-29T13:55:43Z</time>
      </trkpt>
      <trkpt lat="45.762310037389398" lon="8.007680028676987">
        <ele>1060.4000000000001</ele>
        <time>2010-08-29T13:55:33Z</time>
      </trkpt>
      <trkpt lat="45.762190008535981" lon="8.007659995928407">
        <ele>1061.3</ele>
        <time>2010-08-29T13:55:25Z</time>
      </trkpt>
      <trkpt lat="45.762090012431145" lon="8.007659995928407">
        <ele>1061.3</ele>
        <time>2010-08-29T13:55:18Z</time>
      </trkpt>
      <trkpt lat="45.761990016326308" lon="8.007650021463633">
        <ele>1061.3</ele>
        <time>2010-08-29T13:55:10Z</time>
      </trkpt>
      <trkpt lat="45.761890020221472" lon="8.007639963179827">
        <ele>1063.4000000000001</ele>
        <time>2010-08-29T13:55:03Z</time>
      </trkpt>
      <trkpt lat="45.761790024116635" lon="8.007639963179827">
        <ele>1063.4000000000001</ele>
        <time>2010-08-29T13:54:55Z</time>
      </trkpt>
      <trkpt lat="45.761700002476573" lon="8.007599981501699">
        <ele>1063.8</ele>
        <time>2010-08-29T13:54:47Z</time>
      </trkpt>
      <trkpt lat="45.761620039120317" lon="8.007550025358796">
        <ele>1065.3</ele>
        <time>2010-08-29T13:54:39Z</time>
      </trkpt>
      <trkpt lat="45.761539991945028" lon="8.007529992610216">
        <ele>1066.8</ele>
        <time>2010-08-29T13:54:31Z</time>
      </trkpt>
      <trkpt lat="45.761419963091612" lon="8.00745002925396">
        <ele>1068.3</ele>
        <time>2010-08-29T13:54:23Z</time>
      </trkpt>
      <trkpt lat="45.761330025270581" lon="8.007380040362477">
        <ele>1069.2</ele>
        <time>2010-08-29T13:54:16Z</time>
      </trkpt>
      <trkpt lat="45.761240003630519" lon="8.007309967651963">
        <ele>1070.2</ele>
        <time>2010-08-29T13:54:09Z</time>
      </trkpt>
      <trkpt lat="45.761160040274262" lon="8.007199997082353">
        <ele>1070.2</ele>
        <time>2010-08-29T13:54:01Z</time>
      </trkpt>
      <trkpt lat="45.7610700186342" lon="8.007120033726096">
        <ele>1072</ele>
        <time>2010-08-29T13:53:52Z</time>
      </trkpt>
      <trkpt lat="45.760970022529364" lon="8.007039986550808">
        <ele>1073.5</ele>
        <time>2010-08-29T13:53:45Z</time>
      </trkpt>
      <trkpt lat="45.760859968140721" lon="8.006960023194552">
        <ele>1074.4000000000001</ele>
        <time>2010-08-29T13:53:36Z</time>
      </trkpt>
      <trkpt lat="45.760749997571111" lon="8.006900008767843">
        <ele>1075.3</ele>
        <time>2010-08-29T13:53:29Z</time>
      </trkpt>
      <trkpt lat="45.760740023106337" lon="8.006870001554489">
        <ele>1075.9000000000001</ele>
        <time>2010-08-29T13:52:39Z</time>
      </trkpt>
      <trkpt lat="45.760670034214854" lon="8.006760030984879">
        <ele>1075.9000000000001</ele>
        <time>2010-08-29T13:52:28Z</time>
      </trkpt>
      <trkpt lat="45.760580012574792" lon="8.00667998380959">
        <ele>1075.9000000000001</ele>
        <time>2010-08-29T13:52:21Z</time>
      </trkpt>
      <trkpt lat="45.76046995818615" lon="8.006609994918108">
        <ele>1075.9000000000001</ele>
        <time>2010-08-29T13:52:15Z</time>
      </trkpt>
      <trkpt lat="45.760350013151765" lon="8.006540006026626">
        <ele>1076.9000000000001</ele>
        <time>2010-08-29T13:52:04Z</time>
      </trkpt>
      <trkpt lat="45.760229984298348" lon="8.006509998813272">
        <ele>1076.9000000000001</ele>
        <time>2010-08-29T13:51:56Z</time>
      </trkpt>
      <trkpt lat="45.760120013728738" lon="8.006479991599917">
        <ele>1078.4000000000001</ele>
        <time>2010-08-29T13:51:48Z</time>
      </trkpt>
      <trkpt lat="45.760020017623901" lon="8.006459958851337">
        <ele>1077.8</ele>
        <time>2010-08-29T13:51:38Z</time>
      </trkpt>
      <trkpt lat="45.759909963235259" lon="8.006479991599917">
        <ele>1079.3</ele>
        <time>2010-08-29T13:51:30Z</time>
      </trkpt>
      <trkpt lat="45.759829999879003" lon="8.006419977173209">
        <ele>1079.3</ele>
        <time>2010-08-29T13:51:23Z</time>
      </trkpt>
      <trkpt lat="45.759750036522746" lon="8.006340013816953">
        <ele>1081.7</ele>
        <time>2010-08-29T13:51:15Z</time>
      </trkpt>
      <trkpt lat="45.759679963812232" lon="8.00627002492547">
        <ele>1082.5999999999999</ele>
        <time>2010-08-29T13:51:09Z</time>
      </trkpt>
      <trkpt lat="45.759560018777847" lon="8.006200036033988">
        <ele>1082.5999999999999</ele>
        <time>2010-08-29T13:50:59Z</time>
      </trkpt>
      <trkpt lat="45.759490029886365" lon="8.006110014393926">
        <ele>1083</ele>
        <time>2010-08-29T13:50:51Z</time>
      </trkpt>
      <trkpt lat="45.759430015459657" lon="8.006029967218638">
        <ele>1084.2</ele>
        <time>2010-08-29T13:50:43Z</time>
      </trkpt>
      <trkpt lat="45.759319961071014" lon="8.005970036610961">
        <ele>1085.4000000000001</ele>
        <time>2010-08-29T13:50:38Z</time>
      </trkpt>
      <trkpt lat="45.759230023249984" lon="8.005870040506125">
        <ele>1086</ele>
        <time>2010-08-29T13:50:31Z</time>
      </trkpt>
      <trkpt lat="45.759149976074696" lon="8.00579996779561">
        <ele>1086.9000000000001</ele>
        <time>2010-08-29T13:50:24Z</time>
      </trkpt>
      <trkpt lat="45.759060038253665" lon="8.005720004439354">
        <ele>1087.8</ele>
        <time>2010-08-29T13:50:16Z</time>
      </trkpt>
      <trkpt lat="45.758979991078377" lon="8.005650015547872">
        <ele>1090.3</ele>
        <time>2010-08-29T13:50:09Z</time>
      </trkpt>
      <trkpt lat="45.758910002186894" lon="8.005580026656389">
        <ele>1091.8</ele>
        <time>2010-08-29T13:50:02Z</time>
      </trkpt>
      <trkpt lat="45.758819980546832" lon="8.005510037764907">
        <ele>1094.2</ele>
        <time>2010-08-29T13:49:56Z</time>
      </trkpt>
      <trkpt lat="45.758719984441996" lon="8.005450023338199">
        <ele>1096.7</ele>
        <time>2010-08-29T13:49:46Z</time>
      </trkpt>
      <trkpt lat="45.758629962801933" lon="8.005439965054393">
        <ele>1097.9000000000001</ele>
        <time>2010-08-29T13:49:38Z</time>
      </trkpt>
      <trkpt lat="45.758540024980903" lon="8.005420016124845">
        <ele>1098.5</ele>
        <time>2010-08-29T13:49:30Z</time>
      </trkpt>
      <trkpt lat="45.75845000334084" lon="8.005360001698136">
        <ele>1100.3</ele>
        <time>2010-08-29T13:49:22Z</time>
      </trkpt>
      <trkpt lat="45.758370039984584" lon="8.00528003834188">
        <ele>1102.2</ele>
        <time>2010-08-29T13:49:15Z</time>
      </trkpt>
      <trkpt lat="45.758280018344522" lon="8.005229998379946">
        <ele>1103.4000000000001</ele>
        <time>2010-08-29T13:49:07Z</time>
      </trkpt>
      <trkpt lat="45.758189996704459" lon="8.005220023915172">
        <ele>1104.3</ele>
        <time>2010-08-29T13:49:00Z</time>
      </trkpt>
      <trkpt lat="45.758099975064397" lon="8.005220023915172">
        <ele>1105.2</ele>
        <time>2010-08-29T13:48:54Z</time>
      </trkpt>
      <trkpt lat="45.75799997895956" lon="8.005229998379946">
        <ele>1107</ele>
        <time>2010-08-29T13:48:47Z</time>
      </trkpt>
      <trkpt lat="45.75791004113853" lon="8.005220023915172">
        <ele>1107.9000000000001</ele>
        <time>2010-08-29T13:48:39Z</time>
      </trkpt>
      <trkpt lat="45.757809961214662" lon="8.005229998379946">
        <ele>1109.2</ele>
        <time>2010-08-29T13:48:31Z</time>
      </trkpt>
      <trkpt lat="45.757699990645051" lon="8.005220023915172">
        <ele>1111.9000000000001</ele>
        <time>2010-08-29T13:48:24Z</time>
      </trkpt>
      <trkpt lat="45.757609969004989" lon="8.00523997284472">
        <ele>1112.8</ele>
        <time>2010-08-29T13:48:16Z</time>
      </trkpt>
      <trkpt lat="45.757530005648732" lon="8.005290012806654">
        <ele>1114.3</ele>
        <time>2010-08-29T13:48:08Z</time>
      </trkpt>
      <trkpt lat="45.75743998400867" lon="8.005350027233362">
        <ele>1113.7</ele>
        <time>2010-08-29T13:48:00Z</time>
      </trkpt>
      <trkpt lat="45.757349962368608" lon="8.005339968949556">
        <ele>1113.4000000000001</ele>
        <time>2010-08-29T13:47:51Z</time>
      </trkpt>
      <trkpt lat="45.757269999012351" lon="8.0052600055933">
        <ele>1113.4000000000001</ele>
        <time>2010-08-29T13:47:43Z</time>
      </trkpt>
      <trkpt lat="45.757179977372289" lon="8.005139976739883">
        <ele>1114.7</ele>
        <time>2010-08-29T13:47:37Z</time>
      </trkpt>
      <trkpt lat="45.75711996294558" lon="8.005039980635047">
        <ele>1115.3</ele>
        <time>2010-08-29T13:47:30Z</time>
      </trkpt>
      <trkpt lat="45.757049974054098" lon="8.004969991743565">
        <ele>1115.9000000000001</ele>
        <time>2010-08-29T13:47:23Z</time>
      </trkpt>
      <trkpt lat="45.756979985162616" lon="8.004909977316856">
        <ele>1115.9000000000001</ele>
        <time>2010-08-29T13:47:15Z</time>
      </trkpt>
      <trkpt lat="45.757000017911196" lon="8.004909977316856">
        <ele>1116.8</ele>
        <time>2010-08-29T13:47:08Z</time>
      </trkpt>
      <trkpt lat="45.757130021229386" lon="8.004960017278791">
        <ele>1118.3</ele>
        <time>2010-08-29T13:47:02Z</time>
      </trkpt>
      <trkpt lat="45.757019966840744" lon="8.004930010065436">
        <ele>1118.3</ele>
        <time>2010-08-29T13:46:56Z</time>
      </trkpt>
      <trkpt lat="45.756919970735908" lon="8.004900002852082">
        <ele>1119.5</ele>
        <time>2010-08-29T13:46:51Z</time>
      </trkpt>
      <trkpt lat="45.756749985739589" lon="8.004860021173954">
        <ele>1120.4000000000001</ele>
        <time>2010-08-29T13:46:44Z</time>
      </trkpt>
      <trkpt lat="45.756640015169978" lon="8.004849962890148">
        <ele>1120.0999999999999</ele>
        <time>2010-08-29T13:46:39Z</time>
      </trkpt>
      <trkpt lat="45.756540019065142" lon="8.004800006747246">
        <ele>1120.4000000000001</ele>
        <time>2010-08-29T13:46:33Z</time>
      </trkpt>
      <trkpt lat="45.756429964676499" lon="8.004769999533892">
        <ele>1121.0999999999999</ele>
        <time>2010-08-29T13:46:26Z</time>
      </trkpt>
      <trkpt lat="45.756319994106889" lon="8.004739992320538">
        <ele>1122.5999999999999</ele>
        <time>2010-08-29T13:46:21Z</time>
      </trkpt>
      <trkpt lat="45.756199965253472" lon="8.004679977893829">
        <ele>1123.5</ele>
        <time>2010-08-29T13:46:14Z</time>
      </trkpt>
      <trkpt lat="45.75617004185915" lon="8.004560032859445">
        <ele>1124.4000000000001</ele>
        <time>2010-08-29T13:46:08Z</time>
      </trkpt>
      <trkpt lat="45.756189990788698" lon="8.004430029541254">
        <ele>1125</ele>
        <time>2010-08-29T13:46:01Z</time>
      </trkpt>
      <trkpt lat="45.756110027432442" lon="8.004409996792674">
        <ele>1124.4000000000001</ele>
        <time>2010-08-29T13:45:54Z</time>
      </trkpt>
      <trkpt lat="45.755980024114251" lon="8.0044000223279">
        <ele>1125</ele>
        <time>2010-08-29T13:45:49Z</time>
      </trkpt>
      <trkpt lat="45.755890002474189" lon="8.004330033436418">
        <ele>1123.8</ele>
        <time>2010-08-29T13:45:42Z</time>
      </trkpt>
      <trkpt lat="45.755850020796061" lon="8.004219979047775">
        <ele>1123.5</ele>
        <time>2010-08-29T13:45:34Z</time>
      </trkpt>
      <trkpt lat="45.755759999155998" lon="8.004179997369647">
        <ele>1123.5</ele>
        <time>2010-08-29T13:45:27Z</time>
      </trkpt>
      <trkpt lat="45.755650028586388" lon="8.004159964621067">
        <ele>1123.8</ele>
        <time>2010-08-29T13:45:19Z</time>
      </trkpt>
      <trkpt lat="45.755580039694905" lon="8.004089975729585">
        <ele>1125</ele>
        <time>2010-08-29T13:45:12Z</time>
      </trkpt>
      <trkpt lat="45.755539974197745" lon="8.004059968516231">
        <ele>1125.9000000000001</ele>
        <time>2010-08-29T13:45:04Z</time>
      </trkpt>
      <trkpt lat="45.755460010841489" lon="8.004010012373328">
        <ele>1127.8</ele>
        <time>2010-08-29T13:44:57Z</time>
      </trkpt>
      <trkpt lat="45.755330007523298" lon="8.003989979624748">
        <ele>1129.3</ele>
        <time>2010-08-29T13:44:52Z</time>
      </trkpt>
      <trkpt lat="45.755239985883236" lon="8.003980005159974">
        <ele>1130.2</ele>
        <time>2010-08-29T13:44:45Z</time>
      </trkpt>
      <trkpt lat="45.755149964243174" lon="8.003940023481846">
        <ele>1130.2</ele>
        <time>2010-08-29T13:44:37Z</time>
      </trkpt>
      <trkpt lat="45.755070000886917" lon="8.003880009055138">
        <ele>1130.8</ele>
        <time>2010-08-29T13:44:30Z</time>
      </trkpt>
      <trkpt lat="45.754970004782081" lon="8.003819994628429">
        <ele>1130.8</ele>
        <time>2010-08-29T13:44:22Z</time>
      </trkpt>
      <trkpt lat="45.754930023103952" lon="8.003719998523593">
        <ele>1131.0999999999999</ele>
        <time>2010-08-29T13:44:14Z</time>
      </trkpt>
      <trkpt lat="45.754849975928664" lon="8.003640035167337">
        <ele>1130.2</ele>
        <time>2010-08-29T13:44:05Z</time>
      </trkpt>
      <trkpt lat="45.754779987037182" lon="8.0035400390625">
        <ele>1129.3</ele>
        <time>2010-08-29T13:43:55Z</time>
      </trkpt>
      <trkpt lat="45.754770012572408" lon="8.003439959138632">
        <ele>1130.2</ele>
        <time>2010-08-29T13:43:47Z</time>
      </trkpt>
      <trkpt lat="45.754779987037182" lon="8.003410035744309">
        <ele>1129.3</ele>
        <time>2010-08-29T13:43:39Z</time>
      </trkpt>
      <trkpt lat="45.7547099981457" lon="8.003380028530955">
        <ele>1130.2</ele>
        <time>2010-08-29T13:43:35Z</time>
      </trkpt>
      <trkpt lat="45.754549987614155" lon="8.003350021317601">
        <ele>1131.7</ele>
        <time>2010-08-29T13:43:30Z</time>
      </trkpt>
      <trkpt lat="45.754340020939708" lon="8.003339963033795">
        <ele>1133.5999999999999</ele>
        <time>2010-08-29T13:43:24Z</time>
      </trkpt>
      <trkpt lat="45.75425997376442" lon="8.003329988569021">
        <ele>1133.5999999999999</ele>
        <time>2010-08-29T13:43:16Z</time>
      </trkpt>
      <trkpt lat="45.754159977659583" lon="8.003320014104247">
        <ele>1135.4000000000001</ele>
        <time>2010-08-29T13:43:09Z</time>
      </trkpt>
      <trkpt lat="45.754059981554747" lon="8.003269974142313">
        <ele>1136</ele>
        <time>2010-08-29T13:43:03Z</time>
      </trkpt>
      <trkpt lat="45.753940036520362" lon="8.003220017999411">
        <ele>1137.8</ele>
        <time>2010-08-29T13:42:57Z</time>
      </trkpt>
      <trkpt lat="45.75382998213172" lon="8.003169978037477">
        <ele>1139.5999999999999</ele>
        <time>2010-08-29T13:42:49Z</time>
      </trkpt>
      <trkpt lat="45.753790000453591" lon="8.003060007467866">
        <ele>1139.5999999999999</ele>
        <time>2010-08-29T13:42:41Z</time>
      </trkpt>
      <trkpt lat="45.753769967705011" lon="8.002950036898255">
        <ele>1139.5999999999999</ele>
        <time>2010-08-29T13:42:34Z</time>
      </trkpt>
      <trkpt lat="45.753710037097335" lon="8.002860015258193">
        <ele>1139.5999999999999</ele>
        <time>2010-08-29T13:42:27Z</time>
      </trkpt>
      <trkpt lat="45.753629989922047" lon="8.002800000831485">
        <ele>1139.5999999999999</ele>
        <time>2010-08-29T13:42:19Z</time>
      </trkpt>
      <trkpt lat="45.75355002656579" lon="8.002730011940002">
        <ele>1140.9000000000001</ele>
        <time>2010-08-29T13:42:13Z</time>
      </trkpt>
      <trkpt lat="45.7534200232476" lon="8.002649964764714">
        <ele>1141.2</ele>
        <time>2010-08-29T13:42:06Z</time>
      </trkpt>
      <trkpt lat="45.753350034356117" lon="8.00253001973033">
        <ele>1142.0999999999999</ele>
        <time>2010-08-29T13:41:59Z</time>
      </trkpt>
      <trkpt lat="45.753339976072311" lon="8.002409990876913">
        <ele>1142.0999999999999</ele>
        <time>2010-08-29T13:41:52Z</time>
      </trkpt>
      <trkpt lat="45.753250038251281" lon="8.002379983663559">
        <ele>1144.2</ele>
        <time>2010-08-29T13:41:43Z</time>
      </trkpt>
      <trkpt lat="45.753160016611218" lon="8.002319969236851">
        <ele>1145.0999999999999</ele>
        <time>2010-08-29T13:41:36Z</time>
      </trkpt>
      <trkpt lat="45.75310000218451" lon="8.002249980345368">
        <ele>1147</ele>
        <time>2010-08-29T13:41:29Z</time>
      </trkpt>
      <trkpt lat="45.753000006079674" lon="8.002159958705306">
        <ele>1148.5</ele>
        <time>2010-08-29T13:41:23Z</time>
      </trkpt>
      <trkpt lat="45.752909984439611" lon="8.00207999534905">
        <ele>1150</ele>
        <time>2010-08-29T13:41:16Z</time>
      </trkpt>
      <trkpt lat="45.752770006656647" lon="8.002010006457567">
        <ele>1150.3</ele>
        <time>2010-08-29T13:41:06Z</time>
      </trkpt>
      <trkpt lat="45.752689959481359" lon="8.001959966495633">
        <ele>1150.3</ele>
        <time>2010-08-29T13:41:01Z</time>
      </trkpt>
      <trkpt lat="45.752609996125102" lon="8.001870028674603">
        <ele>1151.2</ele>
        <time>2010-08-29T13:40:54Z</time>
      </trkpt>
      <trkpt lat="45.752500025555491" lon="8.00180003978312">
        <ele>1151.8</ele>
        <time>2010-08-29T13:40:46Z</time>
      </trkpt>
      <trkpt lat="45.752400029450655" lon="8.001729967072606">
        <ele>1152.8</ele>
        <time>2010-08-29T13:40:38Z</time>
      </trkpt>
      <trkpt lat="45.752340015023947" lon="8.001689985394478">
        <ele>1153.7</ele>
        <time>2010-08-29T13:40:30Z</time>
      </trkpt>
      <trkpt lat="45.752259967848659" lon="8.001619996502996">
        <ele>1154.5999999999999</ele>
        <time>2010-08-29T13:40:23Z</time>
      </trkpt>
      <trkpt lat="45.752180004492402" lon="8.001540033146739">
        <ele>1155.8</ele>
        <time>2010-08-29T13:40:17Z</time>
      </trkpt>
      <trkpt lat="45.752100041136146" lon="8.001469960436225">
        <ele>1156.0999999999999</ele>
        <time>2010-08-29T13:40:10Z</time>
      </trkpt>
      <trkpt lat="45.752029968425632" lon="8.001399971544743">
        <ele>1156.7</ele>
        <time>2010-08-29T13:40:03Z</time>
      </trkpt>
      <trkpt lat="45.751940030604601" lon="8.00135001540184">
        <ele>1156.7</ele>
        <time>2010-08-29T13:39:58Z</time>
      </trkpt>
      <trkpt lat="45.751870041713119" lon="8.001280026510358">
        <ele>1156.7</ele>
        <time>2010-08-29T13:39:51Z</time>
      </trkpt>
      <trkpt lat="45.75178999453783" lon="8.00122001208365">
        <ele>1156.7</ele>
        <time>2010-08-29T13:39:44Z</time>
      </trkpt>
      <trkpt lat="45.751689998432994" lon="8.001169972121716">
        <ele>1157.5999999999999</ele>
        <time>2010-08-29T13:39:37Z</time>
      </trkpt>
      <trkpt lat="45.751610035076737" lon="8.001120015978813">
        <ele>1159.2</ele>
        <time>2010-08-29T13:39:32Z</time>
      </trkpt>
      <trkpt lat="45.751529987901449" lon="8.001069976016879">
        <ele>1160.0999999999999</ele>
        <time>2010-08-29T13:39:25Z</time>
      </trkpt>
      <trkpt lat="45.751450024545193" lon="8.000999987125397">
        <ele>1160.0999999999999</ele>
        <time>2010-08-29T13:39:20Z</time>
      </trkpt>
      <trkpt lat="45.75136000290513" lon="8.00092002376914">
        <ele>1160.4000000000001</ele>
        <time>2010-08-29T13:39:13Z</time>
      </trkpt>
      <trkpt lat="45.751280039548874" lon="8.000860009342432">
        <ele>1162.5</ele>
        <time>2010-08-29T13:39:05Z</time>
      </trkpt>
      <trkpt lat="45.751190017908812" lon="8.000820027664304">
        <ele>1162.8</ele>
        <time>2010-08-29T13:38:58Z</time>
      </trkpt>
      <trkpt lat="45.751120029017329" lon="8.000720031559467">
        <ele>1163.4000000000001</ele>
        <time>2010-08-29T13:38:51Z</time>
      </trkpt>
      <trkpt lat="45.751020032912493" lon="8.000709973275662">
        <ele>1165.3</ele>
        <time>2010-08-29T13:38:45Z</time>
      </trkpt>
      <trkpt lat="45.750920036807656" lon="8.000660017132759">
        <ele>1165.3</ele>
        <time>2010-08-29T13:38:37Z</time>
      </trkpt>
      <trkpt lat="45.75082004070282" lon="8.000609977170825">
        <ele>1167.0999999999999</ele>
        <time>2010-08-29T13:38:30Z</time>
      </trkpt>
      <trkpt lat="45.750749967992306" lon="8.000520039349794">
        <ele>1170.4000000000001</ele>
        <time>2010-08-29T13:38:23Z</time>
      </trkpt>
      <trkpt lat="45.750700011849403" lon="8.000419959425926">
        <ele>1173.5</ele>
        <time>2010-08-29T13:38:15Z</time>
      </trkpt>
      <trkpt lat="45.750649971887469" lon="8.00031996332109">
        <ele>1175.9000000000001</ele>
        <time>2010-08-29T13:38:07Z</time>
      </trkpt>
      <trkpt lat="45.750670004636049" lon="8.000230025500059">
        <ele>1178.7</ele>
        <time>2010-08-29T13:38:00Z</time>
      </trkpt>
      <trkpt lat="45.750630022957921" lon="8.000119971111417">
        <ele>1180.8</ele>
        <time>2010-08-29T13:37:53Z</time>
      </trkpt>
      <trkpt lat="45.750590041279793" lon="8.000089963898063">
        <ele>1183.5</ele>
        <time>2010-08-29T13:36:04Z</time>
      </trkpt>
      <trkpt lat="45.750590041279793" lon="8.000070014968514">
        <ele>1183.5</ele>
        <time>2010-08-29T13:32:21Z</time>
      </trkpt>
      <trkpt lat="45.750530026853085" lon="7.999979993328452">
        <ele>1184.0999999999999</ele>
        <time>2010-08-29T13:31:03Z</time>
      </trkpt>
      <trkpt lat="45.750460037961602" lon="7.999919978901744">
        <ele>1184.0999999999999</ele>
        <time>2010-08-29T13:30:55Z</time>
      </trkpt>
      <trkpt lat="45.750379990786314" lon="7.999859964475036">
        <ele>1184.5</ele>
        <time>2010-08-29T13:30:47Z</time>
      </trkpt>
      <trkpt lat="45.750300027430058" lon="7.999810008332133">
        <ele>1186</ele>
        <time>2010-08-29T13:30:40Z</time>
      </trkpt>
      <trkpt lat="45.750240013003349" lon="7.999729961156845">
        <ele>1186.9000000000001</ele>
        <time>2010-08-29T13:30:32Z</time>
      </trkpt>
      <trkpt lat="45.750149991363287" lon="7.999710012227297">
        <ele>1188.4000000000001</ele>
        <time>2010-08-29T13:30:25Z</time>
      </trkpt>
      <trkpt lat="45.750040020793676" lon="7.999780001118779">
        <ele>1187.8</ele>
        <time>2010-08-29T13:30:17Z</time>
      </trkpt>
      <trkpt lat="45.74994002468884" lon="7.999770026654005">
        <ele>1187.5</ele>
        <time>2010-08-29T13:30:09Z</time>
      </trkpt>
      <trkpt lat="45.749840028584003" lon="7.999770026654005">
        <ele>1187.8</ele>
        <time>2010-08-29T13:30:00Z</time>
      </trkpt>
      <trkpt lat="45.749750006943941" lon="7.999749993905425">
        <ele>1187.8</ele>
        <time>2010-08-29T13:29:50Z</time>
      </trkpt>
      <trkpt lat="45.749669959768653" lon="7.999659972265363">
        <ele>1187.5</ele>
        <time>2010-08-29T13:29:42Z</time>
      </trkpt>
      <trkpt lat="45.749599970877171" lon="7.99958998337388">
        <ele>1189.3</ele>
        <time>2010-08-29T13:29:34Z</time>
      </trkpt>
      <trkpt lat="45.749529981985688" lon="7.999499961733818">
        <ele>1188.4000000000001</ele>
        <time>2010-08-29T13:29:26Z</time>
      </trkpt>
      <trkpt lat="45.749540040269494" lon="7.999359983950853">
        <ele>1189.3</ele>
        <time>2010-08-29T13:29:18Z</time>
      </trkpt>
      <trkpt lat="45.74949000030756" lon="7.999269962310791">
        <ele>1188.7</ele>
        <time>2010-08-29T13:29:08Z</time>
      </trkpt>
      <trkpt lat="45.749410036951303" lon="7.999220006167889">
        <ele>1188.4000000000001</ele>
        <time>2010-08-29T13:28:59Z</time>
      </trkpt>
      <trkpt lat="45.749320015311241" lon="7.999280020594597">
        <ele>1189.5999999999999</ele>
        <time>2010-08-29T13:28:49Z</time>
      </trkpt>
      <trkpt lat="45.749250026419759" lon="7.999189998954535">
        <ele>1190.9000000000001</ele>
        <time>2010-08-29T13:28:40Z</time>
      </trkpt>
      <trkpt lat="45.749220019206405" lon="7.999069970101118">
        <ele>1192.7</ele>
        <time>2010-08-29T13:28:33Z</time>
      </trkpt>
      <trkpt lat="45.749169979244471" lon="7.998969973996282">
        <ele>1192.7</ele>
        <time>2010-08-29T13:28:25Z</time>
      </trkpt>
      <trkpt lat="45.74908004142344" lon="7.998890010640025">
        <ele>1194.2</ele>
        <time>2010-08-29T13:28:17Z</time>
      </trkpt>
      <trkpt lat="45.749009968712926" lon="7.998820021748543">
        <ele>1194.2</ele>
        <time>2010-08-29T13:28:10Z</time>
      </trkpt>
      <trkpt lat="45.748939979821444" lon="7.998730000108481">
        <ele>1195.0999999999999</ele>
        <time>2010-08-29T13:28:02Z</time>
      </trkpt>
      <trkpt lat="45.748879965394735" lon="7.998609971255064">
        <ele>1194.5</ele>
        <time>2010-08-29T13:27:54Z</time>
      </trkpt>
      <trkpt lat="45.748830009251833" lon="7.998490026220679">
        <ele>1194.5</ele>
        <time>2010-08-29T13:27:46Z</time>
      </trkpt>
      <trkpt lat="45.748779969289899" lon="7.998400004580617">
        <ele>1194.5</ele>
        <time>2010-08-29T13:27:39Z</time>
      </trkpt>
      <trkpt lat="45.748700005933642" lon="7.998320041224361">
        <ele>1195.4000000000001</ele>
        <time>2010-08-29T13:27:31Z</time>
      </trkpt>
      <trkpt lat="45.748639991506934" lon="7.998249968513846">
        <ele>1194.2</ele>
        <time>2010-08-29T13:27:23Z</time>
      </trkpt>
      <trkpt lat="45.748549969866872" lon="7.998179979622364">
        <ele>1194.2</ele>
        <time>2010-08-29T13:27:14Z</time>
      </trkpt>
      <trkpt lat="45.748470006510615" lon="7.998130023479462">
        <ele>1195.0999999999999</ele>
        <time>2010-08-29T13:27:05Z</time>
      </trkpt>
      <trkpt lat="45.748389959335327" lon="7.998079983517528">
        <ele>1196.9000000000001</ele>
        <time>2010-08-29T13:26:57Z</time>
      </trkpt>
      <trkpt lat="45.748300021514297" lon="7.998079983517528">
        <ele>1197.5999999999999</ele>
        <time>2010-08-29T13:26:49Z</time>
      </trkpt>
      <trkpt lat="45.748209999874234" lon="7.998060034587979">
        <ele>1196.9000000000001</ele>
        <time>2010-08-29T13:26:41Z</time>
      </trkpt>
      <trkpt lat="45.748089971020818" lon="7.998090041801333">
        <ele>1198.8</ele>
        <time>2010-08-29T13:26:33Z</time>
      </trkpt>
      <trkpt lat="45.748000033199787" lon="7.998060034587979">
        <ele>1198.8</ele>
        <time>2010-08-29T13:26:24Z</time>
      </trkpt>
      <trkpt lat="45.747929960489273" lon="7.997949980199337">
        <ele>1200</ele>
        <time>2010-08-29T13:26:14Z</time>
      </trkpt>
      <trkpt lat="45.747870029881597" lon="7.997919972985983">
        <ele>1200.9000000000001</ele>
        <time>2010-08-29T13:26:06Z</time>
      </trkpt>
      <trkpt lat="45.747780008241534" lon="7.997900024056435">
        <ele>1201.2</ele>
        <time>2010-08-29T13:25:58Z</time>
      </trkpt>
      <trkpt lat="45.747710019350052" lon="7.997819976881146">
        <ele>1201.2</ele>
        <time>2010-08-29T13:25:51Z</time>
      </trkpt>
      <trkpt lat="45.74761999770999" lon="7.99774001352489">
        <ele>1202.7</ele>
        <time>2010-08-29T13:25:43Z</time>
      </trkpt>
      <trkpt lat="45.747559983283281" lon="7.997670024633408">
        <ele>1203.7</ele>
        <time>2010-08-29T13:25:35Z</time>
      </trkpt>
      <trkpt lat="45.747480019927025" lon="7.997610010206699">
        <ele>1205.2</ele>
        <time>2010-08-29T13:25:28Z</time>
      </trkpt>
      <trkpt lat="45.747429979965091" lon="7.997519988566637">
        <ele>1207</ele>
        <time>2010-08-29T13:25:20Z</time>
      </trkpt>
      <trkpt lat="45.747369965538383" lon="7.997440025210381">
        <ele>1207.9000000000001</ele>
        <time>2010-08-29T13:25:12Z</time>
      </trkpt>
      <trkpt lat="45.7472999766469" lon="7.997370036318898">
        <ele>1210.4000000000001</ele>
        <time>2010-08-29T13:25:04Z</time>
      </trkpt>
      <trkpt lat="45.747250020503998" lon="7.997250007465482">
        <ele>1211</ele>
        <time>2010-08-29T13:24:56Z</time>
      </trkpt>
      <trkpt lat="45.747139966115355" lon="7.997189993038774">
        <ele>1211</ele>
        <time>2010-08-29T13:24:48Z</time>
      </trkpt>
      <trkpt lat="45.747060002759099" lon="7.997089996933937">
        <ele>1211</ele>
        <time>2010-08-29T13:24:40Z</time>
      </trkpt>
      <trkpt lat="45.746980039402843" lon="7.997010033577681">
        <ele>1211</ele>
        <time>2010-08-29T13:24:30Z</time>
      </trkpt>
      <trkpt lat="45.746920024976134" lon="7.996920011937618">
        <ele>1211.9000000000001</ele>
        <time>2010-08-29T13:24:22Z</time>
      </trkpt>
      <trkpt lat="45.746820028871298" lon="7.996829990297556">
        <ele>1211.9000000000001</ele>
        <time>2010-08-29T13:24:14Z</time>
      </trkpt>
      <trkpt lat="45.746709974482656" lon="7.996799983084202">
        <ele>1211.9000000000001</ele>
        <time>2010-08-29T13:24:05Z</time>
      </trkpt>
      <trkpt lat="45.746630011126399" lon="7.996660005301237">
        <ele>1212.8</ele>
        <time>2010-08-29T13:23:55Z</time>
      </trkpt>
      <trkpt lat="45.746520040556788" lon="7.996609965339303">
        <ele>1211.9000000000001</ele>
        <time>2010-08-29T13:23:42Z</time>
      </trkpt>
      <trkpt lat="45.74641996063292" lon="7.996560009196401">
        <ele>1212.5</ele>
        <time>2010-08-29T13:23:33Z</time>
      </trkpt>
      <trkpt lat="45.746279982849956" lon="7.996550034731627">
        <ele>1211.9000000000001</ele>
        <time>2010-08-29T13:23:21Z</time>
      </trkpt>
      <trkpt lat="45.746140005066991" lon="7.996539976447821">
        <ele>1213.4000000000001</ele>
        <time>2010-08-29T13:23:09Z</time>
      </trkpt>
      <trkpt lat="45.746000027284026" lon="7.996460013091564">
        <ele>1215.2</ele>
        <time>2010-08-29T13:22:57Z</time>
      </trkpt>
      <trkpt lat="45.745889972895384" lon="7.996379965916276">
        <ele>1217.7</ele>
        <time>2010-08-29T13:22:46Z</time>
      </trkpt>
      <trkpt lat="45.745789976790547" lon="7.996309977024794">
        <ele>1220.0999999999999</ele>
        <time>2010-08-29T13:22:33Z</time>
      </trkpt>
      <trkpt lat="45.745629966259003" lon="7.996239988133311">
        <ele>1223.5</ele>
        <time>2010-08-29T13:22:14Z</time>
      </trkpt>
      <trkpt lat="45.745529970154166" lon="7.996169999241829">
        <ele>1225.9000000000001</ele>
        <time>2010-08-29T13:22:02Z</time>
      </trkpt>
      <trkpt lat="45.745380017906427" lon="7.996130017563701">
        <ele>1228.5999999999999</ele>
        <time>2010-08-29T13:21:50Z</time>
      </trkpt>
      <trkpt lat="45.745289996266365" lon="7.996119959279895">
        <ele>1227.7</ele>
        <time>2010-08-29T13:21:40Z</time>
      </trkpt>
      <trkpt lat="45.745240040123463" lon="7.996009988710284">
        <ele>1227.0999999999999</ele>
        <time>2010-08-29T13:21:32Z</time>
      </trkpt>
      <trkpt lat="45.745299970731139" lon="7.99584997817874">
        <ele>1227.0999999999999</ele>
        <time>2010-08-29T13:21:25Z</time>
      </trkpt>
      <trkpt lat="45.745210032910109" lon="7.995800022035837">
        <ele>1227.7</ele>
        <time>2010-08-29T13:21:17Z</time>
      </trkpt>
      <trkpt lat="45.745120011270046" lon="7.995800022035837">
        <ele>1229.5999999999999</ele>
        <time>2010-08-29T13:21:06Z</time>
      </trkpt>
      <trkpt lat="45.745029989629984" lon="7.995770014822483">
        <ele>1230.2</ele>
        <time>2010-08-29T13:20:58Z</time>
      </trkpt>
      <trkpt lat="45.744969975203276" lon="7.995689967647195">
        <ele>1229.3</ele>
        <time>2010-08-29T13:20:50Z</time>
      </trkpt>
      <trkpt lat="45.744899986311793" lon="7.995610004290938">
        <ele>1229.3</ele>
        <time>2010-08-29T13:20:42Z</time>
      </trkpt>
      <trkpt lat="45.744829997420311" lon="7.995530040934682">
        <ele>1229.3</ele>
        <time>2010-08-29T13:20:35Z</time>
      </trkpt>
      <trkpt lat="45.744760008528829" lon="7.995449993759394">
        <ele>1229.5999999999999</ele>
        <time>2010-08-29T13:20:27Z</time>
      </trkpt>
      <trkpt lat="45.74469999410212" lon="7.995340023189783">
        <ele>1231.7</ele>
        <time>2010-08-29T13:20:20Z</time>
      </trkpt>
      <trkpt lat="45.744639979675412" lon="7.995240027084947">
        <ele>1232</ele>
        <time>2010-08-29T13:20:11Z</time>
      </trkpt>
      <trkpt lat="45.744539983570576" lon="7.995210019871593">
        <ele>1234.0999999999999</ele>
        <time>2010-08-29T13:20:03Z</time>
      </trkpt>
      <trkpt lat="45.744449961930513" lon="7.995159979909658">
        <ele>1235.4000000000001</ele>
        <time>2010-08-29T13:19:55Z</time>
      </trkpt>
      <trkpt lat="45.744369998574257" lon="7.995089991018176">
        <ele>1236.3</ele>
        <time>2010-08-29T13:19:47Z</time>
      </trkpt>
      <trkpt lat="45.744290035218" lon="7.995029976591468">
        <ele>1236.9000000000001</ele>
        <time>2010-08-29T13:19:39Z</time>
      </trkpt>
      <trkpt lat="45.744209988042712" lon="7.994950013235211">
        <ele>1236.9000000000001</ele>
        <time>2010-08-29T13:19:29Z</time>
      </trkpt>
      <trkpt lat="45.744170006364584" lon="7.994829984381795">
        <ele>1237.5</ele>
        <time>2010-08-29T13:19:21Z</time>
      </trkpt>
      <trkpt lat="45.744060035794973" lon="7.994799977168441">
        <ele>1237.5</ele>
        <time>2010-08-29T13:19:10Z</time>
      </trkpt>
      <trkpt lat="45.744049977511168" lon="7.994629992172122">
        <ele>1236.9000000000001</ele>
        <time>2010-08-29T13:19:02Z</time>
      </trkpt>
      <trkpt lat="45.744009995833039" lon="7.994509963318706">
        <ele>1237.5</ele>
        <time>2010-08-29T13:18:54Z</time>
      </trkpt>
      <trkpt lat="45.743919974192977" lon="7.994439974427223">
        <ele>1236.3</ele>
        <time>2010-08-29T13:18:45Z</time>
      </trkpt>
      <trkpt lat="45.743870018050075" lon="7.994290022179484">
        <ele>1238.4000000000001</ele>
        <time>2010-08-29T13:18:35Z</time>
      </trkpt>
      <trkpt lat="45.743789970874786" lon="7.994220033288002">
        <ele>1239.3</ele>
        <time>2010-08-29T13:18:27Z</time>
      </trkpt>
      <trkpt lat="45.74371000751853" lon="7.994169993326068">
        <ele>1239.5999999999999</ele>
        <time>2010-08-29T13:18:19Z</time>
      </trkpt>
      <trkpt lat="45.743619985878468" lon="7.99413001164794">
        <ele>1240.8</ele>
        <time>2010-08-29T13:18:11Z</time>
      </trkpt>
      <trkpt lat="45.743540022522211" lon="7.994039990007877">
        <ele>1244.2</ele>
        <time>2010-08-29T13:18:00Z</time>
      </trkpt>
      <trkpt lat="45.743459975346923" lon="7.993990033864975">
        <ele>1244.5</ele>
        <time>2010-08-29T13:17:52Z</time>
      </trkpt>
      <trkpt lat="45.743350004777312" lon="7.993960026651621">
        <ele>1245.0999999999999</ele>
        <time>2010-08-29T13:17:45Z</time>
      </trkpt>
      <trkpt lat="45.743250008672476" lon="7.993930019438267">
        <ele>1246.9000000000001</ele>
        <time>2010-08-29T13:17:36Z</time>
      </trkpt>
      <trkpt lat="45.743159987032413" lon="7.993909986689687">
        <ele>1247.5</ele>
        <time>2010-08-29T13:17:28Z</time>
      </trkpt>
      <trkpt lat="45.743050016462803" lon="7.993800016120076">
        <ele>1248.5</ele>
        <time>2010-08-29T13:17:13Z</time>
      </trkpt>
      <trkpt lat="45.742980027571321" lon="7.99367998726666">
        <ele>1250</ele>
        <time>2010-08-29T13:17:05Z</time>
      </trkpt>
      <trkpt lat="45.742880031466484" lon="7.993570016697049">
        <ele>1254.5999999999999</ele>
        <time>2010-08-29T13:16:46Z</time>
      </trkpt>
      <trkpt lat="45.742790009826422" lon="7.993530035018921">
        <ele>1257</ele>
        <time>2010-08-29T13:16:32Z</time>
      </trkpt>
      <trkpt lat="45.742690013721585" lon="7.993489969521761">
        <ele>1259.4000000000001</ele>
        <time>2010-08-29T13:16:24Z</time>
      </trkpt>
      <trkpt lat="45.742599992081523" lon="7.993430038914084">
        <ele>1262.5</ele>
        <time>2010-08-29T13:16:12Z</time>
      </trkpt>
      <trkpt lat="45.742550035938621" lon="7.993349991738796">
        <ele>1264.5999999999999</ele>
        <time>2010-08-29T13:16:01Z</time>
      </trkpt>
      <trkpt lat="45.742479963228106" lon="7.99324999563396">
        <ele>1264.5999999999999</ele>
        <time>2010-08-29T13:15:53Z</time>
      </trkpt>
      <trkpt lat="45.742409974336624" lon="7.993189981207252">
        <ele>1267.0999999999999</ele>
        <time>2010-08-29T13:15:44Z</time>
      </trkpt>
      <trkpt lat="45.742309978231788" lon="7.993170032277703">
        <ele>1269.2</ele>
        <time>2010-08-29T13:15:36Z</time>
      </trkpt>
      <trkpt lat="45.742230014875531" lon="7.993119992315769">
        <ele>1269.2</ele>
        <time>2010-08-29T13:15:27Z</time>
      </trkpt>
      <trkpt lat="45.742149967700243" lon="7.993050003424287">
        <ele>1268.5999999999999</ele>
        <time>2010-08-29T13:15:19Z</time>
      </trkpt>
      <trkpt lat="45.742070004343987" lon="7.992959981784225">
        <ele>1269.2</ele>
        <time>2010-08-29T13:15:11Z</time>
      </trkpt>
      <trkpt lat="45.742000015452504" lon="7.992889992892742">
        <ele>1270.0999999999999</ele>
        <time>2010-08-29T13:15:05Z</time>
      </trkpt>
      <trkpt lat="45.741919968277216" lon="7.992810029536486">
        <ele>1270.4000000000001</ele>
        <time>2010-08-29T13:14:56Z</time>
      </trkpt>
      <trkpt lat="45.741840004920959" lon="7.992729982361198">
        <ele>1272.5</ele>
        <time>2010-08-29T13:14:48Z</time>
      </trkpt>
      <trkpt lat="45.741789964959025" lon="7.992620011791587">
        <ele>1273.8</ele>
        <time>2010-08-29T13:14:42Z</time>
      </trkpt>
      <trkpt lat="45.741700027137995" lon="7.992599979043007">
        <ele>1272.8</ele>
        <time>2010-08-29T13:14:33Z</time>
      </trkpt>
      <trkpt lat="45.741619979962707" lon="7.992529990151525">
        <ele>1274.4000000000001</ele>
        <time>2010-08-29T13:14:24Z</time>
      </trkpt>
      <trkpt lat="45.741549991071224" lon="7.992450026795268">
        <ele>1275.3</ele>
        <time>2010-08-29T13:14:16Z</time>
      </trkpt>
      <trkpt lat="45.741449994966388" lon="7.992409961298108">
        <ele>1276.2</ele>
        <time>2010-08-29T13:14:06Z</time>
      </trkpt>
      <trkpt lat="45.741349998861551" lon="7.992399986833334">
        <ele>1277.0999999999999</ele>
        <time>2010-08-29T13:13:58Z</time>
      </trkpt>
      <trkpt lat="45.741259977221489" lon="7.99236997961998">
        <ele>1278.3</ele>
        <time>2010-08-29T13:13:52Z</time>
      </trkpt>
      <trkpt lat="45.741159981116652" lon="7.992360005155206">
        <ele>1279.5999999999999</ele>
        <time>2010-08-29T13:13:44Z</time>
      </trkpt>
      <trkpt lat="45.74106995947659" lon="7.992320023477078">
        <ele>1282.5999999999999</ele>
        <time>2010-08-29T13:13:35Z</time>
      </trkpt>
      <trkpt lat="45.74098002165556" lon="7.992250034585595">
        <ele>1285.3</ele>
        <time>2010-08-29T13:13:27Z</time>
      </trkpt>
      <trkpt lat="45.741010028868914" lon="7.992160012945533">
        <ele>1287.8</ele>
        <time>2010-08-29T13:13:17Z</time>
      </trkpt>
      <trkpt lat="45.741140032187104" lon="7.992039984092116">
        <ele>1292.7</ele>
        <time>2010-08-29T13:12:58Z</time>
      </trkpt>
      <trkpt lat="45.741150006651878" lon="7.991890031844378">
        <ele>1297.5</ele>
        <time>2010-08-29T13:12:48Z</time>
      </trkpt>
      <trkpt lat="45.74108999222517" lon="7.991709988564253">
        <ele>1297.8</ele>
        <time>2010-08-29T13:12:33Z</time>
      </trkpt>
      <trkpt lat="45.740929981693625" lon="7.991709988564253">
        <ele>1300.9000000000001</ele>
        <time>2010-08-29T13:12:17Z</time>
      </trkpt>
      <trkpt lat="45.740910032764077" lon="7.991589959710836">
        <ele>1302.7</ele>
        <time>2010-08-29T13:12:06Z</time>
      </trkpt>
      <trkpt lat="45.740859992802143" lon="7.991470014676452">
        <ele>1304.5</ele>
        <time>2010-08-29T13:11:54Z</time>
      </trkpt>
      <trkpt lat="45.740769971162081" lon="7.991419974714518">
        <ele>1308.5</ele>
        <time>2010-08-29T13:11:41Z</time>
      </trkpt>
      <trkpt lat="45.740690007805824" lon="7.991310004144907">
        <ele>1310.3</ele>
        <time>2010-08-29T13:11:20Z</time>
      </trkpt>
      <trkpt lat="45.740609960630536" lon="7.991249989718199">
        <ele>1311.2</ele>
        <time>2010-08-29T13:10:56Z</time>
      </trkpt>
      <trkpt lat="45.740539971739054" lon="7.991149993613362">
        <ele>1312.8</ele>
        <time>2010-08-29T13:10:45Z</time>
      </trkpt>
      <trkpt lat="45.740490015596151" lon="7.991040023043752">
        <ele>1315.2</ele>
        <time>2010-08-29T13:10:35Z</time>
      </trkpt>
      <trkpt lat="45.740439975634217" lon="7.990940026938915">
        <ele>1317.7</ele>
        <time>2010-08-29T13:10:25Z</time>
      </trkpt>
      <trkpt lat="45.740390019491315" lon="7.990810023620725">
        <ele>1318.5999999999999</ele>
        <time>2010-08-29T13:10:17Z</time>
      </trkpt>
      <trkpt lat="45.740290023386478" lon="7.990780016407371">
        <ele>1319.5</ele>
        <time>2010-08-29T13:10:06Z</time>
      </trkpt>
      <trkpt lat="45.740260016173124" lon="7.990659987553954">
        <ele>1320.4000000000001</ele>
        <time>2010-08-29T13:09:58Z</time>
      </trkpt>
      <trkpt lat="45.740190027281642" lon="7.990589998662472">
        <ele>1322.5</ele>
        <time>2010-08-29T13:09:49Z</time>
      </trkpt>
      <trkpt lat="45.740139987319708" lon="7.990480028092861">
        <ele>1324.4000000000001</ele>
        <time>2010-08-29T13:09:39Z</time>
      </trkpt>
      <trkpt lat="45.740049965679646" lon="7.990450020879507">
        <ele>1327.4000000000001</ele>
        <time>2010-08-29T13:09:31Z</time>
      </trkpt>
      <trkpt lat="45.739970002323389" lon="7.990399980917573">
        <ele>1328.5999999999999</ele>
        <time>2010-08-29T13:09:23Z</time>
      </trkpt>
      <trkpt lat="45.739949969574809" lon="7.990269977599382">
        <ele>1330.8</ele>
        <time>2010-08-29T13:09:14Z</time>
      </trkpt>
      <trkpt lat="45.739919962361455" lon="7.990150032564998">
        <ele>1332.9000000000001</ele>
        <time>2010-08-29T13:09:04Z</time>
      </trkpt>
      <trkpt lat="45.739849973469973" lon="7.99009001813829">
        <ele>1335.3</ele>
        <time>2010-08-29T13:08:52Z</time>
      </trkpt>
      <trkpt lat="45.739839999005198" lon="7.989979963749647">
        <ele>1338.4000000000001</ele>
        <time>2010-08-29T13:08:41Z</time>
      </trkpt>
      <trkpt lat="45.739839999005198" lon="7.989809978753328">
        <ele>1341.0999999999999</ele>
        <time>2010-08-29T13:08:28Z</time>
      </trkpt>
      <trkpt lat="45.739819966256618" lon="7.989649968221784">
        <ele>1342</ele>
        <time>2010-08-29T13:08:18Z</time>
      </trkpt>
      <trkpt lat="45.739819966256618" lon="7.989500015974045">
        <ele>1344.2</ele>
        <time>2010-08-29T13:08:07Z</time>
      </trkpt>
      <trkpt lat="45.73980001732707" lon="7.989349979907274">
        <ele>1347.8</ele>
        <time>2010-08-29T13:07:57Z</time>
      </trkpt>
      <trkpt lat="45.739749977365136" lon="7.98923003487289">
        <ele>1348.7</ele>
        <time>2010-08-29T13:07:43Z</time>
      </trkpt>
      <trkpt lat="45.739730028435588" lon="7.989089973270893">
        <ele>1350.9000000000001</ele>
        <time>2010-08-29T13:07:32Z</time>
      </trkpt>
      <trkpt lat="45.739749977365136" lon="7.988929962739348">
        <ele>1352.4000000000001</ele>
        <time>2010-08-29T13:07:24Z</time>
      </trkpt>
      <trkpt lat="45.739719970151782" lon="7.988810017704964">
        <ele>1353.5999999999999</ele>
        <time>2010-08-29T13:07:12Z</time>
      </trkpt>
      <trkpt lat="45.739689962938428" lon="7.988670039921999">
        <ele>1357.9000000000001</ele>
        <time>2010-08-29T13:06:53Z</time>
      </trkpt>
      <trkpt lat="45.73967001400888" lon="7.988529978320003">
        <ele>1360.9000000000001</ele>
        <time>2010-08-29T13:06:42Z</time>
      </trkpt>
      <trkpt lat="45.739630032330751" lon="7.988420007750392">
        <ele>1361.8</ele>
        <time>2010-08-29T13:06:32Z</time>
      </trkpt>
      <trkpt lat="45.739559959620237" lon="7.988320011645556">
        <ele>1364.9000000000001</ele>
        <time>2010-08-29T13:06:19Z</time>
      </trkpt>
      <trkpt lat="45.739510003477335" lon="7.988229990005493">
        <ele>1366.7</ele>
        <time>2010-08-29T13:06:09Z</time>
      </trkpt>
      <trkpt lat="45.739500029012561" lon="7.988099986687303">
        <ele>1368.2</ele>
        <time>2010-08-29T13:05:59Z</time>
      </trkpt>
      <trkpt lat="45.739470021799207" lon="7.987980041652918">
        <ele>1369.5</ele>
        <time>2010-08-29T13:05:51Z</time>
      </trkpt>
      <trkpt lat="45.739449989050627" lon="7.987890020012856">
        <ele>1370.4000000000001</ele>
        <time>2010-08-29T13:04:38Z</time>
      </trkpt>
      <trkpt lat="45.739400032907724" lon="7.987799998372793">
        <ele>1373.7</ele>
        <time>2010-08-29T13:04:27Z</time>
      </trkpt>
      <trkpt lat="45.73937002569437" lon="7.987690027803183">
        <ele>1376.2</ele>
        <time>2010-08-29T13:04:19Z</time>
      </trkpt>
      <trkpt lat="45.739310011267662" lon="7.98760000616312">
        <ele>1379.5</ele>
        <time>2010-08-29T13:04:07Z</time>
      </trkpt>
      <trkpt lat="45.739229964092374" lon="7.987539991736412">
        <ele>1380.7</ele>
        <time>2010-08-29T13:03:58Z</time>
      </trkpt>
      <trkpt lat="45.739129967987537" lon="7.987500010058284">
        <ele>1380.7</ele>
        <time>2010-08-29T13:03:48Z</time>
      </trkpt>
      <trkpt lat="45.739050004631281" lon="7.987439995631576">
        <ele>1381.7</ele>
        <time>2010-08-29T13:03:37Z</time>
      </trkpt>
      <trkpt lat="45.738959982991219" lon="7.987370006740093">
        <ele>1382.9000000000001</ele>
        <time>2010-08-29T13:03:29Z</time>
      </trkpt>
      <trkpt lat="45.738869961351156" lon="7.987330025061965">
        <ele>1383.5</ele>
        <time>2010-08-29T13:03:21Z</time>
      </trkpt>
      <trkpt lat="45.73881003074348" lon="7.987230028957129">
        <ele>1385.3</ele>
        <time>2010-08-29T13:03:13Z</time>
      </trkpt>
      <trkpt lat="45.738820005208254" lon="7.987110000103712">
        <ele>1387.8</ele>
        <time>2010-08-29T13:03:05Z</time>
      </trkpt>
      <trkpt lat="45.738750016316772" lon="7.987049985677004">
        <ele>1390.2</ele>
        <time>2010-08-29T13:02:57Z</time>
      </trkpt>
      <trkpt lat="45.738690001890063" lon="7.986949989572167">
        <ele>1391.7</ele>
        <time>2010-08-29T13:02:49Z</time>
      </trkpt>
      <trkpt lat="45.738599980250001" lon="7.986870026215911">
        <ele>1392.5999999999999</ele>
        <time>2010-08-29T13:02:39Z</time>
      </trkpt>
      <trkpt lat="45.738539965823293" lon="7.986780004575849">
        <ele>1392.5999999999999</ele>
        <time>2010-08-29T13:02:31Z</time>
      </trkpt>
      <trkpt lat="45.73846997693181" lon="7.986710015684366">
        <ele>1394.5</ele>
        <time>2010-08-29T13:02:22Z</time>
      </trkpt>
      <trkpt lat="45.738429995253682" lon="7.98658998683095">
        <ele>1394.2</ele>
        <time>2010-08-29T13:02:11Z</time>
      </trkpt>
      <trkpt lat="45.738369980826974" lon="7.986489990726113">
        <ele>1394.2</ele>
        <time>2010-08-29T13:02:02Z</time>
      </trkpt>
      <trkpt lat="45.73833997361362" lon="7.986350012943149">
        <ele>1393.5</ele>
        <time>2010-08-29T13:01:52Z</time>
      </trkpt>
      <trkpt lat="45.73833997361362" lon="7.986220009624958">
        <ele>1393.2</ele>
        <time>2010-08-29T13:01:44Z</time>
      </trkpt>
      <trkpt lat="45.738350031897426" lon="7.986090006306768">
        <ele>1391.0999999999999</ele>
        <time>2010-08-29T13:01:33Z</time>
      </trkpt>
      <trkpt lat="45.7383600063622" lon="7.985960002988577">
        <ele>1391.7</ele>
        <time>2010-08-29T13:01:25Z</time>
      </trkpt>
      <trkpt lat="45.73838003911078" lon="7.985820025205612">
        <ele>1390.2</ele>
        <time>2010-08-29T13:01:16Z</time>
      </trkpt>
      <trkpt lat="45.738350031897426" lon="7.985720029100776">
        <ele>1390.2</ele>
        <time>2010-08-29T13:00:54Z</time>
      </trkpt>
      <trkpt lat="45.7383600063622" lon="7.985620032995939">
        <ele>1391.7</ele>
        <time>2010-08-29T13:00:00Z</time>
      </trkpt>
      <trkpt lat="45.73838003911078" lon="7.985490029677749">
        <ele>1392</ele>
        <time>2010-08-29T12:59:51Z</time>
      </trkpt>
      <trkpt lat="45.73838003911078" lon="7.985349968075752">
        <ele>1392</ele>
        <time>2010-08-29T12:59:41Z</time>
      </trkpt>
      <trkpt lat="45.73833997361362" lon="7.985239997506142">
        <ele>1392</ele>
        <time>2010-08-29T12:59:32Z</time>
      </trkpt>
      <trkpt lat="45.738299991935492" lon="7.985109994187951">
        <ele>1392.5999999999999</ele>
        <time>2010-08-29T12:59:24Z</time>
      </trkpt>
      <trkpt lat="45.738279959186912" lon="7.984959958121181">
        <ele>1392</ele>
        <time>2010-08-29T12:59:06Z</time>
      </trkpt>
      <trkpt lat="45.738160014152527" lon="7.984949983656406">
        <ele>1393.2</ele>
        <time>2010-08-29T12:58:24Z</time>
      </trkpt>
      <trkpt lat="45.738090025261045" lon="7.984859962016344">
        <ele>1393.2</ele>
        <time>2010-08-29T12:58:17Z</time>
      </trkpt>
      <trkpt lat="45.738020036369562" lon="7.984800031408668">
        <ele>1393.2</ele>
        <time>2010-08-29T12:58:11Z</time>
      </trkpt>
      <trkpt lat="45.737949963659048" lon="7.984719984233379">
        <ele>1393.2</ele>
        <time>2010-08-29T12:58:03Z</time>
      </trkpt>
      <trkpt lat="45.737870000302792" lon="7.984629962593317">
        <ele>1394.2</ele>
        <time>2010-08-29T12:57:54Z</time>
      </trkpt>
      <trkpt lat="45.737800011411309" lon="7.984540024772286">
        <ele>1394.2</ele>
        <time>2010-08-29T12:57:45Z</time>
      </trkpt>
      <trkpt lat="45.737709989771247" lon="7.984470035880804">
        <ele>1394.2</ele>
        <time>2010-08-29T12:57:37Z</time>
      </trkpt>
      <trkpt lat="45.73763002641499" lon="7.984380014240742">
        <ele>1394.2</ele>
        <time>2010-08-29T12:57:30Z</time>
      </trkpt>
      <trkpt lat="45.737560037523508" lon="7.984289992600679">
        <ele>1395.4000000000001</ele>
        <time>2010-08-29T12:57:22Z</time>
      </trkpt>
      <trkpt lat="45.737489964812994" lon="7.984220003709197">
        <ele>1396.5999999999999</ele>
        <time>2010-08-29T12:57:14Z</time>
      </trkpt>
      <trkpt lat="45.737419975921512" lon="7.984110033139586">
        <ele>1397.8</ele>
        <time>2010-08-29T12:57:06Z</time>
      </trkpt>
      <trkpt lat="45.737349987030029" lon="7.98401003703475">
        <ele>1398.7</ele>
        <time>2010-08-29T12:56:58Z</time>
      </trkpt>
      <trkpt lat="45.737279998138547" lon="7.983910040929914">
        <ele>1399.9000000000001</ele>
        <time>2010-08-29T12:56:50Z</time>
      </trkpt>
      <trkpt lat="45.737229958176613" lon="7.983790012076497">
        <ele>1401.2</ele>
        <time>2010-08-29T12:56:42Z</time>
      </trkpt>
      <trkpt lat="45.737149994820356" lon="7.983709964901209">
        <ele>1401.8</ele>
        <time>2010-08-29T12:56:33Z</time>
      </trkpt>
      <trkpt lat="45.737059973180294" lon="7.983660008758307">
        <ele>1402.4000000000001</ele>
        <time>2010-08-29T12:56:25Z</time>
      </trkpt>
      <trkpt lat="45.736980009824038" lon="7.983620027080178">
        <ele>1403.5999999999999</ele>
        <time>2010-08-29T12:56:16Z</time>
      </trkpt>
      <trkpt lat="45.736929969862103" lon="7.983530005440116">
        <ele>1404.2</ele>
        <time>2010-08-29T12:56:06Z</time>
      </trkpt>
      <trkpt lat="45.736859980970621" lon="7.983439983800054">
        <ele>1405.0999999999999</ele>
        <time>2010-08-29T12:55:58Z</time>
      </trkpt>
      <trkpt lat="45.736829973757267" lon="7.983330013230443">
        <ele>1407</ele>
        <time>2010-08-29T12:55:50Z</time>
      </trkpt>
      <trkpt lat="45.736769959330559" lon="7.983219958841801">
        <ele>1407.9000000000001</ele>
        <time>2010-08-29T12:55:42Z</time>
      </trkpt>
      <trkpt lat="45.736710028722882" lon="7.98313002102077">
        <ele>1409.0999999999999</ele>
        <time>2010-08-29T12:55:35Z</time>
      </trkpt>
      <trkpt lat="45.736689995974302" lon="7.98300001770258">
        <ele>1410</ele>
        <time>2010-08-29T12:55:27Z</time>
      </trkpt>
      <trkpt lat="45.736629981547594" lon="7.982900021597743">
        <ele>1410.9000000000001</ele>
        <time>2010-08-29T12:55:19Z</time>
      </trkpt>
      <trkpt lat="45.73659997433424" lon="7.982770018279553">
        <ele>1413.4000000000001</ele>
        <time>2010-08-29T12:55:11Z</time>
      </trkpt>
      <trkpt lat="45.736569967120886" lon="7.982630040496588">
        <ele>1413.7</ele>
        <time>2010-08-29T12:55:03Z</time>
      </trkpt>
      <trkpt lat="45.736569967120886" lon="7.982500037178397">
        <ele>1414.9000000000001</ele>
        <time>2010-08-29T12:54:52Z</time>
      </trkpt>
      <trkpt lat="45.736559992656112" lon="7.982350001111627">
        <ele>1414.9000000000001</ele>
        <time>2010-08-29T12:54:44Z</time>
      </trkpt>
      <trkpt lat="45.736539959907532" lon="7.982210023328662">
        <ele>1415.8</ele>
        <time>2010-08-29T12:54:36Z</time>
      </trkpt>
      <trkpt lat="45.736559992656112" lon="7.982069961726666">
        <ele>1416.7</ele>
        <time>2010-08-29T12:54:28Z</time>
      </trkpt>
      <trkpt lat="45.736520010977983" lon="7.981939958408475">
        <ele>1417.5999999999999</ele>
        <time>2010-08-29T12:54:20Z</time>
      </trkpt>
      <trkpt lat="45.736450022086501" lon="7.981829987838864">
        <ele>1418.2</ele>
        <time>2010-08-29T12:54:12Z</time>
      </trkpt>
      <trkpt lat="45.736399982124567" lon="7.981709958985448">
        <ele>1418.5</ele>
        <time>2010-08-29T12:54:04Z</time>
      </trkpt>
      <trkpt lat="45.736339967697859" lon="7.981609962880611">
        <ele>1419.5</ele>
        <time>2010-08-29T12:53:56Z</time>
      </trkpt>
      <trkpt lat="45.736290011554956" lon="7.981509966775775">
        <ele>1420.0999999999999</ele>
        <time>2010-08-29T12:53:46Z</time>
      </trkpt>
      <trkpt lat="45.736239971593022" lon="7.981420028954744">
        <ele>1422.8</ele>
        <time>2010-08-29T12:53:38Z</time>
      </trkpt>
      <trkpt lat="45.736180040985346" lon="7.981339981779456">
        <ele>1424.9000000000001</ele>
        <time>2010-08-29T12:53:29Z</time>
      </trkpt>
      <trkpt lat="45.736120026558638" lon="7.981230011209846">
        <ele>1426.8</ele>
        <time>2010-08-29T12:53:19Z</time>
      </trkpt>
      <trkpt lat="45.736099993810058" lon="7.981070000678301">
        <ele>1429.2</ele>
        <time>2010-08-29T12:53:11Z</time>
      </trkpt>
      <trkpt lat="45.736039979383349" lon="7.980979979038239">
        <ele>1431.5999999999999</ele>
        <time>2010-08-29T12:53:02Z</time>
      </trkpt>
      <trkpt lat="45.735960016027093" lon="7.98091996461153">
        <ele>1432</ele>
        <time>2010-08-29T12:52:53Z</time>
      </trkpt>
      <trkpt lat="45.735879968851805" lon="7.980849975720048">
        <ele>1435</ele>
        <time>2010-08-29T12:52:45Z</time>
      </trkpt>
      <trkpt lat="45.735809979960322" lon="7.980760037899017">
        <ele>1436.8</ele>
        <time>2010-08-29T12:52:37Z</time>
      </trkpt>
      <trkpt lat="45.735730016604066" lon="7.980610001832247">
        <ele>1441.7</ele>
        <time>2010-08-29T12:52:21Z</time>
      </trkpt>
      <trkpt lat="45.735660027712584" lon="7.98048997297883">
        <ele>1444.4000000000001</ele>
        <time>2010-08-29T12:52:06Z</time>
      </trkpt>
      <trkpt lat="45.735609987750649" lon="7.980349995195866">
        <ele>1448.4000000000001</ele>
        <time>2010-08-29T12:51:53Z</time>
      </trkpt>
      <trkpt lat="45.735539998859167" lon="7.980259973555803">
        <ele>1451.2</ele>
        <time>2010-08-29T12:51:41Z</time>
      </trkpt>
      <trkpt lat="45.735470009967685" lon="7.980180010199547">
        <ele>1451.8</ele>
        <time>2010-08-29T12:51:31Z</time>
      </trkpt>
      <trkpt lat="45.735409995540977" lon="7.980070039629936">
        <ele>1454.5</ele>
        <time>2010-08-29T12:51:22Z</time>
      </trkpt>
      <trkpt lat="45.73533003218472" lon="7.979989992454648">
        <ele>1456</ele>
        <time>2010-08-29T12:51:14Z</time>
      </trkpt>
      <trkpt lat="45.735249985009432" lon="7.979910029098392">
        <ele>1457.5999999999999</ele>
        <time>2010-08-29T12:51:04Z</time>
      </trkpt>
      <trkpt lat="45.73515996336937" lon="7.979910029098392">
        <ele>1456.9000000000001</ele>
        <time>2010-08-29T12:50:55Z</time>
      </trkpt>
      <trkpt lat="45.735059967264533" lon="7.979899970814586">
        <ele>1459.4000000000001</ele>
        <time>2010-08-29T12:50:41Z</time>
      </trkpt>
      <trkpt lat="45.735029960051179" lon="7.979780025780201">
        <ele>1461.8</ele>
        <time>2010-08-29T12:50:29Z</time>
      </trkpt>
      <trkpt lat="45.735049992799759" lon="7.97965002246201">
        <ele>1462.7</ele>
        <time>2010-08-29T12:50:20Z</time>
      </trkpt>
      <trkpt lat="45.735040018334985" lon="7.979539968073368">
        <ele>1464.3</ele>
        <time>2010-08-29T12:50:09Z</time>
      </trkpt>
      <trkpt lat="45.734970029443502" lon="7.979469979181886">
        <ele>1466.0999999999999</ele>
        <time>2010-08-29T12:49:58Z</time>
      </trkpt>
      <trkpt lat="45.734889982268214" lon="7.979429997503758">
        <ele>1470.0999999999999</ele>
        <time>2010-08-29T12:49:42Z</time>
      </trkpt>
      <trkpt lat="45.73485997505486" lon="7.979330001398921">
        <ele>1472.5</ele>
        <time>2010-08-29T12:49:28Z</time>
      </trkpt>
      <trkpt lat="45.734829967841506" lon="7.97919999808073">
        <ele>1473.7</ele>
        <time>2010-08-29T12:49:19Z</time>
      </trkpt>
      <trkpt lat="45.734799960628152" lon="7.97906999476254">
        <ele>1475.8</ele>
        <time>2010-08-29T12:49:11Z</time>
      </trkpt>
      <trkpt lat="45.73475000448525" lon="7.978960024192929">
        <ele>1478.5999999999999</ele>
        <time>2010-08-29T12:49:03Z</time>
      </trkpt>
      <trkpt lat="45.734740030020475" lon="7.978830020874739">
        <ele>1480.7</ele>
        <time>2010-08-29T12:48:54Z</time>
      </trkpt>
      <trkpt lat="45.734719997271895" lon="7.978739999234676">
        <ele>1483.5</ele>
        <time>2010-08-29T12:48:45Z</time>
      </trkpt>
      <trkpt lat="45.734670041128993" lon="7.97861997038126">
        <ele>1484.0999999999999</ele>
        <time>2010-08-29T12:48:37Z</time>
      </trkpt>
      <trkpt lat="45.734629975631833" lon="7.978509999811649">
        <ele>1486.2</ele>
        <time>2010-08-29T12:48:27Z</time>
      </trkpt>
      <trkpt lat="45.734629975631833" lon="7.978370022028685">
        <ele>1488.3</ele>
        <time>2010-08-29T12:48:18Z</time>
      </trkpt>
      <trkpt lat="45.734629975631833" lon="7.978240018710494">
        <ele>1489.9000000000001</ele>
        <time>2010-08-29T12:48:10Z</time>
      </trkpt>
      <trkpt lat="45.734550012275577" lon="7.978159971535206">
        <ele>1491.0999999999999</ele>
        <time>2010-08-29T12:48:03Z</time>
      </trkpt>
      <trkpt lat="45.734489997848868" lon="7.978080008178949">
        <ele>1492.5999999999999</ele>
        <time>2010-08-29T12:47:54Z</time>
      </trkpt>
      <trkpt lat="45.734420008957386" lon="7.977999961003661">
        <ele>1494.4000000000001</ele>
        <time>2010-08-29T12:47:44Z</time>
      </trkpt>
      <trkpt lat="45.734369968995452" lon="7.977889990434051">
        <ele>1497.8</ele>
        <time>2010-08-29T12:47:35Z</time>
      </trkpt>
      <trkpt lat="45.734310038387775" lon="7.977789994329214">
        <ele>1499.3</ele>
        <time>2010-08-29T12:47:25Z</time>
      </trkpt>
      <trkpt lat="45.734229991212487" lon="7.977740038186312">
        <ele>1498.7</ele>
        <time>2010-08-29T12:47:19Z</time>
      </trkpt>
      <trkpt lat="45.734169976785779" lon="7.977659991011024">
        <ele>1501.7</ele>
        <time>2010-08-29T12:47:11Z</time>
      </trkpt>
      <trkpt lat="45.734109962359071" lon="7.977539962157607">
        <ele>1502.4000000000001</ele>
        <time>2010-08-29T12:47:02Z</time>
      </trkpt>
      <trkpt lat="45.734050031751394" lon="7.977439966052771">
        <ele>1503.3</ele>
        <time>2010-08-29T12:46:54Z</time>
      </trkpt>
      <trkpt lat="45.73402002453804" lon="7.977320021018386">
        <ele>1505.7</ele>
        <time>2010-08-29T12:46:46Z</time>
      </trkpt>
      <trkpt lat="45.734029999002814" lon="7.97717995941639">
        <ele>1506.9000000000001</ele>
        <time>2010-08-29T12:46:38Z</time>
      </trkpt>
      <trkpt lat="45.73399999178946" lon="7.977050039917231">
        <ele>1507.8</ele>
        <time>2010-08-29T12:46:30Z</time>
      </trkpt>
      <trkpt lat="45.733950035646558" lon="7.976930011063814">
        <ele>1508.5</ele>
        <time>2010-08-29T12:46:22Z</time>
      </trkpt>
      <trkpt lat="45.73389002121985" lon="7.976820040494204">
        <ele>1511.8</ele>
        <time>2010-08-29T12:46:14Z</time>
      </trkpt>
      <trkpt lat="45.733830006793141" lon="7.976730018854141">
        <ele>1513.3</ele>
        <time>2010-08-29T12:46:06Z</time>
      </trkpt>
      <trkpt lat="45.733749959617853" lon="7.976639997214079">
        <ele>1514.9000000000001</ele>
        <time>2010-08-29T12:45:56Z</time>
      </trkpt>
      <trkpt lat="45.733669996261597" lon="7.976609990000725">
        <ele>1516.0999999999999</ele>
        <time>2010-08-29T12:45:48Z</time>
      </trkpt>
      <trkpt lat="45.73357000015676" lon="7.976600015535951">
        <ele>1517.5999999999999</ele>
        <time>2010-08-29T12:45:39Z</time>
      </trkpt>
      <trkpt lat="45.733479978516698" lon="7.976660029962659">
        <ele>1517.5999999999999</ele>
        <time>2010-08-29T12:45:31Z</time>
      </trkpt>
      <trkpt lat="45.733409989625216" lon="7.97677000053227">
        <ele>1517.5999999999999</ele>
        <time>2010-08-29T12:45:23Z</time>
      </trkpt>
      <trkpt lat="45.733319967985153" lon="7.976830014958978">
        <ele>1519.0999999999999</ele>
        <time>2010-08-29T12:45:13Z</time>
      </trkpt>
      <trkpt lat="45.733219971880317" lon="7.976890029385686">
        <ele>1519.4000000000001</ele>
        <time>2010-08-29T12:45:05Z</time>
      </trkpt>
      <trkpt lat="45.733130034059286" lon="7.976949959993362">
        <ele>1520</ele>
        <time>2010-08-29T12:44:57Z</time>
      </trkpt>
      <trkpt lat="45.733040012419224" lon="7.976960018277168">
        <ele>1521.5999999999999</ele>
        <time>2010-08-29T12:44:49Z</time>
      </trkpt>
      <trkpt lat="45.732959965243936" lon="7.97692003659904">
        <ele>1520</ele>
        <time>2010-08-29T12:44:41Z</time>
      </trkpt>
      <trkpt lat="45.732880001887679" lon="7.976860022172332">
        <ele>1520.3</ele>
        <time>2010-08-29T12:44:33Z</time>
      </trkpt>
      <trkpt lat="45.732789980247617" lon="7.976779974997044">
        <ele>1520</ele>
        <time>2010-08-29T12:44:24Z</time>
      </trkpt>
      <trkpt lat="45.73271001689136" lon="7.976730018854141">
        <ele>1520.3</ele>
        <time>2010-08-29T12:44:18Z</time>
      </trkpt>
      <trkpt lat="45.732619995251298" lon="7.976690037176013">
        <ele>1521</ele>
        <time>2010-08-29T12:44:11Z</time>
      </trkpt>
      <trkpt lat="45.732519999146461" lon="7.976660029962659">
        <ele>1521.5999999999999</ele>
        <time>2010-08-29T12:44:03Z</time>
      </trkpt>
      <trkpt lat="45.732440035790205" lon="7.976630022749305">
        <ele>1523.4000000000001</ele>
        <time>2010-08-29T12:43:55Z</time>
      </trkpt>
      <trkpt lat="45.732340039685369" lon="7.976630022749305">
        <ele>1523.4000000000001</ele>
        <time>2010-08-29T12:43:47Z</time>
      </trkpt>
      <trkpt lat="45.732250018045306" lon="7.976619964465499">
        <ele>1523.4000000000001</ele>
        <time>2010-08-29T12:43:39Z</time>
      </trkpt>
      <trkpt lat="45.732159996405244" lon="7.976600015535951">
        <ele>1523.7</ele>
        <time>2010-08-29T12:43:30Z</time>
      </trkpt>
      <trkpt lat="45.732069974765182" lon="7.976600015535951">
        <ele>1522.8</ele>
        <time>2010-08-29T12:43:22Z</time>
      </trkpt>
      <trkpt lat="45.731969978660345" lon="7.976549975574017">
        <ele>1523.7</ele>
        <time>2010-08-29T12:43:14Z</time>
      </trkpt>
      <trkpt lat="45.731890015304089" lon="7.976479986682534">
        <ele>1522.5</ele>
        <time>2010-08-29T12:43:06Z</time>
      </trkpt>
      <trkpt lat="45.731799993664026" lon="7.976409997791052">
        <ele>1524.3</ele>
        <time>2010-08-29T12:42:58Z</time>
      </trkpt>
      <trkpt lat="45.731730004772544" lon="7.976310001686215">
        <ele>1525.2</ele>
        <time>2010-08-29T12:42:50Z</time>
      </trkpt>
      <trkpt lat="45.731669990345836" lon="7.976219980046153">
        <ele>1526.7</ele>
        <time>2010-08-29T12:42:43Z</time>
      </trkpt>
      <trkpt lat="45.731609975919127" lon="7.976119983941317">
        <ele>1525.8</ele>
        <time>2010-08-29T12:42:35Z</time>
      </trkpt>
      <trkpt lat="45.731579968705773" lon="7.975989980623126">
        <ele>1527.4000000000001</ele>
        <time>2010-08-29T12:42:27Z</time>
      </trkpt>
      <trkpt lat="45.731490030884743" lon="7.975949998944998">
        <ele>1528.5999999999999</ele>
        <time>2010-08-29T12:42:19Z</time>
      </trkpt>
      <trkpt lat="45.731449965387583" lon="7.975829970091581">
        <ele>1528.3</ele>
        <time>2010-08-29T12:42:11Z</time>
      </trkpt>
      <trkpt lat="45.731390034779906" lon="7.975729973986745">
        <ele>1528.5999999999999</ele>
        <time>2010-08-29T12:42:03Z</time>
      </trkpt>
      <trkpt lat="45.731309987604618" lon="7.975669959560037">
        <ele>1529.5</ele>
        <time>2010-08-29T12:41:55Z</time>
      </trkpt>
      <trkpt lat="45.73124997317791" lon="7.9755699634552">
        <ele>1529.5</ele>
        <time>2010-08-29T12:41:47Z</time>
      </trkpt>
      <trkpt lat="45.731170009821653" lon="7.975490000098944">
        <ele>1529.5</ele>
        <time>2010-08-29T12:41:38Z</time>
      </trkpt>
      <trkpt lat="45.731100020930171" lon="7.975399978458881">
        <ele>1530.0999999999999</ele>
        <time>2010-08-29T12:41:29Z</time>
      </trkpt>
      <trkpt lat="45.731030032038689" lon="7.975339964032173">
        <ele>1530.7</ele>
        <time>2010-08-29T12:41:22Z</time>
      </trkpt>
      <trkpt lat="45.730940010398626" lon="7.975369971245527">
        <ele>1531</ele>
        <time>2010-08-29T12:41:10Z</time>
      </trkpt>
      <trkpt lat="45.730849988758564" lon="7.975310040637851">
        <ele>1530.7</ele>
        <time>2010-08-29T12:41:01Z</time>
      </trkpt>
      <trkpt lat="45.730830039829016" lon="7.975190011784434">
        <ele>1531.5999999999999</ele>
        <time>2010-08-29T12:38:21Z</time>
      </trkpt>
      <trkpt lat="45.730789974331856" lon="7.975069982931018">
        <ele>1532.5</ele>
        <time>2010-08-29T12:37:39Z</time>
      </trkpt>
      <trkpt lat="45.730719985440373" lon="7.974969986826181">
        <ele>1532.5</ele>
        <time>2010-08-29T12:37:30Z</time>
      </trkpt>
      <trkpt lat="45.730710010975599" lon="7.974990019574761">
        <ele>1533.4000000000001</ele>
        <time>2010-08-29T12:37:07Z</time>
      </trkpt>
      <trkpt lat="45.730659971013665" lon="7.974879965186119">
        <ele>1533.4000000000001</ele>
        <time>2010-08-29T12:36:59Z</time>
      </trkpt>
      <trkpt lat="45.730619989335537" lon="7.974760020151734">
        <ele>1534.0999999999999</ele>
        <time>2010-08-29T12:36:51Z</time>
      </trkpt>
      <trkpt lat="45.730570033192635" lon="7.974660024046898">
        <ele>1535.3</ele>
        <time>2010-08-29T12:36:39Z</time>
      </trkpt>
      <trkpt lat="45.730499960482121" lon="7.97460000962019">
        <ele>1536.2</ele>
        <time>2010-08-29T12:36:28Z</time>
      </trkpt>
      <trkpt lat="45.73041002266109" lon="7.97457997687161">
        <ele>1537.4000000000001</ele>
        <time>2010-08-29T12:36:20Z</time>
      </trkpt>
      <trkpt lat="45.730329975485802" lon="7.974539995193481">
        <ele>1538.5999999999999</ele>
        <time>2010-08-29T12:36:12Z</time>
      </trkpt>
      <trkpt lat="45.730240037664771" lon="7.974509987980127">
        <ele>1538.3</ele>
        <time>2010-08-29T12:36:04Z</time>
      </trkpt>
      <trkpt lat="45.730150016024709" lon="7.974479980766773">
        <ele>1539.8</ele>
        <time>2010-08-29T12:35:54Z</time>
      </trkpt>
      <trkpt lat="45.730050019919872" lon="7.974460031837225">
        <ele>1540.8</ele>
        <time>2010-08-29T12:35:46Z</time>
      </trkpt>
      <trkpt lat="45.72995999827981" lon="7.974470006301999">
        <ele>1541.7</ele>
        <time>2010-08-29T12:35:38Z</time>
      </trkpt>
      <trkpt lat="45.729860002174973" lon="7.974519962444902">
        <ele>1542.5999999999999</ele>
        <time>2010-08-29T12:35:29Z</time>
      </trkpt>
      <trkpt lat="45.729769980534911" lon="7.974509987980127">
        <ele>1543.2</ele>
        <time>2010-08-29T12:35:19Z</time>
      </trkpt>
      <trkpt lat="45.729679958894849" lon="7.974479980766773">
        <ele>1544.4000000000001</ele>
        <time>2010-08-29T12:35:08Z</time>
      </trkpt>
      <trkpt lat="45.729590021073818" lon="7.974439999088645">
        <ele>1545.3</ele>
        <time>2010-08-29T12:35:00Z</time>
      </trkpt>
      <trkpt lat="45.72950997389853" lon="7.974370010197163">
        <ele>1546.5999999999999</ele>
        <time>2010-08-29T12:34:51Z</time>
      </trkpt>
      <trkpt lat="45.729430010542274" lon="7.974309995770454">
        <ele>1547.8</ele>
        <time>2010-08-29T12:34:40Z</time>
      </trkpt>
      <trkpt lat="45.729360021650791" lon="7.974270014092326">
        <ele>1548.7</ele>
        <time>2010-08-29T12:34:30Z</time>
      </trkpt>
      <trkpt lat="45.729300007224083" lon="7.974159959703684">
        <ele>1548.4000000000001</ele>
        <time>2010-08-29T12:34:21Z</time>
      </trkpt>
      <trkpt lat="45.729249967262149" lon="7.974049989134073">
        <ele>1550.2</ele>
        <time>2010-08-29T12:34:12Z</time>
      </trkpt>
      <trkpt lat="45.729219960048795" lon="7.973919985815883">
        <ele>1553.3</ele>
        <time>2010-08-29T12:34:02Z</time>
      </trkpt>
      <trkpt lat="45.729190036654472" lon="7.973800040781498">
        <ele>1554.5</ele>
        <time>2010-08-29T12:33:51Z</time>
      </trkpt>
      <trkpt lat="45.729139996692538" lon="7.973689986392856">
        <ele>1556.9000000000001</ele>
        <time>2010-08-29T12:33:41Z</time>
      </trkpt>
      <trkpt lat="45.729109989479184" lon="7.973550008609891">
        <ele>1559.0999999999999</ele>
        <time>2010-08-29T12:33:30Z</time>
      </trkpt>
      <trkpt lat="45.729090040549636" lon="7.973429979756475">
        <ele>1560.9000000000001</ele>
        <time>2010-08-29T12:33:15Z</time>
      </trkpt>
      <trkpt lat="45.729030026122928" lon="7.973339958116412">
        <ele>1562.4000000000001</ele>
        <time>2010-08-29T12:33:04Z</time>
      </trkpt>
      <trkpt lat="45.728949978947639" lon="7.97326996922493">
        <ele>1563.3</ele>
        <time>2010-08-29T12:32:47Z</time>
      </trkpt>
      <trkpt lat="45.728879990056157" lon="7.973190005868673">
        <ele>1564.2</ele>
        <time>2010-08-29T12:32:36Z</time>
      </trkpt>
      <trkpt lat="45.728810001164675" lon="7.973109958693385">
        <ele>1566.0999999999999</ele>
        <time>2010-08-29T12:32:25Z</time>
      </trkpt>
      <trkpt lat="45.728759961202741" lon="7.973020020872355">
        <ele>1568.5</ele>
        <time>2010-08-29T12:32:15Z</time>
      </trkpt>
      <trkpt lat="45.728759961202741" lon="7.972950031980872">
        <ele>1571.5</ele>
        <time>2010-08-29T12:32:06Z</time>
      </trkpt>
      <trkpt lat="45.728870015591383" lon="7.97296998091042">
        <ele>1574.3</ele>
        <time>2010-08-29T12:31:54Z</time>
      </trkpt>
      <trkpt lat="45.728879990056157" lon="7.972879959270358">
        <ele>1577.3</ele>
        <time>2010-08-29T12:31:43Z</time>
      </trkpt>
      <trkpt lat="45.728819975629449" lon="7.972779963165522">
        <ele>1578.5999999999999</ele>
        <time>2010-08-29T12:31:32Z</time>
      </trkpt>
      <trkpt lat="45.728759961202741" lon="7.972679967060685">
        <ele>1581.5999999999999</ele>
        <time>2010-08-29T12:31:21Z</time>
      </trkpt>
      <trkpt lat="45.728679997846484" lon="7.972630010917783">
        <ele>1581.9000000000001</ele>
        <time>2010-08-29T12:31:12Z</time>
      </trkpt>
      <trkpt lat="45.728589976206422" lon="7.972620036453009">
        <ele>1583.4000000000001</ele>
        <time>2010-08-29T12:31:04Z</time>
      </trkpt>
      <trkpt lat="45.728519987314939" lon="7.9725600220263">
        <ele>1585.3</ele>
        <time>2010-08-29T12:30:53Z</time>
      </trkpt>
      <trkpt lat="45.728419991210103" lon="7.972530014812946">
        <ele>1585</ele>
        <time>2010-08-29T12:30:42Z</time>
      </trkpt>
      <trkpt lat="45.728350002318621" lon="7.972460025921464">
        <ele>1585.3</ele>
        <time>2010-08-29T12:30:33Z</time>
      </trkpt>
      <trkpt lat="45.728259980678558" lon="7.97243001870811">
        <ele>1587.4000000000001</ele>
        <time>2010-08-29T12:30:22Z</time>
      </trkpt>
      <trkpt lat="45.728189991787076" lon="7.972360029816628">
        <ele>1589.8</ele>
        <time>2010-08-29T12:30:11Z</time>
      </trkpt>
      <trkpt lat="45.728099970147014" lon="7.972300015389919">
        <ele>1589.8</ele>
        <time>2010-08-29T12:30:03Z</time>
      </trkpt>
      <trkpt lat="45.728010032325983" lon="7.972309989854693">
        <ele>1589.8</ele>
        <time>2010-08-29T12:29:55Z</time>
      </trkpt>
      <trkpt lat="45.727929985150695" lon="7.972279982641339">
        <ele>1594.4000000000001</ele>
        <time>2010-08-29T12:29:44Z</time>
      </trkpt>
      <trkpt lat="45.727850021794438" lon="7.972230026498437">
        <ele>1595.9000000000001</ele>
        <time>2010-08-29T12:29:32Z</time>
      </trkpt>
      <trkpt lat="45.72776997461915" lon="7.972170012071729">
        <ele>1596.8</ele>
        <time>2010-08-29T12:29:21Z</time>
      </trkpt>
      <trkpt lat="45.72768003679812" lon="7.972130030393601">
        <ele>1597.8</ele>
        <time>2010-08-29T12:29:11Z</time>
      </trkpt>
      <trkpt lat="45.727629996836185" lon="7.972040008753538">
        <ele>1601.0999999999999</ele>
        <time>2010-08-29T12:29:00Z</time>
      </trkpt>
      <trkpt lat="45.72763997130096" lon="7.971930038183928">
        <ele>1606.5999999999999</ele>
        <time>2010-08-29T12:28:46Z</time>
      </trkpt>
      <trkpt lat="45.727560007944703" lon="7.971879998221993">
        <ele>1606.9000000000001</ele>
        <time>2010-08-29T12:28:34Z</time>
      </trkpt>
      <trkpt lat="45.727479960769415" lon="7.971849991008639">
        <ele>1609</ele>
        <time>2010-08-29T12:28:23Z</time>
      </trkpt>
      <trkpt lat="45.727450037375093" lon="7.971749994903803">
        <ele>1613.3</ele>
        <time>2010-08-29T12:28:11Z</time>
      </trkpt>
      <trkpt lat="45.727350041270256" lon="7.971749994903803">
        <ele>1616</ele>
        <time>2010-08-29T12:28:00Z</time>
      </trkpt>
      <trkpt lat="45.727279968559742" lon="7.971819983795285">
        <ele>1618.2</ele>
        <time>2010-08-29T12:27:48Z</time>
      </trkpt>
      <trkpt lat="45.727200005203485" lon="7.971759969368577">
        <ele>1621.8</ele>
        <time>2010-08-29T12:27:32Z</time>
      </trkpt>
      <trkpt lat="45.727179972454906" lon="7.971649998798966">
        <ele>1624.9000000000001</ele>
        <time>2010-08-29T12:27:21Z</time>
      </trkpt>
      <trkpt lat="45.727090034633875" lon="7.971629966050386">
        <ele>1626.7</ele>
        <time>2010-08-29T12:27:12Z</time>
      </trkpt>
      <trkpt lat="45.727009987458587" lon="7.971599958837032">
        <ele>1629.5</ele>
        <time>2010-08-29T12:27:04Z</time>
      </trkpt>
      <trkpt lat="45.726939998567104" lon="7.97155000269413">
        <ele>1631.5999999999999</ele>
        <time>2010-08-29T12:26:54Z</time>
      </trkpt>
      <trkpt lat="45.726860035210848" lon="7.971589984372258">
        <ele>1632.8</ele>
        <time>2010-08-29T12:26:46Z</time>
      </trkpt>
      <trkpt lat="45.726789962500334" lon="7.97155000269413">
        <ele>1634.3</ele>
        <time>2010-08-29T12:26:38Z</time>
      </trkpt>
      <trkpt lat="45.726719973608851" lon="7.971519995480776">
        <ele>1637.4000000000001</ele>
        <time>2010-08-29T12:26:30Z</time>
      </trkpt>
      <trkpt lat="45.726659959182143" lon="7.971589984372258">
        <ele>1640.0999999999999</ele>
        <time>2010-08-29T12:26:19Z</time>
      </trkpt>
      <trkpt lat="45.726570021361113" lon="7.971670031547546">
        <ele>1642</ele>
        <time>2010-08-29T12:25:33Z</time>
      </trkpt>
      <trkpt lat="45.72650003246963" lon="7.971610017120838">
        <ele>1643.2</ele>
        <time>2010-08-29T12:25:25Z</time>
      </trkpt>
      <trkpt lat="45.726440018042922" lon="7.971489988267422">
        <ele>1643.5</ele>
        <time>2010-08-29T12:25:17Z</time>
      </trkpt>
      <trkpt lat="45.72645996697247" lon="7.971359984949231">
        <ele>1644.4000000000001</ele>
        <time>2010-08-29T12:25:09Z</time>
      </trkpt>
      <trkpt lat="45.726489974185824" lon="7.971240039914846">
        <ele>1646.8</ele>
        <time>2010-08-29T12:25:01Z</time>
      </trkpt>
      <trkpt lat="45.726510006934404" lon="7.97109997831285">
        <ele>1649.9000000000001</ele>
        <time>2010-08-29T12:24:53Z</time>
      </trkpt>
      <trkpt lat="45.726530039682984" lon="7.970950026065111">
        <ele>1650.2</ele>
        <time>2010-08-29T12:24:45Z</time>
      </trkpt>
      <trkpt lat="45.726510006934404" lon="7.970820022746921">
        <ele>1650.8</ele>
        <time>2010-08-29T12:24:36Z</time>
      </trkpt>
      <trkpt lat="45.726449992507696" lon="7.970720026642084">
        <ele>1651.0999999999999</ele>
        <time>2010-08-29T12:24:30Z</time>
      </trkpt>
      <trkpt lat="45.726359970867634" lon="7.970730001106858">
        <ele>1652.3</ele>
        <time>2010-08-29T12:24:23Z</time>
      </trkpt>
      <trkpt lat="45.726270033046603" lon="7.970760008320212">
        <ele>1653.5</ele>
        <time>2010-08-29T12:24:15Z</time>
      </trkpt>
      <trkpt lat="45.726180011406541" lon="7.970809964463115">
        <ele>1654.0999999999999</ele>
        <time>2010-08-29T12:24:07Z</time>
      </trkpt>
      <trkpt lat="45.726089989766479" lon="7.970829997211695">
        <ele>1655.0999999999999</ele>
        <time>2010-08-29T12:23:59Z</time>
      </trkpt>
      <trkpt lat="45.725999968126416" lon="7.970860004425049">
        <ele>1656.5999999999999</ele>
        <time>2010-08-29T12:23:51Z</time>
      </trkpt>
      <trkpt lat="45.725910030305386" lon="7.970890011638403">
        <ele>1657.8</ele>
        <time>2010-08-29T12:23:42Z</time>
      </trkpt>
      <trkpt lat="45.725820008665323" lon="7.970909960567951">
        <ele>1659</ele>
        <time>2010-08-29T12:23:32Z</time>
      </trkpt>
      <trkpt lat="45.725739961490035" lon="7.970839971676469">
        <ele>1659</ele>
        <time>2010-08-29T12:23:18Z</time>
      </trkpt>
      <trkpt lat="45.725769968703389" lon="7.970750033855438">
        <ele>1660.2</ele>
        <time>2010-08-29T12:23:09Z</time>
      </trkpt>
      <trkpt lat="45.725850015878677" lon="7.970679961144924">
        <ele>1661.8</ele>
        <time>2010-08-29T12:22:59Z</time>
      </trkpt>
      <trkpt lat="45.72592000477016" lon="7.970599997788668">
        <ele>1662.4000000000001</ele>
        <time>2010-08-29T12:22:51Z</time>
      </trkpt>
      <trkpt lat="45.725999968126416" lon="7.970520034432411">
        <ele>1663.5999999999999</ele>
        <time>2010-08-29T12:22:42Z</time>
      </trkpt>
      <trkpt lat="45.726089989766479" lon="7.970469994470477">
        <ele>1664.8</ele>
        <time>2010-08-29T12:22:31Z</time>
      </trkpt>
      <trkpt lat="45.726189985871315" lon="7.970469994470477">
        <ele>1664.8</ele>
        <time>2010-08-29T12:22:19Z</time>
      </trkpt>
      <trkpt lat="45.726140029728413" lon="7.970420038327575">
        <ele>1665.7</ele>
        <time>2010-08-29T12:20:59Z</time>
      </trkpt>
      <trkpt lat="45.726129971444607" lon="7.970309983938932">
        <ele>1667.5999999999999</ele>
        <time>2010-08-29T12:16:29Z</time>
      </trkpt>
      <trkpt lat="45.72605000808835" lon="7.970270002260804">
        <ele>1669.0999999999999</ele>
        <time>2010-08-29T12:15:51Z</time>
      </trkpt>
      <trkpt lat="45.725999968126416" lon="7.970200013369322">
        <ele>1669.4000000000001</ele>
        <time>2010-08-29T12:15:30Z</time>
      </trkpt>
      <trkpt lat="45.72594003751874" lon="7.970100017264485">
        <ele>1668.2</ele>
        <time>2010-08-29T12:15:19Z</time>
      </trkpt>
      <trkpt lat="45.725880023092031" lon="7.970000021159649">
        <ele>1668.2</ele>
        <time>2010-08-29T12:15:09Z</time>
      </trkpt>
      <trkpt lat="45.725810034200549" lon="7.969930032268167">
        <ele>1668.5</ele>
        <time>2010-08-29T12:15:00Z</time>
      </trkpt>
      <trkpt lat="45.725750019773841" lon="7.96983003616333">
        <ele>1668.2</ele>
        <time>2010-08-29T12:14:51Z</time>
      </trkpt>
      <trkpt lat="45.725759994238615" lon="7.969710007309914">
        <ele>1668.2</ele>
        <time>2010-08-29T12:14:37Z</time>
      </trkpt>
      <trkpt lat="45.725759994238615" lon="7.969580003991723">
        <ele>1669.0999999999999</ele>
        <time>2010-08-29T12:14:26Z</time>
      </trkpt>
      <trkpt lat="45.725780026987195" lon="7.969450000673533">
        <ele>1667</ele>
        <time>2010-08-29T12:14:18Z</time>
      </trkpt>
      <trkpt lat="45.725799975916743" lon="7.969310022890568">
        <ele>1668.5</ele>
        <time>2010-08-29T12:14:07Z</time>
      </trkpt>
      <trkpt lat="45.725820008665323" lon="7.969169961288571">
        <ele>1668.5</ele>
        <time>2010-08-29T12:13:58Z</time>
      </trkpt>
      <trkpt lat="45.725829983130097" lon="7.969040041789413">
        <ele>1668.5</ele>
        <time>2010-08-29T12:13:47Z</time>
      </trkpt>
      <trkpt lat="45.725850015878677" lon="7.968899980187416">
        <ele>1669.4000000000001</ele>
        <time>2010-08-29T12:13:39Z</time>
      </trkpt>
      <trkpt lat="45.725829983130097" lon="7.968790009617806">
        <ele>1669.0999999999999</ele>
        <time>2010-08-29T12:13:26Z</time>
      </trkpt>
      <trkpt lat="45.725880023092031" lon="7.968680039048195">
        <ele>1670</ele>
        <time>2010-08-29T12:13:16Z</time>
      </trkpt>
      <trkpt lat="45.725889997556806" lon="7.968560010194778">
        <ele>1669.4000000000001</ele>
        <time>2010-08-29T12:13:08Z</time>
      </trkpt>
      <trkpt lat="45.725869964808226" lon="7.968439981341362">
        <ele>1672.4000000000001</ele>
        <time>2010-08-29T12:13:01Z</time>
      </trkpt>
      <trkpt lat="45.725840041413903" lon="7.968309978023171">
        <ele>1670.9000000000001</ele>
        <time>2010-08-29T12:12:53Z</time>
      </trkpt>
      <trkpt lat="45.725810034200549" lon="7.968179974704981">
        <ele>1671.5</ele>
        <time>2010-08-29T12:12:45Z</time>
      </trkpt>
      <trkpt lat="45.725810034200549" lon="7.968039996922016">
        <ele>1671.8</ele>
        <time>2010-08-29T12:12:37Z</time>
      </trkpt>
      <trkpt lat="45.725769968703389" lon="7.967930026352406">
        <ele>1673.4000000000001</ele>
        <time>2010-08-29T12:12:27Z</time>
      </trkpt>
      <trkpt lat="45.725729987025261" lon="7.967809997498989">
        <ele>1673.7</ele>
        <time>2010-08-29T12:12:19Z</time>
      </trkpt>
      <trkpt lat="45.725690005347133" lon="7.967689968645573">
        <ele>1674.9000000000001</ele>
        <time>2010-08-29T12:12:11Z</time>
      </trkpt>
      <trkpt lat="45.725669972598553" lon="7.967559965327382">
        <ele>1675.8</ele>
        <time>2010-08-29T12:12:03Z</time>
      </trkpt>
      <trkpt lat="45.725650023669004" lon="7.967440020292997">
        <ele>1675.8</ele>
        <time>2010-08-29T12:11:54Z</time>
      </trkpt>
      <trkpt lat="45.725580034777522" lon="7.967370031401515">
        <ele>1676.7</ele>
        <time>2010-08-29T12:11:44Z</time>
      </trkpt>
      <trkpt lat="45.725569976493716" lon="7.967240028083324">
        <ele>1675.8</ele>
        <time>2010-08-29T12:11:28Z</time>
      </trkpt>
      <trkpt lat="45.725560002028942" lon="7.967099966481328">
        <ele>1677.5999999999999</ele>
        <time>2010-08-29T12:11:17Z</time>
      </trkpt>
      <trkpt lat="45.725550027564168" lon="7.966980021446943">
        <ele>1677.5999999999999</ele>
        <time>2010-08-29T12:11:05Z</time>
      </trkpt>
      <trkpt lat="45.725529994815588" lon="7.966850018128753">
        <ele>1679.0999999999999</ele>
        <time>2010-08-29T12:10:56Z</time>
      </trkpt>
      <trkpt lat="45.725499987602234" lon="7.966729989275336">
        <ele>1679.0999999999999</ele>
        <time>2010-08-29T12:10:46Z</time>
      </trkpt>
      <trkpt lat="45.72546998038888" lon="7.966599985957146">
        <ele>1679.4000000000001</ele>
        <time>2010-08-29T12:10:38Z</time>
      </trkpt>
      <trkpt lat="45.725439973175526" lon="7.966480040922761">
        <ele>1679.4000000000001</ele>
        <time>2010-08-29T12:10:29Z</time>
      </trkpt>
      <trkpt lat="45.725390017032623" lon="7.96635003760457">
        <ele>1680.0999999999999</ele>
        <time>2010-08-29T12:10:19Z</time>
      </trkpt>
      <trkpt lat="45.725369984284043" lon="7.966230008751154">
        <ele>1680.7</ele>
        <time>2010-08-29T12:10:10Z</time>
      </trkpt>
      <trkpt lat="45.725339977070689" lon="7.966120038181543">
        <ele>1681</ele>
        <time>2010-08-29T12:09:55Z</time>
      </trkpt>
      <trkpt lat="45.725299995392561" lon="7.965990034863353">
        <ele>1681.5999999999999</ele>
        <time>2010-08-29T12:09:44Z</time>
      </trkpt>
      <trkpt lat="45.725299995392561" lon="7.965870006009936">
        <ele>1684</ele>
        <time>2010-08-29T12:09:33Z</time>
      </trkpt>
      <trkpt lat="45.725299995392561" lon="7.965740002691746">
        <ele>1681.9000000000001</ele>
        <time>2010-08-29T12:09:25Z</time>
      </trkpt>
      <trkpt lat="45.725299995392561" lon="7.965609999373555">
        <ele>1684</ele>
        <time>2010-08-29T12:09:14Z</time>
      </trkpt>
      <trkpt lat="45.725330002605915" lon="7.965479996055365">
        <ele>1685.8</ele>
        <time>2010-08-29T12:09:05Z</time>
      </trkpt>
      <trkpt lat="45.725360009819269" lon="7.965349992737174">
        <ele>1687.7</ele>
        <time>2010-08-29T12:08:56Z</time>
      </trkpt>
      <trkpt lat="45.725350035354495" lon="7.965240022167563">
        <ele>1687.7</ele>
        <time>2010-08-29T12:08:46Z</time>
      </trkpt>
      <trkpt lat="45.725320028141141" lon="7.965119993314147">
        <ele>1688.5999999999999</ele>
        <time>2010-08-29T12:08:38Z</time>
      </trkpt>
      <trkpt lat="45.725320028141141" lon="7.964980015531182">
        <ele>1688.5999999999999</ele>
        <time>2010-08-29T12:08:29Z</time>
      </trkpt>
      <trkpt lat="45.725290020927787" lon="7.964850012212992">
        <ele>1689.8</ele>
        <time>2010-08-29T12:08:20Z</time>
      </trkpt>
      <trkpt lat="45.725269988179207" lon="7.964729983359575">
        <ele>1690.0999999999999</ele>
        <time>2010-08-29T12:08:12Z</time>
      </trkpt>
      <trkpt lat="45.725230006501079" lon="7.964620012789965">
        <ele>1690.7</ele>
        <time>2010-08-29T12:08:04Z</time>
      </trkpt>
      <trkpt lat="45.72516999207437" lon="7.964520016685128">
        <ele>1690.7</ele>
        <time>2010-08-29T12:07:56Z</time>
      </trkpt>
      <trkpt lat="45.725109977647662" lon="7.964429995045066">
        <ele>1691.5999999999999</ele>
        <time>2010-08-29T12:07:48Z</time>
      </trkpt>
      <trkpt lat="45.725069995969534" lon="7.964320024475455">
        <ele>1691.5999999999999</ele>
        <time>2010-08-29T12:07:40Z</time>
      </trkpt>
      <trkpt lat="45.725009981542826" lon="7.964220028370619">
        <ele>1692.5999999999999</ele>
        <time>2010-08-29T12:07:33Z</time>
      </trkpt>
      <trkpt lat="45.724960025399923" lon="7.964120032265782">
        <ele>1692.5999999999999</ele>
        <time>2010-08-29T12:07:25Z</time>
      </trkpt>
      <trkpt lat="45.724879978224635" lon="7.964039985090494">
        <ele>1693.2</ele>
        <time>2010-08-29T12:07:17Z</time>
      </trkpt>
      <trkpt lat="45.724839996546507" lon="7.963939988985658">
        <ele>1695</ele>
        <time>2010-08-29T12:07:09Z</time>
      </trkpt>
      <trkpt lat="45.724860029295087" lon="7.963800011202693">
        <ele>1695</ele>
        <time>2010-08-29T12:06:59Z</time>
      </trkpt>
      <trkpt lat="45.724870003759861" lon="7.963670007884502">
        <ele>1696.5</ele>
        <time>2010-08-29T12:06:51Z</time>
      </trkpt>
      <trkpt lat="45.724900010973215" lon="7.963540004566312">
        <ele>1696.8</ele>
        <time>2010-08-29T12:06:43Z</time>
      </trkpt>
      <trkpt lat="45.724919959902763" lon="7.963419975712895">
        <ele>1697.7</ele>
        <time>2010-08-29T12:06:35Z</time>
      </trkpt>
      <trkpt lat="45.724919959902763" lon="7.963300030678511">
        <ele>1699.3</ele>
        <time>2010-08-29T12:06:26Z</time>
      </trkpt>
      <trkpt lat="45.724930018186569" lon="7.963180001825094">
        <ele>1701.7</ele>
        <time>2010-08-29T12:06:16Z</time>
      </trkpt>
      <trkpt lat="45.724909985437989" lon="7.963049998506904">
        <ele>1702.3</ele>
        <time>2010-08-29T12:06:05Z</time>
      </trkpt>
      <trkpt lat="45.724879978224635" lon="7.962950002402067">
        <ele>1702.3</ele>
        <time>2010-08-29T12:05:55Z</time>
      </trkpt>
      <trkpt lat="45.724849971011281" lon="7.962829973548651">
        <ele>1702.5999999999999</ele>
        <time>2010-08-29T12:05:44Z</time>
      </trkpt>
      <trkpt lat="45.724849971011281" lon="7.962710028514266">
        <ele>1705.7</ele>
        <time>2010-08-29T12:05:33Z</time>
      </trkpt>
      <trkpt lat="45.724879978224635" lon="7.962580025196075">
        <ele>1706</ele>
        <time>2010-08-29T12:05:22Z</time>
      </trkpt>
      <trkpt lat="45.724839996546507" lon="7.962459996342659">
        <ele>1706.5999999999999</ele>
        <time>2010-08-29T12:05:10Z</time>
      </trkpt>
      <trkpt lat="45.724819963797927" lon="7.962329993024468">
        <ele>1706.5999999999999</ele>
        <time>2010-08-29T12:05:01Z</time>
      </trkpt>
      <trkpt lat="45.724849971011281" lon="7.962199989706278">
        <ele>1706.9000000000001</ele>
        <time>2010-08-29T12:04:51Z</time>
      </trkpt>
      <trkpt lat="45.724830022081733" lon="7.962069986388087">
        <ele>1708.4000000000001</ele>
        <time>2010-08-29T12:04:42Z</time>
      </trkpt>
      <trkpt lat="45.724839996546507" lon="7.961939983069897">
        <ele>1709</ele>
        <time>2010-08-29T12:04:32Z</time>
      </trkpt>
      <trkpt lat="45.724839996546507" lon="7.961800005286932">
        <ele>1710.8</ele>
        <time>2010-08-29T12:04:21Z</time>
      </trkpt>
      <trkpt lat="45.724870003759861" lon="7.961700009182096">
        <ele>1714.2</ele>
        <time>2010-08-29T12:04:12Z</time>
      </trkpt>
      <trkpt lat="45.724890036508441" lon="7.961579980328679">
        <ele>1716.5999999999999</ele>
        <time>2010-08-29T12:03:59Z</time>
      </trkpt>
      <trkpt lat="45.724939992651343" lon="7.961470009759069">
        <ele>1718.5</ele>
        <time>2010-08-29T12:03:48Z</time>
      </trkpt>
      <trkpt lat="45.724930018186569" lon="7.961340006440878">
        <ele>1720</ele>
        <time>2010-08-29T12:03:37Z</time>
      </trkpt>
      <trkpt lat="45.724949967116117" lon="7.961230035871267">
        <ele>1722.7</ele>
        <time>2010-08-29T12:03:25Z</time>
      </trkpt>
      <trkpt lat="45.724969999864697" lon="7.961100032553077">
        <ele>1723.5999999999999</ele>
        <time>2010-08-29T12:03:15Z</time>
      </trkpt>
      <trkpt lat="45.724979974329472" lon="7.960970029234886">
        <ele>1724.9000000000001</ele>
        <time>2010-08-29T12:03:07Z</time>
      </trkpt>
      <trkpt lat="45.724930018186569" lon="7.96085000038147">
        <ele>1725.2</ele>
        <time>2010-08-29T12:02:58Z</time>
      </trkpt>
      <trkpt lat="45.724900010973215" lon="7.960740029811859">
        <ele>1724.9000000000001</ele>
        <time>2010-08-29T12:02:47Z</time>
      </trkpt>
      <trkpt lat="45.724839996546507" lon="7.960629975423217">
        <ele>1725.2</ele>
        <time>2010-08-29T12:02:36Z</time>
      </trkpt>
      <trkpt lat="45.724819963797927" lon="7.960510030388832">
        <ele>1726.7</ele>
        <time>2010-08-29T12:02:28Z</time>
      </trkpt>
      <trkpt lat="45.724770007655025" lon="7.960390001535416">
        <ele>1727.3</ele>
        <time>2010-08-29T12:02:20Z</time>
      </trkpt>
      <trkpt lat="45.724700018763542" lon="7.960290005430579">
        <ele>1728.2</ele>
        <time>2010-08-29T12:02:09Z</time>
      </trkpt>
      <trkpt lat="45.724670011550188" lon="7.960169976577163">
        <ele>1729.0999999999999</ele>
        <time>2010-08-29T12:02:00Z</time>
      </trkpt>
      <trkpt lat="45.724640004336834" lon="7.960050031542778">
        <ele>1730</ele>
        <time>2010-08-29T12:01:50Z</time>
      </trkpt>
      <trkpt lat="45.724689960479736" lon="7.959939977154136">
        <ele>1731</ele>
        <time>2010-08-29T12:01:42Z</time>
      </trkpt>
      <trkpt lat="45.724730025976896" lon="7.959820032119751">
        <ele>1732.5</ele>
        <time>2010-08-29T12:01:31Z</time>
      </trkpt>
      <trkpt lat="45.724779982119799" lon="7.959720036014915">
        <ele>1734.9000000000001</ele>
        <time>2010-08-29T12:01:22Z</time>
      </trkpt>
      <trkpt lat="45.724849971011281" lon="7.959630014374852">
        <ele>1736.4000000000001</ele>
        <time>2010-08-29T12:01:14Z</time>
      </trkpt>
      <trkpt lat="45.724839996546507" lon="7.959500011056662">
        <ele>1737.4000000000001</ele>
        <time>2010-08-29T12:01:04Z</time>
      </trkpt>
      <trkpt lat="45.724860029295087" lon="7.959379982203245">
        <ele>1738.3</ele>
        <time>2010-08-29T12:00:55Z</time>
      </trkpt>
      <trkpt lat="45.724860029295087" lon="7.959240004420281">
        <ele>1739.8</ele>
        <time>2010-08-29T12:00:45Z</time>
      </trkpt>
      <trkpt lat="45.724860029295087" lon="7.959119975566864">
        <ele>1740.7</ele>
        <time>2010-08-29T12:00:36Z</time>
      </trkpt>
      <trkpt lat="45.724939992651343" lon="7.959040012210608">
        <ele>1743.5</ele>
        <time>2010-08-29T12:00:27Z</time>
      </trkpt>
      <trkpt lat="45.724909985437989" lon="7.958919983357191">
        <ele>1745.3</ele>
        <time>2010-08-29T12:00:18Z</time>
      </trkpt>
      <trkpt lat="45.724930018186569" lon="7.958780005574226">
        <ele>1748.3</ele>
        <time>2010-08-29T12:00:09Z</time>
      </trkpt>
      <trkpt lat="45.724949967116117" lon="7.95865997672081">
        <ele>1752.3</ele>
        <time>2010-08-29T11:59:58Z</time>
      </trkpt>
      <trkpt lat="45.724960025399923" lon="7.958529973402619">
        <ele>1755</ele>
        <time>2010-08-29T11:59:49Z</time>
      </trkpt>
      <trkpt lat="45.724969999864697" lon="7.958399970084429">
        <ele>1756.9000000000001</ele>
        <time>2010-08-29T11:59:38Z</time>
      </trkpt>
      <trkpt lat="45.724979974329472" lon="7.958280025050044">
        <ele>1761.4000000000001</ele>
        <time>2010-08-29T11:59:29Z</time>
      </trkpt>
      <trkpt lat="45.724990032613277" lon="7.958159996196628">
        <ele>1763.5999999999999</ele>
        <time>2010-08-29T11:59:19Z</time>
      </trkpt>
      <trkpt lat="45.725009981542826" lon="7.958029992878437">
        <ele>1767.5</ele>
        <time>2010-08-29T11:59:08Z</time>
      </trkpt>
      <trkpt lat="45.725090028718114" lon="7.957990011200309">
        <ele>1770</ele>
        <time>2010-08-29T11:58:59Z</time>
      </trkpt>
      <trkpt lat="45.725179966539145" lon="7.957999985665083">
        <ele>1772.4000000000001</ele>
        <time>2010-08-29T11:58:48Z</time>
      </trkpt>
      <trkpt lat="45.725279962643981" lon="7.957990011200309">
        <ele>1777.3</ele>
        <time>2010-08-29T11:58:37Z</time>
      </trkpt>
      <trkpt lat="45.725369984284043" lon="7.957969978451729">
        <ele>1780</ele>
        <time>2010-08-29T11:58:25Z</time>
      </trkpt>
      <trkpt lat="45.725460005924106" lon="7.957960003986955">
        <ele>1781.9000000000001</ele>
        <time>2010-08-29T11:58:13Z</time>
      </trkpt>
      <trkpt lat="45.725550027564168" lon="7.957929996773601">
        <ele>1784.3</ele>
        <time>2010-08-29T11:57:59Z</time>
      </trkpt>
      <trkpt lat="45.72562001645565" lon="7.958009960129857">
        <ele>1786.7</ele>
        <time>2010-08-29T11:57:49Z</time>
      </trkpt>
      <trkpt lat="45.725680030882359" lon="7.958120014518499">
        <ele>1788.3</ele>
        <time>2010-08-29T11:57:38Z</time>
      </trkpt>
      <trkpt lat="45.725739961490035" lon="7.958110040053725">
        <ele>1791.5999999999999</ele>
        <time>2010-08-29T11:57:26Z</time>
      </trkpt>
      <trkpt lat="45.725769968703389" lon="7.957999985665083">
        <ele>1796.5</ele>
        <time>2010-08-29T11:56:34Z</time>
      </trkpt>
      <trkpt lat="45.725790001451969" lon="7.957880040630698">
        <ele>1798.3</ele>
        <time>2010-08-29T11:56:22Z</time>
      </trkpt>
      <trkpt lat="45.725850015878677" lon="7.957830000668764">
        <ele>1803.2</ele>
        <time>2010-08-29T11:56:06Z</time>
      </trkpt>
      <trkpt lat="45.725929979234934" lon="7.957880040630698">
        <ele>1807.8</ele>
        <time>2010-08-29T11:55:47Z</time>
      </trkpt>
      <trkpt lat="45.726020000874996" lon="7.957929996773601">
        <ele>1810.8</ele>
        <time>2010-08-29T11:55:32Z</time>
      </trkpt>
      <trkpt lat="45.726089989766479" lon="7.958009960129857">
        <ele>1814.2</ele>
        <time>2010-08-29T11:55:17Z</time>
      </trkpt>
      <trkpt lat="45.726110022515059" lon="7.957909964025021">
        <ele>1816.5999999999999</ele>
        <time>2010-08-29T11:55:04Z</time>
      </trkpt>
      <trkpt lat="45.726129971444607" lon="7.95777996070683">
        <ele>1820.3</ele>
        <time>2010-08-29T11:54:54Z</time>
      </trkpt>
      <trkpt lat="45.726170036941767" lon="7.957650041207671">
        <ele>1823.3</ele>
        <time>2010-08-29T11:54:42Z</time>
      </trkpt>
      <trkpt lat="45.726240025833249" lon="7.957720030099154">
        <ele>1827.3</ele>
        <time>2010-08-29T11:54:29Z</time>
      </trkpt>
      <trkpt lat="45.726289981976151" lon="7.957839975133538">
        <ele>1831.5</ele>
        <time>2010-08-29T11:54:17Z</time>
      </trkpt>
      <trkpt lat="45.72634999640286" lon="7.957839975133538">
        <ele>1834</ele>
        <time>2010-08-29T11:53:58Z</time>
      </trkpt>
      <trkpt lat="45.726380003616214" lon="7.957739979028702">
        <ele>1835.8</ele>
        <time>2010-08-29T11:53:43Z</time>
      </trkpt>
      <trkpt lat="45.726440018042922" lon="7.957639982923865">
        <ele>1839.2</ele>
        <time>2010-08-29T11:53:29Z</time>
      </trkpt>
      <trkpt lat="45.72650003246963" lon="7.957530012354255">
        <ele>1843.4000000000001</ele>
        <time>2010-08-29T11:53:15Z</time>
      </trkpt>
      <trkpt lat="45.726530039682984" lon="7.957420041784644">
        <ele>1845.9000000000001</ele>
        <time>2010-08-29T11:53:01Z</time>
      </trkpt>
      <trkpt lat="45.726579995825887" lon="7.957319961860776">
        <ele>1848.9000000000001</ele>
        <time>2010-08-29T11:52:49Z</time>
      </trkpt>
      <trkpt lat="45.726640010252595" lon="7.957230024039745">
        <ele>1853.5</ele>
        <time>2010-08-29T11:52:34Z</time>
      </trkpt>
      <trkpt lat="45.726600028574467" lon="7.957119969651103">
        <ele>1857.5</ele>
        <time>2010-08-29T11:52:19Z</time>
      </trkpt>
      <trkpt lat="45.726549988612533" lon="7.957019973546267">
        <ele>1859.3</ele>
        <time>2010-08-29T11:52:08Z</time>
      </trkpt>
      <trkpt lat="45.726510006934404" lon="7.956900028511882">
        <ele>1861.4000000000001</ele>
        <time>2010-08-29T11:51:59Z</time>
      </trkpt>
      <trkpt lat="45.726519981399179" lon="7.956759966909885">
        <ele>1864.8</ele>
        <time>2010-08-29T11:51:45Z</time>
      </trkpt>
      <trkpt lat="45.726530039682984" lon="7.956629963591695">
        <ele>1869.3</ele>
        <time>2010-08-29T11:51:32Z</time>
      </trkpt>
      <trkpt lat="45.726530039682984" lon="7.956499960273504">
        <ele>1870.9000000000001</ele>
        <time>2010-08-29T11:51:21Z</time>
      </trkpt>
      <trkpt lat="45.726540014147758" lon="7.95635998249054">
        <ele>1874.2</ele>
        <time>2010-08-29T11:51:09Z</time>
      </trkpt>
      <trkpt lat="45.726579995825887" lon="7.956240037456155">
        <ele>1878.5</ele>
        <time>2010-08-29T11:50:54Z</time>
      </trkpt>
      <trkpt lat="45.726540014147758" lon="7.956120008602738">
        <ele>1880.9000000000001</ele>
        <time>2010-08-29T11:50:42Z</time>
      </trkpt>
      <trkpt lat="45.726429959759116" lon="7.95605999417603">
        <ele>1884.9000000000001</ele>
        <time>2010-08-29T11:50:30Z</time>
      </trkpt>
      <trkpt lat="45.72634999640286" lon="7.955999979749322">
        <ele>1889.8</ele>
        <time>2010-08-29T11:50:18Z</time>
      </trkpt>
      <trkpt lat="45.726340021938086" lon="7.955869976431131">
        <ele>1890.7</ele>
        <time>2010-08-29T11:50:08Z</time>
      </trkpt>
      <trkpt lat="45.726280007511377" lon="7.955780038610101">
        <ele>1893.0999999999999</ele>
        <time>2010-08-29T11:49:59Z</time>
      </trkpt>
      <trkpt lat="45.726199960336089" lon="7.955739973112941">
        <ele>1896.5</ele>
        <time>2010-08-29T11:49:48Z</time>
      </trkpt>
      <trkpt lat="45.726150004193187" lon="7.95563000254333">
        <ele>1896.8</ele>
        <time>2010-08-29T11:49:39Z</time>
      </trkpt>
      <trkpt lat="45.726110022515059" lon="7.95552003197372">
        <ele>1896.5</ele>
        <time>2010-08-29T11:49:29Z</time>
      </trkpt>
      <trkpt lat="45.726059982553124" lon="7.955430010333657">
        <ele>1895.9000000000001</ele>
        <time>2010-08-29T11:49:20Z</time>
      </trkpt>
      <trkpt lat="45.726010026410222" lon="7.955320039764047">
        <ele>1897.4000000000001</ele>
        <time>2010-08-29T11:49:10Z</time>
      </trkpt>
      <trkpt lat="45.725950011983514" lon="7.955219959840179">
        <ele>1898.9000000000001</ele>
        <time>2010-08-29T11:49:02Z</time>
      </trkpt>
      <trkpt lat="45.72589997202158" lon="7.955119963735342">
        <ele>1900.7</ele>
        <time>2010-08-29T11:48:49Z</time>
      </trkpt>
      <trkpt lat="45.725840041413903" lon="7.955009993165731">
        <ele>1903.5</ele>
        <time>2010-08-29T11:48:35Z</time>
      </trkpt>
      <trkpt lat="45.725790001451969" lon="7.954900022596121">
        <ele>1905.5999999999999</ele>
        <time>2010-08-29T11:48:26Z</time>
      </trkpt>
      <trkpt lat="45.725729987025261" lon="7.954779993742704">
        <ele>1907.4000000000001</ele>
        <time>2010-08-29T11:48:15Z</time>
      </trkpt>
      <trkpt lat="45.725699979811907" lon="7.954649990424514">
        <ele>1911.4000000000001</ele>
        <time>2010-08-29T11:48:00Z</time>
      </trkpt>
      <trkpt lat="45.725669972598553" lon="7.954529961571097">
        <ele>1914.8</ele>
        <time>2010-08-29T11:47:48Z</time>
      </trkpt>
      <trkpt lat="45.725650023669004" lon="7.954410016536713">
        <ele>1919</ele>
        <time>2010-08-29T11:47:33Z</time>
      </trkpt>
      <trkpt lat="45.725629990920424" lon="7.954289987683296">
        <ele>1922.4000000000001</ele>
        <time>2010-08-29T11:47:20Z</time>
      </trkpt>
      <trkpt lat="45.72559998370707" lon="7.95416995882988">
        <ele>1924.8</ele>
        <time>2010-08-29T11:47:09Z</time>
      </trkpt>
      <trkpt lat="45.725560002028942" lon="7.954050013795495">
        <ele>1926</ele>
        <time>2010-08-29T11:46:57Z</time>
      </trkpt>
      <trkpt lat="45.725509962067008" lon="7.953939959406853">
        <ele>1925.0999999999999</ele>
        <time>2010-08-29T11:46:44Z</time>
      </trkpt>
      <trkpt lat="45.725480038672686" lon="7.953810039907694">
        <ele>1926</ele>
        <time>2010-08-29T11:46:35Z</time>
      </trkpt>
      <trkpt lat="45.72549001313746" lon="7.953690011054277">
        <ele>1924.2</ele>
        <time>2010-08-29T11:46:24Z</time>
      </trkpt>
      <trkpt lat="45.725509962067008" lon="7.953560007736087">
        <ele>1923.9000000000001</ele>
        <time>2010-08-29T11:46:13Z</time>
      </trkpt>
      <trkpt lat="45.725550027564168" lon="7.953450037166476">
        <ele>1924.2</ele>
        <time>2010-08-29T11:46:04Z</time>
      </trkpt>
      <trkpt lat="45.72562001645565" lon="7.95335004106164">
        <ele>1922.7</ele>
        <time>2010-08-29T11:45:52Z</time>
      </trkpt>
      <trkpt lat="45.725659998133779" lon="7.953239986672998">
        <ele>1922.7</ele>
        <time>2010-08-29T11:45:44Z</time>
      </trkpt>
      <trkpt lat="45.725639965385199" lon="7.953100008890033">
        <ele>1924.8</ele>
        <time>2010-08-29T11:45:29Z</time>
      </trkpt>
      <trkpt lat="45.72559998370707" lon="7.953000012785196">
        <ele>1924.8</ele>
        <time>2010-08-29T11:45:15Z</time>
      </trkpt>
      <trkpt lat="45.725590009242296" lon="7.95287998393178">
        <ele>1925.0999999999999</ele>
        <time>2010-08-29T11:44:54Z</time>
      </trkpt>
      <trkpt lat="45.725550027564168" lon="7.952749980613589">
        <ele>1925.7</ele>
        <time>2010-08-29T11:44:43Z</time>
      </trkpt>
      <trkpt lat="45.725529994815588" lon="7.952619977295399">
        <ele>1925.7</ele>
        <time>2010-08-29T11:44:35Z</time>
      </trkpt>
      <trkpt lat="45.725539969280362" lon="7.952489973977208">
        <ele>1925.0999999999999</ele>
        <time>2010-08-29T11:44:24Z</time>
      </trkpt>
      <trkpt lat="45.725539969280362" lon="7.952359970659018">
        <ele>1925.0999999999999</ele>
        <time>2010-08-29T11:44:16Z</time>
      </trkpt>
      <trkpt lat="45.725569976493716" lon="7.952380003407598">
        <ele>1925.0999999999999</ele>
        <time>2010-08-29T11:43:46Z</time>
      </trkpt>
      <trkpt lat="45.725590009242296" lon="7.952280007302761">
        <ele>1925.7</ele>
        <time>2010-08-29T11:43:35Z</time>
      </trkpt>
      <trkpt lat="45.725569976493716" lon="7.952140029519796">
        <ele>1929.0999999999999</ele>
        <time>2010-08-29T11:43:23Z</time>
      </trkpt>
      <trkpt lat="45.72562001645565" lon="7.952080015093088">
        <ele>1931.8</ele>
        <time>2010-08-29T11:43:10Z</time>
      </trkpt>
      <trkpt lat="45.725629990920424" lon="7.951959986239672">
        <ele>1934.9000000000001</ele>
        <time>2010-08-29T11:42:58Z</time>
      </trkpt>
      <trkpt lat="45.72562001645565" lon="7.951829982921481">
        <ele>1938.5</ele>
        <time>2010-08-29T11:42:45Z</time>
      </trkpt>
      <trkpt lat="45.725669972598553" lon="7.951759994029999">
        <ele>1941.9000000000001</ele>
        <time>2010-08-29T11:42:32Z</time>
      </trkpt>
      <trkpt lat="45.725739961490035" lon="7.951829982921481">
        <ele>1944</ele>
        <time>2010-08-29T11:42:20Z</time>
      </trkpt>
      <trkpt lat="45.725750019773841" lon="7.951950011774898">
        <ele>1944.9000000000001</ele>
        <time>2010-08-29T11:42:08Z</time>
      </trkpt>
      <trkpt lat="45.725780026987195" lon="7.952010026201606">
        <ele>1946.8</ele>
        <time>2010-08-29T11:41:46Z</time>
      </trkpt>
      <trkpt lat="45.725840041413903" lon="7.952089989557862">
        <ele>1951.5999999999999</ele>
        <time>2010-08-29T11:41:29Z</time>
      </trkpt>
      <trkpt lat="45.72589997202158" lon="7.952159978449345">
        <ele>1954.4000000000001</ele>
        <time>2010-08-29T11:41:19Z</time>
      </trkpt>
      <trkpt lat="45.725999968126416" lon="7.952180011197925">
        <ele>1956.5</ele>
        <time>2010-08-29T11:41:07Z</time>
      </trkpt>
      <trkpt lat="45.726089989766479" lon="7.952180011197925">
        <ele>1957.4000000000001</ele>
        <time>2010-08-29T11:40:59Z</time>
      </trkpt>
      <trkpt lat="45.726180011406541" lon="7.952229967340827">
        <ele>1959.3</ele>
        <time>2010-08-29T11:40:49Z</time>
      </trkpt>
      <trkpt lat="45.726270033046603" lon="7.952280007302761">
        <ele>1959.9000000000001</ele>
        <time>2010-08-29T11:40:39Z</time>
      </trkpt>
      <trkpt lat="45.72634999640286" lon="7.952340021729469">
        <ele>1961.4000000000001</ele>
        <time>2010-08-29T11:40:29Z</time>
      </trkpt>
      <trkpt lat="45.726429959759116" lon="7.952370028942823">
        <ele>1962.3</ele>
        <time>2010-08-29T11:40:20Z</time>
      </trkpt>
      <trkpt lat="45.726519981399179" lon="7.952359970659018">
        <ele>1963.2</ele>
        <time>2010-08-29T11:40:10Z</time>
      </trkpt>
      <trkpt lat="45.726610003039241" lon="7.952329963445664">
        <ele>1963.5</ele>
        <time>2010-08-29T11:40:01Z</time>
      </trkpt>
      <trkpt lat="45.726700024679303" lon="7.952349996194243">
        <ele>1966</ele>
        <time>2010-08-29T11:39:53Z</time>
      </trkpt>
      <trkpt lat="45.726789962500334" lon="7.952329963445664">
        <ele>1968.4000000000001</ele>
        <time>2010-08-29T11:39:42Z</time>
      </trkpt>
      <trkpt lat="45.726870009675622" lon="7.952270032837987">
        <ele>1970.2</ele>
        <time>2010-08-29T11:39:32Z</time>
      </trkpt>
      <trkpt lat="45.72690999135375" lon="7.952170036733151">
        <ele>1971.8</ele>
        <time>2010-08-29T11:39:23Z</time>
      </trkpt>
      <trkpt lat="45.726949973031878" lon="7.95204003341496">
        <ele>1971.4000000000001</ele>
        <time>2010-08-29T11:39:15Z</time>
      </trkpt>
      <trkpt lat="45.72693002410233" lon="7.951899971812964">
        <ele>1972.4000000000001</ele>
        <time>2010-08-29T11:39:05Z</time>
      </trkpt>
      <trkpt lat="45.726949973031878" lon="7.951769968494773">
        <ele>1973.9000000000001</ele>
        <time>2010-08-29T11:38:56Z</time>
      </trkpt>
      <trkpt lat="45.726979980245233" lon="7.951659997925162">
        <ele>1974.8</ele>
        <time>2010-08-29T11:38:45Z</time>
      </trkpt>
      <trkpt lat="45.727009987458587" lon="7.951529994606972">
        <ele>1973.9000000000001</ele>
        <time>2010-08-29T11:38:37Z</time>
      </trkpt>
      <trkpt lat="45.727049969136715" lon="7.951409965753555">
        <ele>1975.7</ele>
        <time>2010-08-29T11:38:26Z</time>
      </trkpt>
      <trkpt lat="45.727079976350069" lon="7.951290020719171">
        <ele>1975.7</ele>
        <time>2010-08-29T11:38:18Z</time>
      </trkpt>
      <trkpt lat="45.727139990776777" lon="7.951190024614334">
        <ele>1974.8</ele>
        <time>2010-08-29T11:38:07Z</time>
      </trkpt>
      <trkpt lat="45.727169997990131" lon="7.951060021296144">
        <ele>1974.2</ele>
        <time>2010-08-29T11:37:58Z</time>
      </trkpt>
      <trkpt lat="45.72720997966826" lon="7.950949966907501">
        <ele>1973.3</ele>
        <time>2010-08-29T11:37:48Z</time>
      </trkpt>
      <trkpt lat="45.727269994094968" lon="7.950849970802665">
        <ele>1972.7</ele>
        <time>2010-08-29T11:37:39Z</time>
      </trkpt>
      <trkpt lat="45.727309975773096" lon="7.95073002576828">
        <ele>1972.7</ele>
        <time>2010-08-29T11:37:31Z</time>
      </trkpt>
      <trkpt lat="45.727330008521676" lon="7.95060002245009">
        <ele>1973.9000000000001</ele>
        <time>2010-08-29T11:37:23Z</time>
      </trkpt>
      <trkpt lat="45.72736001573503" lon="7.950489968061447">
        <ele>1976</ele>
        <time>2010-08-29T11:37:12Z</time>
      </trkpt>
      <trkpt lat="45.727390022948384" lon="7.950370023027062">
        <ele>1976</ele>
        <time>2010-08-29T11:37:04Z</time>
      </trkpt>
      <trkpt lat="45.727430004626513" lon="7.95025996863842">
        <ele>1978.2</ele>
        <time>2010-08-29T11:36:53Z</time>
      </trkpt>
      <trkpt lat="45.727430004626513" lon="7.950140023604035">
        <ele>1980.5999999999999</ele>
        <time>2010-08-29T11:36:42Z</time>
      </trkpt>
      <trkpt lat="45.727479960769415" lon="7.950019994750619">
        <ele>1981.5</ele>
        <time>2010-08-29T11:36:34Z</time>
      </trkpt>
      <trkpt lat="45.727399997413158" lon="7.950019994750619">
        <ele>1984.9000000000001</ele>
        <time>2010-08-29T11:36:22Z</time>
      </trkpt>
      <trkpt lat="45.727350041270256" lon="7.949959980323911">
        <ele>1989.7</ele>
        <time>2010-08-29T11:36:06Z</time>
      </trkpt>
      <trkpt lat="45.727439979091287" lon="7.949910024181008">
        <ele>1994.3</ele>
        <time>2010-08-29T11:35:51Z</time>
      </trkpt>
      <trkpt lat="45.727520026266575" lon="7.94982997700572">
        <ele>1995.2</ele>
        <time>2010-08-29T11:35:40Z</time>
      </trkpt>
      <trkpt lat="45.727550033479929" lon="7.94974003918469">
        <ele>1999.8</ele>
        <time>2010-08-29T11:35:29Z</time>
      </trkpt>
      <trkpt lat="45.727490019053221" lon="7.94974003918469">
        <ele>2001</ele>
        <time>2010-08-29T11:35:19Z</time>
      </trkpt>
      <trkpt lat="45.727439979091287" lon="7.949680024757981">
        <ele>2005.9000000000001</ele>
        <time>2010-08-29T11:35:04Z</time>
      </trkpt>
      <trkpt lat="45.727379964664578" lon="7.949610035866499">
        <ele>2008.3</ele>
        <time>2010-08-29T11:34:50Z</time>
      </trkpt>
      <trkpt lat="45.727399997413158" lon="7.949499981477857">
        <ele>2012.3</ele>
        <time>2010-08-29T11:34:38Z</time>
      </trkpt>
      <trkpt lat="45.727469986304641" lon="7.949409959837794">
        <ele>2013.5</ele>
        <time>2010-08-29T11:34:26Z</time>
      </trkpt>
      <trkpt lat="45.727509967982769" lon="7.949280040338635">
        <ele>2014.7</ele>
        <time>2010-08-29T11:34:17Z</time>
      </trkpt>
      <trkpt lat="45.727490019053221" lon="7.949150037020445">
        <ele>2018.0999999999999</ele>
        <time>2010-08-29T11:34:06Z</time>
      </trkpt>
      <trkpt lat="45.727479960769415" lon="7.949020033702254">
        <ele>2018.4000000000001</ele>
        <time>2010-08-29T11:33:55Z</time>
      </trkpt>
      <trkpt lat="45.727450037375093" lon="7.948909979313612">
        <ele>2015.9000000000001</ele>
        <time>2010-08-29T11:33:44Z</time>
      </trkpt>
      <trkpt lat="45.727390022948384" lon="7.94883999042213">
        <ele>2014.7</ele>
        <time>2010-08-29T11:20:48Z</time>
      </trkpt>
      <trkpt lat="45.72736001573503" lon="7.948719961568713">
        <ele>2014.7</ele>
        <time>2010-08-29T11:20:37Z</time>
      </trkpt>
      <trkpt lat="45.727409971877933" lon="7.948609990999103">
        <ele>2015.9000000000001</ele>
        <time>2010-08-29T11:20:26Z</time>
      </trkpt>
      <trkpt lat="45.727460011839867" lon="7.948509994894266">
        <ele>2017.5</ele>
        <time>2010-08-29T11:20:18Z</time>
      </trkpt>
      <trkpt lat="45.727499993517995" lon="7.948400024324656">
        <ele>2017.5</ele>
        <time>2010-08-29T11:20:09Z</time>
      </trkpt>
      <trkpt lat="45.727520026266575" lon="7.948270021006465">
        <ele>2019</ele>
        <time>2010-08-29T11:19:57Z</time>
      </trkpt>
      <trkpt lat="45.727539975196123" lon="7.948140017688274">
        <ele>2019.9000000000001</ele>
        <time>2010-08-29T11:19:47Z</time>
      </trkpt>
      <trkpt lat="45.727509967982769" lon="7.948019988834858">
        <ele>2022.7</ele>
        <time>2010-08-29T11:19:36Z</time>
      </trkpt>
      <trkpt lat="45.727499993517995" lon="7.947899959981442">
        <ele>2024.2</ele>
        <time>2010-08-29T11:19:24Z</time>
      </trkpt>
      <trkpt lat="45.727539975196123" lon="7.947799963876605">
        <ele>2026</ele>
        <time>2010-08-29T11:19:12Z</time>
      </trkpt>
      <trkpt lat="45.727569982409477" lon="7.947689993306994">
        <ele>2030.9000000000001</ele>
        <time>2010-08-29T11:19:01Z</time>
      </trkpt>
      <trkpt lat="45.727550033479929" lon="7.947580022737384">
        <ele>2035.0999999999999</ele>
        <time>2010-08-29T11:18:49Z</time>
      </trkpt>
      <trkpt lat="45.727550033479929" lon="7.947459993883967">
        <ele>2037.5999999999999</ele>
        <time>2010-08-29T11:18:23Z</time>
      </trkpt>
      <trkpt lat="45.727539975196123" lon="7.947350023314357">
        <ele>2040.5999999999999</ele>
        <time>2010-08-29T11:18:10Z</time>
      </trkpt>
      <trkpt lat="45.727539975196123" lon="7.94725002720952">
        <ele>2045.2</ele>
        <time>2010-08-29T11:17:58Z</time>
      </trkpt>
      <trkpt lat="45.727539975196123" lon="7.947139972820878">
        <ele>2048.3000000000002</ele>
        <time>2010-08-29T11:17:47Z</time>
      </trkpt>
      <trkpt lat="45.727509967982769" lon="7.947069983929396">
        <ele>2049.8000000000002</ele>
        <time>2010-08-29T11:17:32Z</time>
      </trkpt>
      <trkpt lat="45.727509967982769" lon="7.946960013359785">
        <ele>2055</ele>
        <time>2010-08-29T11:17:19Z</time>
      </trkpt>
      <trkpt lat="45.727550033479929" lon="7.946849958971143">
        <ele>2058.9000000000001</ele>
        <time>2010-08-29T11:17:09Z</time>
      </trkpt>
      <trkpt lat="45.727490019053221" lon="7.94680000282824">
        <ele>2062.3000000000002</ele>
        <time>2010-08-29T11:16:54Z</time>
      </trkpt>
      <trkpt lat="45.727460011839867" lon="7.946709981188178">
        <ele>2065</ele>
        <time>2010-08-29T11:16:39Z</time>
      </trkpt>
      <trkpt lat="45.727460011839867" lon="7.946630017831922">
        <ele>2068.4000000000001</ele>
        <time>2010-08-29T11:16:26Z</time>
      </trkpt>
      <trkpt lat="45.727460011839867" lon="7.946530021727085">
        <ele>2072.5999999999999</ele>
        <time>2010-08-29T11:16:11Z</time>
      </trkpt>
      <trkpt lat="45.727420030161738" lon="7.946449974551797">
        <ele>2075.6999999999998</ele>
        <time>2010-08-29T11:15:58Z</time>
      </trkpt>
      <trkpt lat="45.727330008521676" lon="7.946430025622249">
        <ele>2080.5999999999999</ele>
        <time>2010-08-29T11:15:44Z</time>
      </trkpt>
      <trkpt lat="45.727300001308322" lon="7.946360036730766">
        <ele>2082.6999999999998</ele>
        <time>2010-08-29T11:15:32Z</time>
      </trkpt>
      <trkpt lat="45.727269994094968" lon="7.946300022304058">
        <ele>2085.0999999999999</ele>
        <time>2010-08-29T11:15:18Z</time>
      </trkpt>
      <trkpt lat="45.72720997966826" lon="7.946249982342124">
        <ele>2089.0999999999999</ele>
        <time>2010-08-29T11:15:05Z</time>
      </trkpt>
      <trkpt lat="45.727130016312003" lon="7.94624000787735">
        <ele>2091.8000000000002</ele>
        <time>2010-08-29T11:14:50Z</time>
      </trkpt>
      <trkpt lat="45.727039994671941" lon="7.946230033412576">
        <ele>2094.3000000000002</ele>
        <time>2010-08-29T11:14:38Z</time>
      </trkpt>
      <trkpt lat="45.726949973031878" lon="7.946249982342124">
        <ele>2096.6999999999998</ele>
        <time>2010-08-29T11:14:27Z</time>
      </trkpt>
      <trkpt lat="45.72690999135375" lon="7.946200026199222">
        <ele>2100.0999999999999</ele>
        <time>2010-08-29T11:14:12Z</time>
      </trkpt>
      <trkpt lat="45.72688995860517" lon="7.946119979023933">
        <ele>2103.4000000000001</ele>
        <time>2010-08-29T11:14:00Z</time>
      </trkpt>
      <trkpt lat="45.726860035210848" lon="7.946049990132451">
        <ele>2107.6999999999998</ele>
        <time>2010-08-29T11:13:47Z</time>
      </trkpt>
      <trkpt lat="45.726919965818524" lon="7.945949994027615">
        <ele>2111.6999999999998</ele>
        <time>2010-08-29T11:13:33Z</time>
      </trkpt>
      <trkpt lat="45.726860035210848" lon="7.945900037884712">
        <ele>2113.5</ele>
        <time>2010-08-29T11:13:18Z</time>
      </trkpt>
      <trkpt lat="45.72688995860517" lon="7.945800041779876">
        <ele>2118.0999999999999</ele>
        <time>2010-08-29T11:13:06Z</time>
      </trkpt>
      <trkpt lat="45.726960031315684" lon="7.945699961856008">
        <ele>2120.8000000000002</ele>
        <time>2010-08-29T11:12:55Z</time>
      </trkpt>
      <trkpt lat="45.727009987458587" lon="7.945610024034977">
        <ele>2122.5999999999999</ele>
        <time>2010-08-29T11:12:46Z</time>
      </trkpt>
      <trkpt lat="45.727070001885295" lon="7.945529976859689">
        <ele>2125.0999999999999</ele>
        <time>2010-08-29T11:12:35Z</time>
      </trkpt>
      <trkpt lat="45.727139990776777" lon="7.945450013503432">
        <ele>2127.5</ele>
        <time>2010-08-29T11:12:26Z</time>
      </trkpt>
      <trkpt lat="45.72720997966826" lon="7.94535999186337">
        <ele>2130.5999999999999</ele>
        <time>2010-08-29T11:12:14Z</time>
      </trkpt>
      <trkpt lat="45.727269994094968" lon="7.945280028507114">
        <ele>2132.6999999999998</ele>
        <time>2010-08-29T11:12:01Z</time>
      </trkpt>
      <trkpt lat="45.727320034056902" lon="7.945169974118471">
        <ele>2136.3000000000002</ele>
        <time>2010-08-29T11:11:49Z</time>
      </trkpt>
      <trkpt lat="45.727390022948384" lon="7.945080036297441">
        <ele>2136.5999999999999</ele>
        <time>2010-08-29T11:11:38Z</time>
      </trkpt>
      <trkpt lat="45.727439979091287" lon="7.944969981908798">
        <ele>2138.5</ele>
        <time>2010-08-29T11:11:28Z</time>
      </trkpt>
      <trkpt lat="45.727490019053221" lon="7.944879960268736">
        <ele>2141.5</ele>
        <time>2010-08-29T11:11:14Z</time>
      </trkpt>
      <trkpt lat="45.727560007944703" lon="7.944820029661059">
        <ele>2144</ele>
        <time>2010-08-29T11:11:03Z</time>
      </trkpt>
      <trkpt lat="45.727650029584765" lon="7.944809971377254">
        <ele>2145.8000000000002</ele>
        <time>2010-08-29T11:10:53Z</time>
      </trkpt>
      <trkpt lat="45.727709960192442" lon="7.944679968059063">
        <ele>2149.8000000000002</ele>
        <time>2010-08-29T11:10:39Z</time>
      </trkpt>
      <trkpt lat="45.72779000736773" lon="7.944639986380935">
        <ele>2149.0999999999999</ele>
        <time>2010-08-29T11:10:28Z</time>
      </trkpt>
      <trkpt lat="45.727869970723987" lon="7.944660019129515">
        <ele>2152.5</ele>
        <time>2010-08-29T11:10:19Z</time>
      </trkpt>
      <trkpt lat="45.727950017899275" lon="7.944639986380935">
        <ele>2153.0999999999999</ele>
        <time>2010-08-29T11:10:07Z</time>
      </trkpt>
      <trkpt lat="45.728040039539337" lon="7.944590030238032">
        <ele>2155.9000000000001</ele>
        <time>2010-08-29T11:09:56Z</time>
      </trkpt>
      <trkpt lat="45.728129977360368" lon="7.944620037451387">
        <ele>2156.8000000000002</ele>
        <time>2010-08-29T11:09:44Z</time>
      </trkpt>
      <trkpt lat="45.728210024535656" lon="7.944679968059063">
        <ele>2156.8000000000002</ele>
        <time>2010-08-29T11:09:33Z</time>
      </trkpt>
      <trkpt lat="45.728270038962364" lon="7.944769989699125">
        <ele>2159.1999999999998</ele>
        <time>2010-08-29T11:09:21Z</time>
      </trkpt>
      <trkpt lat="45.728359976783395" lon="7.944820029661059">
        <ele>2162.3000000000002</ele>
        <time>2010-08-29T11:09:10Z</time>
      </trkpt>
      <trkpt lat="45.728449998423457" lon="7.944869985803962">
        <ele>2164.0999999999999</ele>
        <time>2010-08-29T11:08:59Z</time>
      </trkpt>
      <trkpt lat="45.728519987314939" lon="7.94493000023067">
        <ele>2168.3000000000002</ele>
        <time>2010-08-29T11:08:47Z</time>
      </trkpt>
      <trkpt lat="45.728600034490228" lon="7.944990014657378">
        <ele>2169.9000000000001</ele>
        <time>2010-08-29T11:08:33Z</time>
      </trkpt>
      <trkpt lat="45.728659965097904" lon="7.945090010762215">
        <ele>2173.8000000000002</ele>
        <time>2010-08-29T11:08:20Z</time>
      </trkpt>
      <trkpt lat="45.728749986737967" lon="7.945109959691763">
        <ele>2173.8000000000002</ele>
        <time>2010-08-29T11:08:09Z</time>
      </trkpt>
      <trkpt lat="45.728840008378029" lon="7.945169974118471">
        <ele>2174.6999999999998</ele>
        <time>2010-08-29T11:08:01Z</time>
      </trkpt>
      <trkpt lat="45.728930030018091" lon="7.945210039615631">
        <ele>2175.0999999999999</ele>
        <time>2010-08-29T11:07:50Z</time>
      </trkpt>
      <trkpt lat="45.728979986160994" lon="7.945220014080405">
        <ele>2177.1999999999998</ele>
        <time>2010-08-29T11:07:26Z</time>
      </trkpt>
      <trkpt lat="45.729070007801056" lon="7.945199981331825">
        <ele>2178.4000000000001</ele>
        <time>2010-08-29T11:07:18Z</time>
      </trkpt>
      <trkpt lat="45.729160029441118" lon="7.945150025188923">
        <ele>2180.8000000000002</ele>
        <time>2010-08-29T11:07:06Z</time>
      </trkpt>
      <trkpt lat="45.729249967262149" lon="7.945139966905117">
        <ele>2183.3000000000002</ele>
        <time>2010-08-29T11:06:55Z</time>
      </trkpt>
      <trkpt lat="45.729330014437437" lon="7.945180032402277">
        <ele>2185.0999999999999</ele>
        <time>2010-08-29T11:06:44Z</time>
      </trkpt>
      <trkpt lat="45.729420036077499" lon="7.945180032402277">
        <ele>2187.1999999999998</ele>
        <time>2010-08-29T11:06:35Z</time>
      </trkpt>
      <trkpt lat="45.72950997389853" lon="7.945199981331825">
        <ele>2188.5</ele>
        <time>2010-08-29T11:06:25Z</time>
      </trkpt>
      <trkpt lat="45.729599995538592" lon="7.945229988545179">
        <ele>2190.5999999999999</ele>
        <time>2010-08-29T11:06:14Z</time>
      </trkpt>
      <trkpt lat="45.729690017178655" lon="7.945259995758534">
        <ele>2192.4000000000001</ele>
        <time>2010-08-29T11:06:04Z</time>
      </trkpt>
      <trkpt lat="45.729709966108203" lon="7.94535999186337">
        <ele>2196.6999999999998</ele>
        <time>2010-08-29T11:05:53Z</time>
      </trkpt>
      <trkpt lat="45.729760006070137" lon="7.945410031825304">
        <ele>2196.6999999999998</ele>
        <time>2010-08-29T11:05:31Z</time>
      </trkpt>
      <trkpt lat="45.729829994961619" lon="7.945489995181561">
        <ele>2196.4000000000001</ele>
        <time>2010-08-29T11:05:20Z</time>
      </trkpt>
      <trkpt lat="45.729909958317876" lon="7.945569958537817">
        <ele>2196.4000000000001</ele>
        <time>2010-08-29T11:05:11Z</time>
      </trkpt>
      <trkpt lat="45.729920016601682" lon="7.945710020139813">
        <ele>2198.8000000000002</ele>
        <time>2010-08-29T11:05:03Z</time>
      </trkpt>
      <trkpt lat="45.729969972744584" lon="7.945819990709424">
        <ele>2198.1999999999998</ele>
        <time>2010-08-29T11:04:52Z</time>
      </trkpt>
      <trkpt lat="45.730059994384646" lon="7.945880005136132">
        <ele>2198.8000000000002</ele>
        <time>2010-08-29T11:04:41Z</time>
      </trkpt>
      <trkpt lat="45.730129983276129" lon="7.945959968492389">
        <ele>2202.5</ele>
        <time>2010-08-29T11:04:33Z</time>
      </trkpt>
      <trkpt lat="45.730159990489483" lon="7.946079997345805">
        <ele>2203.4000000000001</ele>
        <time>2010-08-29T11:04:24Z</time>
      </trkpt>
      <trkpt lat="45.730229979380965" lon="7.946179993450642">
        <ele>2203.0999999999999</ele>
        <time>2010-08-29T11:04:14Z</time>
      </trkpt>
      <trkpt lat="45.730310026556253" lon="7.94624000787735">
        <ele>2201.5999999999999</ele>
        <time>2010-08-29T11:04:05Z</time>
      </trkpt>
      <trkpt lat="45.730399964377284" lon="7.946279989555478">
        <ele>2200.6999999999998</ele>
        <time>2010-08-29T11:03:54Z</time>
      </trkpt>
      <trkpt lat="45.730489986017346" lon="7.946340003982186">
        <ele>2200.6999999999998</ele>
        <time>2010-08-29T11:03:43Z</time>
      </trkpt>
      <trkpt lat="45.730580007657409" lon="7.946379985660315">
        <ele>2200</ele>
        <time>2010-08-29T11:03:35Z</time>
      </trkpt>
      <trkpt lat="45.730670029297471" lon="7.946449974551797">
        <ele>2200</ele>
        <time>2010-08-29T11:03:26Z</time>
      </trkpt>
      <trkpt lat="45.730759967118502" lon="7.946449974551797">
        <ele>2200.6999999999998</ele>
        <time>2010-08-29T11:03:18Z</time>
      </trkpt>
      <trkpt lat="45.730849988758564" lon="7.946449974551797">
        <ele>2201.5999999999999</ele>
        <time>2010-08-29T11:03:09Z</time>
      </trkpt>
      <trkpt lat="45.7309499848634" lon="7.946419967338443">
        <ele>2201.5999999999999</ele>
        <time>2010-08-29T11:03:00Z</time>
      </trkpt>
      <trkpt lat="45.731000024825335" lon="7.946409992873669">
        <ele>2203.0999999999999</ele>
        <time>2010-08-29T11:02:52Z</time>
      </trkpt>
      <trkpt lat="45.731060039252043" lon="7.946360036730766">
        <ele>2204</ele>
        <time>2010-08-29T11:02:44Z</time>
      </trkpt>
      <trkpt lat="45.731140002608299" lon="7.946319971233606">
        <ele>2204.3000000000002</ele>
        <time>2010-08-29T11:02:33Z</time>
      </trkpt>
      <trkpt lat="45.731230024248362" lon="7.946270015090704">
        <ele>2204.9000000000001</ele>
        <time>2010-08-29T11:02:24Z</time>
      </trkpt>
      <trkpt lat="45.731339994817972" lon="7.946270015090704">
        <ele>2203.4000000000001</ele>
        <time>2010-08-29T11:02:13Z</time>
      </trkpt>
      <trkpt lat="45.731419958174229" lon="7.946230033412576">
        <ele>2203.4000000000001</ele>
        <time>2010-08-29T11:02:01Z</time>
      </trkpt>
      <trkpt lat="45.731490030884743" lon="7.946210000663996">
        <ele>2202.1999999999998</ele>
        <time>2010-08-29T11:01:51Z</time>
      </trkpt>
      <trkpt lat="45.731630008667707" lon="7.946249982342124">
        <ele>2202.5</ele>
        <time>2010-08-29T11:01:43Z</time>
      </trkpt>
      <trkpt lat="45.731730004772544" lon="7.946249982342124">
        <ele>2202.5</ele>
        <time>2010-08-29T11:01:34Z</time>
      </trkpt>
      <trkpt lat="45.73183000087738" lon="7.94624000787735">
        <ele>2202.5</ele>
        <time>2010-08-29T11:01:26Z</time>
      </trkpt>
      <trkpt lat="45.731950029730797" lon="7.946249982342124">
        <ele>2202.5</ele>
        <time>2010-08-29T11:01:17Z</time>
      </trkpt>
      <trkpt lat="45.732050025835633" lon="7.94624000787735">
        <ele>2202.1999999999998</ele>
        <time>2010-08-29T11:01:09Z</time>
      </trkpt>
      <trkpt lat="45.73215002194047" lon="7.946200026199222">
        <ele>2202.1999999999998</ele>
        <time>2010-08-29T11:01:01Z</time>
      </trkpt>
      <trkpt lat="45.7322399597615" lon="7.946149986237288">
        <ele>2201.5999999999999</ele>
        <time>2010-08-29T11:00:53Z</time>
      </trkpt>
      <trkpt lat="45.732320006936789" lon="7.946089971810579">
        <ele>2201.5999999999999</ele>
        <time>2010-08-29T11:00:46Z</time>
      </trkpt>
      <trkpt lat="45.732369963079691" lon="7.946019982919097">
        <ele>2202.1999999999998</ele>
        <time>2010-08-29T11:00:40Z</time>
      </trkpt>
      <trkpt lat="45.732450010254979" lon="7.945970026776195">
        <ele>2202.5</ele>
        <time>2010-08-29T11:00:32Z</time>
      </trkpt>
      <trkpt lat="45.732519999146461" lon="7.945929961279035">
        <ele>2202.5</ele>
        <time>2010-08-29T11:00:25Z</time>
      </trkpt>
      <trkpt lat="45.732589988037944" lon="7.945829965174198">
        <ele>2200.6999999999998</ele>
        <time>2010-08-29T11:00:11Z</time>
      </trkpt>
      <trkpt lat="45.732670035213232" lon="7.945770034566522">
        <ele>2199.6999999999998</ele>
        <time>2010-08-29T11:00:00Z</time>
      </trkpt>
      <trkpt lat="45.732740024104714" lon="7.945640031248331">
        <ele>2199.6999999999998</ele>
        <time>2010-08-29T10:59:43Z</time>
      </trkpt>
      <trkpt lat="45.732829961925745" lon="7.945580016821623">
        <ele>2201</ele>
        <time>2010-08-29T10:59:27Z</time>
      </trkpt>
      <trkpt lat="45.732870027422905" lon="7.945489995181561">
        <ele>2201.5999999999999</ele>
        <time>2010-08-29T10:59:16Z</time>
      </trkpt>
      <trkpt lat="45.732970023527741" lon="7.945510027930141">
        <ele>2202.1999999999998</ele>
        <time>2010-08-29T10:59:06Z</time>
      </trkpt>
      <trkpt lat="45.733070019632578" lon="7.945520002394915">
        <ele>2202.5</ele>
        <time>2010-08-29T10:58:54Z</time>
      </trkpt>
      <trkpt lat="45.733189964666963" lon="7.945540035143495">
        <ele>2202.1999999999998</ele>
        <time>2010-08-29T10:58:45Z</time>
      </trkpt>
      <trkpt lat="45.733289960771799" lon="7.945550009608269">
        <ele>2203.0999999999999</ele>
        <time>2010-08-29T10:58:34Z</time>
      </trkpt>
      <trkpt lat="45.733400015160441" lon="7.945559984073043">
        <ele>2202.5</ele>
        <time>2010-08-29T10:58:23Z</time>
      </trkpt>
      <trkpt lat="45.733470004051924" lon="7.945499969646335">
        <ele>2201.5999999999999</ele>
        <time>2010-08-29T10:58:14Z</time>
      </trkpt>
      <trkpt lat="45.733560025691986" lon="7.945459987968206">
        <ele>2202.5</ele>
        <time>2010-08-29T10:58:03Z</time>
      </trkpt>
      <trkpt lat="45.733649963513017" lon="7.945410031825304">
        <ele>2203.0999999999999</ele>
        <time>2010-08-29T10:57:55Z</time>
      </trkpt>
      <trkpt lat="45.733739985153079" lon="7.94538002461195">
        <ele>2202.5</ele>
        <time>2010-08-29T10:57:45Z</time>
      </trkpt>
      <trkpt lat="45.733839981257915" lon="7.945350017398596">
        <ele>2203.0999999999999</ele>
        <time>2010-08-29T10:57:36Z</time>
      </trkpt>
      <trkpt lat="45.733899995684624" lon="7.945239963009954">
        <ele>2200</ele>
        <time>2010-08-29T10:57:28Z</time>
      </trkpt>
      <trkpt lat="45.733969984576106" lon="7.945159999653697">
        <ele>2201</ele>
        <time>2010-08-29T10:57:18Z</time>
      </trkpt>
      <trkpt lat="45.734050031751394" lon="7.945080036297441">
        <ele>2204.3000000000002</ele>
        <time>2010-08-29T10:57:09Z</time>
      </trkpt>
      <trkpt lat="45.734139969572425" lon="7.945009963586927">
        <ele>2205.8000000000002</ele>
        <time>2010-08-29T10:57:00Z</time>
      </trkpt>
      <trkpt lat="45.734220016747713" lon="7.94495003297925">
        <ele>2205.8000000000002</ele>
        <time>2010-08-29T10:56:50Z</time>
      </trkpt>
      <trkpt lat="45.734310038387775" lon="7.944920025765896">
        <ele>2208</ele>
        <time>2010-08-29T10:56:42Z</time>
      </trkpt>
      <trkpt lat="45.734399976208806" lon="7.944869985803962">
        <ele>2207.4000000000001</ele>
        <time>2010-08-29T10:56:34Z</time>
      </trkpt>
      <trkpt lat="45.734480023384094" lon="7.944809971377254">
        <ele>2208.3000000000002</ele>
        <time>2010-08-29T10:56:26Z</time>
      </trkpt>
      <trkpt lat="45.734559986740351" lon="7.944750040769577">
        <ele>2208.9000000000001</ele>
        <time>2010-08-29T10:56:18Z</time>
      </trkpt>
      <trkpt lat="45.734640033915639" lon="7.944700000807643">
        <ele>2209.1999999999998</ele>
        <time>2010-08-29T10:56:10Z</time>
      </trkpt>
      <trkpt lat="45.734710022807121" lon="7.944609979167581">
        <ele>2209.1999999999998</ele>
        <time>2010-08-29T10:55:59Z</time>
      </trkpt>
      <trkpt lat="45.73475000448525" lon="7.944490034133196">
        <ele>2210.0999999999999</ele>
        <time>2010-08-29T10:55:48Z</time>
      </trkpt>
      <trkpt lat="45.734740030020475" lon="7.944370005279779">
        <ele>2210.6999999999998</ele>
        <time>2010-08-29T10:55:40Z</time>
      </trkpt>
      <trkpt lat="45.734719997271895" lon="7.944249976426363">
        <ele>2211.3000000000002</ele>
        <time>2010-08-29T10:55:13Z</time>
      </trkpt>
      <trkpt lat="45.734740030020475" lon="7.944119973108172">
        <ele>2212.1999999999998</ele>
        <time>2010-08-29T10:54:58Z</time>
      </trkpt>
      <trkpt lat="45.734740030020475" lon="7.943989969789982">
        <ele>2212.1999999999998</ele>
        <time>2010-08-29T10:54:47Z</time>
      </trkpt>
      <trkpt lat="45.734850000590086" lon="7.943970020860434">
        <ele>2212.5</ele>
        <time>2010-08-29T10:52:30Z</time>
      </trkpt>
      <trkpt lat="45.734919989481568" lon="7.943900031968951">
        <ele>2214.0999999999999</ele>
        <time>2010-08-29T10:52:19Z</time>
      </trkpt>
      <trkpt lat="45.734980003908277" lon="7.943819984793663">
        <ele>2214.6999999999998</ele>
        <time>2010-08-29T10:52:09Z</time>
      </trkpt>
      <trkpt lat="45.735000036656857" lon="7.943700039759278">
        <ele>2215</ele>
        <time>2010-08-29T10:52:01Z</time>
      </trkpt>
      <trkpt lat="45.735059967264533" lon="7.943629967048764">
        <ele>2214.6999999999998</ele>
        <time>2010-08-29T10:51:53Z</time>
      </trkpt>
      <trkpt lat="45.735119981691241" lon="7.943580010905862">
        <ele>2215.5999999999999</ele>
        <time>2010-08-29T10:50:44Z</time>
      </trkpt>
      <trkpt lat="45.735200028866529" lon="7.94351002201438">
        <ele>2218.3000000000002</ele>
        <time>2010-08-29T10:50:08Z</time>
      </trkpt>
      <trkpt lat="45.735249985009432" lon="7.943410025909543">
        <ele>2219.9000000000001</ele>
        <time>2010-08-29T10:49:56Z</time>
      </trkpt>
      <trkpt lat="45.73528996668756" lon="7.943289997056127">
        <ele>2224.0999999999999</ele>
        <time>2010-08-29T10:49:42Z</time>
      </trkpt>
      <trkpt lat="45.735349981114268" lon="7.94319000095129">
        <ele>2226</ele>
        <time>2010-08-29T10:49:33Z</time>
      </trkpt>
      <trkpt lat="45.735400021076202" lon="7.94308003038168">
        <ele>2227.1999999999998</ele>
        <time>2010-08-29T10:49:23Z</time>
      </trkpt>
      <trkpt lat="45.735470009967685" lon="7.942980034276843">
        <ele>2229.9000000000001</ele>
        <time>2010-08-29T10:49:12Z</time>
      </trkpt>
      <trkpt lat="45.735509991645813" lon="7.942860005423427">
        <ele>2233.9000000000001</ele>
        <time>2010-08-29T10:49:00Z</time>
      </trkpt>
      <trkpt lat="45.735499346628785" lon="7.942921696230769">
        <ele>2230.876708984375</ele>
        <time>2012-09-18T12:42:11Z</time>
      </trkpt>
      <trkpt lat="45.735515775159001" lon="7.942809127271175">
        <ele>2233.760498046875</ele>
        <time>2012-09-18T12:41:58Z</time>
      </trkpt>
      <trkpt lat="45.735535975545645" lon="7.942678369581699">
        <ele>2236.64453125</ele>
        <time>2012-09-18T12:41:42Z</time>
      </trkpt>
      <trkpt lat="45.735565731301904" lon="7.942534536123276">
        <ele>2240.00927734375</ele>
        <time>2012-09-18T12:41:26Z</time>
      </trkpt>
      <trkpt lat="45.735597666352987" lon="7.94235784560442">
        <ele>2242.89306640625</ele>
        <time>2012-09-18T12:41:07Z</time>
      </trkpt>
      <trkpt lat="45.735644018277526" lon="7.942260866984725">
        <ele>2244.3349609375</ele>
        <time>2012-09-18T12:40:47Z</time>
      </trkpt>
      <trkpt lat="45.735661871731281" lon="7.94222298078239">
        <ele>2245.29638671875</ele>
        <time>2012-09-18T12:40:42Z</time>
      </trkpt>
      <trkpt lat="45.735718533396721" lon="7.942092139273882">
        <ele>2247.69970703125</ele>
        <time>2012-09-18T12:40:25Z</time>
      </trkpt>
      <trkpt lat="45.735724316909909" lon="7.941938331350684">
        <ele>2251.064208984375</ele>
        <time>2012-09-18T12:40:09Z</time>
      </trkpt>
      <trkpt lat="45.735771842300892" lon="7.941768681630492">
        <ele>2253.948486328125</ele>
        <time>2012-09-18T12:39:54Z</time>
      </trkpt>
      <trkpt lat="45.73583671823144" lon="7.941671870648861">
        <ele>2257.31298828125</ele>
        <time>2012-09-18T12:39:41Z</time>
      </trkpt>
      <trkpt lat="45.73584602214396" lon="7.941568437963724">
        <ele>2259.235595703125</ele>
        <time>2012-09-18T12:39:20Z</time>
      </trkpt>
      <trkpt lat="45.735829845070839" lon="7.941563157364726">
        <ele>2259.235595703125</ele>
        <time>2012-09-18T12:38:28Z</time>
      </trkpt>
      <trkpt lat="45.735845351591706" lon="7.941528037190437">
        <ele>2259.716064453125</ele>
        <time>2012-09-18T12:38:10Z</time>
      </trkpt>
      <trkpt lat="45.73586555197835" lon="7.941490150988102">
        <ele>2259.716064453125</ele>
        <time>2012-09-18T12:37:28Z</time>
      </trkpt>
      <trkpt lat="45.735832443460822" lon="7.941566593945026">
        <ele>2259.716064453125</ele>
        <time>2012-09-18T12:37:14Z</time>
      </trkpt>
      <trkpt lat="45.735815931111574" lon="7.941557122394443">
        <ele>2259.716064453125</ele>
        <time>2012-09-18T12:36:41Z</time>
      </trkpt>
      <trkpt lat="45.735840238630772" lon="7.941526025533676">
        <ele>2259.235595703125</ele>
        <time>2012-09-18T12:36:04Z</time>
      </trkpt>
      <trkpt lat="45.73583085089922" lon="7.941590566188097">
        <ele>2259.716064453125</ele>
        <time>2012-09-18T12:35:45Z</time>
      </trkpt>
      <trkpt lat="45.735861361026764" lon="7.941493252292275">
        <ele>2259.716064453125</ele>
        <time>2012-09-18T12:35:30Z</time>
      </trkpt>
      <trkpt lat="45.7359061203897" lon="7.94148956425488">
        <ele>2260.19677734375</ele>
        <time>2012-09-18T12:35:14Z</time>
      </trkpt>
      <trkpt lat="45.735999746248126" lon="7.941509848460555">
        <ele>2261.158203125</ele>
        <time>2012-09-18T12:34:58Z</time>
      </trkpt>
      <trkpt lat="45.73604634962976" lon="7.941535580903292">
        <ele>2261.638916015625</ele>
        <time>2012-09-18T12:34:45Z</time>
      </trkpt>
      <trkpt lat="45.736109549179673" lon="7.9416180588305">
        <ele>2262.60009765625</ele>
        <time>2012-09-18T12:34:30Z</time>
      </trkpt>
      <trkpt lat="45.736148692667484" lon="7.941639181226492">
        <ele>2263.561279296875</ele>
        <time>2012-09-18T12:34:16Z</time>
      </trkpt>
      <trkpt lat="45.736156655475497" lon="7.94160925783217">
        <ele>2263.561279296875</ele>
        <time>2012-09-18T12:33:57Z</time>
      </trkpt>
      <trkpt lat="45.736208371818066" lon="7.941614454612136">
        <ele>2266.4453125</ele>
        <time>2012-09-18T12:33:42Z</time>
      </trkpt>
      <trkpt lat="45.736264362931252" lon="7.941663321107626">
        <ele>2268.848876953125</ele>
        <time>2012-09-18T12:33:27Z</time>
      </trkpt>
      <trkpt lat="45.736326975747943" lon="7.941698944196105">
        <ele>2272.21337890625</ele>
        <time>2012-09-18T12:33:12Z</time>
      </trkpt>
      <trkpt lat="45.736399563029408" lon="7.941744793206453">
        <ele>2274.61669921875</ele>
        <time>2012-09-18T12:32:57Z</time>
      </trkpt>
      <trkpt lat="45.736439879983664" lon="7.94180179014802">
        <ele>2275.577880859375</ele>
        <time>2012-09-18T12:32:34Z</time>
      </trkpt>
      <trkpt lat="45.736522693186998" lon="7.94188485480845">
        <ele>2277.50048828125</ele>
        <time>2012-09-18T12:32:13Z</time>
      </trkpt>
      <trkpt lat="45.736568290740252" lon="7.941935397684574">
        <ele>2278.4619140625</ele>
        <time>2012-09-18T12:31:57Z</time>
      </trkpt>
      <trkpt lat="45.736606260761619" lon="7.94195618480444">
        <ele>2278.9423828125</ele>
        <time>2012-09-18T12:31:36Z</time>
      </trkpt>
      <trkpt lat="45.736539959907532" lon="7.941935146227479">
        <ele>2277.981201171875</ele>
        <time>2012-09-18T12:30:54Z</time>
      </trkpt>
      <trkpt lat="45.736610451713204" lon="7.941949982196093">
        <ele>2278.9423828125</ele>
        <time>2012-09-18T12:30:37Z</time>
      </trkpt>
      <trkpt lat="45.736658899113536" lon="7.941967081278563">
        <ele>2280.384521484375</ele>
        <time>2012-09-18T12:30:22Z</time>
      </trkpt>
      <trkpt lat="45.736736431717873" lon="7.941960543394089">
        <ele>2281.345703125</ele>
        <time>2012-09-18T12:30:05Z</time>
      </trkpt>
      <trkpt lat="45.736814299598336" lon="7.942033298313618">
        <ele>2282.78759765625</ele>
        <time>2012-09-18T12:29:50Z</time>
      </trkpt>
      <trkpt lat="45.736834835261106" lon="7.942059449851513">
        <ele>2283.7490234375</ele>
        <time>2012-09-18T12:29:43Z</time>
      </trkpt>
      <trkpt lat="45.736876828595996" lon="7.942134719341993">
        <ele>2284.22998046875</ele>
        <time>2012-09-18T12:29:30Z</time>
      </trkpt>
      <trkpt lat="45.736891077831388" lon="7.942216191440821">
        <ele>2284.710693359375</ele>
        <time>2012-09-18T12:29:15Z</time>
      </trkpt>
      <trkpt lat="45.736934160813689" lon="7.942310655489564">
        <ele>2286.633056640625</ele>
        <time>2012-09-18T12:29:00Z</time>
      </trkpt>
      <trkpt lat="45.73696743696928" lon="7.94238617643714">
        <ele>2288.555908203125</ele>
        <time>2012-09-18T12:28:45Z</time>
      </trkpt>
      <trkpt lat="45.736994845792651" lon="7.942410483956337">
        <ele>2290.478271484375</ele>
        <time>2012-09-18T12:28:25Z</time>
      </trkpt>
      <trkpt lat="45.737038431689143" lon="7.942439569160342">
        <ele>2291.439697265625</ele>
        <time>2012-09-18T12:28:10Z</time>
      </trkpt>
      <trkpt lat="45.737062990665436" lon="7.94254157692194">
        <ele>2292.881591796875</ele>
        <time>2012-09-18T12:27:55Z</time>
      </trkpt>
      <trkpt lat="45.737099451944232" lon="7.942601758986712">
        <ele>2293.843017578125</ele>
        <time>2012-09-18T12:27:41Z</time>
      </trkpt>
      <trkpt lat="45.737119987607002" lon="7.942626234143972">
        <ele>2293.843017578125</ele>
        <time>2012-09-18T12:27:22Z</time>
      </trkpt>
      <trkpt lat="45.737173967063427" lon="7.942683231085539">
        <ele>2295.765625</ele>
        <time>2012-09-18T12:27:07Z</time>
      </trkpt>
      <trkpt lat="45.737226773053408" lon="7.942744083702564">
        <ele>2297.20751953125</ele>
        <time>2012-09-18T12:26:52Z</time>
      </trkpt>
      <trkpt lat="45.737259881570935" lon="7.942782724276185">
        <ele>2298.168701171875</ele>
        <time>2012-09-18T12:26:35Z</time>
      </trkpt>
      <trkpt lat="45.737332887947559" lon="7.942833853885531">
        <ele>2300.572265625</ele>
        <time>2012-09-18T12:26:19Z</time>
      </trkpt>
      <trkpt lat="45.737396758049726" lon="7.942910632118583">
        <ele>2302.01416015625</ele>
        <time>2012-09-18T12:26:03Z</time>
      </trkpt>
      <trkpt lat="45.737434728071094" lon="7.943002916872501">
        <ele>2304.41748046875</ele>
        <time>2012-09-18T12:25:48Z</time>
      </trkpt>
      <trkpt lat="45.737495329231024" lon="7.942935274913907">
        <ele>2307.301513671875</ele>
        <time>2012-09-18T12:25:33Z</time>
      </trkpt>
      <trkpt lat="45.737548721954226" lon="7.942915325984359">
        <ele>2309.22412109375</ele>
        <time>2012-09-18T12:25:20Z</time>
      </trkpt>
      <trkpt lat="45.737559450790286" lon="7.942959917709231">
        <ele>2311.146728515625</ele>
        <time>2012-09-18T12:24:57Z</time>
      </trkpt>
      <trkpt lat="45.737572023645043" lon="7.943019596859813">
        <ele>2313.5498046875</ele>
        <time>2012-09-18T12:24:36Z</time>
      </trkpt>
      <trkpt lat="45.737576466053724" lon="7.943100398406386">
        <ele>2315.47265625</ele>
        <time>2012-09-18T12:24:17Z</time>
      </trkpt>
      <trkpt lat="45.737583255395293" lon="7.94318119995296">
        <ele>2316.914794921875</ele>
        <time>2012-09-18T12:24:00Z</time>
      </trkpt>
      <trkpt lat="45.737605383619666" lon="7.943243226036429">
        <ele>2320.279296875</ele>
        <time>2012-09-18T12:23:48Z</time>
      </trkpt>
      <trkpt lat="45.7376260869205" lon="7.943314723670483">
        <ele>2322.6826171875</ele>
        <time>2012-09-18T12:23:34Z</time>
      </trkpt>
      <trkpt lat="45.737647879868746" lon="7.943405583500862">
        <ele>2325.085693359375</ele>
        <time>2012-09-18T12:23:17Z</time>
      </trkpt>
      <trkpt lat="45.73767838999629" lon="7.943480685353279">
        <ele>2327.9697265625</ele>
        <time>2012-09-18T12:23:01Z</time>
      </trkpt>
      <trkpt lat="45.737712671980262" lon="7.943521421402693">
        <ele>2330.853759765625</ele>
        <time>2012-09-18T12:22:44Z</time>
      </trkpt>
      <trkpt lat="45.737733542919159" lon="7.943565426394343">
        <ele>2331.81494140625</ele>
        <time>2012-09-18T12:22:30Z</time>
      </trkpt>
      <trkpt lat="45.737752486020327" lon="7.943633152171969">
        <ele>2333.73779296875</ele>
        <time>2012-09-18T12:22:17Z</time>
      </trkpt>
      <trkpt lat="45.737781319767237" lon="7.943702721968293">
        <ele>2333.73779296875</ele>
        <time>2012-09-18T12:21:40Z</time>
      </trkpt>
      <trkpt lat="45.737774027511477" lon="7.943721748888493">
        <ele>2335.660400390625</ele>
        <time>2012-09-18T12:21:22Z</time>
      </trkpt>
      <trkpt lat="45.737801771610975" lon="7.943807160481811">
        <ele>2337.102294921875</ele>
        <time>2012-09-18T12:21:03Z</time>
      </trkpt>
      <trkpt lat="45.737834377214313" lon="7.943876562640071">
        <ele>2340.466796875</ele>
        <time>2012-09-18T12:20:49Z</time>
      </trkpt>
      <trkpt lat="45.737864468246698" lon="7.943912353366613">
        <ele>2341.908935546875</ele>
        <time>2012-09-18T12:20:34Z</time>
      </trkpt>
      <trkpt lat="45.737901767715812" lon="7.943927524611354">
        <ele>2343.83154296875</ele>
        <time>2012-09-18T12:20:08Z</time>
      </trkpt>
      <trkpt lat="45.737914759665728" lon="7.943880166858435">
        <ele>2345.754150390625</ele>
        <time>2012-09-18T12:19:52Z</time>
      </trkpt>
      <trkpt lat="45.737930852919817" lon="7.943862648680806">
        <ele>2348.157470703125</ele>
        <time>2012-09-18T12:19:35Z</time>
      </trkpt>
      <trkpt lat="45.737962033599615" lon="7.943911766633391">
        <ele>2349.599609375</ele>
        <time>2012-09-18T12:19:17Z</time>
      </trkpt>
      <trkpt lat="45.737993717193604" lon="7.943946551531553">
        <ele>2352.002685546875</ele>
        <time>2012-09-18T12:18:59Z</time>
      </trkpt>
      <trkpt lat="45.738005116581917" lon="7.944003967568278">
        <ele>2352.964111328125</ele>
        <time>2012-09-18T12:18:43Z</time>
      </trkpt>
      <trkpt lat="45.738024730235338" lon="7.9440563544631">
        <ele>2355.367431640625</ele>
        <time>2012-09-18T12:18:28Z</time>
      </trkpt>
      <trkpt lat="45.738036883994937" lon="7.944109244272113">
        <ele>2358.251220703125</ele>
        <time>2012-09-18T12:18:13Z</time>
      </trkpt>
      <trkpt lat="45.738051636144519" lon="7.944187698885799">
        <ele>2361.13525390625</ele>
        <time>2012-09-18T12:18:00Z</time>
      </trkpt>
      <trkpt lat="45.738057587295771" lon="7.944267997518182">
        <ele>2364.019287109375</ele>
        <time>2012-09-18T12:17:45Z</time>
      </trkpt>
      <trkpt lat="45.738066555932164" lon="7.944332621991634">
        <ele>2365.94189453125</ele>
        <time>2012-09-18T12:17:30Z</time>
      </trkpt>
      <trkpt lat="45.738093629479408" lon="7.944454494863749">
        <ele>2367.864501953125</ele>
        <time>2012-09-18T12:17:14Z</time>
      </trkpt>
      <trkpt lat="45.738126989454031" lon="7.944588689133525">
        <ele>2371.22900390625</ele>
        <time>2012-09-18T12:16:57Z</time>
      </trkpt>
      <trkpt lat="45.738160349428654" lon="7.944654319435358">
        <ele>2374.113037109375</ele>
        <time>2012-09-18T12:16:44Z</time>
      </trkpt>
      <trkpt lat="45.738174766302109" lon="7.94474677182734">
        <ele>2376.516357421875</ele>
        <time>2012-09-18T12:16:29Z</time>
      </trkpt>
      <trkpt lat="45.738183399662375" lon="7.944823885336518">
        <ele>2379.400146484375</ele>
        <time>2012-09-18T12:16:13Z</time>
      </trkpt>
      <trkpt lat="45.738218771293759" lon="7.94486889615655">
        <ele>2382.284423828125</ele>
        <time>2012-09-18T12:15:58Z</time>
      </trkpt>
      <trkpt lat="45.738236960023642" lon="7.944955984130502">
        <ele>2385.64892578125</ele>
        <time>2012-09-18T12:15:43Z</time>
      </trkpt>
      <trkpt lat="45.738254897296429" lon="7.945066122338176">
        <ele>2387.571533203125</ele>
        <time>2012-09-18T12:15:27Z</time>
      </trkpt>
      <trkpt lat="45.738320862874389" lon="7.945142481476069">
        <ele>2388.05224609375</ele>
        <time>2012-09-18T12:14:58Z</time>
      </trkpt>
      <trkpt lat="45.738311223685741" lon="7.945133848115802">
        <ele>2387.571533203125</ele>
        <time>2012-09-18T12:14:29Z</time>
      </trkpt>
      <trkpt lat="45.738310469314456" lon="7.945164777338505">
        <ele>2387.0908203125</ele>
        <time>2012-09-18T12:10:10Z</time>
      </trkpt>
      <trkpt lat="45.738342320546508" lon="7.945258487015963">
        <ele>2385.64892578125</ele>
        <time>2012-09-18T12:09:55Z</time>
      </trkpt>
      <trkpt lat="45.73832044377923" lon="7.945357896387577">
        <ele>2385.64892578125</ele>
        <time>2012-09-18T12:08:10Z</time>
      </trkpt>
      <trkpt lat="45.738330334424973" lon="7.945348843932152">
        <ele>2375.0700000000002</ele>
        <time>2012-09-18T12:01:11Z</time>
      </trkpt>
      <trkpt lat="45.738353384658694" lon="7.94534582644701">
        <ele>2375.0700000000002</ele>
        <time>2012-09-18T12:01:08Z</time>
      </trkpt>
      <trkpt lat="45.738344667479396" lon="7.945294445380569">
        <ele>2375.0700000000002</ele>
        <time>2012-09-18T12:01:04Z</time>
      </trkpt>
      <trkpt lat="45.738344667479396" lon="7.945294445380569">
        <ele>2375.0700000000002</ele>
        <time>2012-09-18T12:01:02Z</time>
      </trkpt>
      <trkpt lat="45.738317426294088" lon="7.945161843672395">
        <ele>2376.52</ele>
        <time>2012-09-18T12:00:48Z</time>
      </trkpt>
      <trkpt lat="45.738306194543839" lon="7.945134602487087">
        <ele>2376.52</ele>
        <time>2012-09-18T12:00:39Z</time>
      </trkpt>
      <trkpt lat="45.738349612802267" lon="7.945202328264713">
        <ele>2374.5900000000001</ele>
        <time>2012-09-18T11:42:38Z</time>
      </trkpt>
      <trkpt lat="45.738394036889076" lon="7.945182379335165">
        <ele>2372.6700000000001</ele>
        <time>2012-09-18T11:42:27Z</time>
      </trkpt>
      <trkpt lat="45.73844944126904" lon="7.945211715996265">
        <ele>2370.27</ele>
        <time>2012-09-18T11:42:12Z</time>
      </trkpt>
      <trkpt lat="45.738491769880056" lon="7.945119431242347">
        <ele>2368.3499999999999</ele>
        <time>2012-09-18T11:41:58Z</time>
      </trkpt>
      <trkpt lat="45.738517502322793" lon="7.94509026221931">
        <ele>2367.3800000000001</ele>
        <time>2012-09-18T11:41:51Z</time>
      </trkpt>
      <trkpt lat="45.738597633317113" lon="7.945037456229329">
        <ele>2365.9400000000001</ele>
        <time>2012-09-18T11:41:36Z</time>
      </trkpt>
      <trkpt lat="45.738627389073372" lon="7.945017255842686">
        <ele>2365.9400000000001</ele>
        <time>2012-09-18T11:41:31Z</time>
      </trkpt>
      <trkpt lat="45.738653959706426" lon="7.945019854232669">
        <ele>2364.5</ele>
        <time>2012-09-18T11:41:27Z</time>
      </trkpt>
      <trkpt lat="45.73872210457921" lon="7.944969646632671">
        <ele>2365.9400000000001</ele>
        <time>2012-09-18T11:41:15Z</time>
      </trkpt>
      <trkpt lat="45.738748759031296" lon="7.944939723238349">
        <ele>2366.4200000000001</ele>
        <time>2012-09-18T11:41:09Z</time>
      </trkpt>
      <trkpt lat="45.738801397383213" lon="7.944894460961223">
        <ele>2366.9000000000001</ele>
        <time>2012-09-18T11:41:00Z</time>
      </trkpt>
      <trkpt lat="45.738881947472692" lon="7.944820448756218">
        <ele>2368.3499999999999</ele>
        <time>2012-09-18T11:40:46Z</time>
      </trkpt>
      <trkpt lat="45.738906841725111" lon="7.944789519533515">
        <ele>2365.46</ele>
        <time>2012-09-18T11:40:35Z</time>
      </trkpt>
      <trkpt lat="45.738952104002237" lon="7.944746855646372">
        <ele>2363.54</ele>
        <time>2012-09-18T11:40:22Z</time>
      </trkpt>
      <trkpt lat="45.738986134529114" lon="7.944704527035356">
        <ele>2362.0999999999999</ele>
        <time>2012-09-18T11:40:10Z</time>
      </trkpt>
      <trkpt lat="45.739017482846975" lon="7.944737384095788">
        <ele>2359.6900000000001</ele>
        <time>2012-09-18T11:39:57Z</time>
      </trkpt>
      <trkpt lat="45.739047909155488" lon="7.944727744907141">
        <ele>2357.77</ele>
        <time>2012-09-18T11:39:42Z</time>
      </trkpt>
      <trkpt lat="45.739068612456322" lon="7.944758255034685">
        <ele>2356.3299999999999</ele>
        <time>2012-09-18T11:39:30Z</time>
      </trkpt>
      <trkpt lat="45.739055369049311" lon="7.944796225056052">
        <ele>2354.4099999999999</ele>
        <time>2012-09-18T11:39:14Z</time>
      </trkpt>
      <trkpt lat="45.739120496436954" lon="7.944835871458054">
        <ele>2352</ele>
        <time>2012-09-18T11:39:00Z</time>
      </trkpt>
      <trkpt lat="45.739159053191543" lon="7.944836039096117">
        <ele>2350.5599999999999</ele>
        <time>2012-09-18T11:38:45Z</time>
      </trkpt>
      <trkpt lat="45.739169279113412" lon="7.944838302209973">
        <ele>2349.5999999999999</ele>
        <time>2012-09-18T11:38:17Z</time>
      </trkpt>
      <trkpt lat="45.739198699593544" lon="7.944867303594947">
        <ele>2348.1599999999999</ele>
        <time>2012-09-18T11:38:00Z</time>
      </trkpt>
      <trkpt lat="45.73920532129705" lon="7.944865208119154">
        <ele>2347.1999999999998</ele>
        <time>2012-09-18T11:37:43Z</time>
      </trkpt>
      <trkpt lat="45.739282434806228" lon="7.9448611009866">
        <ele>2346.7199999999998</ele>
        <time>2012-09-18T11:37:30Z</time>
      </trkpt>
      <trkpt lat="45.739323841407895" lon="7.944840146228671">
        <ele>2348.1599999999999</ele>
        <time>2012-09-18T11:37:21Z</time>
      </trkpt>
      <trkpt lat="45.739378742873669" lon="7.944848611950874">
        <ele>2348.6399999999999</ele>
        <time>2012-09-18T11:37:03Z</time>
      </trkpt>
      <trkpt lat="45.73942769318819" lon="7.94486696831882">
        <ele>2348.6399999999999</ele>
        <time>2012-09-18T11:36:46Z</time>
      </trkpt>
      <trkpt lat="45.739426268264651" lon="7.944866130128503">
        <ele>2348.6399999999999</ele>
        <time>2012-09-18T11:36:45Z</time>
      </trkpt>
      <trkpt lat="45.739443199709058" lon="7.944871578365564">
        <ele>2348.6399999999999</ele>
        <time>2012-09-18T11:36:30Z</time>
      </trkpt>
      <trkpt lat="45.739489048719406" lon="7.944851964712143">
        <ele>2347.6799999999998</ele>
        <time>2012-09-18T11:36:15Z</time>
      </trkpt>
      <trkpt lat="45.739546213299036" lon="7.944837799295783">
        <ele>2346.7199999999998</ele>
        <time>2012-09-18T11:36:00Z</time>
      </trkpt>
      <trkpt lat="45.7395757175982" lon="7.944814581423998">
        <ele>2346.23</ele>
        <time>2012-09-18T11:35:46Z</time>
      </trkpt>
      <trkpt lat="45.739596839994192" lon="7.944812653586268">
        <ele>2344.79</ele>
        <time>2012-09-18T11:35:43Z</time>
      </trkpt>
      <trkpt lat="45.739688705652952" lon="7.944693211466074">
        <ele>2344.79</ele>
        <time>2012-09-18T11:35:28Z</time>
      </trkpt>
      <trkpt lat="45.739712677896023" lon="7.944657001644373">
        <ele>2345.27</ele>
        <time>2012-09-18T11:35:23Z</time>
      </trkpt>
      <trkpt lat="45.739779314026237" lon="7.944638980552554">
        <ele>2345.27</ele>
        <time>2012-09-18T11:35:07Z</time>
      </trkpt>
      <trkpt lat="45.739808566868305" lon="7.944599334150553">
        <ele>2345.75</ele>
        <time>2012-09-18T11:34:46Z</time>
      </trkpt>
      <trkpt lat="45.739816194400191" lon="7.944597657769918">
        <ele>2346.7199999999998</ele>
        <time>2012-09-18T11:34:43Z</time>
      </trkpt>
      <trkpt lat="45.739816194400191" lon="7.944597657769918">
        <ele>2345.27</ele>
        <time>2012-09-18T11:34:40Z</time>
      </trkpt>
      <trkpt lat="45.739818541333079" lon="7.94459086842835">
        <ele>2345.27</ele>
        <time>2012-09-18T11:34:09Z</time>
      </trkpt>
      <trkpt lat="45.739818541333079" lon="7.94459086842835">
        <ele>2345.27</ele>
        <time>2012-09-18T11:33:42Z</time>
      </trkpt>
      <trkpt lat="45.739819211885333" lon="7.944591790437698">
        <ele>2345.27</ele>
        <time>2012-09-18T11:33:16Z</time>
      </trkpt>
      <trkpt lat="45.739819211885333" lon="7.944591790437698">
        <ele>2345.27</ele>
        <time>2012-09-18T11:32:56Z</time>
      </trkpt>
      <trkpt lat="45.739855505526066" lon="7.944556921720505">
        <ele>2346.7199999999998</ele>
        <time>2012-09-18T11:32:42Z</time>
      </trkpt>
      <trkpt lat="45.739861624315381" lon="7.944553820416331">
        <ele>2344.79</ele>
        <time>2012-09-18T11:32:19Z</time>
      </trkpt>
      <trkpt lat="45.73991484940052" lon="7.944513252004981">
        <ele>2344.79</ele>
        <time>2012-09-18T11:32:06Z</time>
      </trkpt>
      <trkpt lat="45.739921387284994" lon="7.94450780376792">
        <ele>2344.79</ele>
        <time>2012-09-18T11:32:05Z</time>
      </trkpt>
      <trkpt lat="45.739995818585157" lon="7.944475114345551">
        <ele>2344.79</ele>
        <time>2012-09-18T11:31:45Z</time>
      </trkpt>
      <trkpt lat="45.740031525492668" lon="7.944472432136536">
        <ele>2343.3499999999999</ele>
        <time>2012-09-18T11:30:03Z</time>
      </trkpt>
      <trkpt lat="45.740052983164787" lon="7.94447754509747">
        <ele>2341.9099999999999</ele>
        <time>2012-09-18T11:30:00Z</time>
      </trkpt>
      <trkpt lat="45.74006287381053" lon="7.944430187344551">
        <ele>2341.9099999999999</ele>
        <time>2012-09-18T11:26:17Z</time>
      </trkpt>
      <trkpt lat="45.740131353959441" lon="7.944414848461747">
        <ele>2339.9899999999998</ele>
        <time>2012-09-18T11:26:07Z</time>
      </trkpt>
      <trkpt lat="45.740147614851594" lon="7.944422392174602">
        <ele>2339.9899999999998</ele>
        <time>2012-09-18T11:26:05Z</time>
      </trkpt>
      <trkpt lat="45.74018994346261" lon="7.944489195942879">
        <ele>2339.5100000000002</ele>
        <time>2012-09-18T11:25:50Z</time>
      </trkpt>
      <trkpt lat="45.74018994346261" lon="7.944489195942879">
        <ele>2339.5100000000002</ele>
        <time>2012-09-18T11:25:28Z</time>
      </trkpt>
      <trkpt lat="45.740226237103343" lon="7.944471091032028">
        <ele>2339.5100000000002</ele>
        <time>2012-09-18T11:25:13Z</time>
      </trkpt>
      <trkpt lat="45.740253226831555" lon="7.944443179294467">
        <ele>2339.5100000000002</ele>
        <time>2012-09-18T11:24:56Z</time>
      </trkpt>
      <trkpt lat="45.740270996466279" lon="7.944429852068424">
        <ele>2339.5100000000002</ele>
        <time>2012-09-18T11:24:39Z</time>
      </trkpt>
      <trkpt lat="45.740331765264273" lon="7.944442592561245">
        <ele>2337.0999999999999</ele>
        <time>2012-09-18T11:24:32Z</time>
      </trkpt>
      <trkpt lat="45.740444334223866" lon="7.944460948929191">
        <ele>2338.0599999999999</ele>
        <time>2012-09-18T11:24:17Z</time>
      </trkpt>
      <trkpt lat="45.740540809929371" lon="7.944513838738203">
        <ele>2338.0599999999999</ele>
        <time>2012-09-18T11:24:02Z</time>
      </trkpt>
      <trkpt lat="45.740645583719015" lon="7.944532195106149">
        <ele>2338.54</ele>
        <time>2012-09-18T11:23:50Z</time>
      </trkpt>
      <trkpt lat="45.740680871531367" lon="7.944524986669421">
        <ele>2338.54</ele>
        <time>2012-09-18T11:23:46Z</time>
      </trkpt>
      <trkpt lat="45.740805007517338" lon="7.94447653926909">
        <ele>2338.54</ele>
        <time>2012-09-18T11:23:32Z</time>
      </trkpt>
      <trkpt lat="45.740833757445216" lon="7.944467989727855">
        <ele>2338.54</ele>
        <time>2012-09-18T11:23:29Z</time>
      </trkpt>
      <trkpt lat="45.740869212895632" lon="7.944466816261411">
        <ele>2339.02</ele>
        <time>2012-09-18T11:23:26Z</time>
      </trkpt>
      <trkpt lat="45.740941632539034" lon="7.944479556754232">
        <ele>2339.02</ele>
        <time>2012-09-18T11:23:10Z</time>
      </trkpt>
      <trkpt lat="45.740999216213822" lon="7.944434629753232">
        <ele>2339.9899999999998</ele>
        <time>2012-09-18T11:22:55Z</time>
      </trkpt>
      <trkpt lat="45.74103475548327" lon="7.944391295313835">
        <ele>2340.9499999999998</ele>
        <time>2012-09-18T11:22:51Z</time>
      </trkpt>
      <trkpt lat="45.741057135164738" lon="7.94434217736125">
        <ele>2340.9499999999998</ele>
        <time>2012-09-18T11:22:47Z</time>
      </trkpt>
      <trkpt lat="45.741102565079927" lon="7.944311667233706">
        <ele>2342.3899999999999</ele>
        <time>2012-09-18T11:22:39Z</time>
      </trkpt>
      <trkpt lat="45.741223515942693" lon="7.944187363609672">
        <ele>2343.8299999999999</ele>
        <time>2012-09-18T11:22:22Z</time>
      </trkpt>
      <trkpt lat="45.741232987493277" lon="7.944151572883129">
        <ele>2345.27</ele>
        <time>2012-09-18T11:22:19Z</time>
      </trkpt>
      <trkpt lat="45.741318147629499" lon="7.944070603698492">
        <ele>2345.27</ele>
        <time>2012-09-18T11:22:05Z</time>
      </trkpt>
      <trkpt lat="45.741340946406126" lon="7.944076973944902">
        <ele>2345.27</ele>
        <time>2012-09-18T11:22:02Z</time>
      </trkpt>
      <trkpt lat="45.741411941125989" lon="7.94408468529582">
        <ele>2344.79</ele>
        <time>2012-09-18T11:21:51Z</time>
      </trkpt>
      <trkpt lat="45.74146474711597" lon="7.944042356684804">
        <ele>2343.3499999999999</ele>
        <time>2012-09-18T11:21:35Z</time>
      </trkpt>
      <trkpt lat="45.741483774036169" lon="7.94402064755559">
        <ele>2342.3899999999999</ele>
        <time>2012-09-18T11:21:15Z</time>
      </trkpt>
      <trkpt lat="45.741508835926652" lon="7.943969937041402">
        <ele>2341.9099999999999</ele>
        <time>2012-09-18T11:21:02Z</time>
      </trkpt>
      <trkpt lat="45.741541190072894" lon="7.943932134658098">
        <ele>2340.9499999999998</ele>
        <time>2012-09-18T11:20:57Z</time>
      </trkpt>
      <trkpt lat="45.741601539775729" lon="7.943855607882142">
        <ele>2341.9099999999999</ele>
        <time>2012-09-18T11:20:44Z</time>
      </trkpt>
      <trkpt lat="45.741616040468216" lon="7.943848902359605">
        <ele>2342.3899999999999</ele>
        <time>2012-09-18T11:20:42Z</time>
      </trkpt>
      <trkpt lat="45.741643784567714" lon="7.943847393617034">
        <ele>2343.8299999999999</ele>
        <time>2012-09-18T11:20:37Z</time>
      </trkpt>
      <trkpt lat="45.741686029359698" lon="7.943870108574629">
        <ele>2342.3899999999999</ele>
        <time>2012-09-18T11:20:28Z</time>
      </trkpt>
      <trkpt lat="45.741713019087911" lon="7.943865833804011">
        <ele>2342.3899999999999</ele>
        <time>2012-09-18T11:20:18Z</time>
      </trkpt>
      <trkpt lat="45.74176087975502" lon="7.943860720843077">
        <ele>2343.3499999999999</ele>
        <time>2012-09-18T11:18:37Z</time>
      </trkpt>
      <trkpt lat="45.741784013807774" lon="7.943868180736899">
        <ele>2344.79</ele>
        <time>2012-09-18T11:18:33Z</time>
      </trkpt>
      <trkpt lat="45.741807399317622" lon="7.943859463557601">
        <ele>2344.79</ele>
        <time>2012-09-18T11:18:28Z</time>
      </trkpt>
      <trkpt lat="45.741872107610106" lon="7.943862732499838">
        <ele>2342.3899999999999</ele>
        <time>2012-09-18T11:18:15Z</time>
      </trkpt>
      <trkpt lat="45.741908401250839" lon="7.943863486871123">
        <ele>2342.3899999999999</ele>
        <time>2012-09-18T11:18:10Z</time>
      </trkpt>
      <trkpt lat="45.741974450647831" lon="7.943865330889821">
        <ele>2342.8699999999999</ele>
        <time>2012-09-18T11:17:54Z</time>
      </trkpt>
      <trkpt lat="45.742044523358345" lon="7.943895170465112">
        <ele>2342.8699999999999</ele>
        <time>2012-09-18T11:17:41Z</time>
      </trkpt>
      <trkpt lat="45.742054162546992" lon="7.943903636187315">
        <ele>2342.8699999999999</ele>
        <time>2012-09-18T11:17:20Z</time>
      </trkpt>
      <trkpt lat="45.742109818384051" lon="7.943911347538233">
        <ele>2341.9099999999999</ele>
        <time>2012-09-18T11:16:19Z</time>
      </trkpt>
      <trkpt lat="45.742174191400409" lon="7.943886369466782">
        <ele>2343.3499999999999</ele>
        <time>2012-09-18T11:16:07Z</time>
      </trkpt>
      <trkpt lat="45.742171928286552" lon="7.943886620923877">
        <ele>2342.8699999999999</ele>
        <time>2012-09-18T11:16:05Z</time>
      </trkpt>
      <trkpt lat="45.742210820317268" lon="7.943887626752257">
        <ele>2344.3099999999999</ele>
        <time>2012-09-18T11:15:51Z</time>
      </trkpt>
      <trkpt lat="45.742220710963011" lon="7.943885866552591">
        <ele>2345.27</ele>
        <time>2012-09-18T11:15:30Z</time>
      </trkpt>
      <trkpt lat="45.742254238575697" lon="7.943921657279134">
        <ele>2345.27</ele>
        <time>2012-09-18T11:15:16Z</time>
      </trkpt>
      <trkpt lat="45.742295896634459" lon="7.943912604823709">
        <ele>2345.27</ele>
        <time>2012-09-18T11:14:58Z</time>
      </trkpt>
      <trkpt lat="45.742309223860502" lon="7.943905396386981">
        <ele>2345.27</ele>
        <time>2012-09-18T11:14:36Z</time>
      </trkpt>
      <trkpt lat="45.742312492802739" lon="7.943907072767615">
        <ele>2345.75</ele>
        <time>2012-09-18T11:12:40Z</time>
      </trkpt>
      <trkpt lat="45.742350714281201" lon="7.943900283426046">
        <ele>2344.79</ele>
        <time>2012-09-18T11:12:26Z</time>
      </trkpt>
      <trkpt lat="45.742394719272852" lon="7.943928111344576">
        <ele>2344.3099999999999</ele>
        <time>2012-09-18T11:12:16Z</time>
      </trkpt>
      <trkpt lat="45.742413746193051" lon="7.943938337266445">
        <ele>2343.8299999999999</ele>
        <time>2012-09-18T11:12:08Z</time>
      </trkpt>
      <trkpt lat="45.742469653487206" lon="7.94396348297596">
        <ele>2342.3899999999999</ele>
        <time>2012-09-18T11:11:57Z</time>
      </trkpt>
      <trkpt lat="45.742548778653145" lon="7.943972535431385">
        <ele>2343.3499999999999</ele>
        <time>2012-09-18T11:11:44Z</time>
      </trkpt>
      <trkpt lat="45.742536541074514" lon="7.943939594551921">
        <ele>2345.75</ele>
        <time>2012-09-18T11:11:31Z</time>
      </trkpt>
      <trkpt lat="45.742526650428772" lon="7.943951915949583">
        <ele>2345.75</ele>
        <time>2012-09-18T11:11:21Z</time>
      </trkpt>
      <trkpt lat="45.742558417841792" lon="7.943950910121203">
        <ele>2345.27</ele>
        <time>2012-09-18T11:11:17Z</time>
      </trkpt>
      <trkpt lat="45.742573086172342" lon="7.943975469097495">
        <ele>2345.27</ele>
        <time>2012-09-18T11:11:13Z</time>
      </trkpt>
      <trkpt lat="45.742650618776679" lon="7.94398058205843">
        <ele>2345.75</ele>
        <time>2012-09-18T11:11:01Z</time>
      </trkpt>
      <trkpt lat="45.742684230208397" lon="7.944017546251416">
        <ele>2347.1999999999998</ele>
        <time>2012-09-18T11:10:55Z</time>
      </trkpt>
      <trkpt lat="45.742716249078512" lon="7.944052582606673">
        <ele>2347.1999999999998</ele>
        <time>2012-09-18T11:10:46Z</time>
      </trkpt>
      <trkpt lat="45.742741143330932" lon="7.944092648103833">
        <ele>2345.75</ele>
        <time>2012-09-18T11:10:38Z</time>
      </trkpt>
      <trkpt lat="45.742748351767659" lon="7.94409197755158">
        <ele>2347.6799999999998</ele>
        <time>2012-09-18T11:10:32Z</time>
      </trkpt>
      <trkpt lat="45.742792524397373" lon="7.944125672802329">
        <ele>2346.7199999999998</ele>
        <time>2012-09-18T11:10:25Z</time>
      </trkpt>
      <trkpt lat="45.742822531610727" lon="7.944146208465099">
        <ele>2348.1599999999999</ele>
        <time>2012-09-18T11:10:19Z</time>
      </trkpt>
      <trkpt lat="45.742844576016068" lon="7.94416381046176">
        <ele>2347.6799999999998</ele>
        <time>2012-09-18T11:10:04Z</time>
      </trkpt>
      <trkpt lat="45.742856059223413" lon="7.944179987534881">
        <ele>2347.1999999999998</ele>
        <time>2012-09-18T11:09:54Z</time>
      </trkpt>
      <trkpt lat="45.742864273488522" lon="7.944190381094813">
        <ele>2347.1999999999998</ele>
        <time>2012-09-18T11:09:52Z</time>
      </trkpt>
      <trkpt lat="45.742930825799704" lon="7.944217789918184">
        <ele>2345.27</ele>
        <time>2012-09-18T11:09:38Z</time>
      </trkpt>
      <trkpt lat="45.74300198815763" lon="7.944204295054078">
        <ele>2344.3099999999999</ele>
        <time>2012-09-18T11:09:28Z</time>
      </trkpt>
      <trkpt lat="45.74302545748651" lon="7.944204211235046">
        <ele>2345.75</ele>
        <time>2012-09-18T11:09:23Z</time>
      </trkpt>
      <trkpt lat="45.743090836331248" lon="7.944176718592644">
        <ele>2347.1999999999998</ele>
        <time>2012-09-18T11:09:05Z</time>
      </trkpt>
      <trkpt lat="45.743134841322899" lon="7.944158194586635">
        <ele>2348.6399999999999</ele>
        <time>2012-09-18T11:08:51Z</time>
      </trkpt>
      <trkpt lat="45.743144061416388" lon="7.944159787148237">
        <ele>2348.6399999999999</ele>
        <time>2012-09-18T11:08:46Z</time>
      </trkpt>
      <trkpt lat="45.743185468018055" lon="7.944155428558588">
        <ele>2348.6399999999999</ele>
        <time>2012-09-18T11:08:32Z</time>
      </trkpt>
      <trkpt lat="45.743275238201022" lon="7.94415065087378">
        <ele>2348.1599999999999</ele>
        <time>2012-09-18T11:08:23Z</time>
      </trkpt>
      <trkpt lat="45.743344137445092" lon="7.944230698049069">
        <ele>2347.6799999999998</ele>
        <time>2012-09-18T11:08:07Z</time>
      </trkpt>
      <trkpt lat="45.743365762755275" lon="7.944262465462089">
        <ele>2347.6799999999998</ele>
        <time>2012-09-18T11:08:03Z</time>
      </trkpt>
      <trkpt lat="45.743444636464119" lon="7.944319881498814">
        <ele>2347.1999999999998</ele>
        <time>2012-09-18T11:07:49Z</time>
      </trkpt>
      <trkpt lat="45.743521833792329" lon="7.944304877892137">
        <ele>2347.1999999999998</ele>
        <time>2012-09-18T11:07:42Z</time>
      </trkpt>
      <trkpt lat="45.743550499901175" lon="7.944318540394306">
        <ele>2346.23</ele>
        <time>2012-09-18T11:07:36Z</time>
      </trkpt>
      <trkpt lat="45.743571538478136" lon="7.944336142390966">
        <ele>2345.27</ele>
        <time>2012-09-18T11:07:32Z</time>
      </trkpt>
      <trkpt lat="45.743647562339902" lon="7.944390289485455">
        <ele>2343.3499999999999</ele>
        <time>2012-09-18T11:07:22Z</time>
      </trkpt>
      <trkpt lat="45.743675641715527" lon="7.944403197616339">
        <ele>2341.4299999999998</ele>
        <time>2012-09-18T11:07:03Z</time>
      </trkpt>
      <trkpt lat="45.74371051043272" lon="7.944422224536538">
        <ele>2341.9099999999999</ele>
        <time>2012-09-18T11:06:48Z</time>
      </trkpt>
      <trkpt lat="45.743721658363938" lon="7.944376543164253">
        <ele>2343.3499999999999</ele>
        <time>2012-09-18T11:06:44Z</time>
      </trkpt>
      <trkpt lat="45.743726855143905" lon="7.944356929510832">
        <ele>2344.79</ele>
        <time>2012-09-18T11:06:41Z</time>
      </trkpt>
      <trkpt lat="45.743725430220366" lon="7.944308985024691">
        <ele>2346.23</ele>
        <time>2012-09-18T11:06:38Z</time>
      </trkpt>
      <trkpt lat="45.743665583431721" lon="7.944532530382276">
        <ele>2333.2600000000002</ele>
        <time>2012-09-18T10:56:03Z</time>
      </trkpt>
      <trkpt lat="45.743645131587982" lon="7.944538649171591">
        <ele>2332.7800000000002</ele>
        <time>2012-09-18T10:56:00Z</time>
      </trkpt>
      <trkpt lat="45.743610011413693" lon="7.94457670301199">
        <ele>2331.3299999999999</ele>
        <time>2012-09-18T10:55:50Z</time>
      </trkpt>
      <trkpt lat="45.743552511557937" lon="7.944554407149553">
        <ele>2332.7800000000002</ele>
        <time>2012-09-18T10:55:36Z</time>
      </trkpt>
      <trkpt lat="45.74353314936161" lon="7.944553988054395">
        <ele>2333.7399999999998</ele>
        <time>2012-09-18T10:55:31Z</time>
      </trkpt>
      <trkpt lat="45.743518648669124" lon="7.944550635293126">
        <ele>2335.1799999999998</ele>
        <time>2012-09-18T10:55:14Z</time>
      </trkpt>
      <trkpt lat="45.743535915389657" lon="7.944562453776598">
        <ele>2334.2199999999998</ele>
        <time>2012-09-18T10:54:58Z</time>
      </trkpt>
      <trkpt lat="45.743541363626719" lon="7.944565387442708">
        <ele>2333.7399999999998</ele>
        <time>2012-09-18T10:54:40Z</time>
      </trkpt>
      <trkpt lat="45.74358151294291" lon="7.944568824023008">
        <ele>2331.3299999999999</ele>
        <time>2012-09-18T10:54:26Z</time>
      </trkpt>
      <trkpt lat="45.743593163788319" lon="7.944586174562573">
        <ele>2329.8899999999999</ele>
        <time>2012-09-18T10:54:10Z</time>
      </trkpt>
      <trkpt lat="45.74361034668982" lon="7.944648284465075">
        <ele>2328.4499999999998</ele>
        <time>2012-09-18T10:53:56Z</time>
      </trkpt>
      <trkpt lat="45.743614202365279" lon="7.944701090455055">
        <ele>2327.4899999999998</ele>
        <time>2012-09-18T10:53:41Z</time>
      </trkpt>
      <trkpt lat="45.743645299226046" lon="7.94469740241766">
        <ele>2325.5700000000002</ele>
        <time>2012-09-18T10:53:28Z</time>
      </trkpt>
      <trkpt lat="45.743673881515861" lon="7.944700084626675">
        <ele>2323.6399999999999</ele>
        <time>2012-09-18T10:53:14Z</time>
      </trkpt>
      <trkpt lat="45.743734063580632" lon="7.944730510935187">
        <ele>2321.2399999999998</ele>
        <time>2012-09-18T10:52:58Z</time>
      </trkpt>
      <trkpt lat="45.74377597309649" lon="7.944744843989611">
        <ele>2318.8400000000001</ele>
        <time>2012-09-18T10:52:40Z</time>
      </trkpt>
      <trkpt lat="45.743766669183969" lon="7.944767223671079">
        <ele>2318.3600000000001</ele>
        <time>2012-09-18T10:52:23Z</time>
      </trkpt>
      <trkpt lat="45.743756862357259" lon="7.944836625829339">
        <ele>2315.9499999999998</ele>
        <time>2012-09-18T10:52:11Z</time>
      </trkpt>
      <trkpt lat="45.743766669183969" lon="7.944863867014647">
        <ele>2314.5100000000002</ele>
        <time>2012-09-18T10:51:57Z</time>
      </trkpt>
      <trkpt lat="45.743773961439729" lon="7.944867974147201">
        <ele>2312.5900000000001</ele>
        <time>2012-09-18T10:51:36Z</time>
      </trkpt>
      <trkpt lat="45.743785360828042" lon="7.944888677448034">
        <ele>2312.5900000000001</ele>
        <time>2012-09-18T10:51:05Z</time>
      </trkpt>
      <trkpt lat="45.743790976703167" lon="7.944903010502458">
        <ele>2312.1100000000001</ele>
        <time>2012-09-18T10:47:59Z</time>
      </trkpt>
      <trkpt lat="45.743823163211346" lon="7.944909129291773">
        <ele>2311.1500000000001</ele>
        <time>2012-09-18T10:45:49Z</time>
      </trkpt>
      <trkpt lat="45.743894157931209" lon="7.944934442639351">
        <ele>2308.2600000000002</ele>
        <time>2012-09-18T10:45:35Z</time>
      </trkpt>
      <trkpt lat="45.74391326867044" lon="7.94493343681097">
        <ele>2307.7800000000002</ele>
        <time>2012-09-18T10:45:22Z</time>
      </trkpt>
      <trkpt lat="45.743948640301824" lon="7.944900412112474">
        <ele>2307.7800000000002</ele>
        <time>2012-09-18T10:45:14Z</time>
      </trkpt>
      <trkpt lat="45.743983509019017" lon="7.944843079894781">
        <ele>2306.3400000000001</ele>
        <time>2012-09-18T10:45:07Z</time>
      </trkpt>
      <trkpt lat="45.743990549817681" lon="7.944830842316151">
        <ele>2306.3400000000001</ele>
        <time>2012-09-18T10:45:05Z</time>
      </trkpt>
      <trkpt lat="45.744039164856076" lon="7.944837799295783">
        <ele>2306.3400000000001</ele>
        <time>2012-09-18T10:44:57Z</time>
      </trkpt>
      <trkpt lat="45.744072524830699" lon="7.944806283339858">
        <ele>2306.3400000000001</ele>
        <time>2012-09-18T10:44:53Z</time>
      </trkpt>
      <trkpt lat="45.744084259495139" lon="7.944798907265067">
        <ele>2306.3400000000001</ele>
        <time>2012-09-18T10:44:51Z</time>
      </trkpt>
      <trkpt lat="45.744106555357575" lon="7.94477803632617">
        <ele>2305.8600000000001</ele>
        <time>2012-09-18T10:44:35Z</time>
      </trkpt>
      <trkpt lat="45.744121726602316" lon="7.944818940013647">
        <ele>2305.8600000000001</ele>
        <time>2012-09-18T10:44:20Z</time>
      </trkpt>
      <trkpt lat="45.744137316942215" lon="7.944865878671408">
        <ele>2303.9400000000001</ele>
        <time>2012-09-18T10:44:14Z</time>
      </trkpt>
      <trkpt lat="45.744153829291463" lon="7.944881049916148">
        <ele>2303.46</ele>
        <time>2012-09-18T10:43:58Z</time>
      </trkpt>
      <trkpt lat="45.74416346848011" lon="7.944883396849036">
        <ele>2302.98</ele>
        <time>2012-09-18T10:43:44Z</time>
      </trkpt>
      <trkpt lat="45.744256759062409" lon="7.94494072906673">
        <ele>2302.0100000000002</ele>
        <time>2012-09-18T10:43:32Z</time>
      </trkpt>
      <trkpt lat="45.744317946955562" lon="7.944963444024324">
        <ele>2300.5700000000002</ele>
        <time>2012-09-18T10:43:22Z</time>
      </trkpt>
      <trkpt lat="45.744329011067748" lon="7.944980626925826">
        <ele>2300.5700000000002</ele>
        <time>2012-09-18T10:43:16Z</time>
      </trkpt>
      <trkpt lat="45.744351977482438" lon="7.944990266114473">
        <ele>2300.5700000000002</ele>
        <time>2012-09-18T10:43:10Z</time>
      </trkpt>
      <trkpt lat="45.744382403790951" lon="7.944992696866393">
        <ele>2300.5700000000002</ele>
        <time>2012-09-18T10:42:47Z</time>
      </trkpt>
      <trkpt lat="45.744422301650047" lon="7.944957325235009">
        <ele>2301.0500000000002</ele>
        <time>2012-09-18T10:42:33Z</time>
      </trkpt>
      <trkpt lat="45.744435796514153" lon="7.944945255294442">
        <ele>2301.0500000000002</ele>
        <time>2012-09-18T10:42:31Z</time>
      </trkpt>
      <trkpt lat="45.744523219764233" lon="7.944916840642691">
        <ele>2301.5300000000002</ele>
        <time>2012-09-18T10:42:16Z</time>
      </trkpt>
      <trkpt lat="45.744594465941191" lon="7.944898148998618">
        <ele>2302.0100000000002</ele>
        <time>2012-09-18T10:42:01Z</time>
      </trkpt>
      <trkpt lat="45.744626987725496" lon="7.944898987188935">
        <ele>2301.5300000000002</ele>
        <time>2012-09-18T10:41:55Z</time>
      </trkpt>
      <trkpt lat="45.744713991880417" lon="7.944886665791273">
        <ele>2301.5300000000002</ele>
        <time>2012-09-18T10:41:45Z</time>
      </trkpt>
      <trkpt lat="45.744792278856039" lon="7.944845510646701">
        <ele>2303.9400000000001</ele>
        <time>2012-09-18T10:41:35Z</time>
      </trkpt>
      <trkpt lat="45.744791775941849" lon="7.944855485111475">
        <ele>2303.9400000000001</ele>
        <time>2012-09-18T10:41:14Z</time>
      </trkpt>
      <trkpt lat="45.744791775941849" lon="7.944855485111475">
        <ele>2304.4200000000001</ele>
        <time>2012-09-18T10:40:54Z</time>
      </trkpt>
      <trkpt lat="45.744795966893435" lon="7.94485280290246">
        <ele>2304.4200000000001</ele>
        <time>2012-09-18T10:40:36Z</time>
      </trkpt>
      <trkpt lat="45.744857741519809" lon="7.944843918085098">
        <ele>2304.9000000000001</ele>
        <time>2012-09-18T10:40:12Z</time>
      </trkpt>
      <trkpt lat="45.744878361001611" lon="7.944849198684096">
        <ele>2305.8600000000001</ele>
        <time>2012-09-18T10:37:21Z</time>
      </trkpt>
      <trkpt lat="45.74489931575954" lon="7.944838469848037">
        <ele>2307.3000000000002</ele>
        <time>2012-09-18T10:37:19Z</time>
      </trkpt>
      <trkpt lat="45.744950696825981" lon="7.944817095994949">
        <ele>2309.2199999999998</ele>
        <time>2012-09-18T10:37:00Z</time>
      </trkpt>
      <trkpt lat="45.744950026273727" lon="7.944793710485101">
        <ele>2309.6999999999998</ele>
        <time>2012-09-18T10:36:44Z</time>
      </trkpt>
      <trkpt lat="45.74494575150311" lon="7.944781221449375">
        <ele>2311.1500000000001</ele>
        <time>2012-09-18T10:36:17Z</time>
      </trkpt>
      <trkpt lat="45.74494575150311" lon="7.944781221449375">
        <ele>2309.6999999999998</ele>
        <time>2012-09-18T10:36:05Z</time>
      </trkpt>
      <trkpt lat="45.744977435097098" lon="7.944937879219651">
        <ele>2311.1500000000001</ele>
        <time>2012-09-18T10:35:49Z</time>
      </trkpt>
      <trkpt lat="45.744980704039335" lon="7.94497886672616">
        <ele>2311.6300000000001</ele>
        <time>2012-09-18T10:35:46Z</time>
      </trkpt>
      <trkpt lat="45.745028732344508" lon="7.945101326331496">
        <ele>2314.5100000000002</ele>
        <time>2012-09-18T10:35:35Z</time>
      </trkpt>
      <trkpt lat="45.745094446465373" lon="7.945132590830326">
        <ele>2318.3600000000001</ele>
        <time>2012-09-18T10:35:23Z</time>
      </trkpt>
      <trkpt lat="45.745167955756187" lon="7.945136781781912">
        <ele>2321.2399999999998</ele>
        <time>2012-09-18T10:35:14Z</time>
      </trkpt>
      <trkpt lat="45.745167955756187" lon="7.945136781781912">
        <ele>2321.7199999999998</ele>
        <time>2012-09-18T10:35:12Z</time>
      </trkpt>
      <trkpt lat="45.745200980454683" lon="7.945160586386919">
        <ele>2323.1599999999999</ele>
        <time>2012-09-18T10:34:56Z</time>
      </trkpt>
      <trkpt lat="45.745258061215281" lon="7.945175422355533">
        <ele>2325.0900000000001</ele>
        <time>2012-09-18T10:34:51Z</time>
      </trkpt>
      <trkpt lat="45.745258061215281" lon="7.945175422355533">
        <ele>2326.0500000000002</ele>
        <time>2012-09-18T10:34:48Z</time>
      </trkpt>
      <trkpt lat="45.745262084528804" lon="7.945166705176234">
        <ele>2327.4899999999998</ele>
        <time>2012-09-18T10:34:34Z</time>
      </trkpt>
      <trkpt lat="45.745292929932475" lon="7.94517332687974">
        <ele>2328.4499999999998</ele>
        <time>2012-09-18T10:34:31Z</time>
      </trkpt>
      <trkpt lat="45.745311873033643" lon="7.945160586386919">
        <ele>2331.3299999999999</ele>
        <time>2012-09-18T10:34:22Z</time>
      </trkpt>
      <trkpt lat="45.745303072035313" lon="7.945174416527152">
        <ele>2331.8099999999999</ele>
        <time>2012-09-18T10:34:05Z</time>
      </trkpt>
      <trkpt lat="45.745342634618282" lon="7.945208111777902">
        <ele>2335.1799999999998</ele>
        <time>2012-09-18T10:33:56Z</time>
      </trkpt>
      <trkpt lat="45.745361326262355" lon="7.945221271365881">
        <ele>2336.6199999999999</ele>
        <time>2012-09-18T10:33:52Z</time>
      </trkpt>
      <trkpt lat="45.745401810854673" lon="7.945214649662376">
        <ele>2338.54</ele>
        <time>2012-09-18T10:33:46Z</time>
      </trkpt>
      <trkpt lat="45.745412455871701" lon="7.945205178111792">
        <ele>2341.9099999999999</ele>
        <time>2012-09-18T10:33:35Z</time>
      </trkpt>
      <trkpt lat="45.745437601581216" lon="7.945243483409286">
        <ele>2343.8299999999999</ele>
        <time>2012-09-18T10:33:30Z</time>
      </trkpt>
      <trkpt lat="45.745466686785221" lon="7.945247422903776">
        <ele>2345.27</ele>
        <time>2012-09-18T10:33:27Z</time>
      </trkpt>
      <trkpt lat="45.745477415621281" lon="7.945245997980237">
        <ele>2345.75</ele>
        <time>2012-09-18T10:33:21Z</time>
      </trkpt>
      <trkpt lat="45.745506500825286" lon="7.945261504501104">
        <ele>2347.1999999999998</ele>
        <time>2012-09-18T10:33:06Z</time>
      </trkpt>
      <trkpt lat="45.745530389249325" lon="7.945241807028651">
        <ele>2348.6399999999999</ele>
        <time>2012-09-18T10:32:59Z</time>
      </trkpt>
      <trkpt lat="45.745576405897737" lon="7.945189587771893">
        <ele>2352</ele>
        <time>2012-09-18T10:32:46Z</time>
      </trkpt>
      <trkpt lat="45.745598869398236" lon="7.945216074585915">
        <ele>2354.8899999999999</ele>
        <time>2012-09-18T10:32:35Z</time>
      </trkpt>
      <trkpt lat="45.745601132512093" lon="7.945302659645677">
        <ele>2357.77</ele>
        <time>2012-09-18T10:32:18Z</time>
      </trkpt>
      <trkpt lat="45.745599875226617" lon="7.945299642160535">
        <ele>2359.21</ele>
        <time>2012-09-18T10:32:14Z</time>
      </trkpt>
      <trkpt lat="45.745594091713428" lon="7.945319255813956">
        <ele>2358.73</ele>
        <time>2012-09-18T10:32:03Z</time>
      </trkpt>
      <trkpt lat="45.745621416717768" lon="7.945275083184242">
        <ele>2357.29</ele>
        <time>2012-09-18T10:11:23Z</time>
      </trkpt>
      <trkpt lat="45.745663745328784" lon="7.945208866149187">
        <ele>2359.21</ele>
        <time>2012-09-18T10:11:10Z</time>
      </trkpt>
      <trkpt lat="45.745776649564505" lon="7.945092860609293">
        <ele>2356.3299999999999</ele>
        <time>2012-09-18T09:55:07Z</time>
      </trkpt>
      <trkpt lat="45.745788803324103" lon="7.945071570575237">
        <ele>2354.8899999999999</ele>
        <time>2012-09-18T09:54:55Z</time>
      </trkpt>
      <trkpt lat="45.7458062376827" lon="7.945035193115473">
        <ele>2353.4400000000001</ele>
        <time>2012-09-18T09:54:40Z</time>
      </trkpt>
      <trkpt lat="45.745828114449978" lon="7.945022033527494">
        <ele>2351.52</ele>
        <time>2012-09-18T09:54:24Z</time>
      </trkpt>
      <trkpt lat="45.745840184390545" lon="7.945007113739848">
        <ele>2349.5999999999999</ele>
        <time>2012-09-18T09:54:09Z</time>
      </trkpt>
      <trkpt lat="45.745844040066004" lon="7.944973586127162">
        <ele>2347.6799999999998</ele>
        <time>2012-09-18T09:53:56Z</time>
      </trkpt>
      <trkpt lat="45.74587513692677" lon="7.944930335506797">
        <ele>2346.23</ele>
        <time>2012-09-18T09:53:43Z</time>
      </trkpt>
      <trkpt lat="45.745889134705067" lon="7.944917930290103">
        <ele>2344.79</ele>
        <time>2012-09-18T09:53:29Z</time>
      </trkpt>
      <trkpt lat="45.745907407253981" lon="7.944901250302792">
        <ele>2341.9099999999999</ele>
        <time>2012-09-18T09:53:14Z</time>
      </trkpt>
      <trkpt lat="45.745910676196218" lon="7.94489479623735">
        <ele>2340.9499999999998</ele>
        <time>2012-09-18T09:52:58Z</time>
      </trkpt>
      <trkpt lat="45.745918974280357" lon="7.944858083501458">
        <ele>2338.54</ele>
        <time>2012-09-18T09:52:42Z</time>
      </trkpt>
      <trkpt lat="45.745924841612577" lon="7.944833692163229">
        <ele>2337.5799999999999</ele>
        <time>2012-09-18T09:52:28Z</time>
      </trkpt>
      <trkpt lat="45.745931714773178" lon="7.944806786254048">
        <ele>2335.6599999999999</ele>
        <time>2012-09-18T09:52:14Z</time>
      </trkpt>
      <trkpt lat="45.745932217687368" lon="7.944760099053383">
        <ele>2334.2199999999998</ele>
        <time>2012-09-18T09:52:00Z</time>
      </trkpt>
      <trkpt lat="45.745921991765499" lon="7.944702263921499">
        <ele>2332.3000000000002</ele>
        <time>2012-09-18T09:51:47Z</time>
      </trkpt>
      <trkpt lat="45.745936743915081" lon="7.944647446274757">
        <ele>2330.8499999999999</ele>
        <time>2012-09-18T09:51:33Z</time>
      </trkpt>
      <trkpt lat="45.745946299284697" lon="7.944607213139534">
        <ele>2330.8499999999999</ele>
        <time>2012-09-18T09:51:28Z</time>
      </trkpt>
      <trkpt lat="45.745946131646633" lon="7.944571590051055">
        <ele>2328.4499999999998</ele>
        <time>2012-09-18T09:51:13Z</time>
      </trkpt>
      <trkpt lat="45.7459547650069" lon="7.944512497633696">
        <ele>2327.9699999999998</ele>
        <time>2012-09-18T09:51:00Z</time>
      </trkpt>
      <trkpt lat="45.745948478579521" lon="7.94446581043303">
        <ele>2327.0100000000002</ele>
        <time>2012-09-18T09:50:45Z</time>
      </trkpt>
      <trkpt lat="45.745939426124096" lon="7.944382494315505">
        <ele>2327.0100000000002</ele>
        <time>2012-09-18T09:50:32Z</time>
      </trkpt>
      <trkpt lat="45.745937582105398" lon="7.944356426596642">
        <ele>2327.0100000000002</ele>
        <time>2012-09-18T09:50:29Z</time>
      </trkpt>
      <trkpt lat="45.745930708944798" lon="7.944297669455409">
        <ele>2327.0100000000002</ele>
        <time>2012-09-18T09:50:18Z</time>
      </trkpt>
      <trkpt lat="45.745961805805564" lon="7.944270260632038">
        <ele>2327.0100000000002</ele>
        <time>2012-09-18T09:50:13Z</time>
      </trkpt>
      <trkpt lat="45.745968678966165" lon="7.944259364157915">
        <ele>2327.0100000000002</ele>
        <time>2012-09-18T09:50:06Z</time>
      </trkpt>
      <trkpt lat="45.745998350903392" lon="7.944229273125529">
        <ele>2326.0500000000002</ele>
        <time>2012-09-18T09:49:45Z</time>
      </trkpt>
      <trkpt lat="45.746032632887363" lon="7.944213263690472">
        <ele>2324.1199999999999</ele>
        <time>2012-09-18T09:49:31Z</time>
      </trkpt>
      <trkpt lat="45.746044870465994" lon="7.944186860695481">
        <ele>2323.1599999999999</ele>
        <time>2012-09-18T09:49:17Z</time>
      </trkpt>
      <trkpt lat="45.746050905436277" lon="7.944183005020022">
        <ele>2322.1999999999998</ele>
        <time>2012-09-18T09:49:05Z</time>
      </trkpt>
      <trkpt lat="45.746099017560482" lon="7.944116033613682">
        <ele>2320.7600000000002</ele>
        <time>2012-09-18T09:48:53Z</time>
      </trkpt>
      <trkpt lat="45.746143944561481" lon="7.944087283685803">
        <ele>2318.8400000000001</ele>
        <time>2012-09-18T09:48:38Z</time>
      </trkpt>
      <trkpt lat="45.746219381690025" lon="7.944003716111183">
        <ele>2316.9099999999999</ele>
        <time>2012-09-18T09:48:21Z</time>
      </trkpt>
      <trkpt lat="45.746260620653629" lon="7.943966500461102">
        <ele>2314.5100000000002</ele>
        <time>2012-09-18T09:48:08Z</time>
      </trkpt>
      <trkpt lat="45.74627629481256" lon="7.943939762189984">
        <ele>2312.1100000000001</ele>
        <time>2012-09-18T09:47:52Z</time>
      </trkpt>
      <trkpt lat="45.746314264833927" lon="7.943962560966611">
        <ele>2311.1500000000001</ele>
        <time>2012-09-18T09:47:40Z</time>
      </trkpt>
      <trkpt lat="45.746349217370152" lon="7.943941354751587">
        <ele>2309.6999999999998</ele>
        <time>2012-09-18T09:47:26Z</time>
      </trkpt>
      <trkpt lat="45.746353659778833" lon="7.943940935656428">
        <ele>2309.6999999999998</ele>
        <time>2012-09-18T09:47:25Z</time>
      </trkpt>
      <trkpt lat="45.746380481868982" lon="7.943913945928216">
        <ele>2306.3400000000001</ele>
        <time>2012-09-18T09:47:10Z</time>
      </trkpt>
      <trkpt lat="45.746403867378831" lon="7.943858206272125">
        <ele>2304.4200000000001</ele>
        <time>2012-09-18T09:46:54Z</time>
      </trkpt>
      <trkpt lat="45.746424654498696" lon="7.94383398257196">
        <ele>2304.4200000000001</ele>
        <time>2012-09-18T09:46:50Z</time>
      </trkpt>
      <trkpt lat="45.746467318385839" lon="7.943796599283814">
        <ele>2303.46</ele>
        <time>2012-09-18T09:46:39Z</time>
      </trkpt>
      <trkpt lat="45.746472515165806" lon="7.943794168531895">
        <ele>2302.4899999999998</ele>
        <time>2012-09-18T09:46:31Z</time>
      </trkpt>
      <trkpt lat="45.746500007808208" lon="7.943780841305852">
        <ele>2301.0500000000002</ele>
        <time>2012-09-18T09:46:18Z</time>
      </trkpt>
      <trkpt lat="45.746521297842264" lon="7.943764915689826">
        <ele>2299.6100000000001</ele>
        <time>2012-09-18T09:46:06Z</time>
      </trkpt>
      <trkpt lat="45.746543761342764" lon="7.943773381412029">
        <ele>2298.1700000000001</ele>
        <time>2012-09-18T09:45:52Z</time>
      </trkpt>
      <trkpt lat="45.746558178216219" lon="7.943777991458774">
        <ele>2296.25</ele>
        <time>2012-09-18T09:45:39Z</time>
      </trkpt>
      <trkpt lat="45.746559770777822" lon="7.943803472444415">
        <ele>2296.25</ele>
        <time>2012-09-18T09:45:26Z</time>
      </trkpt>
      <trkpt lat="45.746575109660625" lon="7.943781847134233">
        <ele>2294.8000000000002</ele>
        <time>2012-09-18T09:45:22Z</time>
      </trkpt>
      <trkpt lat="45.746607715263963" lon="7.943784277886152">
        <ele>2293.8400000000001</ele>
        <time>2012-09-18T09:45:10Z</time>
      </trkpt>
      <trkpt lat="45.746596986427903" lon="7.943797186017036">
        <ele>2292.4000000000001</ele>
        <time>2012-09-18T09:44:56Z</time>
      </trkpt>
      <trkpt lat="45.746616767719388" lon="7.943762149661779">
        <ele>2290</ele>
        <time>2012-09-18T09:44:43Z</time>
      </trkpt>
      <trkpt lat="45.746651971712708" lon="7.943758545443416">
        <ele>2288.5599999999999</ele>
        <time>2012-09-18T09:44:29Z</time>
      </trkpt>
      <trkpt lat="45.746671501547098" lon="7.943769609555602">
        <ele>2286.6300000000001</ele>
        <time>2012-09-18T09:44:15Z</time>
      </trkpt>
      <trkpt lat="45.746713830158114" lon="7.943763826042414">
        <ele>2285.1900000000001</ele>
        <time>2012-09-18T09:44:00Z</time>
      </trkpt>
      <trkpt lat="45.746741490438581" lon="7.943757371976972">
        <ele>2283.75</ele>
        <time>2012-09-18T09:43:39Z</time>
      </trkpt>
      <trkpt lat="45.746791027486324" lon="7.943749995902181">
        <ele>2283.27</ele>
        <time>2012-09-18T09:43:25Z</time>
      </trkpt>
      <trkpt lat="45.74680058285594" lon="7.943763826042414">
        <ele>2281.8299999999999</ele>
        <time>2012-09-18T09:43:16Z</time>
      </trkpt>
      <trkpt lat="45.746799074113369" lon="7.943761982023716">
        <ele>2281.3499999999999</ele>
        <time>2012-09-18T09:42:54Z</time>
      </trkpt>
      <trkpt lat="45.746851796284318" lon="7.943779835477471">
        <ele>2280.8699999999999</ele>
        <time>2012-09-18T09:42:40Z</time>
      </trkpt>
      <trkpt lat="45.746939303353429" lon="7.943783607333899">
        <ele>2279.4200000000001</ele>
        <time>2012-09-18T09:42:25Z</time>
      </trkpt>
      <trkpt lat="45.746993198990822" lon="7.943741781637073">
        <ele>2279.9000000000001</ele>
        <time>2012-09-18T09:42:09Z</time>
      </trkpt>
      <trkpt lat="45.747040724381804" lon="7.943687550723553">
        <ele>2280.8699999999999</ele>
        <time>2012-09-18T09:42:01Z</time>
      </trkpt>
      <trkpt lat="45.747097302228212" lon="7.943673301488161">
        <ele>2281.8299999999999</ele>
        <time>2012-09-18T09:41:50Z</time>
      </trkpt>
      <trkpt lat="45.747198890894651" lon="7.943611107766628">
        <ele>2283.27</ele>
        <time>2012-09-18T09:41:33Z</time>
      </trkpt>
      <trkpt lat="45.747304754331708" lon="7.943556876853108">
        <ele>2283.27</ele>
        <time>2012-09-18T09:41:18Z</time>
      </trkpt>
      <trkpt lat="45.747296707704663" lon="7.943537011742592">
        <ele>2283.27</ele>
        <time>2012-09-18T09:41:12Z</time>
      </trkpt>
      <trkpt lat="45.747293019667268" lon="7.943534832447767">
        <ele>2283.27</ele>
        <time>2012-09-18T09:41:00Z</time>
      </trkpt>
      <trkpt lat="45.747331995517015" lon="7.943500131368637">
        <ele>2282.79</ele>
        <time>2012-09-18T09:40:45Z</time>
      </trkpt>
      <trkpt lat="45.747421514242887" lon="7.943465262651444">
        <ele>2282.79</ele>
        <time>2012-09-18T09:40:30Z</time>
      </trkpt>
      <trkpt lat="45.747493430972099" lon="7.943424694240093">
        <ele>2282.3099999999999</ele>
        <time>2012-09-18T09:40:14Z</time>
      </trkpt>
      <trkpt lat="45.747510865330696" lon="7.943420251831412">
        <ele>2281.8299999999999</ele>
        <time>2012-09-18T09:40:11Z</time>
      </trkpt>
      <trkpt lat="45.74758579954505" lon="7.943349173292518">
        <ele>2280.8699999999999</ele>
        <time>2012-09-18T09:39:58Z</time>
      </trkpt>
      <trkpt lat="45.74764396995306" lon="7.943352945148945">
        <ele>2279.9000000000001</ele>
        <time>2012-09-18T09:39:42Z</time>
      </trkpt>
      <trkpt lat="45.747731812298298" lon="7.943347413092852">
        <ele>2278.46</ele>
        <time>2012-09-18T09:39:26Z</time>
      </trkpt>
      <trkpt lat="45.747767435386777" lon="7.943356800824404">
        <ele>2277.98</ele>
        <time>2012-09-18T09:39:08Z</time>
      </trkpt>
      <trkpt lat="45.747771793976426" lon="7.9433639254421">
        <ele>2277.98</ele>
        <time>2012-09-18T09:38:40Z</time>
      </trkpt>
      <trkpt lat="45.747771793976426" lon="7.9433639254421">
        <ele>2277.98</ele>
        <time>2012-09-18T09:38:12Z</time>
      </trkpt>
      <trkpt lat="45.747780678793788" lon="7.943345149978995">
        <ele>2277.98</ele>
        <time>2012-09-18T09:37:49Z</time>
      </trkpt>
      <trkpt lat="45.747779672965407" lon="7.943348838016391">
        <ele>2277.98</ele>
        <time>2012-09-18T09:37:27Z</time>
      </trkpt>
      <trkpt lat="45.747779421508312" lon="7.943346491083503">
        <ele>2277.5</ele>
        <time>2012-09-18T09:36:52Z</time>
      </trkpt>
      <trkpt lat="45.747779672965407" lon="7.943342886865139">
        <ele>2277.5</ele>
        <time>2012-09-18T09:36:34Z</time>
      </trkpt>
      <trkpt lat="45.747774811461568" lon="7.943348586559296">
        <ele>2277.5</ele>
        <time>2012-09-18T09:36:20Z</time>
      </trkpt>
      <trkpt lat="45.747782858088613" lon="7.94335663318634">
        <ele>2277.5</ele>
        <time>2012-09-18T09:36:08Z</time>
      </trkpt>
      <trkpt lat="45.747797191143036" lon="7.943386388942599">
        <ele>2276.0599999999999</ele>
        <time>2012-09-18T09:35:55Z</time>
      </trkpt>
      <trkpt lat="45.747861312702298" lon="7.943404410034418">
        <ele>2275.0999999999999</ele>
        <time>2012-09-18T09:35:41Z</time>
      </trkpt>
      <trkpt lat="45.747870951890945" lon="7.943421006202698">
        <ele>2273.1700000000001</ele>
        <time>2012-09-18T09:35:27Z</time>
      </trkpt>
      <trkpt lat="45.747893247753382" lon="7.943455036729574">
        <ele>2271.73</ele>
        <time>2012-09-18T09:35:10Z</time>
      </trkpt>
      <trkpt lat="45.747887967154384" lon="7.943480769172311">
        <ele>2270.77</ele>
        <time>2012-09-18T09:34:57Z</time>
      </trkpt>
      <trkpt lat="45.747919986024499" lon="7.943488648161292">
        <ele>2268.8499999999999</ele>
        <time>2012-09-18T09:34:45Z</time>
      </trkpt>
      <trkpt lat="45.747928954660892" lon="7.943487390875816">
        <ele>2267.8899999999999</ele>
        <time>2012-09-18T09:34:33Z</time>
      </trkpt>
      <trkpt lat="45.747963320463896" lon="7.943501472473145">
        <ele>2266.4499999999998</ele>
        <time>2012-09-18T09:34:21Z</time>
      </trkpt>
      <trkpt lat="45.748053174465895" lon="7.943541286513209">
        <ele>2264.04</ele>
        <time>2012-09-18T09:34:06Z</time>
      </trkpt>
      <trkpt lat="45.748104806989431" lon="7.94355645775795">
        <ele>2264.04</ele>
        <time>2012-09-18T09:33:52Z</time>
      </trkpt>
      <trkpt lat="45.748154846951365" lon="7.943562660366297">
        <ele>2264.04</ele>
        <time>2012-09-18T09:33:34Z</time>
      </trkpt>
      <trkpt lat="45.748154427856207" lon="7.943562744185329">
        <ele>2263.0799999999999</ele>
        <time>2012-09-18T09:31:53Z</time>
      </trkpt>
      <trkpt lat="45.748200276866555" lon="7.943548243492842">
        <ele>2263.0799999999999</ele>
        <time>2012-09-18T09:31:40Z</time>
      </trkpt>
      <trkpt lat="45.748200276866555" lon="7.943548243492842">
        <ele>2262.5999999999999</ele>
        <time>2012-09-18T09:31:33Z</time>
      </trkpt>
      <trkpt lat="45.74822835624218" lon="7.94353055767715">
        <ele>2261.6399999999999</ele>
        <time>2012-09-18T09:31:19Z</time>
      </trkpt>
      <trkpt lat="45.748260542750359" lon="7.943510273471475">
        <ele>2260.1999999999998</ele>
        <time>2012-09-18T09:31:06Z</time>
      </trkpt>
      <trkpt lat="45.74830312281847" lon="7.943527875468135">
        <ele>2258.75</ele>
        <time>2012-09-18T09:30:52Z</time>
      </trkpt>
      <trkpt lat="45.748383672907948" lon="7.943520667031407">
        <ele>2258.27</ele>
        <time>2012-09-18T09:30:38Z</time>
      </trkpt>
      <trkpt lat="45.7483827508986" lon="7.94351882301271">
        <ele>2258.27</ele>
        <time>2012-09-18T09:30:12Z</time>
      </trkpt>
      <trkpt lat="45.7483827508986" lon="7.94351882301271">
        <ele>2258.27</ele>
        <time>2012-09-18T09:29:52Z</time>
      </trkpt>
      <trkpt lat="45.748387528583407" lon="7.943517901003361">
        <ele>2258.27</ele>
        <time>2012-09-18T09:29:29Z</time>
      </trkpt>
      <trkpt lat="45.748459110036492" lon="7.943474063649774">
        <ele>2257.3099999999999</ele>
        <time>2012-09-18T09:29:15Z</time>
      </trkpt>
      <trkpt lat="45.748530607670546" lon="7.943381695076823">
        <ele>2256.8299999999999</ele>
        <time>2012-09-18T09:29:01Z</time>
      </trkpt>
      <trkpt lat="45.748567823320627" lon="7.943344730883837">
        <ele>2256.8299999999999</ele>
        <time>2012-09-18T09:28:50Z</time>
      </trkpt>
      <trkpt lat="45.74856648221612" lon="7.943344479426742">
        <ele>2256.8299999999999</ele>
        <time>2012-09-18T09:28:29Z</time>
      </trkpt>
      <trkpt lat="45.74856648221612" lon="7.943344479426742">
        <ele>2256.8299999999999</ele>
        <time>2012-09-18T09:27:56Z</time>
      </trkpt>
      <trkpt lat="45.748573103919625" lon="7.943348670378327">
        <ele>2256.3499999999999</ele>
        <time>2012-09-18T09:27:38Z</time>
      </trkpt>
      <trkpt lat="45.748594896867871" lon="7.94334682635963">
        <ele>2256.3499999999999</ele>
        <time>2012-09-18T09:27:22Z</time>
      </trkpt>
      <trkpt lat="45.748625323176384" lon="7.943325452506542">
        <ele>2255.3899999999999</ele>
        <time>2012-09-18T09:27:07Z</time>
      </trkpt>
      <trkpt lat="45.748629597947001" lon="7.943322099745274">
        <ele>2254.9099999999999</ele>
        <time>2012-09-18T09:27:05Z</time>
      </trkpt>
      <trkpt lat="45.748664382845163" lon="7.943293349817395">
        <ele>2253.9499999999998</ele>
        <time>2012-09-18T09:26:53Z</time>
      </trkpt>
      <trkpt lat="45.748702771961689" lon="7.943298798054457">
        <ele>2253.4699999999998</ele>
        <time>2012-09-18T09:26:38Z</time>
      </trkpt>
      <trkpt lat="45.748742753639817" lon="7.943255295976996">
        <ele>2252.0300000000002</ele>
        <time>2012-09-18T09:26:23Z</time>
      </trkpt>
      <trkpt lat="45.748800002038479" lon="7.943202238529921">
        <ele>2251.54</ele>
        <time>2012-09-18T09:26:09Z</time>
      </trkpt>
      <trkpt lat="45.748812323436141" lon="7.9431929346174">
        <ele>2251.54</ele>
        <time>2012-09-18T09:25:55Z</time>
      </trkpt>
      <trkpt lat="45.748815508559346" lon="7.943176254630089">
        <ele>2250.5799999999999</ele>
        <time>2012-09-18T09:25:39Z</time>
      </trkpt>
      <trkpt lat="45.748884910717607" lon="7.94315236620605">
        <ele>2248.1799999999998</ele>
        <time>2012-09-18T09:25:21Z</time>
      </trkpt>
      <trkpt lat="45.748902345076203" lon="7.943125879392028">
        <ele>2245.7800000000002</ele>
        <time>2012-09-18T09:25:07Z</time>
      </trkpt>
      <trkpt lat="45.748970238491893" lon="7.943100482225418">
        <ele>2244.3299999999999</ele>
        <time>2012-09-18T09:24:54Z</time>
      </trkpt>
      <trkpt lat="45.7489974796772" lon="7.943087154999375">
        <ele>2243.3699999999999</ele>
        <time>2012-09-18T09:24:37Z</time>
      </trkpt>
      <trkpt lat="45.748995468020439" lon="7.943085143342614">
        <ele>2242.8899999999999</ele>
        <time>2012-09-18T09:24:14Z</time>
      </trkpt>
      <trkpt lat="45.749014159664512" lon="7.943087238818407">
        <ele>2242.4099999999999</ele>
        <time>2012-09-18T09:23:52Z</time>
      </trkpt>
      <trkpt lat="45.749040143564343" lon="7.943060416728258">
        <ele>2239.5300000000002</ele>
        <time>2012-09-18T09:23:40Z</time>
      </trkpt>
      <trkpt lat="45.749078700318933" lon="7.942953547462821">
        <ele>2238.0900000000001</ele>
        <time>2012-09-18T09:23:27Z</time>
      </trkpt>
      <trkpt lat="45.749075766652822" lon="7.942916331812739">
        <ele>2237.1300000000001</ele>
        <time>2012-09-18T09:23:18Z</time>
      </trkpt>
      <trkpt lat="45.74905757792294" lon="7.942897388711572">
        <ele>2236.6399999999999</ele>
        <time>2012-09-18T09:23:16Z</time>
      </trkpt>
      <trkpt lat="45.749098481610417" lon="7.942897221073508">
        <ele>2235.6799999999998</ele>
        <time>2012-09-18T09:23:04Z</time>
      </trkpt>
      <trkpt lat="45.749134356155992" lon="7.94288263656199">
        <ele>2234.7199999999998</ele>
        <time>2012-09-18T09:22:53Z</time>
      </trkpt>
      <trkpt lat="45.749147599563003" lon="7.942829662933946">
        <ele>2232.8000000000002</ele>
        <time>2012-09-18T09:22:40Z</time>
      </trkpt>
      <trkpt lat="45.749179953709245" lon="7.942818934097886">
        <ele>2230.8800000000001</ele>
        <time>2012-09-18T09:22:29Z</time>
      </trkpt>
      <trkpt lat="45.7492271438241" lon="7.942825388163328">
        <ele>2228.4699999999998</ele>
        <time>2012-09-18T09:22:14Z</time>
      </trkpt>
      <trkpt lat="45.749274417757988" lon="7.942742155864835">
        <ele>2227.5100000000002</ele>
        <time>2012-09-18T09:22:01Z</time>
      </trkpt>
      <trkpt lat="45.74927450157702" lon="7.942748693749309">
        <ele>2227.0300000000002</ele>
        <time>2012-09-18T09:21:40Z</time>
      </trkpt>
      <trkpt lat="45.749297719448805" lon="7.942667305469513">
        <ele>2225.5900000000001</ele>
        <time>2012-09-18T09:21:27Z</time>
      </trkpt>
      <trkpt lat="45.749356811866164" lon="7.94267694465816">
        <ele>2224.1500000000001</ele>
        <time>2012-09-18T09:21:08Z</time>
      </trkpt>
      <trkpt lat="45.749404923990369" lon="7.942645512521267">
        <ele>2222.2199999999998</ele>
        <time>2012-09-18T09:20:54Z</time>
      </trkpt>
      <trkpt lat="45.74941573664546" lon="7.942612404003739">
        <ele>2221.7399999999998</ele>
        <time>2012-09-18T09:20:34Z</time>
      </trkpt>
      <trkpt lat="45.749490167945623" lon="7.942592035979033">
        <ele>2219.8200000000002</ele>
        <time>2012-09-18T09:20:20Z</time>
      </trkpt>
      <trkpt lat="45.74950466863811" lon="7.942579295486212">
        <ele>2219.8200000000002</ele>
        <time>2012-09-18T09:20:09Z</time>
      </trkpt>
      <trkpt lat="45.749510452151299" lon="7.942542163655162">
        <ele>2217.9000000000001</ele>
        <time>2012-09-18T09:19:56Z</time>
      </trkpt>
      <trkpt lat="45.749528221786022" lon="7.942530177533627">
        <ele>2217.9000000000001</ele>
        <time>2012-09-18T09:19:53Z</time>
      </trkpt>
      <trkpt lat="45.749535681679845" lon="7.942523807287216">
        <ele>2217.9000000000001</ele>
        <time>2012-09-18T09:19:34Z</time>
      </trkpt>
      <trkpt lat="45.749534675851464" lon="7.942522550001741">
        <ele>2217.9000000000001</ele>
        <time>2012-09-18T09:19:07Z</time>
      </trkpt>
      <trkpt lat="45.74953350238502" lon="7.942517688497901">
        <ele>2217.9000000000001</ele>
        <time>2012-09-18T09:18:49Z</time>
      </trkpt>
      <trkpt lat="45.749537022784352" lon="7.942521795630455">
        <ele>2217.9000000000001</ele>
        <time>2012-09-18T09:18:32Z</time>
      </trkpt>
      <trkpt lat="45.749698709696531" lon="7.942532440647483">
        <ele>2216.46</ele>
        <time>2012-09-18T09:12:57Z</time>
      </trkpt>
      <trkpt lat="45.749732153490186" lon="7.94254400767386">
        <ele>2214.5300000000002</ele>
        <time>2012-09-18T09:12:43Z</time>
      </trkpt>
      <trkpt lat="45.749779008328915" lon="7.942539062350988">
        <ele>2212.6100000000001</ele>
        <time>2012-09-18T09:12:29Z</time>
      </trkpt>
      <trkpt lat="45.749826366081834" lon="7.942564627155662">
        <ele>2210.21</ele>
        <time>2012-09-18T09:12:14Z</time>
      </trkpt>
      <trkpt lat="45.749868610873818" lon="7.942568315193057">
        <ele>2209.25</ele>
        <time>2012-09-18T09:11:58Z</time>
      </trkpt>
      <trkpt lat="45.74991806410253" lon="7.942601339891553">
        <ele>2207.8099999999999</ele>
        <time>2012-09-18T09:11:41Z</time>
      </trkpt>
      <trkpt lat="45.749975312501192" lon="7.942617349326611">
        <ele>2207.3200000000002</ele>
        <time>2012-09-18T09:11:27Z</time>
      </trkpt>
      <trkpt lat="45.749988472089171" lon="7.942644003778696">
        <ele>2205.8800000000001</ele>
        <time>2012-09-18T09:11:15Z</time>
      </trkpt>
      <trkpt lat="45.749980257824063" lon="7.942694462835789">
        <ele>2204.9200000000001</ele>
        <time>2012-09-18T09:11:01Z</time>
      </trkpt>
      <trkpt lat="45.750012695789337" lon="7.942730505019426">
        <ele>2203</ele>
        <time>2012-09-18T09:10:44Z</time>
      </trkpt>
      <trkpt lat="45.750039601698518" lon="7.942749448120594">
        <ele>2202.52</ele>
        <time>2012-09-18T09:10:24Z</time>
      </trkpt>
      <trkpt lat="45.750041110441089" lon="7.942754225805402">
        <ele>2202.04</ele>
        <time>2012-09-18T09:10:04Z</time>
      </trkpt>
      <trkpt lat="45.75005192309618" lon="7.942763864994049">
        <ele>2201.5599999999999</ele>
        <time>2012-09-18T09:09:48Z</time>
      </trkpt>
      <trkpt lat="45.750074051320553" lon="7.942767972126603">
        <ele>2201.0799999999999</ele>
        <time>2012-09-18T09:09:35Z</time>
      </trkpt>
      <trkpt lat="45.750118056312203" lon="7.942813318222761">
        <ele>2199.1500000000001</ele>
        <time>2012-09-18T09:09:20Z</time>
      </trkpt>
      <trkpt lat="45.750165414065123" lon="7.942868303507567">
        <ele>2197.71</ele>
        <time>2012-09-18T09:09:04Z</time>
      </trkpt>
      <trkpt lat="45.750191565603018" lon="7.942913314327598">
        <ele>2196.27</ele>
        <time>2012-09-18T09:08:49Z</time>
      </trkpt>
      <trkpt lat="45.750192403793335" lon="7.942921109497547">
        <ele>2195.79</ele>
        <time>2012-09-18T09:08:20Z</time>
      </trkpt>
      <trkpt lat="45.750192236155272" lon="7.942925887182355">
        <ele>2195.3099999999999</ele>
        <time>2012-09-18T09:07:56Z</time>
      </trkpt>
      <trkpt lat="45.750186955556273" lon="7.94293150305748">
        <ele>2195.3099999999999</ele>
        <time>2012-09-18T09:07:25Z</time>
      </trkpt>
      <trkpt lat="45.750183686614037" lon="7.942936029285193">
        <ele>2194.8299999999999</ele>
        <time>2012-09-18T09:07:03Z</time>
      </trkpt>
      <trkpt lat="45.750185949727893" lon="7.942941393703222">
        <ele>2194.8299999999999</ele>
        <time>2012-09-18T09:06:39Z</time>
      </trkpt>
      <trkpt lat="45.750193074345589" lon="7.942952122539282">
        <ele>2194.3499999999999</ele>
        <time>2012-09-18T09:06:22Z</time>
      </trkpt>
      <trkpt lat="45.750191481783986" lon="7.942961845546961">
        <ele>2193.8699999999999</ele>
        <time>2012-09-18T09:06:07Z</time>
      </trkpt>
      <trkpt lat="45.750226601958275" lon="7.942976849153638">
        <ele>2192.4200000000001</ele>
        <time>2012-09-18T09:05:52Z</time>
      </trkpt>
      <trkpt lat="45.750242108479142" lon="7.943032924085856">
        <ele>2190.5</ele>
        <time>2012-09-18T09:05:39Z</time>
      </trkpt>
      <trkpt lat="45.750238168984652" lon="7.943071816116571">
        <ele>2190.5</ele>
        <time>2012-09-18T09:05:23Z</time>
      </trkpt>
      <trkpt lat="45.750232469290495" lon="7.943085394799709">
        <ele>2190.02</ele>
        <time>2012-09-18T09:05:13Z</time>
      </trkpt>
      <trkpt lat="45.750237833708525" lon="7.943089921027422">
        <ele>2190.02</ele>
        <time>2012-09-18T09:04:55Z</time>
      </trkpt>
      <trkpt lat="45.750236660242081" lon="7.943105176091194">
        <ele>2189.0599999999999</ele>
        <time>2012-09-18T09:04:37Z</time>
      </trkpt>
      <trkpt lat="45.750272870063782" lon="7.943195784464479">
        <ele>2187.6199999999999</ele>
        <time>2012-09-18T09:04:21Z</time>
      </trkpt>
      <trkpt lat="45.750360125675797" lon="7.943257223814726">
        <ele>2185.6900000000001</ele>
        <time>2012-09-18T09:04:05Z</time>
      </trkpt>
      <trkpt lat="45.750422738492489" lon="7.943284465000033">
        <ele>2184.73</ele>
        <time>2012-09-18T09:03:51Z</time>
      </trkpt>
      <trkpt lat="45.750439669936895" lon="7.943313298746944">
        <ele>2183.29</ele>
        <time>2012-09-18T09:03:41Z</time>
      </trkpt>
      <trkpt lat="45.75050538405776" lon="7.943344144150615">
        <ele>2181.3699999999999</ele>
        <time>2012-09-18T09:03:26Z</time>
      </trkpt>
      <trkpt lat="45.750579731538892" lon="7.943372055888176">
        <ele>2178.48</ele>
        <time>2012-09-18T09:03:10Z</time>
      </trkpt>
      <trkpt lat="45.750640332698822" lon="7.943389406427741">
        <ele>2176.0799999999999</ele>
        <time>2012-09-18T09:02:52Z</time>
      </trkpt>
      <trkpt lat="45.750681068748236" lon="7.943446151912212">
        <ele>2174.1599999999999</ele>
        <time>2012-09-18T09:02:38Z</time>
      </trkpt>
      <trkpt lat="45.750693557783961" lon="7.943459479138255">
        <ele>2173.1999999999998</ele>
        <time>2012-09-18T09:02:23Z</time>
      </trkpt>
      <trkpt lat="45.75073353946209" lon="7.943523433059454">
        <ele>2171.7600000000002</ele>
        <time>2012-09-18T09:02:09Z</time>
      </trkpt>
      <trkpt lat="45.75077410787344" lon="7.943574478849769">
        <ele>2170.3099999999999</ele>
        <time>2012-09-18T09:01:54Z</time>
      </trkpt>
      <trkpt lat="45.750815346837044" lon="7.943601971492171">
        <ele>2168.3899999999999</ele>
        <time>2012-09-18T09:01:40Z</time>
      </trkpt>
      <trkpt lat="45.750831523910165" lon="7.943663829937577">
        <ele>2166.4699999999998</ele>
        <time>2012-09-18T09:01:24Z</time>
      </trkpt>
      <trkpt lat="45.750893130898476" lon="7.94373432174325">
        <ele>2165.0300000000002</ele>
        <time>2012-09-18T09:01:09Z</time>
      </trkpt>
      <trkpt lat="45.750934956595302" lon="7.943770028650761">
        <ele>2164.0599999999999</ele>
        <time>2012-09-18T09:00:56Z</time>
      </trkpt>
      <trkpt lat="45.750969154760242" lon="7.943790229037404">
        <ele>2162.6199999999999</ele>
        <time>2012-09-18T09:00:47Z</time>
      </trkpt>
      <trkpt lat="45.751002347096801" lon="7.943826606497169">
        <ele>2161.6599999999999</ele>
        <time>2012-09-18T09:00:32Z</time>
      </trkpt>
      <trkpt lat="45.751022715121508" lon="7.943846639245749">
        <ele>2161.1799999999998</ele>
        <time>2012-09-18T09:00:16Z</time>
      </trkpt>
      <trkpt lat="45.751075269654393" lon="7.943828366696835">
        <ele>2160.2199999999998</ele>
        <time>2012-09-18T09:00:00Z</time>
      </trkpt>
      <trkpt lat="45.751089351251721" lon="7.943823002278805">
        <ele>2159.7399999999998</ele>
        <time>2012-09-18T08:59:56Z</time>
      </trkpt>
      <trkpt lat="45.751143917441368" lon="7.943808669224381">
        <ele>2157.8200000000002</ele>
        <time>2012-09-18T08:59:39Z</time>
      </trkpt>
      <trkpt lat="45.75118163600564" lon="7.943902462720871">
        <ele>2156.3699999999999</ele>
        <time>2012-09-18T08:59:24Z</time>
      </trkpt>
      <trkpt lat="45.751252882182598" lon="7.943988125771284">
        <ele>2155.4099999999999</ele>
        <time>2012-09-18T08:59:08Z</time>
      </trkpt>
      <trkpt lat="45.751326726749539" lon="7.943998770788312">
        <ele>2153.9699999999998</ele>
        <time>2012-09-18T08:58:53Z</time>
      </trkpt>
      <trkpt lat="45.751440469175577" lon="7.944015115499497">
        <ele>2153.0100000000002</ele>
        <time>2012-09-18T08:58:36Z</time>
      </trkpt>
      <trkpt lat="45.751470811665058" lon="7.944011678919196">
        <ele>2153.0100000000002</ele>
        <time>2012-09-18T08:58:09Z</time>
      </trkpt>
      <trkpt lat="45.751470727846026" lon="7.944013271480799">
        <ele>2153.0100000000002</ele>
        <time>2012-09-18T08:57:46Z</time>
      </trkpt>
      <trkpt lat="45.751495538279414" lon="7.943988041952252">
        <ele>2153.9699999999998</ele>
        <time>2012-09-18T08:57:31Z</time>
      </trkpt>
      <trkpt lat="45.75150509364903" lon="7.943972200155258">
        <ele>2154.4499999999998</ele>
        <time>2012-09-18T08:57:29Z</time>
      </trkpt>
      <trkpt lat="45.751549853011966" lon="7.943871952593327">
        <ele>2156.3699999999999</ele>
        <time>2012-09-18T08:57:15Z</time>
      </trkpt>
      <trkpt lat="45.751566281542182" lon="7.943814285099506">
        <ele>2158.7800000000002</ele>
        <time>2012-09-18T08:57:01Z</time>
      </trkpt>
      <trkpt lat="45.751545326784253" lon="7.9438007902354">
        <ele>2159.7399999999998</ele>
        <time>2012-09-18T08:56:56Z</time>
      </trkpt>
      <trkpt lat="45.75154080055654" lon="7.943788804113865">
        <ele>2159.7399999999998</ele>
        <time>2012-09-18T08:56:29Z</time>
      </trkpt>
      <trkpt lat="45.751624032855034" lon="7.943813279271126">
        <ele>2159.2600000000002</ele>
        <time>2012-09-18T08:56:13Z</time>
      </trkpt>
      <trkpt lat="45.751683544367552" lon="7.943770531564951">
        <ele>2157.3400000000001</ele>
        <time>2012-09-18T08:55:59Z</time>
      </trkpt>
      <trkpt lat="45.751725118607283" lon="7.943775728344917">
        <ele>2156.3699999999999</ele>
        <time>2012-09-18T08:55:45Z</time>
      </trkpt>
      <trkpt lat="45.751793095842004" lon="7.943761730566621">
        <ele>2155.8899999999999</ele>
        <time>2012-09-18T08:55:29Z</time>
      </trkpt>
      <trkpt lat="45.75188035145402" lon="7.943685036152601">
        <ele>2155.4099999999999</ele>
        <time>2012-09-18T08:55:16Z</time>
      </trkpt>
      <trkpt lat="45.751884207129478" lon="7.943680174648762">
        <ele>2155.4099999999999</ele>
        <time>2012-09-18T08:55:12Z</time>
      </trkpt>
      <trkpt lat="45.751962410286069" lon="7.943774973973632">
        <ele>2153.9699999999998</ele>
        <time>2012-09-18T08:54:56Z</time>
      </trkpt>
      <trkpt lat="45.751326726749539" lon="7.943998770788312">
        <ele>2153.9699999999998</ele>
        <time>2012-09-18T08:58:53Z</time>
      </trkpt>
      <trkpt lat="45.751440469175577" lon="7.944015115499497">
        <ele>2153.0100000000002</ele>
        <time>2012-09-18T08:58:36Z</time>
      </trkpt>
      <trkpt lat="45.751470811665058" lon="7.944011678919196">
        <ele>2153.0100000000002</ele>
        <time>2012-09-18T08:58:09Z</time>
      </trkpt>
      <trkpt lat="45.751470727846026" lon="7.944013271480799">
        <ele>2153.0100000000002</ele>
        <time>2012-09-18T08:57:46Z</time>
      </trkpt>
      <trkpt lat="45.751495538279414" lon="7.943988041952252">
        <ele>2153.9699999999998</ele>
        <time>2012-09-18T08:57:31Z</time>
      </trkpt>
      <trkpt lat="45.75150509364903" lon="7.943972200155258">
        <ele>2154.4499999999998</ele>
        <time>2012-09-18T08:57:29Z</time>
      </trkpt>
      <trkpt lat="45.751549853011966" lon="7.943871952593327">
        <ele>2156.3699999999999</ele>
        <time>2012-09-18T08:57:15Z</time>
      </trkpt>
      <trkpt lat="45.751566281542182" lon="7.943814285099506">
        <ele>2158.7800000000002</ele>
        <time>2012-09-18T08:57:01Z</time>
      </trkpt>
      <trkpt lat="45.751545326784253" lon="7.9438007902354">
        <ele>2159.7399999999998</ele>
        <time>2012-09-18T08:56:56Z</time>
      </trkpt>
      <trkpt lat="45.75154080055654" lon="7.943788804113865">
        <ele>2159.7399999999998</ele>
        <time>2012-09-18T08:56:29Z</time>
      </trkpt>
      <trkpt lat="45.751624032855034" lon="7.943813279271126">
        <ele>2159.2600000000002</ele>
        <time>2012-09-18T08:56:13Z</time>
      </trkpt>
      <trkpt lat="45.751683544367552" lon="7.943770531564951">
        <ele>2157.3400000000001</ele>
        <time>2012-09-18T08:55:59Z</time>
      </trkpt>
      <trkpt lat="45.751725118607283" lon="7.943775728344917">
        <ele>2156.3699999999999</ele>
        <time>2012-09-18T08:55:45Z</time>
      </trkpt>
      <trkpt lat="45.751793095842004" lon="7.943761730566621">
        <ele>2155.8899999999999</ele>
        <time>2012-09-18T08:55:29Z</time>
      </trkpt>
      <trkpt lat="45.75188035145402" lon="7.943685036152601">
        <ele>2155.4099999999999</ele>
        <time>2012-09-18T08:55:16Z</time>
      </trkpt>
      <trkpt lat="45.751884207129478" lon="7.943680174648762">
        <ele>2155.4099999999999</ele>
        <time>2012-09-18T08:55:12Z</time>
      </trkpt>
      <trkpt lat="45.751962410286069" lon="7.943774973973632">
        <ele>2153.9699999999998</ele>
        <time>2012-09-18T08:54:56Z</time>
      </trkpt>
      <trkpt lat="45.751988058909774" lon="7.943757623434067">
        <ele>2154.4499999999998</ele>
        <time>2012-09-18T08:54:26Z</time>
      </trkpt>
      <trkpt lat="45.751970540732145" lon="7.943777404725552">
        <ele>2154.4499999999998</ele>
        <time>2012-09-18T08:54:11Z</time>
      </trkpt>
      <trkpt lat="45.751974396407604" lon="7.943782769143581">
        <ele>2154.4499999999998</ele>
        <time>2012-09-18T08:53:56Z</time>
      </trkpt>
      <trkpt lat="45.751979928463697" lon="7.943789809942246">
        <ele>2155.8899999999999</ele>
        <time>2012-09-18T08:53:37Z</time>
      </trkpt>
      <trkpt lat="45.751984370872378" lon="7.94378025457263">
        <ele>2153.9699999999998</ele>
        <time>2012-09-18T08:53:23Z</time>
      </trkpt>
      <trkpt lat="45.751982107758522" lon="7.943780841305852">
        <ele>2153.9699999999998</ele>
        <time>2012-09-18T08:52:58Z</time>
      </trkpt>
      <trkpt lat="45.751975905150175" lon="7.943784696981311">
        <ele>2153.9699999999998</ele>
        <time>2012-09-18T08:52:26Z</time>
      </trkpt>
      <trkpt lat="45.751978419721127" lon="7.943792911246419">
        <ele>2153.9699999999998</ele>
        <time>2012-09-18T08:51:48Z</time>
      </trkpt>
      <trkpt lat="45.751978252083063" lon="7.943793749436736">
        <ele>2153.0100000000002</ele>
        <time>2012-09-18T08:51:11Z</time>
      </trkpt>
      <trkpt lat="45.751978252083063" lon="7.943793749436736">
        <ele>2153.0100000000002</ele>
        <time>2012-09-18T08:50:33Z</time>
      </trkpt>
      <trkpt lat="45.751978000625968" lon="7.943791821599007">
        <ele>2153.0100000000002</ele>
        <time>2012-09-18T08:49:51Z</time>
      </trkpt>
      <trkpt lat="45.751978000625968" lon="7.943791821599007">
        <ele>2153.0100000000002</ele>
        <time>2012-09-18T08:49:13Z</time>
      </trkpt>
      <trkpt lat="45.751976324245334" lon="7.943794503808022">
        <ele>2153.0100000000002</ele>
        <time>2012-09-18T08:48:36Z</time>
      </trkpt>
      <trkpt lat="45.751976240426302" lon="7.943795341998339">
        <ele>2153.0100000000002</ele>
        <time>2012-09-18T08:48:00Z</time>
      </trkpt>
      <trkpt lat="45.752001218497753" lon="7.94380028732121">
        <ele>2153.0100000000002</ele>
        <time>2012-09-18T08:47:45Z</time>
      </trkpt>
      <trkpt lat="45.752000464126468" lon="7.943804645910859">
        <ele>2153.0100000000002</ele>
        <time>2012-09-18T08:47:25Z</time>
      </trkpt>
      <trkpt lat="45.751999206840992" lon="7.94380271807313">
        <ele>2153.0100000000002</ele>
        <time>2012-09-18T08:46:53Z</time>
      </trkpt>
      <trkpt lat="45.751999206840992" lon="7.94380271807313">
        <ele>2153.0100000000002</ele>
        <time>2012-09-18T08:46:19Z</time>
      </trkpt>
      <trkpt lat="45.75199811719358" lon="7.943805316463113">
        <ele>2153.0100000000002</ele>
        <time>2012-09-18T08:45:44Z</time>
      </trkpt>
      <trkpt lat="45.751996273174882" lon="7.943801796063781">
        <ele>2153.0100000000002</ele>
        <time>2012-09-18T08:45:12Z</time>
      </trkpt>
      <trkpt lat="45.751995351165533" lon="7.943804310634732">
        <ele>2153.0100000000002</ele>
        <time>2012-09-18T08:44:37Z</time>
      </trkpt>
      <trkpt lat="45.751994932070374" lon="7.943803807720542">
        <ele>2153.0100000000002</ele>
        <time>2012-09-18T08:43:58Z</time>
      </trkpt>
      <trkpt lat="45.751994932070374" lon="7.943803807720542">
        <ele>2153.4899999999998</ele>
        <time>2012-09-18T08:43:23Z</time>
      </trkpt>
      <trkpt lat="45.751993507146835" lon="7.94380372390151">
        <ele>2153.4899999999998</ele>
        <time>2012-09-18T08:42:44Z</time>
      </trkpt>
      <trkpt lat="45.751993507146835" lon="7.943803891539574">
        <ele>2153.4899999999998</ele>
        <time>2012-09-18T08:42:08Z</time>
      </trkpt>
      <trkpt lat="45.751993004232645" lon="7.943805148825049">
        <ele>2153.4899999999998</ele>
        <time>2012-09-18T08:41:31Z</time>
      </trkpt>
      <trkpt lat="45.751993171870708" lon="7.943804981186986">
        <ele>2153.4899999999998</ele>
        <time>2012-09-18T08:40:54Z</time>
      </trkpt>
      <trkpt lat="45.751996859908104" lon="7.943792156875134">
        <ele>2154.9299999999998</ele>
        <time>2012-09-18T08:40:38Z</time>
      </trkpt>
      <trkpt lat="45.751996524631977" lon="7.943788217380643">
        <ele>2154.9299999999998</ele>
        <time>2012-09-18T08:40:01Z</time>
      </trkpt>
      <trkpt lat="45.751996524631977" lon="7.943788217380643">
        <ele>2154.9299999999998</ele>
        <time>2012-09-18T08:39:32Z</time>
      </trkpt>
      <trkpt lat="45.751982526853681" lon="7.943790815770626">
        <ele>2154.9299999999998</ele>
        <time>2012-09-18T08:39:15Z</time>
      </trkpt>
      <trkpt lat="45.752004571259022" lon="7.943763071671128">
        <ele>2154.4499999999998</ele>
        <time>2012-09-18T08:39:02Z</time>
      </trkpt>
      <trkpt lat="45.752003062516451" lon="7.943762065842748">
        <ele>2154.4499999999998</ele>
        <time>2012-09-18T08:38:37Z</time>
      </trkpt>
      <trkpt lat="45.752003062516451" lon="7.943762065842748">
        <ele>2154.4499999999998</ele>
        <time>2012-09-18T08:38:12Z</time>
      </trkpt>
      <trkpt lat="45.752056119963527" lon="7.943757120519877">
        <ele>2153.4899999999998</ele>
        <time>2012-09-18T08:37:57Z</time>
      </trkpt>
      <trkpt lat="45.75213985517621" lon="7.943724179640412">
        <ele>2152.0500000000002</ele>
        <time>2012-09-18T08:37:43Z</time>
      </trkpt>
      <trkpt lat="45.752191236242652" lon="7.943682437762618">
        <ele>2149.6500000000001</ele>
        <time>2012-09-18T08:37:28Z</time>
      </trkpt>
      <trkpt lat="45.752249825745821" lon="7.943691741675139">
        <ele>2148.1999999999998</ele>
        <time>2012-09-18T08:37:14Z</time>
      </trkpt>
      <trkpt lat="45.752267679199576" lon="7.943750666454434">
        <ele>2146.2800000000002</ele>
        <time>2012-09-18T08:36:59Z</time>
      </trkpt>
      <trkpt lat="45.752277234569192" lon="7.943796599283814">
        <ele>2144.3600000000001</ele>
        <time>2012-09-18T08:36:45Z</time>
      </trkpt>
      <trkpt lat="45.752326939254999" lon="7.943870108574629">
        <ele>2142.4400000000001</ele>
        <time>2012-09-18T08:36:31Z</time>
      </trkpt>
      <trkpt lat="45.752364322543144" lon="7.943926518782973">
        <ele>2140.0300000000002</ele>
        <time>2012-09-18T08:36:16Z</time>
      </trkpt>
      <trkpt lat="45.752357030287385" lon="7.943949736654759">
        <ele>2140.9899999999998</ele>
        <time>2012-09-18T08:36:13Z</time>
      </trkpt>
      <trkpt lat="45.752329956740141" lon="7.944018300622702">
        <ele>2140.9899999999998</ele>
        <time>2012-09-18T08:36:01Z</time>
      </trkpt>
      <trkpt lat="45.752337500452995" lon="7.944079404696822">
        <ele>2139.5500000000002</ele>
        <time>2012-09-18T08:35:47Z</time>
      </trkpt>
      <trkpt lat="45.752402292564511" lon="7.944106394425035">
        <ele>2137.6300000000001</ele>
        <time>2012-09-18T08:35:31Z</time>
      </trkpt>
      <trkpt lat="45.75244227424264" lon="7.944114692509174">
        <ele>2135.71</ele>
        <time>2012-09-18T08:35:17Z</time>
      </trkpt>
      <trkpt lat="45.752383936196566" lon="7.944193566218019">
        <ele>2133.7800000000002</ele>
        <time>2012-09-18T08:35:00Z</time>
      </trkpt>
      <trkpt lat="45.752369938418269" lon="7.94423321262002">
        <ele>2133.7800000000002</ele>
        <time>2012-09-18T08:34:55Z</time>
      </trkpt>
      <trkpt lat="45.752284778282046" lon="7.944327257573605">
        <ele>2131.3800000000001</ele>
        <time>2012-09-18T08:34:39Z</time>
      </trkpt>
      <trkpt lat="45.752283353358507" lon="7.944338154047728">
        <ele>2131.3800000000001</ele>
        <time>2012-09-18T08:34:38Z</time>
      </trkpt>
      <trkpt lat="45.752226021140814" lon="7.944418536499143">
        <ele>2130.4200000000001</ele>
        <time>2012-09-18T08:34:26Z</time>
      </trkpt>
      <trkpt lat="45.752219734713435" lon="7.944433791562915">
        <ele>2128.98</ele>
        <time>2012-09-18T08:34:23Z</time>
      </trkpt>
      <trkpt lat="45.752188554033637" lon="7.944486681371927">
        <ele>2128.98</ele>
        <time>2012-09-18T08:34:07Z</time>
      </trkpt>
      <trkpt lat="45.752204395830631" lon="7.944490872323513">
        <ele>2128.98</ele>
        <time>2012-09-18T08:33:52Z</time>
      </trkpt>
      <trkpt lat="45.752205653116107" lon="7.94449171051383">
        <ele>2128.98</ele>
        <time>2012-09-18T08:33:32Z</time>
      </trkpt>
      <trkpt lat="45.752204898744822" lon="7.944489698857069">
        <ele>2128.98</ele>
        <time>2012-09-18T08:33:11Z</time>
      </trkpt>
      <trkpt lat="45.752204898744822" lon="7.944489698857069">
        <ele>2128.98</ele>
        <time>2012-09-18T08:32:41Z</time>
      </trkpt>
      <trkpt lat="45.752201545983553" lon="7.94449464417994">
        <ele>2128.98</ele>
        <time>2012-09-18T08:32:21Z</time>
      </trkpt>
      <trkpt lat="45.752199031412601" lon="7.944507217034698">
        <ele>2128.98</ele>
        <time>2012-09-18T08:32:05Z</time>
      </trkpt>
      <trkpt lat="45.75219601392746" lon="7.944528674706817">
        <ele>2128.98</ele>
        <time>2012-09-18T08:31:47Z</time>
      </trkpt>
      <trkpt lat="45.752160307019949" lon="7.944590030238032">
        <ele>2128.02</ele>
        <time>2012-09-18T08:31:32Z</time>
      </trkpt>
      <trkpt lat="45.752092748880386" lon="7.944648200646043">
        <ele>2126.5700000000002</ele>
        <time>2012-09-18T08:31:18Z</time>
      </trkpt>
      <trkpt lat="45.752024604007602" lon="7.944663623347879">
        <ele>2125.1300000000001</ele>
        <time>2012-09-18T08:31:05Z</time>
      </trkpt>
      <trkpt lat="45.75204161927104" lon="7.944761188700795">
        <ele>2123.21</ele>
        <time>2012-09-18T08:30:50Z</time>
      </trkpt>
      <trkpt lat="45.752086462453008" lon="7.94484400190413">
        <ele>2121.29</ele>
        <time>2012-09-18T08:30:36Z</time>
      </trkpt>
      <trkpt lat="45.752108758315444" lon="7.944871662184596">
        <ele>2120.8099999999999</ele>
        <time>2012-09-18T08:30:17Z</time>
      </trkpt>
      <trkpt lat="45.752212023362517" lon="7.944893036037684">
        <ele>2118.8800000000001</ele>
        <time>2012-09-18T08:30:01Z</time>
      </trkpt>
      <trkpt lat="45.752287125214934" lon="7.944901250302792">
        <ele>2116.96</ele>
        <time>2012-09-18T08:29:46Z</time>
      </trkpt>
      <trkpt lat="45.752350408583879" lon="7.944943578913808">
        <ele>2115.04</ele>
        <time>2012-09-18T08:29:30Z</time>
      </trkpt>
      <trkpt lat="45.752386953681707" lon="7.944989763200283">
        <ele>2113.5999999999999</ele>
        <time>2012-09-18T08:29:17Z</time>
      </trkpt>
      <trkpt lat="45.752456607297063" lon="7.944995379075408">
        <ele>2111.6700000000001</ele>
        <time>2012-09-18T08:29:01Z</time>
      </trkpt>
      <trkpt lat="45.752536403015256" lon="7.945025889202952">
        <ele>2109.75</ele>
        <time>2012-09-18T08:28:47Z</time>
      </trkpt>
      <trkpt lat="45.752638997510076" lon="7.945007784292102">
        <ele>2107.8299999999999</ele>
        <time>2012-09-18T08:28:30Z</time>
      </trkpt>
      <trkpt lat="45.752709154039621" lon="7.945029577240348">
        <ele>2104.9400000000001</ele>
        <time>2012-09-18T08:28:12Z</time>
      </trkpt>
      <trkpt lat="45.7528190407902" lon="7.94504382647574">
        <ele>2103.5</ele>
        <time>2012-09-18T08:27:53Z</time>
      </trkpt>
      <trkpt lat="45.75292750261724" lon="7.945032175630331">
        <ele>2101.5799999999999</ele>
        <time>2012-09-18T08:27:37Z</time>
      </trkpt>
      <trkpt lat="45.752957342192531" lon="7.945027397945523">
        <ele>2101.0999999999999</ele>
        <time>2012-09-18T08:27:30Z</time>
      </trkpt>
      <trkpt lat="45.753015512600541" lon="7.94501893222332">
        <ele>2098.6999999999998</ele>
        <time>2012-09-18T08:27:16Z</time>
      </trkpt>
      <trkpt lat="45.753058511763811" lon="7.945028822869062">
        <ele>2097.25</ele>
        <time>2012-09-18T08:27:03Z</time>
      </trkpt>
      <trkpt lat="45.75311467051506" lon="7.944996384903789">
        <ele>2097.25</ele>
        <time>2012-09-18T08:26:48Z</time>
      </trkpt>
      <trkpt lat="45.753174182027578" lon="7.944955062121153">
        <ele>2096.77</ele>
        <time>2012-09-18T08:26:33Z</time>
      </trkpt>
      <trkpt lat="45.753199830651283" lon="7.944968640804291">
        <ele>2095.8099999999999</ele>
        <time>2012-09-18T08:26:21Z</time>
      </trkpt>
      <trkpt lat="45.753221875056624" lon="7.9449422378093">
        <ele>2094.8499999999999</ele>
        <time>2012-09-18T08:26:07Z</time>
      </trkpt>
      <trkpt lat="45.753302676603198" lon="7.944896975532174">
        <ele>2092.9299999999998</ele>
        <time>2012-09-18T08:25:50Z</time>
      </trkpt>
      <trkpt lat="45.753318099305034" lon="7.944901250302792">
        <ele>2092.4499999999998</ele>
        <time>2012-09-18T08:25:47Z</time>
      </trkpt>
      <trkpt lat="45.753370653837919" lon="7.944942908361554">
        <ele>2091</ele>
        <time>2012-09-18T08:25:32Z</time>
      </trkpt>
      <trkpt lat="45.753389177843928" lon="7.945029744878411">
        <ele>2090.04</ele>
        <time>2012-09-18T08:25:14Z</time>
      </trkpt>
      <trkpt lat="45.753387920558453" lon="7.945127645507455">
        <ele>2089.0799999999999</ele>
        <time>2012-09-18T08:24:58Z</time>
      </trkpt>
      <trkpt lat="45.75337702408433" lon="7.945197634398937">
        <ele>2087.6399999999999</ele>
        <time>2012-09-18T08:24:43Z</time>
      </trkpt>
      <trkpt lat="45.753332180902362" lon="7.945229820907116">
        <ele>2085.7199999999998</ele>
        <time>2012-09-18T08:24:28Z</time>
      </trkpt>
      <trkpt lat="45.753289936110377" lon="7.945244405418634">
        <ele>2083.79</ele>
        <time>2012-09-18T08:24:22Z</time>
      </trkpt>
      <trkpt lat="45.753280045464635" lon="7.945252116769552">
        <ele>2083.79</ele>
        <time>2012-09-18T08:24:06Z</time>
      </trkpt>
      <trkpt lat="45.753214750438929" lon="7.945287656039">
        <ele>2083.3099999999999</ele>
        <time>2012-09-18T08:23:51Z</time>
      </trkpt>
      <trkpt lat="45.753192957490683" lon="7.945317327976227">
        <ele>2082.8299999999999</ele>
        <time>2012-09-18T08:23:47Z</time>
      </trkpt>
      <trkpt lat="45.753198405727744" lon="7.945371558889747">
        <ele>2080.9099999999999</ele>
        <time>2012-09-18T08:23:36Z</time>
      </trkpt>
      <trkpt lat="45.753226149827242" lon="7.945403410121799">
        <ele>2078.9899999999998</ele>
        <time>2012-09-18T08:23:24Z</time>
      </trkpt>
      <trkpt lat="45.753239225596189" lon="7.94541665352881">
        <ele>2078.9899999999998</ele>
        <time>2012-09-18T08:23:05Z</time>
      </trkpt>
      <trkpt lat="45.753212152048945" lon="7.945484211668372">
        <ele>2077.0700000000002</ele>
        <time>2012-09-18T08:22:51Z</time>
      </trkpt>
      <trkpt lat="45.753171080723405" lon="7.945550261065364">
        <ele>2075.1399999999999</ele>
        <time>2012-09-18T08:22:36Z</time>
      </trkpt>
      <trkpt lat="45.753230173140764" lon="7.945615975186229">
        <ele>2072.7399999999998</ele>
        <time>2012-09-18T08:22:21Z</time>
      </trkpt>
      <trkpt lat="45.753287337720394" lon="7.945629050955176">
        <ele>2071.3000000000002</ele>
        <time>2012-09-18T08:22:12Z</time>
      </trkpt>
      <trkpt lat="45.753319272771478" lon="7.945633074268699">
        <ele>2070.8200000000002</ele>
        <time>2012-09-18T08:22:04Z</time>
      </trkpt>
      <trkpt lat="45.753317009657621" lon="7.945650760084391">
        <ele>2070.3400000000001</ele>
        <time>2012-09-18T08:21:45Z</time>
      </trkpt>
      <trkpt lat="45.753302089869976" lon="7.945682695135474">
        <ele>2069.3800000000001</ele>
        <time>2012-09-18T08:21:30Z</time>
      </trkpt>
      <trkpt lat="45.753271663561463" lon="7.945728041231632">
        <ele>2068.8899999999999</ele>
        <time>2012-09-18T08:21:17Z</time>
      </trkpt>
      <trkpt lat="45.753226820379496" lon="7.945761904120445">
        <ele>2067.4499999999998</ele>
        <time>2012-09-18T08:21:03Z</time>
      </trkpt>
      <trkpt lat="45.753219360485673" lon="7.945766765624285">
        <ele>2067.4499999999998</ele>
        <time>2012-09-18T08:21:00Z</time>
      </trkpt>
      <trkpt lat="45.753178540617228" lon="7.945805992931128">
        <ele>2065.0500000000002</ele>
        <time>2012-09-18T08:20:45Z</time>
      </trkpt>
      <trkpt lat="45.753193292766809" lon="7.945832647383213">
        <ele>2063.1300000000001</ele>
        <time>2012-09-18T08:20:30Z</time>
      </trkpt>
      <trkpt lat="45.753207877278328" lon="7.945889225229621">
        <ele>2060.7199999999998</ele>
        <time>2012-09-18T08:20:18Z</time>
      </trkpt>
      <trkpt lat="45.753229334950447" lon="7.945978241041303">
        <ele>2058.8000000000002</ele>
        <time>2012-09-18T08:20:03Z</time>
      </trkpt>
      <trkpt lat="45.753282140940428" lon="7.946044877171516">
        <ele>2057.8400000000001</ele>
        <time>2012-09-18T08:19:42Z</time>
      </trkpt>
      <trkpt lat="45.75329102575779" lon="7.946069268509746">
        <ele>2057.8400000000001</ele>
        <time>2012-09-18T08:19:23Z</time>
      </trkpt>
      <trkpt lat="45.753321368247271" lon="7.94606851413846">
        <ele>2056.8800000000001</ele>
        <time>2012-09-18T08:19:04Z</time>
      </trkpt>
      <trkpt lat="45.753382472321391" lon="7.946004895493388">
        <ele>2054.96</ele>
        <time>2012-09-18T08:18:51Z</time>
      </trkpt>
      <trkpt lat="45.753404935821891" lon="7.945942366495729">
        <ele>2053.5100000000002</ele>
        <time>2012-09-18T08:18:40Z</time>
      </trkpt>
      <trkpt lat="45.753455646336079" lon="7.945951838046312">
        <ele>2051.5900000000001</ele>
        <time>2012-09-18T08:18:24Z</time>
      </trkpt>
      <trkpt lat="45.753511721268296" lon="7.9459214117378">
        <ele>2049.6700000000001</ele>
        <time>2012-09-18T08:18:13Z</time>
      </trkpt>
      <trkpt lat="45.753579195588827" lon="7.945874640718103">
        <ele>2048.71</ele>
        <time>2012-09-18T08:17:59Z</time>
      </trkpt>
      <trkpt lat="45.753600569441915" lon="7.945860810577869">
        <ele>2048.71</ele>
        <time>2012-09-18T08:17:56Z</time>
      </trkpt>
      <trkpt lat="45.75361205264926" lon="7.945851841941476">
        <ele>2048.71</ele>
        <time>2012-09-18T08:17:53Z</time>
      </trkpt>
      <trkpt lat="45.753611382097006" lon="7.945846477523446">
        <ele>2048.23</ele>
        <time>2012-09-18T08:17:28Z</time>
      </trkpt>
      <trkpt lat="45.753622530028224" lon="7.945900624617934">
        <ele>2048.23</ele>
        <time>2012-09-18T08:17:16Z</time>
      </trkpt>
      <trkpt lat="45.753679443150759" lon="7.945933481678367">
        <ele>2047.75</ele>
        <time>2012-09-18T08:17:01Z</time>
      </trkpt>
      <trkpt lat="45.753700397908688" lon="7.945927865803242">
        <ele>2047.75</ele>
        <time>2012-09-18T08:16:57Z</time>
      </trkpt>
      <trkpt lat="45.753736272454262" lon="7.945902971550822">
        <ele>2046.3</ele>
        <time>2012-09-18T08:16:45Z</time>
      </trkpt>
      <trkpt lat="45.753747839480639" lon="7.945897607132793">
        <ele>2046.78</ele>
        <time>2012-09-18T08:16:00Z</time>
      </trkpt>
      <trkpt lat="45.753751108422875" lon="7.945896685123444">
        <ele>2046.78</ele>
        <time>2012-09-18T08:15:24Z</time>
      </trkpt>
      <trkpt lat="45.753755047917366" lon="7.945896098390222">
        <ele>2046.78</ele>
        <time>2012-09-18T08:14:56Z</time>
      </trkpt>
      <trkpt lat="45.75375278480351" lon="7.94589115306735">
        <ele>2046.78</ele>
        <time>2012-09-18T08:14:29Z</time>
      </trkpt>
      <trkpt lat="45.75375278480351" lon="7.94589115306735">
        <ele>2047.26</ele>
        <time>2012-09-18T08:13:59Z</time>
      </trkpt>
      <trkpt lat="45.753747671842575" lon="7.945893667638302">
        <ele>2047.26</ele>
        <time>2012-09-18T08:13:30Z</time>
      </trkpt>
      <trkpt lat="45.753743145614862" lon="7.945889979600906">
        <ele>2047.26</ele>
        <time>2012-09-18T08:13:00Z</time>
      </trkpt>
      <trkpt lat="45.75373861938715" lon="7.945890231058002">
        <ele>2047.26</ele>
        <time>2012-09-18T08:12:26Z</time>
      </trkpt>
      <trkpt lat="45.75373618863523" lon="7.945885118097067">
        <ele>2047.26</ele>
        <time>2012-09-18T08:11:55Z</time>
      </trkpt>
      <trkpt lat="45.75373618863523" lon="7.945885118097067">
        <ele>2047.26</ele>
        <time>2012-09-18T08:11:26Z</time>
      </trkpt>
      <trkpt lat="45.753734596073627" lon="7.945883022621274">
        <ele>2047.26</ele>
        <time>2012-09-18T08:10:57Z</time>
      </trkpt>
      <trkpt lat="45.753734512254596" lon="7.945878831669688">
        <ele>2047.26</ele>
        <time>2012-09-18T08:10:29Z</time>
      </trkpt>
      <trkpt lat="45.753734512254596" lon="7.945878831669688">
        <ele>2047.26</ele>
        <time>2012-09-18T08:09:58Z</time>
      </trkpt>
      <trkpt lat="45.753727722913027" lon="7.945887297391892">
        <ele>2048.71</ele>
        <time>2012-09-18T08:09:49Z</time>
      </trkpt>
      <trkpt lat="45.753713473677635" lon="7.945896098390222">
        <ele>2048.71</ele>
        <time>2012-09-18T08:09:35Z</time>
      </trkpt>
      <trkpt lat="45.753704337403178" lon="7.945907162502408">
        <ele>2048.71</ele>
        <time>2012-09-18T08:09:27Z</time>
      </trkpt>
      <trkpt lat="45.75368681922555" lon="7.945936834439635">
        <ele>2048.71</ele>
        <time>2012-09-18T08:09:14Z</time>
      </trkpt>
      <trkpt lat="45.753676006570458" lon="7.945942115038633">
        <ele>2047.26</ele>
        <time>2012-09-18T08:08:56Z</time>
      </trkpt>
      <trkpt lat="45.753622865304351" lon="7.946002464741468">
        <ele>2045.8199999999999</ele>
        <time>2012-09-18T08:08:42Z</time>
      </trkpt>
      <trkpt lat="45.753628229722381" lon="7.946051247417927">
        <ele>2045.3399999999999</ele>
        <time>2012-09-18T08:08:34Z</time>
      </trkpt>
      <trkpt lat="45.753648430109024" lon="7.946098102256656">
        <ele>2043.4200000000001</ele>
        <time>2012-09-18T08:08:22Z</time>
      </trkpt>
      <trkpt lat="45.753633342683315" lon="7.946238582953811">
        <ele>2041.02</ele>
        <time>2012-09-18T08:08:06Z</time>
      </trkpt>
      <trkpt lat="45.753593947738409" lon="7.946304632350802">
        <ele>2039.5699999999999</ele>
        <time>2012-09-18T08:07:54Z</time>
      </trkpt>
      <trkpt lat="45.75357349589467" lon="7.946400521323085">
        <ele>2036.21</ele>
        <time>2012-09-18T08:07:39Z</time>
      </trkpt>
      <trkpt lat="45.753572406247258" lon="7.946417033672333">
        <ele>2036.21</ele>
        <time>2012-09-18T08:07:37Z</time>
      </trkpt>
      <trkpt lat="45.753531502559781" lon="7.946525746956468">
        <ele>2034.29</ele>
        <time>2012-09-18T08:07:23Z</time>
      </trkpt>
      <trkpt lat="45.753506189212203" lon="7.94655617326498">
        <ele>2033.8099999999999</ele>
        <time>2012-09-18T08:07:19Z</time>
      </trkpt>
      <trkpt lat="45.753504680469632" lon="7.946616020053625">
        <ele>2033.3299999999999</ele>
        <time>2012-09-18T08:07:12Z</time>
      </trkpt>
      <trkpt lat="45.75353485532105" lon="7.946640327572823">
        <ele>2031.8800000000001</ele>
        <time>2012-09-18T08:07:04Z</time>
      </trkpt>
      <trkpt lat="45.753627223894" lon="7.946666311472654">
        <ele>2029.48</ele>
        <time>2012-09-18T08:06:49Z</time>
      </trkpt>
      <trkpt lat="45.753701068460941" lon="7.946657510474324">
        <ele>2027.0799999999999</ele>
        <time>2012-09-18T08:06:33Z</time>
      </trkpt>
      <trkpt lat="45.753775248304009" lon="7.94664460234344">
        <ele>2025.1500000000001</ele>
        <time>2012-09-18T08:06:21Z</time>
      </trkpt>
      <trkpt lat="45.753772230818868" lon="7.946674861013889">
        <ele>2024.1900000000001</ele>
        <time>2012-09-18T08:06:14Z</time>
      </trkpt>
      <trkpt lat="45.753764687106013" lon="7.946715177968144">
        <ele>2023.23</ele>
        <time>2012-09-18T08:06:00Z</time>
      </trkpt>
      <trkpt lat="45.753841632977128" lon="7.946740658953786">
        <ele>2021.3099999999999</ele>
        <time>2012-09-18T08:05:45Z</time>
      </trkpt>
      <trkpt lat="45.753860995173454" lon="7.946771001443267">
        <ele>2018.9100000000001</ele>
        <time>2012-09-18T08:05:32Z</time>
      </trkpt>
      <trkpt lat="45.753803914412856" lon="7.946822550147772">
        <ele>2017.46</ele>
        <time>2012-09-18T08:05:21Z</time>
      </trkpt>
      <trkpt lat="45.753812715411186" lon="7.946890024468303">
        <ele>2015.0599999999999</ele>
        <time>2012-09-18T08:05:08Z</time>
      </trkpt>
      <trkpt lat="45.753866611048579" lon="7.946890778839588">
        <ele>2013.1400000000001</ele>
        <time>2012-09-18T08:04:53Z</time>
      </trkpt>
      <trkpt lat="45.753847835585475" lon="7.946948613971472">
        <ele>2011.7</ele>
        <time>2012-09-18T08:04:41Z</time>
      </trkpt>
      <trkpt lat="45.753883039578795" lon="7.946965461596847">
        <ele>2010.25</ele>
        <time>2012-09-18T08:04:29Z</time>
      </trkpt>
      <trkpt lat="45.753911286592484" lon="7.946978705003858">
        <ele>2007.8499999999999</ele>
        <time>2012-09-18T08:04:16Z</time>
      </trkpt>
      <trkpt lat="45.753912460058928" lon="7.947070570662618">
        <ele>2006.4100000000001</ele>
        <time>2012-09-18T08:04:03Z</time>
      </trkpt>
      <trkpt lat="45.753934169188142" lon="7.947073336690664">
        <ele>2004.97</ele>
        <time>2012-09-18T08:03:57Z</time>
      </trkpt>
      <trkpt lat="45.753941461443901" lon="7.947102254256606">
        <ele>2003.04</ele>
        <time>2012-09-18T08:03:42Z</time>
      </trkpt>
      <trkpt lat="45.75393752194941" lon="7.94718598946929">
        <ele>2001.5999999999999</ele>
        <time>2012-09-18T08:03:29Z</time>
      </trkpt>
      <trkpt lat="45.754041709005833" lon="7.947147432714701">
        <ele>2000.1600000000001</ele>
        <time>2012-09-18T08:03:14Z</time>
      </trkpt>
      <trkpt lat="45.75405478477478" lon="7.947126645594835">
        <ele>2000.1600000000001</ele>
        <time>2012-09-18T08:03:11Z</time>
      </trkpt>
      <trkpt lat="45.75408848002553" lon="7.947075013071299">
        <ele>1997.28</ele>
        <time>2012-09-18T08:02:56Z</time>
      </trkpt>
      <trkpt lat="45.754125528037548" lon="7.947122287005186">
        <ele>1995.3499999999999</ele>
        <time>2012-09-18T08:02:42Z</time>
      </trkpt>
      <trkpt lat="45.754166850820184" lon="7.947189509868622">
        <ele>1993.9100000000001</ele>
        <time>2012-09-18T08:02:28Z</time>
      </trkpt>
      <trkpt lat="45.754144303500652" lon="7.947258073836565">
        <ele>1991.51</ele>
        <time>2012-09-18T08:02:13Z</time>
      </trkpt>
      <trkpt lat="45.754200210794806" lon="7.947261426597834">
        <ele>1989.5899999999999</ele>
        <time>2012-09-18T08:01:57Z</time>
      </trkpt>
      <trkpt lat="45.754220662638545" lon="7.947340635582805">
        <ele>1987.1800000000001</ele>
        <time>2012-09-18T08:01:42Z</time>
      </trkpt>
      <trkpt lat="45.754271540790796" lon="7.947369972243905">
        <ele>1985.74</ele>
        <time>2012-09-18T08:01:29Z</time>
      </trkpt>
      <trkpt lat="45.754336919635534" lon="7.947337115183473">
        <ele>1984.3</ele>
        <time>2012-09-18T08:01:16Z</time>
      </trkpt>
      <trkpt lat="45.754333650693297" lon="7.947411630302668">
        <ele>1983.3399999999999</ele>
        <time>2012-09-18T08:01:02Z</time>
      </trkpt>
      <trkpt lat="45.75438410975039" lon="7.947480026632547">
        <ele>1979.97</ele>
        <time>2012-09-18T08:00:49Z</time>
      </trkpt>
      <trkpt lat="45.754414368420839" lon="7.94745865277946">
        <ele>1977.5699999999999</ele>
        <time>2012-09-18T08:00:34Z</time>
      </trkpt>
      <trkpt lat="45.754454433917999" lon="7.947491342201829">
        <ele>1975.6500000000001</ele>
        <time>2012-09-18T08:00:21Z</time>
      </trkpt>
      <trkpt lat="45.754462396726012" lon="7.947575161233544">
        <ele>1973.72</ele>
        <time>2012-09-18T08:00:08Z</time>
      </trkpt>
      <trkpt lat="45.75449500232935" lon="7.947584800422192">
        <ele>1971.8</ele>
        <time>2012-09-18T07:59:53Z</time>
      </trkpt>
      <trkpt lat="45.754487542435527" lon="7.947634169831872">
        <ele>1971.8</ele>
        <time>2012-09-18T07:59:30Z</time>
      </trkpt>
      <trkpt lat="45.754485195502639" lon="7.94763894751668">
        <ele>1971.8</ele>
        <time>2012-09-18T07:59:09Z</time>
      </trkpt>
      <trkpt lat="45.754483100026846" lon="7.947635846212506">
        <ele>1971.8</ele>
        <time>2012-09-18T07:58:49Z</time>
      </trkpt>
      <trkpt lat="45.754477065056562" lon="7.947638025507331">
        <ele>1971.8</ele>
        <time>2012-09-18T07:58:32Z</time>
      </trkpt>
      <trkpt lat="45.754473460838199" lon="7.947636265307665">
        <ele>1971.8</ele>
        <time>2012-09-18T07:58:16Z</time>
      </trkpt>
      <trkpt lat="45.754455272108316" lon="7.947655543684959">
        <ele>1970.8399999999999</ele>
        <time>2012-09-18T07:58:04Z</time>
      </trkpt>
      <trkpt lat="45.754430629312992" lon="7.947709355503321">
        <ele>1968.9200000000001</ele>
        <time>2012-09-18T07:57:49Z</time>
      </trkpt>
      <trkpt lat="45.754445046186447" lon="7.947782864794135">
        <ele>1967.48</ele>
        <time>2012-09-18T07:57:32Z</time>
      </trkpt>
      <trkpt lat="45.754439933225513" lon="7.947779595851898">
        <ele>1967.48</ele>
        <time>2012-09-18T07:57:16Z</time>
      </trkpt>
      <trkpt lat="45.754440855234861" lon="7.947784960269928">
        <ele>1967.48</ele>
        <time>2012-09-18T07:56:58Z</time>
      </trkpt>
      <trkpt lat="45.754440855234861" lon="7.947784960269928">
        <ele>1967.48</ele>
        <time>2012-09-18T07:56:39Z</time>
      </trkpt>
      <trkpt lat="45.754434652626514" lon="7.947784792631865">
        <ele>1967.48</ele>
        <time>2012-09-18T07:56:24Z</time>
      </trkpt>
      <trkpt lat="45.754429120570421" lon="7.947802813723683">
        <ele>1966.99</ele>
        <time>2012-09-18T07:56:09Z</time>
      </trkpt>
      <trkpt lat="45.754432808607817" lon="7.947797952219844">
        <ele>1966.51</ele>
        <time>2012-09-18T07:55:52Z</time>
      </trkpt>
      <trkpt lat="45.754396095871925" lon="7.947814967483282">
        <ele>1965.0699999999999</ele>
        <time>2012-09-18T07:55:38Z</time>
      </trkpt>
      <trkpt lat="45.754376817494631" lon="7.947856122627854">
        <ele>1963.1500000000001</ele>
        <time>2012-09-18T07:55:26Z</time>
      </trkpt>
      <trkpt lat="45.7543352432549" lon="7.947919992730022">
        <ele>1961.71</ele>
        <time>2012-09-18T07:55:13Z</time>
      </trkpt>
      <trkpt lat="45.754363993182778" lon="7.947955867275596">
        <ele>1959.78</ele>
        <time>2012-09-18T07:55:00Z</time>
      </trkpt>
      <trkpt lat="45.754378158599138" lon="7.947987215593457">
        <ele>1958.3399999999999</ele>
        <time>2012-09-18T07:54:53Z</time>
      </trkpt>
      <trkpt lat="45.754329711198807" lon="7.948059467598796">
        <ele>1956.9000000000001</ele>
        <time>2012-09-18T07:54:39Z</time>
      </trkpt>
      <trkpt lat="45.754314037039876" lon="7.948087966069579">
        <ele>1956.4200000000001</ele>
        <time>2012-09-18T07:54:35Z</time>
      </trkpt>
      <trkpt lat="45.75434597209096" lon="7.948091151192784">
        <ele>1954.98</ele>
        <time>2012-09-18T07:54:25Z</time>
      </trkpt>
      <trkpt lat="45.754358377307653" lon="7.948116967454553">
        <ele>1953.0599999999999</ele>
        <time>2012-09-18T07:54:16Z</time>
      </trkpt>
      <trkpt lat="45.754341278225183" lon="7.948163822293282">
        <ele>1952.5699999999999</ele>
        <time>2012-09-18T07:54:10Z</time>
      </trkpt>
      <trkpt lat="45.754332896322012" lon="7.948201540857554">
        <ele>1950.6500000000001</ele>
        <time>2012-09-18T07:53:57Z</time>
      </trkpt>
      <trkpt lat="45.754353348165751" lon="7.948203971609473">
        <ele>1950.6500000000001</ele>
        <time>2012-09-18T07:53:55Z</time>
      </trkpt>
      <trkpt lat="45.754428366199136" lon="7.948215873911977">
        <ele>1948.73</ele>
        <time>2012-09-18T07:53:43Z</time>
      </trkpt>
      <trkpt lat="45.754431802779436" lon="7.948219478130341">
        <ele>1948.25</ele>
        <time>2012-09-18T07:53:35Z</time>
      </trkpt>
      <trkpt lat="45.754405315965414" lon="7.948306985199451">
        <ele>1946.3299999999999</ele>
        <time>2012-09-18T07:53:22Z</time>
      </trkpt>
      <trkpt lat="45.754331555217505" lon="7.948351828381419">
        <ele>1945.3599999999999</ele>
        <time>2012-09-18T07:53:09Z</time>
      </trkpt>
      <trkpt lat="45.754279168322682" lon="7.948386361822486">
        <ele>1944.4000000000001</ele>
        <time>2012-09-18T07:52:56Z</time>
      </trkpt>
      <trkpt lat="45.754249412566423" lon="7.948412513360381">
        <ele>1943.4400000000001</ele>
        <time>2012-09-18T07:52:47Z</time>
      </trkpt>
      <trkpt lat="45.754185374826193" lon="7.948393570259213">
        <ele>1941.04</ele>
        <time>2012-09-18T07:52:30Z</time>
      </trkpt>
      <trkpt lat="45.754185626283288" lon="7.948429863899946">
        <ele>1939.5999999999999</ele>
        <time>2012-09-18T07:52:18Z</time>
      </trkpt>
      <trkpt lat="45.754210855811834" lon="7.948484597727656">
        <ele>1937.1900000000001</ele>
        <time>2012-09-18T07:52:04Z</time>
      </trkpt>
      <trkpt lat="45.754198366776109" lon="7.948545450344682">
        <ele>1935.27</ele>
        <time>2012-09-18T07:51:51Z</time>
      </trkpt>
      <trkpt lat="45.754180261865258" lon="7.948591215535998">
        <ele>1933.3499999999999</ele>
        <time>2012-09-18T07:51:37Z</time>
      </trkpt>
      <trkpt lat="45.754204066470265" lon="7.948638992384076">
        <ele>1930.95</ele>
        <time>2012-09-18T07:51:24Z</time>
      </trkpt>
      <trkpt lat="45.754248406738043" lon="7.948648380115628">
        <ele>1929.98</ele>
        <time>2012-09-18T07:51:08Z</time>
      </trkpt>
      <trkpt lat="45.754288639873266" lon="7.948652906343341">
        <ele>1928.54</ele>
        <time>2012-09-18T07:50:55Z</time>
      </trkpt>
      <trkpt lat="45.754293082281947" lon="7.948720632120967">
        <ele>1926.6199999999999</ele>
        <time>2012-09-18T07:50:40Z</time>
      </trkpt>
      <trkpt lat="45.754314791411161" lon="7.94871442951262">
        <ele>1926.1400000000001</ele>
        <time>2012-09-18T07:50:34Z</time>
      </trkpt>
      <trkpt lat="45.754378829151392" lon="7.948690876364708">
        <ele>1924.22</ele>
        <time>2012-09-18T07:50:21Z</time>
      </trkpt>
      <trkpt lat="45.754404813051224" lon="7.948750304058194">
        <ele>1921.8099999999999</ele>
        <time>2012-09-18T07:50:07Z</time>
      </trkpt>
      <trkpt lat="45.754444459453225" lon="7.948681320995092">
        <ele>1918.9300000000001</ele>
        <time>2012-09-18T07:49:52Z</time>
      </trkpt>
      <trkpt lat="45.754421157762408" lon="7.948744688183069">
        <ele>1917.49</ele>
        <time>2012-09-18T07:49:39Z</time>
      </trkpt>
      <trkpt lat="45.754412021487951" lon="7.948803026229143">
        <ele>1915.0799999999999</ele>
        <time>2012-09-18T07:49:26Z</time>
      </trkpt>
      <trkpt lat="45.754403974860907" lon="7.948868656530976">
        <ele>1913.6400000000001</ele>
        <time>2012-09-18T07:49:14Z</time>
      </trkpt>
      <trkpt lat="45.754387378692627" lon="7.948961360380054">
        <ele>1911.24</ele>
        <time>2012-09-18T07:49:01Z</time>
      </trkpt>
      <trkpt lat="45.754392491653562" lon="7.949027996510267">
        <ele>1909.8</ele>
        <time>2012-09-18T07:48:51Z</time>
      </trkpt>
      <trkpt lat="45.754369776695967" lon="7.949075102806091">
        <ele>1907.3900000000001</ele>
        <time>2012-09-18T07:48:39Z</time>
      </trkpt>
      <trkpt lat="45.754381930455565" lon="7.949195047840476">
        <ele>1905.47</ele>
        <time>2012-09-18T07:48:24Z</time>
      </trkpt>
      <trkpt lat="45.75440464541316" lon="7.949233269318938">
        <ele>1904.51</ele>
        <time>2012-09-18T07:48:19Z</time>
      </trkpt>
      <trkpt lat="45.75439341366291" lon="7.949319602921605">
        <ele>1903.0699999999999</ele>
        <time>2012-09-18T07:48:05Z</time>
      </trkpt>
      <trkpt lat="45.754396347329021" lon="7.949330415576696">
        <ele>1903.0699999999999</ele>
        <time>2012-09-18T07:47:41Z</time>
      </trkpt>
      <trkpt lat="45.754396347329021" lon="7.949330415576696">
        <ele>1903.0699999999999</ele>
        <time>2012-09-18T07:47:19Z</time>
      </trkpt>
      <trkpt lat="45.754456277936697" lon="7.949298396706581">
        <ele>1901.1400000000001</ele>
        <time>2012-09-18T07:47:05Z</time>
      </trkpt>
      <trkpt lat="45.754548730328679" lon="7.949269814416766">
        <ele>1900.1800000000001</ele>
        <time>2012-09-18T07:46:52Z</time>
      </trkpt>
      <trkpt lat="45.754576809704304" lon="7.949239388108254">
        <ele>1898.26</ele>
        <time>2012-09-18T07:46:39Z</time>
      </trkpt>
      <trkpt lat="45.754627604037523" lon="7.94919915497303">
        <ele>1896.3399999999999</ele>
        <time>2012-09-18T07:46:26Z</time>
      </trkpt>
      <trkpt lat="45.75469289906323" lon="7.949112569913268">
        <ele>1893.9300000000001</ele>
        <time>2012-09-18T07:46:12Z</time>
      </trkpt>
      <trkpt lat="45.754743861034513" lon="7.949077617377043">
        <ele>1892.49</ele>
        <time>2012-09-18T07:45:58Z</time>
      </trkpt>
      <trkpt lat="45.75477353297174" lon="7.94912095181644">
        <ele>1890.5699999999999</ele>
        <time>2012-09-18T07:45:45Z</time>
      </trkpt>
      <trkpt lat="45.754806641489267" lon="7.949149450287223">
        <ele>1888.6500000000001</ele>
        <time>2012-09-18T07:45:33Z</time>
      </trkpt>
      <trkpt lat="45.754812173545361" lon="7.949052387848496">
        <ele>1887.6900000000001</ele>
        <time>2012-09-18T07:45:20Z</time>
      </trkpt>
      <trkpt lat="45.754834385588765" lon="7.949016345664859">
        <ele>1885.76</ele>
        <time>2012-09-18T07:45:07Z</time>
      </trkpt>
      <trkpt lat="45.754835642874241" lon="7.949018608778715">
        <ele>1885.76</ele>
        <time>2012-09-18T07:45:06Z</time>
      </trkpt>
      <trkpt lat="45.754901943728328" lon="7.948991199955344">
        <ele>1883.3599999999999</ele>
        <time>2012-09-18T07:44:50Z</time>
      </trkpt>
      <trkpt lat="45.754946703091264" lon="7.94900712557137">
        <ele>1880.48</ele>
        <time>2012-09-18T07:44:36Z</time>
      </trkpt>
      <trkpt lat="45.754933375865221" lon="7.949077198281884">
        <ele>1878.55</ele>
        <time>2012-09-18T07:44:20Z</time>
      </trkpt>
      <trkpt lat="45.754970256239176" lon="7.949034702032805">
        <ele>1877.1099999999999</ele>
        <time>2012-09-18T07:44:08Z</time>
      </trkpt>
      <trkpt lat="45.754994228482246" lon="7.949030259624124">
        <ele>1876.1500000000001</ele>
        <time>2012-09-18T07:43:59Z</time>
      </trkpt>
      <trkpt lat="45.755002358928323" lon="7.949041910469532">
        <ele>1875.6700000000001</ele>
        <time>2012-09-18T07:43:57Z</time>
      </trkpt>
      <trkpt lat="45.754982829093933" lon="7.949127154424787">
        <ele>1873.27</ele>
        <time>2012-09-18T07:43:42Z</time>
      </trkpt>
      <trkpt lat="45.754951983690262" lon="7.949189264327288">
        <ele>1871.3399999999999</ele>
        <time>2012-09-18T07:43:28Z</time>
      </trkpt>
      <trkpt lat="45.754903787747025" lon="7.949260007590056">
        <ele>1869.4200000000001</ele>
        <time>2012-09-18T07:43:14Z</time>
      </trkpt>
      <trkpt lat="45.754880653694272" lon="7.949289260432124">
        <ele>1868.46</ele>
        <time>2012-09-18T07:43:07Z</time>
      </trkpt>
      <trkpt lat="45.754948630928993" lon="7.949320022016764">
        <ele>1867.02</ele>
        <time>2012-09-18T07:42:54Z</time>
      </trkpt>
      <trkpt lat="45.754979811608791" lon="7.949332678690553">
        <ele>1866.0599999999999</ele>
        <time>2012-09-18T07:42:48Z</time>
      </trkpt>
      <trkpt lat="45.755032617598772" lon="7.949370397254825">
        <ele>1864.6099999999999</ele>
        <time>2012-09-18T07:42:35Z</time>
      </trkpt>
      <trkpt lat="45.755063043907285" lon="7.949331505224109">
        <ele>1863.1700000000001</ele>
        <time>2012-09-18T07:42:25Z</time>
      </trkpt>
      <trkpt lat="45.755047202110291" lon="7.949428148567677">
        <ele>1861.25</ele>
        <time>2012-09-18T07:42:12Z</time>
      </trkpt>
      <trkpt lat="45.755044184625149" lon="7.949486067518592">
        <ele>1859.3299999999999</ele>
        <time>2012-09-18T07:41:58Z</time>
      </trkpt>
      <trkpt lat="45.754997078329325" lon="7.949532922357321">
        <ele>1857.4000000000001</ele>
        <time>2012-09-18T07:41:46Z</time>
      </trkpt>
      <trkpt lat="45.754936309531331" lon="7.949607437476516">
        <ele>1855.96</ele>
        <time>2012-09-18T07:41:33Z</time>
      </trkpt>
      <trkpt lat="45.754925077781081" lon="7.949657142162323">
        <ele>1854.04</ele>
        <time>2012-09-18T07:41:20Z</time>
      </trkpt>
      <trkpt lat="45.754977213218808" lon="7.949655884876847">
        <ele>1852.1199999999999</ele>
        <time>2012-09-18T07:41:07Z</time>
      </trkpt>
      <trkpt lat="45.754949217662215" lon="7.949722101911902">
        <ele>1850.1900000000001</ele>
        <time>2012-09-18T07:40:53Z</time>
      </trkpt>
      <trkpt lat="45.75494796037674" lon="7.949835509061813">
        <ele>1848.27</ele>
        <time>2012-09-18T07:40:39Z</time>
      </trkpt>
      <trkpt lat="45.754892891272902" lon="7.949950760230422">
        <ele>1847.3099999999999</ele>
        <time>2012-09-18T07:40:25Z</time>
      </trkpt>
      <trkpt lat="45.754822148010135" lon="7.950066681951284">
        <ele>1846.3499999999999</ele>
        <time>2012-09-18T07:40:11Z</time>
      </trkpt>
      <trkpt lat="45.754785351455212" lon="7.950154189020395">
        <ele>1844.4300000000001</ele>
        <time>2012-09-18T07:39:59Z</time>
      </trkpt>
      <trkpt lat="45.754762971773744" lon="7.950176736339927">
        <ele>1843.95</ele>
        <time>2012-09-18T07:39:54Z</time>
      </trkpt>
      <trkpt lat="45.754756852984428" lon="7.950183525681496">
        <ele>1843.95</ele>
        <time>2012-09-18T07:39:53Z</time>
      </trkpt>
      <trkpt lat="45.754711171612144" lon="7.950226608663797">
        <ele>1841.54</ele>
        <time>2012-09-18T07:39:36Z</time>
      </trkpt>
      <trkpt lat="45.75471980497241" lon="7.950288215652108">
        <ele>1839.1400000000001</ele>
        <time>2012-09-18T07:39:20Z</time>
      </trkpt>
      <trkpt lat="45.754657695069909" lon="7.950313612818718">
        <ele>1837.22</ele>
        <time>2012-09-18T07:39:05Z</time>
      </trkpt>
      <trkpt lat="45.754647804424167" lon="7.950389552861452">
        <ele>1834.8099999999999</ele>
        <time>2012-09-18T07:38:52Z</time>
      </trkpt>
      <trkpt lat="45.754639841616154" lon="7.950484687462449">
        <ele>1832.8900000000001</ele>
        <time>2012-09-18T07:38:38Z</time>
      </trkpt>
      <trkpt lat="45.754633722826838" lon="7.950521903112531">
        <ele>1830.97</ele>
        <time>2012-09-18T07:38:25Z</time>
      </trkpt>
      <trkpt lat="45.75458980165422" lon="7.95052969828248">
        <ele>1829.05</ele>
        <time>2012-09-18T07:38:11Z</time>
      </trkpt>
      <trkpt lat="45.754565242677927" lon="7.950498349964619">
        <ele>1828.0799999999999</ele>
        <time>2012-09-18T07:38:06Z</time>
      </trkpt>
      <trkpt lat="45.754523165524006" lon="7.95048963278532">
        <ele>1827.1199999999999</ele>
        <time>2012-09-18T07:37:59Z</time>
      </trkpt>
      <trkpt lat="45.754455020651221" lon="7.950485777109861">
        <ele>1824.24</ele>
        <time>2012-09-18T07:37:44Z</time>
      </trkpt>
      <trkpt lat="45.754405483603477" lon="7.950492147356272">
        <ele>1822.3199999999999</ele>
        <time>2012-09-18T07:37:29Z</time>
      </trkpt>
      <trkpt lat="45.754398023709655" lon="7.950600860640407">
        <ele>1819.4300000000001</ele>
        <time>2012-09-18T07:37:14Z</time>
      </trkpt>
      <trkpt lat="45.754378410056233" lon="7.950609577819705">
        <ele>1817.51</ele>
        <time>2012-09-18T07:36:54Z</time>
      </trkpt>
      <trkpt lat="45.754412356764078" lon="7.950695240870118">
        <ele>1815.1099999999999</ele>
        <time>2012-09-18T07:36:41Z</time>
      </trkpt>
      <trkpt lat="45.754413111135364" lon="7.950710160657764">
        <ele>1814.6300000000001</ele>
        <time>2012-09-18T07:36:38Z</time>
      </trkpt>
      <trkpt lat="45.75443490408361" lon="7.95074469409883">
        <ele>1814.6300000000001</ele>
        <time>2012-09-18T07:36:20Z</time>
      </trkpt>
      <trkpt lat="45.754459463059902" lon="7.950772186741233">
        <ele>1813.1800000000001</ele>
        <time>2012-09-18T07:36:08Z</time>
      </trkpt>
      <trkpt lat="45.754460720345378" lon="7.950781574472785">
        <ele>1812.7</ele>
        <time>2012-09-18T07:36:07Z</time>
      </trkpt>
      <trkpt lat="45.754468683153391" lon="7.95085365884006">
        <ele>1811.26</ele>
        <time>2012-09-18T07:35:53Z</time>
      </trkpt>
      <trkpt lat="45.754467593505979" lon="7.950864639133215">
        <ele>1809.8199999999999</ele>
        <time>2012-09-18T07:35:45Z</time>
      </trkpt>
      <trkpt lat="45.754478741437197" lon="7.950919875875115">
        <ele>1807.9000000000001</ele>
        <time>2012-09-18T07:35:34Z</time>
      </trkpt>
      <trkpt lat="45.754463151097298" lon="7.95097628608346">
        <ele>1805.97</ele>
        <time>2012-09-18T07:35:23Z</time>
      </trkpt>
      <trkpt lat="45.754485614597797" lon="7.951022470369935">
        <ele>1804.53</ele>
        <time>2012-09-18T07:35:10Z</time>
      </trkpt>
      <trkpt lat="45.754489051178098" lon="7.951033785939217">
        <ele>1804.05</ele>
        <time>2012-09-18T07:35:06Z</time>
      </trkpt>
      <trkpt lat="45.754445632919669" lon="7.951049963012338">
        <ele>1802.1300000000001</ele>
        <time>2012-09-18T07:34:51Z</time>
      </trkpt>
      <trkpt lat="45.754437251016498" lon="7.951094890013337">
        <ele>1801.1700000000001</ele>
        <time>2012-09-18T07:34:45Z</time>
      </trkpt>
      <trkpt lat="45.754472203552723" lon="7.951150797307491">
        <ele>1798.76</ele>
        <time>2012-09-18T07:34:30Z</time>
      </trkpt>
      <trkpt lat="45.754498271271586" lon="7.951198322698474">
        <ele>1797.8</ele>
        <time>2012-09-18T07:34:12Z</time>
      </trkpt>
      <trkpt lat="45.75445300899446" lon="7.951202429831028">
        <ele>1796.3599999999999</ele>
        <time>2012-09-18T07:33:59Z</time>
      </trkpt>
      <trkpt lat="45.754469353705645" lon="7.951292535290122">
        <ele>1793.96</ele>
        <time>2012-09-18T07:33:42Z</time>
      </trkpt>
      <trkpt lat="45.754466755315661" lon="7.951328074559569">
        <ele>1793</ele>
        <time>2012-09-18T07:33:26Z</time>
      </trkpt>
      <trkpt lat="45.754456780850887" lon="7.951370822265744">
        <ele>1791.55</ele>
        <time>2012-09-18T07:33:13Z</time>
      </trkpt>
      <trkpt lat="45.754415625706315" lon="7.951412480324507">
        <ele>1790.1099999999999</ele>
        <time>2012-09-18T07:33:00Z</time>
      </trkpt>
      <trkpt lat="45.754395090043545" lon="7.951428573578596">
        <ele>1788.6700000000001</ele>
        <time>2012-09-18T07:32:47Z</time>
      </trkpt>
      <trkpt lat="45.754336919635534" lon="7.951484732329845">
        <ele>1786.75</ele>
        <time>2012-09-18T07:32:33Z</time>
      </trkpt>
      <trkpt lat="45.754260811954737" lon="7.951540891081095">
        <ele>1783.3800000000001</ele>
        <time>2012-09-18T07:32:15Z</time>
      </trkpt>
      <trkpt lat="45.754260644316673" lon="7.951538041234016">
        <ele>1783.8599999999999</ele>
        <time>2012-09-18T07:32:14Z</time>
      </trkpt>
      <trkpt lat="45.754232229664922" lon="7.951567629352212">
        <ele>1781.46</ele>
        <time>2012-09-18T07:32:01Z</time>
      </trkpt>
      <trkpt lat="45.754207754507661" lon="7.951588165014982">
        <ele>1779.0599999999999</ele>
        <time>2012-09-18T07:31:45Z</time>
      </trkpt>
      <trkpt lat="45.754171460866928" lon="7.951597636565566">
        <ele>1777.1300000000001</ele>
        <time>2012-09-18T07:31:32Z</time>
      </trkpt>
      <trkpt lat="45.754127204418182" lon="7.951577939093113">
        <ele>1775.21</ele>
        <time>2012-09-18T07:31:18Z</time>
      </trkpt>
      <trkpt lat="45.754099125042558" lon="7.951611047610641">
        <ele>1773.77</ele>
        <time>2012-09-18T07:31:06Z</time>
      </trkpt>
      <trkpt lat="45.754105495288968" lon="7.951633259654045">
        <ele>1773.29</ele>
        <time>2012-09-18T07:31:03Z</time>
      </trkpt>
      <trkpt lat="45.754056628793478" lon="7.951708864420652">
        <ele>1771.8499999999999</ele>
        <time>2012-09-18T07:30:50Z</time>
      </trkpt>
      <trkpt lat="45.7540572155267" lon="7.951733004301786">
        <ele>1771.8499999999999</ele>
        <time>2012-09-18T07:30:42Z</time>
      </trkpt>
      <trkpt lat="45.753958895802498" lon="7.95177566818893">
        <ele>1769.9200000000001</ele>
        <time>2012-09-18T07:30:27Z</time>
      </trkpt>
      <trkpt lat="45.753923524171114" lon="7.951820511370897">
        <ele>1768.48</ele>
        <time>2012-09-18T07:30:20Z</time>
      </trkpt>
      <trkpt lat="45.753889577463269" lon="7.951884549111128">
        <ele>1767.04</ele>
        <time>2012-09-18T07:30:06Z</time>
      </trkpt>
      <trkpt lat="45.753839118406177" lon="7.951849848031998">
        <ele>1766.0799999999999</ele>
        <time>2012-09-18T07:29:57Z</time>
      </trkpt>
      <trkpt lat="45.753814307972789" lon="7.951816488057375">
        <ele>1765.5999999999999</ele>
        <time>2012-09-18T07:29:51Z</time>
      </trkpt>
      <trkpt lat="45.753792766481638" lon="7.951780278235674">
        <ele>1765.1199999999999</ele>
        <time>2012-09-18T07:29:46Z</time>
      </trkpt>
      <trkpt lat="45.753740547224879" lon="7.951726214960218">
        <ele>1763.2</ele>
        <time>2012-09-18T07:29:31Z</time>
      </trkpt>
      <trkpt lat="45.753709450364113" lon="7.951722275465727">
        <ele>1762.23</ele>
        <time>2012-09-18T07:29:23Z</time>
      </trkpt>
      <trkpt lat="45.753680616617203" lon="7.951748762279749">
        <ele>1760.79</ele>
        <time>2012-09-18T07:29:10Z</time>
      </trkpt>
      <trkpt lat="45.753651028499007" lon="7.951804585754871">
        <ele>1760.79</ele>
        <time>2012-09-18T07:28:56Z</time>
      </trkpt>
      <trkpt lat="45.753589253872633" lon="7.951868372038007">
        <ele>1759.3499999999999</ele>
        <time>2012-09-18T07:28:43Z</time>
      </trkpt>
      <trkpt lat="45.753587493672967" lon="7.951961159706116">
        <ele>1756.95</ele>
        <time>2012-09-18T07:28:28Z</time>
      </trkpt>
      <trkpt lat="45.753590175881982" lon="7.951995944604278">
        <ele>1756.47</ele>
        <time>2012-09-18T07:28:09Z</time>
      </trkpt>
      <trkpt lat="45.753592438995838" lon="7.952004242688417">
        <ele>1756.47</ele>
        <time>2012-09-18T07:27:54Z</time>
      </trkpt>
      <trkpt lat="45.753584560006857" lon="7.952070375904441">
        <ele>1755.02</ele>
        <time>2012-09-18T07:27:42Z</time>
      </trkpt>
      <trkpt lat="45.753546841442585" lon="7.952147154137492">
        <ele>1754.0599999999999</ele>
        <time>2012-09-18T07:27:29Z</time>
      </trkpt>
      <trkpt lat="45.753544410690665" lon="7.952149920165539">
        <ele>1754.0599999999999</ele>
        <time>2012-09-18T07:27:11Z</time>
      </trkpt>
      <trkpt lat="45.753544410690665" lon="7.952149920165539">
        <ele>1754.0599999999999</ele>
        <time>2012-09-18T07:26:48Z</time>
      </trkpt>
      <trkpt lat="45.753531754016876" lon="7.952138939872384">
        <ele>1754.0599999999999</ele>
        <time>2012-09-18T07:26:31Z</time>
      </trkpt>
      <trkpt lat="45.753526473417878" lon="7.952136173844338">
        <ele>1753.5799999999999</ele>
        <time>2012-09-18T07:26:11Z</time>
      </trkpt>
      <trkpt lat="45.753516918048263" lon="7.952128630131483">
        <ele>1753.5799999999999</ele>
        <time>2012-09-18T07:25:49Z</time>
      </trkpt>
      <trkpt lat="45.75348406098783" lon="7.952124942094088">
        <ele>1752.6199999999999</ele>
        <time>2012-09-18T07:25:38Z</time>
      </trkpt>
      <trkpt lat="45.753472158685327" lon="7.952122511342168">
        <ele>1752.6199999999999</ele>
        <time>2012-09-18T07:25:34Z</time>
      </trkpt>
      <trkpt lat="45.753469225019217" lon="7.952125277370215">
        <ele>1752.6199999999999</ele>
        <time>2012-09-18T07:25:08Z</time>
      </trkpt>
      <trkpt lat="45.753469225019217" lon="7.952125277370215">
        <ele>1750.7</ele>
        <time>2012-09-18T07:24:59Z</time>
      </trkpt>
      <trkpt lat="45.753469811752439" lon="7.952125780284405">
        <ele>1751.6600000000001</ele>
        <time>2012-09-18T07:24:36Z</time>
      </trkpt>
      <trkpt lat="45.753475595265627" lon="7.952120248228312">
        <ele>1753.0999999999999</ele>
        <time>2012-09-18T07:24:34Z</time>
      </trkpt>
      <trkpt lat="45.753474673256278" lon="7.952137179672718">
        <ele>1752.1400000000001</ele>
        <time>2012-09-18T07:24:23Z</time>
      </trkpt>
      <trkpt lat="45.75346159748733" lon="7.952133323997259">
        <ele>1751.1800000000001</ele>
        <time>2012-09-18T07:24:11Z</time>
      </trkpt>
      <trkpt lat="45.753453047946095" lon="7.952132821083069">
        <ele>1750.22</ele>
        <time>2012-09-18T07:23:57Z</time>
      </trkpt>
      <trkpt lat="45.753407618030906" lon="7.952162912115455">
        <ele>1749.74</ele>
        <time>2012-09-18T07:23:51Z</time>
      </trkpt>
      <trkpt lat="45.753400744870305" lon="7.952198702841997">
        <ele>1748.78</ele>
        <time>2012-09-18T07:23:46Z</time>
      </trkpt>
      <trkpt lat="45.753365373238921" lon="7.952220998704433">
        <ele>1748.29</ele>
        <time>2012-09-18T07:23:40Z</time>
      </trkpt>
      <trkpt lat="45.75332086533308" lon="7.952294507995248">
        <ele>1745.8900000000001</ele>
        <time>2012-09-18T07:23:28Z</time>
      </trkpt>
      <trkpt lat="45.753294210880995" lon="7.952395090833306">
        <ele>1743.97</ele>
        <time>2012-09-18T07:23:15Z</time>
      </trkpt>
      <trkpt lat="45.753272753208876" lon="7.952488381415606">
        <ele>1743.01</ele>
        <time>2012-09-18T07:23:05Z</time>
      </trkpt>
      <trkpt lat="45.753241823986173" lon="7.952568847686052">
        <ele>1741.5699999999999</ele>
        <time>2012-09-18T07:22:53Z</time>
      </trkpt>
      <trkpt lat="45.753189688548446" lon="7.95267915353179">
        <ele>1739.1600000000001</ele>
        <time>2012-09-18T07:22:39Z</time>
      </trkpt>
      <trkpt lat="45.753160854801536" lon="7.952748471871018">
        <ele>1737.24</ele>
        <time>2012-09-18T07:22:29Z</time>
      </trkpt>
      <trkpt lat="45.753159346058965" lon="7.952830865979195">
        <ele>1734.8399999999999</ele>
        <time>2012-09-18T07:22:16Z</time>
      </trkpt>
      <trkpt lat="45.753142917528749" lon="7.952917031943798">
        <ele>1733.3900000000001</ele>
        <time>2012-09-18T07:22:04Z</time>
      </trkpt>
      <trkpt lat="45.753116933628917" lon="7.953004287555814">
        <ele>1730.51</ele>
        <time>2012-09-18T07:21:50Z</time>
      </trkpt>
      <trkpt lat="45.753124477341771" lon="7.953101098537445">
        <ele>1728.1099999999999</ele>
        <time>2012-09-18T07:21:39Z</time>
      </trkpt>
      <trkpt lat="45.753080304712057" lon="7.953186091035605">
        <ele>1726.1800000000001</ele>
        <time>2012-09-18T07:21:27Z</time>
      </trkpt>
      <trkpt lat="45.75302716344595" lon="7.953239064663649">
        <ele>1726.6700000000001</ele>
        <time>2012-09-18T07:21:22Z</time>
      </trkpt>
      <trkpt lat="45.753019955009222" lon="7.953187264502049">
        <ele>1729.55</ele>
        <time>2012-09-18T07:21:12Z</time>
      </trkpt>
      <trkpt lat="45.753043591976166" lon="7.953046029433608">
        <ele>1731.95</ele>
        <time>2012-09-18T07:21:00Z</time>
      </trkpt>
      <trkpt lat="45.753077119588852" lon="7.952984590083361">
        <ele>1733.3900000000001</ele>
        <time>2012-09-18T07:20:55Z</time>
      </trkpt>
      <trkpt lat="45.75306823477149" lon="7.952968748286367">
        <ele>1733.8800000000001</ele>
        <time>2012-09-18T07:20:53Z</time>
      </trkpt>
      <trkpt lat="45.753074353560805" lon="7.953010993078351">
        <ele>1732.4300000000001</ele>
        <time>2012-09-18T07:20:43Z</time>
      </trkpt>
      <trkpt lat="45.75303990393877" lon="7.953070336952806">
        <ele>1730.99</ele>
        <time>2012-09-18T07:20:29Z</time>
      </trkpt>
      <trkpt lat="45.753014087677002" lon="7.953162705525756">
        <ele>1729.55</ele>
        <time>2012-09-18T07:20:18Z</time>
      </trkpt>
      <trkpt lat="45.753009729087353" lon="7.95322204940021">
        <ele>1728.5899999999999</ele>
        <time>2012-09-18T07:20:07Z</time>
      </trkpt>
      <trkpt lat="45.753048537299037" lon="7.953258845955133">
        <ele>1726.6700000000001</ele>
        <time>2012-09-18T07:19:55Z</time>
      </trkpt>
      <trkpt lat="45.753058763220906" lon="7.953245602548122">
        <ele>1726.1800000000001</ele>
        <time>2012-09-18T07:19:48Z</time>
      </trkpt>
      <trkpt lat="45.753089860081673" lon="7.953224228695035">
        <ele>1725.7</ele>
        <time>2012-09-18T07:19:45Z</time>
      </trkpt>
      <trkpt lat="45.753133529797196" lon="7.953202519565821">
        <ele>1725.22</ele>
        <time>2012-09-18T07:19:39Z</time>
      </trkpt>
      <trkpt lat="45.753131937235594" lon="7.953199418261647">
        <ele>1725.22</ele>
        <time>2012-09-18T07:19:37Z</time>
      </trkpt>
      <trkpt lat="45.753143336623907" lon="7.953253230080009">
        <ele>1724.74</ele>
        <time>2012-09-18T07:19:23Z</time>
      </trkpt>
      <trkpt lat="45.753133026883006" lon="7.95333537273109">
        <ele>1723.3</ele>
        <time>2012-09-18T07:19:10Z</time>
      </trkpt>
      <trkpt lat="45.753131685778499" lon="7.953452719375491">
        <ele>1720.9000000000001</ele>
        <time>2012-09-18T07:18:54Z</time>
      </trkpt>
      <trkpt lat="45.753157502040267" lon="7.953583644703031">
        <ele>1718.49</ele>
        <time>2012-09-18T07:18:38Z</time>
      </trkpt>
      <trkpt lat="45.753134367987514" lon="7.953697135671973">
        <ele>1716.0899999999999</ele>
        <time>2012-09-18T07:18:21Z</time>
      </trkpt>
      <trkpt lat="45.753121627494693" lon="7.953760754317045">
        <ele>1713.6900000000001</ele>
        <time>2012-09-18T07:18:07Z</time>
      </trkpt>
      <trkpt lat="45.753083238378167" lon="7.953833844512701">
        <ele>1712.25</ele>
        <time>2012-09-18T07:17:53Z</time>
      </trkpt>
      <trkpt lat="45.753075443208218" lon="7.953902324661613">
        <ele>1710.8</ele>
        <time>2012-09-18T07:17:40Z</time>
      </trkpt>
      <trkpt lat="45.753103019669652" lon="7.954031825065613">
        <ele>1710.8</ele>
        <time>2012-09-18T07:17:27Z</time>
      </trkpt>
      <trkpt lat="45.753084663301706" lon="7.95415285974741">
        <ele>1710.8</ele>
        <time>2012-09-18T07:17:17Z</time>
      </trkpt>
      <trkpt lat="45.753032611683011" lon="7.954218657687306">
        <ele>1708.8800000000001</ele>
        <time>2012-09-18T07:17:03Z</time>
      </trkpt>
      <trkpt lat="45.753022637218237" lon="7.95432829298079">
        <ele>1707.4400000000001</ele>
        <time>2012-09-18T07:16:48Z</time>
      </trkpt>
      <trkpt lat="45.753019368276" lon="7.954334244132042">
        <ele>1707.4400000000001</ele>
        <time>2012-09-18T07:16:47Z</time>
      </trkpt>
      <trkpt lat="45.753003945574164" lon="7.954451339319348">
        <ele>1706</ele>
        <time>2012-09-18T07:16:35Z</time>
      </trkpt>
      <trkpt lat="45.752942003309727" lon="7.954505821689963">
        <ele>1705.04</ele>
        <time>2012-09-18T07:16:21Z</time>
      </trkpt>
      <trkpt lat="45.752937309443951" lon="7.954515125602484">
        <ele>1704.55</ele>
        <time>2012-09-18T07:16:20Z</time>
      </trkpt>
      <trkpt lat="45.752941751852632" lon="7.954566171392798">
        <ele>1702.6300000000001</ele>
        <time>2012-09-18T07:16:05Z</time>
      </trkpt>
      <trkpt lat="45.752931190654635" lon="7.954607913270593">
        <ele>1702.6300000000001</ele>
        <time>2012-09-18T07:15:46Z</time>
      </trkpt>
      <trkpt lat="45.752907050773501" lon="7.954629538580775">
        <ele>1701.6700000000001</ele>
        <time>2012-09-18T07:15:31Z</time>
      </trkpt>
      <trkpt lat="45.752893052995205" lon="7.954775551334024">
        <ele>1698.79</ele>
        <time>2012-09-18T07:15:13Z</time>
      </trkpt>
      <trkpt lat="45.752887101843953" lon="7.954839924350381">
        <ele>1697.3399999999999</ele>
        <time>2012-09-18T07:14:57Z</time>
      </trkpt>
      <trkpt lat="45.75289037078619" lon="7.954839421436191">
        <ele>1697.3399999999999</ele>
        <time>2012-09-18T07:14:32Z</time>
      </trkpt>
      <trkpt lat="45.75289037078619" lon="7.954839337617159">
        <ele>1697.3399999999999</ele>
        <time>2012-09-18T07:13:58Z</time>
      </trkpt>
      <trkpt lat="45.752888526767492" lon="7.954833805561066">
        <ele>1697.3399999999999</ele>
        <time>2012-09-18T07:13:22Z</time>
      </trkpt>
      <trkpt lat="45.752886598929763" lon="7.95483254827559">
        <ele>1697.3399999999999</ele>
        <time>2012-09-18T07:12:48Z</time>
      </trkpt>
      <trkpt lat="45.752884922549129" lon="7.954830201342702">
        <ele>1697.3399999999999</ele>
        <time>2012-09-18T07:12:07Z</time>
      </trkpt>
      <trkpt lat="45.75288400053978" lon="7.954830788075924">
        <ele>1697.3399999999999</ele>
        <time>2012-09-18T07:11:29Z</time>
      </trkpt>
      <trkpt lat="45.752882407978177" lon="7.95482961460948">
        <ele>1697.3399999999999</ele>
        <time>2012-09-18T07:10:55Z</time>
      </trkpt>
      <trkpt lat="45.752877630293369" lon="7.954828524962068">
        <ele>1698.79</ele>
        <time>2012-09-18T07:10:16Z</time>
      </trkpt>
      <trkpt lat="45.752877630293369" lon="7.954828524962068">
        <ele>1696.8599999999999</ele>
        <time>2012-09-18T07:10:04Z</time>
      </trkpt>
      <trkpt lat="45.752878887578845" lon="7.954830033704639">
        <ele>1696.8599999999999</ele>
        <time>2012-09-18T07:09:40Z</time>
      </trkpt>
      <trkpt lat="45.752878887578845" lon="7.954830033704639">
        <ele>1698.3099999999999</ele>
        <time>2012-09-18T07:09:37Z</time>
      </trkpt>
      <trkpt lat="45.752847036346793" lon="7.954853922128677">
        <ele>1696.8599999999999</ele>
        <time>2012-09-18T07:09:23Z</time>
      </trkpt>
      <trkpt lat="45.752801606431603" lon="7.954898346215487">
        <ele>1696.3800000000001</ele>
        <time>2012-09-18T07:09:13Z</time>
      </trkpt>
      <trkpt lat="45.752778388559818" lon="7.95494930818677">
        <ele>1694.46</ele>
        <time>2012-09-18T07:09:06Z</time>
      </trkpt>
      <trkpt lat="45.752728935331106" lon="7.954987613484263">
        <ele>1693.02</ele>
        <time>2012-09-18T07:08:58Z</time>
      </trkpt>
      <trkpt lat="45.75269834138453" lon="7.955032959580421">
        <ele>1692.0599999999999</ele>
        <time>2012-09-18T07:08:50Z</time>
      </trkpt>
      <trkpt lat="45.752650061622262" lon="7.955089369788766">
        <ele>1690.1400000000001</ele>
        <time>2012-09-18T07:08:37Z</time>
      </trkpt>
      <trkpt lat="45.752622401341796" lon="7.955207554623485">
        <ele>1688.6900000000001</ele>
        <time>2012-09-18T07:08:22Z</time>
      </trkpt>
      <trkpt lat="45.752581916749477" lon="7.955328840762377">
        <ele>1686.77</ele>
        <time>2012-09-18T07:08:07Z</time>
      </trkpt>
      <trkpt lat="45.752554340288043" lon="7.955374857410789">
        <ele>1684.8499999999999</ele>
        <time>2012-09-18T07:07:59Z</time>
      </trkpt>
      <trkpt lat="45.752535564824939" lon="7.955397488549352">
        <ele>1684.8499999999999</ele>
        <time>2012-09-18T07:07:56Z</time>
      </trkpt>
      <trkpt lat="45.752511927857995" lon="7.955520199611783">
        <ele>1682.4400000000001</ele>
        <time>2012-09-18T07:07:41Z</time>
      </trkpt>
      <trkpt lat="45.752514526247978" lon="7.955519445240498">
        <ele>1681.96</ele>
        <time>2012-09-18T07:07:23Z</time>
      </trkpt>
      <trkpt lat="45.752514526247978" lon="7.955519445240498">
        <ele>1681.96</ele>
        <time>2012-09-18T07:07:08Z</time>
      </trkpt>
      <trkpt lat="45.752491559833288" lon="7.955556577071548">
        <ele>1681.48</ele>
        <time>2012-09-18T07:06:54Z</time>
      </trkpt>
      <trkpt lat="45.752432718873024" lon="7.955721030011773">
        <ele>1678.5999999999999</ele>
        <time>2012-09-18T07:06:37Z</time>
      </trkpt>
      <trkpt lat="45.752399023622274" lon="7.955768806859851">
        <ele>1677.6400000000001</ele>
        <time>2012-09-18T07:06:23Z</time>
      </trkpt>
      <trkpt lat="45.752399191260338" lon="7.955767968669534">
        <ele>1677.6400000000001</ele>
        <time>2012-09-18T07:06:20Z</time>
      </trkpt>
      <trkpt lat="45.752413021400571" lon="7.955779535695911">
        <ele>1677.6400000000001</ele>
        <time>2012-09-18T07:06:02Z</time>
      </trkpt>
      <trkpt lat="45.752372452989221" lon="7.95584499835968">
        <ele>1676.2</ele>
        <time>2012-09-18T07:05:46Z</time>
      </trkpt>
      <trkpt lat="45.752354180440307" lon="7.955871401354671">
        <ele>1675.72</ele>
        <time>2012-09-18T07:05:42Z</time>
      </trkpt>
      <trkpt lat="45.752288047224283" lon="7.955957818776369">
        <ele>1673.3099999999999</ele>
        <time>2012-09-18T07:05:29Z</time>
      </trkpt>
      <trkpt lat="45.752305397763848" lon="7.955967709422112">
        <ele>1671.8699999999999</ele>
        <time>2012-09-18T07:05:27Z</time>
      </trkpt>
      <trkpt lat="45.752314534038305" lon="7.95593879185617">
        <ele>1671.8699999999999</ele>
        <time>2012-09-18T07:05:22Z</time>
      </trkpt>
      <trkpt lat="45.752307996153831" lon="7.955936696380377">
        <ele>1671.8699999999999</ele>
        <time>2012-09-18T07:05:15Z</time>
      </trkpt>
      <trkpt lat="45.752320317551494" lon="7.955936696380377">
        <ele>1671.8699999999999</ele>
        <time>2012-09-18T07:04:58Z</time>
      </trkpt>
      <trkpt lat="45.752351162955165" lon="7.955938288941979">
        <ele>1671.8699999999999</ele>
        <time>2012-09-18T07:04:52Z</time>
      </trkpt>
      <trkpt lat="45.75235384516418" lon="7.955937115475535">
        <ele>1671.8699999999999</ele>
        <time>2012-09-18T07:04:29Z</time>
      </trkpt>
      <trkpt lat="45.752351079136133" lon="7.955929907038808">
        <ele>1671.8699999999999</ele>
        <time>2012-09-18T07:04:04Z</time>
      </trkpt>
      <trkpt lat="45.752348313108087" lon="7.955929068848491">
        <ele>1671.8699999999999</ele>
        <time>2012-09-18T07:03:37Z</time>
      </trkpt>
      <trkpt lat="45.752348313108087" lon="7.955929068848491">
        <ele>1671.8699999999999</ele>
        <time>2012-09-18T07:03:11Z</time>
      </trkpt>
      <trkpt lat="45.752342781051993" lon="7.955927979201078">
        <ele>1671.8699999999999</ele>
        <time>2012-09-18T07:02:48Z</time>
      </trkpt>
      <trkpt lat="45.752342781051993" lon="7.955931499600411">
        <ele>1671.8699999999999</ele>
        <time>2012-09-18T07:02:24Z</time>
      </trkpt>
      <trkpt lat="45.752346133813262" lon="7.955943234264851">
        <ele>1671.8699999999999</ele>
        <time>2012-09-18T07:01:58Z</time>
      </trkpt>
      <trkpt lat="45.752347307279706" lon="7.955951197072864">
        <ele>1671.8699999999999</ele>
        <time>2012-09-18T07:01:33Z</time>
      </trkpt>
      <trkpt lat="45.752314534038305" lon="7.95596863143146">
        <ele>1671.3900000000001</ele>
        <time>2012-09-18T07:01:16Z</time>
      </trkpt>
      <trkpt lat="45.752314114943147" lon="7.956068711355329">
        <ele>1669.47</ele>
        <time>2012-09-18T07:01:03Z</time>
      </trkpt>
      <trkpt lat="45.752320736646652" lon="7.956078434363008">
        <ele>1669.47</ele>
        <time>2012-09-18T07:01:02Z</time>
      </trkpt>
      <trkpt lat="45.752339428290725" lon="7.956088408827782">
        <ele>1669.47</ele>
        <time>2012-09-18T07:00:47Z</time>
      </trkpt>
      <trkpt lat="45.752302631735802" lon="7.956100981682539">
        <ele>1669.47</ele>
        <time>2012-09-18T07:00:27Z</time>
      </trkpt>
      <trkpt lat="45.752314701676369" lon="7.956096539273858">
        <ele>1668.99</ele>
        <time>2012-09-18T07:00:20Z</time>
      </trkpt>
      <trkpt lat="45.752304391935468" lon="7.956086816266179">
        <ele>1667.54</ele>
        <time>2012-09-18T07:00:02Z</time>
      </trkpt>
      <trkpt lat="45.752304391935468" lon="7.956086816266179">
        <ele>1667.54</ele>
        <time>2012-09-18T06:59:26Z</time>
      </trkpt>
      <trkpt lat="45.752302715554833" lon="7.956084385514259">
        <ele>1668.99</ele>
        <time>2012-09-18T06:58:44Z</time>
      </trkpt>
      <trkpt lat="45.75230204500258" lon="7.956090504303575">
        <ele>1668.99</ele>
        <time>2012-09-18T06:58:00Z</time>
      </trkpt>
      <trkpt lat="45.752302380278707" lon="7.956090252846479">
        <ele>1668.99</ele>
        <time>2012-09-18T06:57:09Z</time>
      </trkpt>
      <trkpt lat="45.752302464097738" lon="7.956091510131955">
        <ele>1668.99</ele>
        <time>2012-09-18T06:56:24Z</time>
      </trkpt>
      <trkpt lat="45.752300368621945" lon="7.956085307523608">
        <ele>1668.99</ele>
        <time>2012-09-18T06:55:37Z</time>
      </trkpt>
      <trkpt lat="45.752299781888723" lon="7.956085307523608">
        <ele>1668.99</ele>
        <time>2012-09-18T06:54:56Z</time>
      </trkpt>
      <trkpt lat="45.752298692241311" lon="7.956087319180369">
        <ele>1668.99</ele>
        <time>2012-09-18T06:54:13Z</time>
      </trkpt>
      <trkpt lat="45.752294501289725" lon="7.95608782209456">
        <ele>1668.99</ele>
        <time>2012-09-18T06:53:36Z</time>
      </trkpt>
      <trkpt lat="45.752292489632964" lon="7.956091091036797">
        <ele>1668.99</ele>
        <time>2012-09-18T06:52:57Z</time>
      </trkpt>
      <trkpt lat="45.752292908728123" lon="7.956088660284877">
        <ele>1668.99</ele>
        <time>2012-09-18T06:52:20Z</time>
      </trkpt>
      <trkpt lat="45.752295758575201" lon="7.956086229532957">
        <ele>1668.99</ele>
        <time>2012-09-18T06:51:50Z</time>
      </trkpt>
      <trkpt lat="45.752296093851328" lon="7.956087570637465">
        <ele>1668.99</ele>
        <time>2012-09-18T06:51:20Z</time>
      </trkpt>
      <trkpt lat="45.752295926213264" lon="7.956083631142974">
        <ele>1668.99</ele>
        <time>2012-09-18T06:50:45Z</time>
      </trkpt>
      <trkpt lat="45.752295926213264" lon="7.956083631142974">
        <ele>1668.99</ele>
        <time>2012-09-18T06:50:09Z</time>
      </trkpt>
      <trkpt lat="45.752294082194567" lon="7.956087654456496">
        <ele>1668.99</ele>
        <time>2012-09-18T06:49:36Z</time>
      </trkpt>
      <trkpt lat="45.752293327823281" lon="7.956086397171021">
        <ele>1668.99</ele>
        <time>2012-09-18T06:49:01Z</time>
      </trkpt>
      <trkpt lat="45.752292824909091" lon="7.956099724397063">
        <ele>1668.99</ele>
        <time>2012-09-18T06:48:26Z</time>
      </trkpt>
      <trkpt lat="45.752292238175869" lon="7.956107435747981">
        <ele>1668.99</ele>
        <time>2012-09-18T06:47:48Z</time>
      </trkpt>
      <trkpt lat="45.752290561795235" lon="7.956115063279867">
        <ele>1668.99</ele>
        <time>2012-09-18T06:47:08Z</time>
      </trkpt>
      <trkpt lat="45.75228838250041" lon="7.956124199554324">
        <ele>1668.99</ele>
        <time>2012-09-18T06:46:34Z</time>
      </trkpt>
      <trkpt lat="45.752287628129125" lon="7.956124702468514">
        <ele>1668.99</ele>
        <time>2012-09-18T06:46:03Z</time>
      </trkpt>
      <trkpt lat="45.752287628129125" lon="7.956124702468514">
        <ele>1668.99</ele>
        <time>2012-09-18T06:45:36Z</time>
      </trkpt>
      <trkpt lat="45.752289639785886" lon="7.956111459061503">
        <ele>1668.99</ele>
        <time>2012-09-18T06:45:17Z</time>
      </trkpt>
      <trkpt lat="45.752285113558173" lon="7.95617088675499">
        <ele>1668.51</ele>
        <time>2012-09-18T06:45:03Z</time>
      </trkpt>
      <trkpt lat="45.752266757190228" lon="7.956202402710915">
        <ele>1668.02</ele>
        <time>2012-09-18T06:44:58Z</time>
      </trkpt>
      <trkpt lat="45.752260973677039" lon="7.956284377723932">
        <ele>1667.0599999999999</ele>
        <time>2012-09-18T06:44:51Z</time>
      </trkpt>
      <trkpt lat="45.752269858494401" lon="7.956392671912909">
        <ele>1665.6199999999999</ele>
        <time>2012-09-18T06:44:39Z</time>
      </trkpt>
      <trkpt lat="45.75226491317153" lon="7.956496691331267">
        <ele>1664.6600000000001</ele>
        <time>2012-09-18T06:44:27Z</time>
      </trkpt>
      <trkpt lat="45.75225074775517" lon="7.956535331904888">
        <ele>1663.7</ele>
        <time>2012-09-18T06:44:22Z</time>
      </trkpt>
      <trkpt lat="45.752258542925119" lon="7.956573804840446">
        <ele>1663.22</ele>
        <time>2012-09-18T06:44:18Z</time>
      </trkpt>
      <trkpt lat="45.752268433570862" lon="7.956595094874501">
        <ele>1662.26</ele>
        <time>2012-09-18T06:44:15Z</time>
      </trkpt>
      <trkpt lat="45.75225317850709" lon="7.95666684396565">
        <ele>1661.3</ele>
        <time>2012-09-18T06:44:02Z</time>
      </trkpt>
      <trkpt lat="45.752220908179879" lon="7.956742532551289">
        <ele>1658.4100000000001</ele>
        <time>2012-09-18T06:43:47Z</time>
      </trkpt>
      <trkpt lat="45.752220489084721" lon="7.956772707402706">
        <ele>1657.9300000000001</ele>
        <time>2012-09-18T06:43:43Z</time>
      </trkpt>
      <trkpt lat="45.752213196828961" lon="7.956826603040099">
        <ele>1656.01</ele>
        <time>2012-09-18T06:43:30Z</time>
      </trkpt>
      <trkpt lat="45.752189308404922" lon="7.956944787874818">
        <ele>1654.0899999999999</ele>
        <time>2012-09-18T06:43:14Z</time>
      </trkpt>
      <trkpt lat="45.75220238417387" lon="7.957059368491173">
        <ele>1654.0899999999999</ele>
        <time>2012-09-18T06:43:04Z</time>
      </trkpt>
      <trkpt lat="45.752220153808594" lon="7.957086861133575">
        <ele>1653.5999999999999</ele>
        <time>2012-09-18T06:43:01Z</time>
      </trkpt>
      <trkpt lat="45.752238258719444" lon="7.957176044583321">
        <ele>1653.1199999999999</ele>
        <time>2012-09-18T06:42:53Z</time>
      </trkpt>
      <trkpt lat="45.752245634794235" lon="7.95719800516963">
        <ele>1652.6400000000001</ele>
        <time>2012-09-18T06:42:50Z</time>
      </trkpt>
      <trkpt lat="45.752210849896073" lon="7.957315435633063">
        <ele>1650.24</ele>
        <time>2012-09-18T06:42:35Z</time>
      </trkpt>
      <trkpt lat="45.752208838239312" lon="7.957326080650091">
        <ele>1650.24</ele>
        <time>2012-09-18T06:42:34Z</time>
      </trkpt>
      <trkpt lat="45.752259967848659" lon="7.957394309341908">
        <ele>1648.3199999999999</ele>
        <time>2012-09-18T06:42:21Z</time>
      </trkpt>
      <trkpt lat="45.752284359186888" lon="7.95745792798698">
        <ele>1646.8800000000001</ele>
        <time>2012-09-18T06:42:09Z</time>
      </trkpt>
      <trkpt lat="45.752309672534466" lon="7.957575442269445">
        <ele>1644.95</ele>
        <time>2012-09-18T06:41:55Z</time>
      </trkpt>
      <trkpt lat="45.752325346693397" lon="7.957671666517854">
        <ele>1643.51</ele>
        <time>2012-09-18T06:41:44Z</time>
      </trkpt>
      <trkpt lat="45.752411596477032" lon="7.957800831645727">
        <ele>1641.5899999999999</ele>
        <time>2012-09-18T06:41:28Z</time>
      </trkpt>
      <trkpt lat="45.752442860975862" lon="7.957919938489795">
        <ele>1639.6700000000001</ele>
        <time>2012-09-18T06:41:16Z</time>
      </trkpt>
      <trkpt lat="45.752405393868685" lon="7.95802865177393">
        <ele>1638.22</ele>
        <time>2012-09-18T06:41:02Z</time>
      </trkpt>
      <trkpt lat="45.752409920096397" lon="7.958046589046717">
        <ele>1638.22</ele>
        <time>2012-09-18T06:41:01Z</time>
      </trkpt>
      <trkpt lat="45.752435065805912" lon="7.958150440827012">
        <ele>1638.22</ele>
        <time>2012-09-18T06:40:48Z</time>
      </trkpt>
      <trkpt lat="45.752427857369184" lon="7.958261333405972">
        <ele>1635.8199999999999</ele>
        <time>2012-09-18T06:40:36Z</time>
      </trkpt>
      <trkpt lat="45.752411345019937" lon="7.958399383351207">
        <ele>1633.4200000000001</ele>
        <time>2012-09-18T06:40:21Z</time>
      </trkpt>
      <trkpt lat="45.752410590648651" lon="7.958509102463722">
        <ele>1631.49</ele>
        <time>2012-09-18T06:40:09Z</time>
      </trkpt>
      <trkpt lat="45.752405226230621" lon="7.958525866270065">
        <ele>1631.49</ele>
        <time>2012-09-18T06:40:07Z</time>
      </trkpt>
      <trkpt lat="45.752401538193226" lon="7.958579761907458">
        <ele>1631.01</ele>
        <time>2012-09-18T06:40:03Z</time>
      </trkpt>
      <trkpt lat="45.752429785206914" lon="7.958728624507785">
        <ele>1629.0899999999999</ele>
        <time>2012-09-18T06:39:47Z</time>
      </trkpt>
      <trkpt lat="45.752427186816931" lon="7.958747316151857">
        <ele>1628.6099999999999</ele>
        <time>2012-09-18T06:39:45Z</time>
      </trkpt>
      <trkpt lat="45.752386031672359" lon="7.95879827812314">
        <ele>1626.21</ele>
        <time>2012-09-18T06:39:28Z</time>
      </trkpt>
      <trkpt lat="45.752361640334129" lon="7.958866003900766">
        <ele>1624.77</ele>
        <time>2012-09-18T06:39:09Z</time>
      </trkpt>
      <trkpt lat="45.752327358350158" lon="7.958928029984236">
        <ele>1624.28</ele>
        <time>2012-09-18T06:38:46Z</time>
      </trkpt>
      <trkpt lat="45.752309337258339" lon="7.958956612274051">
        <ele>1623.3199999999999</ele>
        <time>2012-09-18T06:38:30Z</time>
      </trkpt>
      <trkpt lat="45.752304056659341" lon="7.959055015817285">
        <ele>1621.4000000000001</ele>
        <time>2012-09-18T06:38:17Z</time>
      </trkpt>
      <trkpt lat="45.752315958961844" lon="7.959201028570533">
        <ele>1620.4400000000001</ele>
        <time>2012-09-18T06:38:02Z</time>
      </trkpt>
      <trkpt lat="45.752353426069021" lon="7.959251152351499">
        <ele>1619.96</ele>
        <time>2012-09-18T06:37:56Z</time>
      </trkpt>
      <trkpt lat="45.752366501837969" lon="7.959296917542815">
        <ele>1619.96</ele>
        <time>2012-09-18T06:37:54Z</time>
      </trkpt>
      <trkpt lat="45.752344289794564" lon="7.959372941404581">
        <ele>1619</ele>
        <time>2012-09-18T06:37:40Z</time>
      </trkpt>
      <trkpt lat="45.752330208197236" lon="7.959421640262008">
        <ele>1617.5599999999999</ele>
        <time>2012-09-18T06:37:31Z</time>
      </trkpt>
      <trkpt lat="45.752304727211595" lon="7.959426837041974">
        <ele>1615.1500000000001</ele>
        <time>2012-09-18T06:37:18Z</time>
      </trkpt>
      <trkpt lat="45.752307828515768" lon="7.959533454850316">
        <ele>1614.1900000000001</ele>
        <time>2012-09-18T06:37:03Z</time>
      </trkpt>
      <trkpt lat="45.752313695847988" lon="7.959619285538793">
        <ele>1611.79</ele>
        <time>2012-09-18T06:36:49Z</time>
      </trkpt>
      <trkpt lat="45.752275642007589" lon="7.959715090692043">
        <ele>1609.3800000000001</ele>
        <time>2012-09-18T06:36:34Z</time>
      </trkpt>
      <trkpt lat="45.752274300903082" lon="7.959753144532442">
        <ele>1608.4200000000001</ele>
        <time>2012-09-18T06:36:29Z</time>
      </trkpt>
      <trkpt lat="45.752256447449327" lon="7.959835706278682">
        <ele>1605.54</ele>
        <time>2012-09-18T06:36:15Z</time>
      </trkpt>
      <trkpt lat="45.752244545146823" lon="7.959849368780851">
        <ele>1605.54</ele>
        <time>2012-09-18T06:36:13Z</time>
      </trkpt>
      <trkpt lat="45.752191068604589" lon="7.95980092138052">
        <ele>1603.1400000000001</ele>
        <time>2012-09-18T06:35:59Z</time>
      </trkpt>
      <trkpt lat="45.75214815326035" lon="7.959781978279352">
        <ele>1600.25</ele>
        <time>2012-09-18T06:35:42Z</time>
      </trkpt>
      <trkpt lat="45.752134406939149" lon="7.959719449281693">
        <ele>1599.77</ele>
        <time>2012-09-18T06:35:35Z</time>
      </trkpt>
      <trkpt lat="45.752116050571203" lon="7.959740236401558">
        <ele>1599.77</ele>
        <time>2012-09-18T06:35:30Z</time>
      </trkpt>
      <trkpt lat="45.752101549878716" lon="7.959785414859653">
        <ele>1597.8499999999999</ele>
        <time>2012-09-18T06:35:22Z</time>
      </trkpt>
      <trkpt lat="45.752097275108099" lon="7.959795473143458">
        <ele>1597.8499999999999</ele>
        <time>2012-09-18T06:35:05Z</time>
      </trkpt>
      <trkpt lat="45.752099622040987" lon="7.959804441779852">
        <ele>1599.29</ele>
        <time>2012-09-18T06:34:48Z</time>
      </trkpt>
      <trkpt lat="45.752099622040987" lon="7.959804441779852">
        <ele>1596.4100000000001</ele>
        <time>2012-09-18T06:34:40Z</time>
      </trkpt>
      <trkpt lat="45.752105908468366" lon="7.959811314940453">
        <ele>1596.4100000000001</ele>
        <time>2012-09-18T06:34:18Z</time>
      </trkpt>
      <trkpt lat="45.752096436917782" lon="7.959808129817247">
        <ele>1597.3699999999999</ele>
        <time>2012-09-18T06:33:58Z</time>
      </trkpt>
      <trkpt lat="45.752088222652674" lon="7.959813326597214">
        <ele>1597.3699999999999</ele>
        <time>2012-09-18T06:33:40Z</time>
      </trkpt>
      <trkpt lat="45.752088809385896" lon="7.95982338488102">
        <ele>1597.3699999999999</ele>
        <time>2012-09-18T06:33:24Z</time>
      </trkpt>
      <trkpt lat="45.752090737223625" lon="7.959824642166495">
        <ele>1597.3699999999999</ele>
        <time>2012-09-18T06:33:20Z</time>
      </trkpt>
      <trkpt lat="45.75208118185401" lon="7.959878873080015">
        <ele>1595.9300000000001</ele>
        <time>2012-09-18T06:33:06Z</time>
      </trkpt>
      <trkpt lat="45.752082858234644" lon="7.960004517808557">
        <ele>1593.04</ele>
        <time>2012-09-18T06:32:51Z</time>
      </trkpt>
      <trkpt lat="45.752067854627967" lon="7.960114404559135">
        <ele>1591.1199999999999</ele>
        <time>2012-09-18T06:32:36Z</time>
      </trkpt>
      <trkpt lat="45.752080427482724" lon="7.960228398442268">
        <ele>1588.72</ele>
        <time>2012-09-18T06:32:21Z</time>
      </trkpt>
      <trkpt lat="45.752147901803255" lon="7.960303165018559">
        <ele>1586.3099999999999</ele>
        <time>2012-09-18T06:32:06Z</time>
      </trkpt>
      <trkpt lat="45.752166174352169" lon="7.960335100069642">
        <ele>1586.3099999999999</ele>
        <time>2012-09-18T06:32:03Z</time>
      </trkpt>
      <trkpt lat="45.75216818600893" lon="7.960359659045935">
        <ele>1585.3499999999999</ele>
        <time>2012-09-18T06:31:58Z</time>
      </trkpt>
      <trkpt lat="45.752153350040317" lon="7.960476167500019">
        <ele>1582.95</ele>
        <time>2012-09-18T06:31:43Z</time>
      </trkpt>
      <trkpt lat="45.752216633409262" lon="7.960567362606525">
        <ele>1580.54</ele>
        <time>2012-09-18T06:31:27Z</time>
      </trkpt>
      <trkpt lat="45.752226021140814" lon="7.960655875504017">
        <ele>1578.6199999999999</ele>
        <time>2012-09-18T06:31:14Z</time>
      </trkpt>
      <trkpt lat="45.752232056111097" lon="7.960691498592496">
        <ele>1577.1800000000001</ele>
        <time>2012-09-18T06:31:02Z</time>
      </trkpt>
      <trkpt lat="45.752166928723454" lon="7.960674231871963">
        <ele>1575.74</ele>
        <time>2012-09-18T06:30:48Z</time>
      </trkpt>
      <trkpt lat="45.752139603719115" lon="7.960669286549091">
        <ele>1575.26</ele>
        <time>2012-09-18T06:30:43Z</time>
      </trkpt>
      <trkpt lat="45.752165000885725" lon="7.960712285712361">
        <ele>1573.3299999999999</ele>
        <time>2012-09-18T06:30:28Z</time>
      </trkpt>
      <trkpt lat="45.752199618145823" lon="7.960803480818868">
        <ele>1571.4100000000001</ele>
        <time>2012-09-18T06:30:15Z</time>
      </trkpt>
      <trkpt lat="45.75217011384666" lon="7.96079040504992">
        <ele>1570.45</ele>
        <time>2012-09-18T06:30:08Z</time>
      </trkpt>
      <trkpt lat="45.752128623425961" lon="7.960778502747417">
        <ele>1569.49</ele>
        <time>2012-09-18T06:30:02Z</time>
      </trkpt>
      <trkpt lat="45.752105573192239" lon="7.960776155814529">
        <ele>1568.05</ele>
        <time>2012-09-18T06:29:55Z</time>
      </trkpt>
      <trkpt lat="45.752057963982224" lon="7.960761236026883">
        <ele>1566.1199999999999</ele>
        <time>2012-09-18T06:29:41Z</time>
      </trkpt>
      <trkpt lat="45.752066262066364" lon="7.960859471932054">
        <ele>1564.2</ele>
        <time>2012-09-18T06:29:27Z</time>
      </trkpt>
      <trkpt lat="45.752083780243993" lon="7.960872044786811">
        <ele>1564.2</ele>
        <time>2012-09-18T06:29:25Z</time>
      </trkpt>
      <trkpt lat="45.752108423039317" lon="7.960928454995155">
        <ele>1563.24</ele>
        <time>2012-09-18T06:29:19Z</time>
      </trkpt>
      <trkpt lat="45.752123594284058" lon="7.96095703728497">
        <ele>1562.76</ele>
        <time>2012-09-18T06:29:13Z</time>
      </trkpt>
      <trkpt lat="45.752098616212606" lon="7.960951253771782">
        <ele>1561.3199999999999</ele>
        <time>2012-09-18T06:29:00Z</time>
      </trkpt>
      <trkpt lat="45.752012701705098" lon="7.960910517722368">
        <ele>1559.8800000000001</ele>
        <time>2012-09-18T06:28:45Z</time>
      </trkpt>
      <trkpt lat="45.751983448863029" lon="7.960909763351083">
        <ele>1557.95</ele>
        <time>2012-09-18T06:28:38Z</time>
      </trkpt>
      <trkpt lat="45.751947239041328" lon="7.96095116995275">
        <ele>1556.03</ele>
        <time>2012-09-18T06:28:23Z</time>
      </trkpt>
      <trkpt lat="45.75189208611846" lon="7.96093943528831">
        <ele>1554.5899999999999</ele>
        <time>2012-09-18T06:28:11Z</time>
      </trkpt>
      <trkpt lat="45.751825701445341" lon="7.960913116112351">
        <ele>1551.71</ele>
        <time>2012-09-18T06:27:55Z</time>
      </trkpt>
      <trkpt lat="45.751822516322136" lon="7.960903393104672">
        <ele>1551.71</ele>
        <time>2012-09-18T06:27:39Z</time>
      </trkpt>
      <trkpt lat="45.751820420846343" lon="7.960888305678964">
        <ele>1550.74</ele>
        <time>2012-09-18T06:27:20Z</time>
      </trkpt>
      <trkpt lat="45.751813882961869" lon="7.960883863270283">
        <ele>1550.74</ele>
        <time>2012-09-18T06:27:03Z</time>
      </trkpt>
      <trkpt lat="45.751737607643008" lon="7.960870284587145">
        <ele>1547.8599999999999</ele>
        <time>2012-09-18T06:26:49Z</time>
      </trkpt>
      <trkpt lat="45.751720676198602" lon="7.960853101685643">
        <ele>1547.3800000000001</ele>
        <time>2012-09-18T06:26:47Z</time>
      </trkpt>
      <trkpt lat="45.751693015918136" lon="7.960806833580136">
        <ele>1547.3800000000001</ele>
        <time>2012-09-18T06:26:42Z</time>
      </trkpt>
      <trkpt lat="45.751659739762545" lon="7.960744723677635">
        <ele>1545.46</ele>
        <time>2012-09-18T06:26:34Z</time>
      </trkpt>
      <trkpt lat="45.751647083088756" lon="7.960737766698003">
        <ele>1544.98</ele>
        <time>2012-09-18T06:26:32Z</time>
      </trkpt>
      <trkpt lat="45.751630906015635" lon="7.960736425593495">
        <ele>1544.5</ele>
        <time>2012-09-18T06:26:30Z</time>
      </trkpt>
      <trkpt lat="45.751569299027324" lon="7.960746735334396">
        <ele>1542.5699999999999</ele>
        <time>2012-09-18T06:26:12Z</time>
      </trkpt>
      <trkpt lat="45.751569299027324" lon="7.960746735334396">
        <ele>1544.01</ele>
        <time>2012-09-18T06:26:10Z</time>
      </trkpt>
      <trkpt lat="45.751569299027324" lon="7.960746735334396">
        <ele>1542.5699999999999</ele>
        <time>2012-09-18T06:26:06Z</time>
      </trkpt>
      <trkpt lat="45.751527221873403" lon="7.960831308737397">
        <ele>1540.6500000000001</ele>
        <time>2012-09-18T06:25:51Z</time>
      </trkpt>
      <trkpt lat="45.751557732000947" lon="7.960873553529382">
        <ele>1540.1700000000001</ele>
        <time>2012-09-18T06:25:39Z</time>
      </trkpt>
      <trkpt lat="45.751555804163218" lon="7.960935579612851">
        <ele>1538.73</ele>
        <time>2012-09-18T06:25:27Z</time>
      </trkpt>
      <trkpt lat="45.751563683152199" lon="7.961081508547068">
        <ele>1534.8800000000001</ele>
        <time>2012-09-18T06:25:11Z</time>
      </trkpt>
      <trkpt lat="45.751565778627992" lon="7.96108896844089">
        <ele>1534.8800000000001</ele>
        <time>2012-09-18T06:25:10Z</time>
      </trkpt>
      <trkpt lat="45.751512721180916" lon="7.961138002574444">
        <ele>1533.4400000000001</ele>
        <time>2012-09-18T06:24:57Z</time>
      </trkpt>
      <trkpt lat="45.751500399783254" lon="7.961147641763091">
        <ele>1533.4400000000001</ele>
        <time>2012-09-18T06:24:41Z</time>
      </trkpt>
      <trkpt lat="45.75149486772716" lon="7.961177313700318">
        <ele>1532.48</ele>
        <time>2012-09-18T06:24:22Z</time>
      </trkpt>
      <trkpt lat="45.75153929181397" lon="7.961272699758411">
        <ele>1531.04</ele>
        <time>2012-09-18T06:24:07Z</time>
      </trkpt>
      <trkpt lat="45.751550775021315" lon="7.961286110803485">
        <ele>1531.04</ele>
        <time>2012-09-18T06:24:05Z</time>
      </trkpt>
      <trkpt lat="45.751553792506456" lon="7.961314106360078">
        <ele>1530.5599999999999</ele>
        <time>2012-09-18T06:24:03Z</time>
      </trkpt>
      <trkpt lat="45.751576758921146" lon="7.961372025310993">
        <ele>1529.5899999999999</ele>
        <time>2012-09-18T06:23:57Z</time>
      </trkpt>
      <trkpt lat="45.751601569354534" lon="7.961443103849888">
        <ele>1528.1500000000001</ele>
        <time>2012-09-18T06:23:47Z</time>
      </trkpt>
      <trkpt lat="45.751624032855034" lon="7.961518792435527">
        <ele>1527.6700000000001</ele>
        <time>2012-09-18T06:23:40Z</time>
      </trkpt>
      <trkpt lat="45.751638114452362" lon="7.961556846275926">
        <ele>1527.1900000000001</ele>
        <time>2012-09-18T06:23:37Z</time>
      </trkpt>
      <trkpt lat="45.751634426414967" lon="7.961717024445534">
        <ele>1526.23</ele>
        <time>2012-09-18T06:23:27Z</time>
      </trkpt>
      <trkpt lat="45.75167709030211" lon="7.961803022772074">
        <ele>1526.23</ele>
        <time>2012-09-18T06:23:20Z</time>
      </trkpt>
      <trkpt lat="45.751700308173895" lon="7.961838562041521">
        <ele>1526.23</ele>
        <time>2012-09-18T06:23:15Z</time>
      </trkpt>
      <trkpt lat="45.75181438587606" lon="7.96194207854569">
        <ele>1525.27</ele>
        <time>2012-09-18T06:23:00Z</time>
      </trkpt>
      <trkpt lat="45.751873478293419" lon="7.961966469883919">
        <ele>1524.79</ele>
        <time>2012-09-18T06:22:53Z</time>
      </trkpt>
      <trkpt lat="45.751910526305437" lon="7.96204810962081">
        <ele>1523.3499999999999</ele>
        <time>2012-09-18T06:22:43Z</time>
      </trkpt>
      <trkpt lat="45.751928463578224" lon="7.962084151804447">
        <ele>1523.3499999999999</ele>
        <time>2012-09-18T06:22:40Z</time>
      </trkpt>
      <trkpt lat="45.752022676169872" lon="7.962237540632486">
        <ele>1522.3900000000001</ele>
        <time>2012-09-18T06:22:23Z</time>
      </trkpt>
      <trkpt lat="45.752035835757852" lon="7.962257154285908">
        <ele>1522.3900000000001</ele>
        <time>2012-09-18T06:22:21Z</time>
      </trkpt>
      <trkpt lat="45.752063579857349" lon="7.962345583364368">
        <ele>1521.9000000000001</ele>
        <time>2012-09-18T06:22:14Z</time>
      </trkpt>
      <trkpt lat="45.752069363370538" lon="7.962361928075552">
        <ele>1521.9000000000001</ele>
        <time>2012-09-18T06:22:13Z</time>
      </trkpt>
      <trkpt lat="45.752094509080052" lon="7.962453626096249">
        <ele>1522.3900000000001</ele>
        <time>2012-09-18T06:22:06Z</time>
      </trkpt>
      <trkpt lat="45.752134909853339" lon="7.962535433471203">
        <ele>1521.9000000000001</ele>
        <time>2012-09-18T06:21:59Z</time>
      </trkpt>
      <trkpt lat="45.752163492143154" lon="7.962551191449165">
        <ele>1521.9000000000001</ele>
        <time>2012-09-18T06:21:56Z</time>
      </trkpt>
      <trkpt lat="45.752169694751501" lon="7.962564686313272">
        <ele>1521.9000000000001</ele>
        <time>2012-09-18T06:21:54Z</time>
      </trkpt>
      <trkpt lat="45.752261057496071" lon="7.962703574448824">
        <ele>1520.46</ele>
        <time>2012-09-18T06:21:39Z</time>
      </trkpt>
      <trkpt lat="45.752312522381544" lon="7.962824357673526">
        <ele>1519.98</ele>
        <time>2012-09-18T06:21:27Z</time>
      </trkpt>
      <trkpt lat="45.752354264259338" lon="7.962866937741637">
        <ele>1519.02</ele>
        <time>2012-09-18T06:21:21Z</time>
      </trkpt>
      <trkpt lat="45.752380667254329" lon="7.962878169491887">
        <ele>1518.54</ele>
        <time>2012-09-18T06:21:17Z</time>
      </trkpt>
      <trkpt lat="45.752460546791553" lon="7.962916139513254">
        <ele>1516.6199999999999</ele>
        <time>2012-09-18T06:21:04Z</time>
      </trkpt>
      <trkpt lat="45.752471694722772" lon="7.962928293272853">
        <ele>1516.6199999999999</ele>
        <time>2012-09-18T06:21:02Z</time>
      </trkpt>
      <trkpt lat="45.75251704081893" lon="7.963059386238456">
        <ele>1514.21</ele>
        <time>2012-09-18T06:20:47Z</time>
      </trkpt>
      <trkpt lat="45.752565572038293" lon="7.963106157258153">
        <ele>1512.77</ele>
        <time>2012-09-18T06:20:37Z</time>
      </trkpt>
      <trkpt lat="45.752646792680025" lon="7.963186372071505">
        <ele>1510.3699999999999</ele>
        <time>2012-09-18T06:20:21Z</time>
      </trkpt>
      <trkpt lat="45.75265534222126" lon="7.963209003210068">
        <ele>1510.3699999999999</ele>
        <time>2012-09-18T06:20:19Z</time>
      </trkpt>
      <trkpt lat="45.752675039693713" lon="7.963224509730935">
        <ele>1509.4100000000001</ele>
        <time>2012-09-18T06:20:17Z</time>
      </trkpt>
      <trkpt lat="45.752698928117752" lon="7.963288044556975">
        <ele>1509.8900000000001</ele>
        <time>2012-09-18T06:20:11Z</time>
      </trkpt>
      <trkpt lat="45.752702364698052" lon="7.963312435895205">
        <ele>1510.8499999999999</ele>
        <time>2012-09-18T06:20:09Z</time>
      </trkpt>
      <trkpt lat="45.752710830420256" lon="7.963318219408393">
        <ele>1510.8499999999999</ele>
        <time>2012-09-18T06:20:08Z</time>
      </trkpt>
      <trkpt lat="45.752757852897048" lon="7.963337330147624">
        <ele>1508.9300000000001</ele>
        <time>2012-09-18T06:20:03Z</time>
      </trkpt>
      <trkpt lat="45.752763133496046" lon="7.963344370946288">
        <ele>1508.9300000000001</ele>
        <time>2012-09-18T06:20:02Z</time>
      </trkpt>
      <trkpt lat="45.752837900072336" lon="7.963503794744611">
        <ele>1506.52</ele>
        <time>2012-09-18T06:19:46Z</time>
      </trkpt>
      <trkpt lat="45.752852316945791" lon="7.963525503873825">
        <ele>1506.04</ele>
        <time>2012-09-18T06:19:44Z</time>
      </trkpt>
      <trkpt lat="45.752860782667994" lon="7.963549140840769">
        <ele>1506.04</ele>
        <time>2012-09-18T06:19:42Z</time>
      </trkpt>
      <trkpt lat="45.752874109894037" lon="7.963570011779666">
        <ele>1506.04</ele>
        <time>2012-09-18T06:19:40Z</time>
      </trkpt>
      <trkpt lat="45.752882491797209" lon="7.963597504422069">
        <ele>1505.5599999999999</ele>
        <time>2012-09-18T06:19:38Z</time>
      </trkpt>
      <trkpt lat="45.752899590879679" lon="7.963616950437427">
        <ele>1505.5599999999999</ele>
        <time>2012-09-18T06:19:36Z</time>
      </trkpt>
      <trkpt lat="45.752913253381848" lon="7.963642096146941">
        <ele>1505.5599999999999</ele>
        <time>2012-09-18T06:19:34Z</time>
      </trkpt>
      <trkpt lat="45.752934878692031" lon="7.963698673993349">
        <ele>1505.0799999999999</ele>
        <time>2012-09-18T06:19:29Z</time>
      </trkpt>
      <trkpt lat="45.75295583344996" lon="7.963727843016386">
        <ele>1505.0799999999999</ele>
        <time>2012-09-18T06:19:26Z</time>
      </trkpt>
      <trkpt lat="45.752984918653965" lon="7.963760616257787">
        <ele>1504.5999999999999</ele>
        <time>2012-09-18T06:19:22Z</time>
      </trkpt>
      <trkpt lat="45.753002353012562" lon="7.963776458054781">
        <ele>1504.1199999999999</ele>
        <time>2012-09-18T06:19:20Z</time>
      </trkpt>
      <trkpt lat="45.753012495115399" lon="7.963794562965632">
        <ele>1503.6400000000001</ele>
        <time>2012-09-18T06:19:18Z</time>
      </trkpt>
      <trkpt lat="45.753044178709388" lon="7.963856002315879">
        <ele>1502.6800000000001</ele>
        <time>2012-09-18T06:19:10Z</time>
      </trkpt>
      <trkpt lat="45.753105198964477" lon="7.963953902944922">
        <ele>1501.24</ele>
        <time>2012-09-18T06:18:58Z</time>
      </trkpt>
      <trkpt lat="45.753126656636596" lon="7.963979383930564">
        <ele>1500.27</ele>
        <time>2012-09-18T06:18:53Z</time>
      </trkpt>
      <trkpt lat="45.753148533403873" lon="7.964014923200011">
        <ele>1498.8299999999999</ele>
        <time>2012-09-18T06:18:49Z</time>
      </trkpt>
      <trkpt lat="45.753161944448948" lon="7.964046774432063">
        <ele>1498.8299999999999</ele>
        <time>2012-09-18T06:18:32Z</time>
      </trkpt>
      <trkpt lat="45.753161860629916" lon="7.964057670906186">
        <ele>1498.8299999999999</ele>
        <time>2012-09-18T06:18:10Z</time>
      </trkpt>
      <trkpt lat="45.753161860629916" lon="7.964057670906186">
        <ele>1498.8299999999999</ele>
        <time>2012-09-18T06:17:50Z</time>
      </trkpt>
      <trkpt lat="45.75318063609302" lon="7.964087594300509">
        <ele>1498.3499999999999</ele>
        <time>2012-09-18T06:17:36Z</time>
      </trkpt>
      <trkpt lat="45.753223383799195" lon="7.964152134954929">
        <ele>1497.8699999999999</ele>
        <time>2012-09-18T06:17:24Z</time>
      </trkpt>
      <trkpt lat="45.753248613327742" lon="7.964217178523541">
        <ele>1496.4300000000001</ele>
        <time>2012-09-18T06:17:18Z</time>
      </trkpt>
      <trkpt lat="45.753260431811213" lon="7.964251209050417">
        <ele>1496.4300000000001</ele>
        <time>2012-09-18T06:17:14Z</time>
      </trkpt>
      <trkpt lat="45.753285242244601" lon="7.964310804381967">
        <ele>1496.4300000000001</ele>
        <time>2012-09-18T06:17:02Z</time>
      </trkpt>
      <trkpt lat="45.753287840634584" lon="7.964327232912183">
        <ele>1496.4300000000001</ele>
        <time>2012-09-18T06:16:46Z</time>
      </trkpt>
      <trkpt lat="45.753287840634584" lon="7.964327232912183">
        <ele>1496.4300000000001</ele>
        <time>2012-09-18T06:16:24Z</time>
      </trkpt>
      <trkpt lat="45.753285828977823" lon="7.964329244568944">
        <ele>1496.4300000000001</ele>
        <time>2012-09-18T06:16:08Z</time>
      </trkpt>
      <trkpt lat="45.753288678824902" lon="7.964323293417692">
        <ele>1497.8699999999999</ele>
        <time>2012-09-18T06:16:06Z</time>
      </trkpt>
      <trkpt lat="45.753288678824902" lon="7.964323293417692">
        <ele>1496.4300000000001</ele>
        <time>2012-09-18T06:16:02Z</time>
      </trkpt>
      <trkpt lat="45.753291612491012" lon="7.964330166578293">
        <ele>1495.95</ele>
        <time>2012-09-18T06:15:42Z</time>
      </trkpt>
      <trkpt lat="45.753291444852948" lon="7.964346595108509">
        <ele>1495.95</ele>
        <time>2012-09-18T06:15:26Z</time>
      </trkpt>
      <trkpt lat="45.753349615260959" lon="7.964519094675779">
        <ele>1494.99</ele>
        <time>2012-09-18T06:15:13Z</time>
      </trkpt>
      <trkpt lat="45.753389094024897" lon="7.964606517925859">
        <ele>1494.99</ele>
        <time>2012-09-18T06:15:04Z</time>
      </trkpt>
      <trkpt lat="45.753421280533075" lon="7.964650774374604">
        <ele>1494.51</ele>
        <time>2012-09-18T06:14:50Z</time>
      </trkpt>
      <trkpt lat="45.753445085138083" lon="7.964679608121514">
        <ele>1494.51</ele>
        <time>2012-09-18T06:14:47Z</time>
      </trkpt>
      <trkpt lat="45.753488503396511" lon="7.964752614498138">
        <ele>1494.03</ele>
        <time>2012-09-18T06:14:41Z</time>
      </trkpt>
      <trkpt lat="45.753515157848597" lon="7.96479863114655">
        <ele>1493.55</ele>
        <time>2012-09-18T06:14:37Z</time>
      </trkpt>
      <trkpt lat="45.753527982160449" lon="7.964827297255397">
        <ele>1493.55</ele>
        <time>2012-09-18T06:14:34Z</time>
      </trkpt>
      <trkpt lat="45.753582296893001" lon="7.964906506240368">
        <ele>1493.55</ele>
        <time>2012-09-18T06:14:25Z</time>
      </trkpt>
      <trkpt lat="45.753614064306021" lon="7.964976159855723">
        <ele>1493.0599999999999</ele>
        <time>2012-09-18T06:14:19Z</time>
      </trkpt>
      <trkpt lat="45.753636276349425" lon="7.965009184554219">
        <ele>1493.0599999999999</ele>
        <time>2012-09-18T06:14:15Z</time>
      </trkpt>
      <trkpt lat="45.753644574433565" lon="7.965032821521163">
        <ele>1493.0599999999999</ele>
        <time>2012-09-18T06:14:13Z</time>
      </trkpt>
      <trkpt lat="45.753670893609524" lon="7.965087052434683">
        <ele>1493.0599999999999</ele>
        <time>2012-09-18T06:14:05Z</time>
      </trkpt>
      <trkpt lat="45.753685142844915" lon="7.965177996084094">
        <ele>1491.1400000000001</ele>
        <time>2012-09-18T06:13:58Z</time>
      </trkpt>
      <trkpt lat="45.753687657415867" lon="7.965210769325495">
        <ele>1490.6600000000001</ele>
        <time>2012-09-18T06:13:54Z</time>
      </trkpt>
      <trkpt lat="45.753697883337736" lon="7.965274304151535">
        <ele>1490.1800000000001</ele>
        <time>2012-09-18T06:13:48Z</time>
      </trkpt>
      <trkpt lat="45.753733171150088" lon="7.965289475396276">
        <ele>1489.7</ele>
        <time>2012-09-18T06:13:44Z</time>
      </trkpt>
      <trkpt lat="45.753740966320038" lon="7.965304814279079">
        <ele>1489.22</ele>
        <time>2012-09-18T06:13:42Z</time>
      </trkpt>
      <trkpt lat="45.75378748588264" lon="7.965453593060374">
        <ele>1488.26</ele>
        <time>2012-09-18T06:13:28Z</time>
      </trkpt>
      <trkpt lat="45.753818247467279" lon="7.965473206713796">
        <ele>1487.78</ele>
        <time>2012-09-18T06:13:25Z</time>
      </trkpt>
      <trkpt lat="45.753900473937392" lon="7.965587954968214">
        <ele>1487.3</ele>
        <time>2012-09-18T06:13:11Z</time>
      </trkpt>
      <trkpt lat="45.753912208601832" lon="7.965596672147512">
        <ele>1486.8199999999999</ele>
        <time>2012-09-18T06:13:09Z</time>
      </trkpt>
      <trkpt lat="45.753920171409845" lon="7.965619135648012">
        <ele>1486.8199999999999</ele>
        <time>2012-09-18T06:13:07Z</time>
      </trkpt>
      <trkpt lat="45.753936935216188" lon="7.965651322156191">
        <ele>1486.3399999999999</ele>
        <time>2012-09-18T06:12:57Z</time>
      </trkpt>
      <trkpt lat="45.753953028470278" lon="7.965677222236991">
        <ele>1485.8499999999999</ele>
        <time>2012-09-18T06:12:54Z</time>
      </trkpt>
      <trkpt lat="45.754039948806167" lon="7.965757688507438">
        <ele>1484.4100000000001</ele>
        <time>2012-09-18T06:12:40Z</time>
      </trkpt>
      <trkpt lat="45.754096107557416" lon="7.965812589973211">
        <ele>1482.49</ele>
        <time>2012-09-18T06:12:29Z</time>
      </trkpt>
      <trkpt lat="45.754102896898985" lon="7.965817367658019">
        <ele>1481.05</ele>
        <time>2012-09-18T06:12:27Z</time>
      </trkpt>
      <trkpt lat="45.754192499443889" lon="7.965952316299081">
        <ele>1481.05</ele>
        <time>2012-09-18T06:12:12Z</time>
      </trkpt>
      <trkpt lat="45.754210101440549" lon="7.965970002114773">
        <ele>1482.49</ele>
        <time>2012-09-18T06:12:10Z</time>
      </trkpt>
      <trkpt lat="45.754243964329362" lon="7.966017108410597">
        <ele>1482.49</ele>
        <time>2012-09-18T06:12:04Z</time>
      </trkpt>
      <trkpt lat="45.754262991249561" lon="7.966048875823617">
        <ele>1480.5699999999999</ele>
        <time>2012-09-18T06:12:00Z</time>
      </trkpt>
      <trkpt lat="45.754333063960075" lon="7.96621123328805">
        <ele>1479.1300000000001</ele>
        <time>2012-09-18T06:11:45Z</time>
      </trkpt>
      <trkpt lat="45.754381427541375" lon="7.966234534978867">
        <ele>1478.1600000000001</ele>
        <time>2012-09-18T06:11:37Z</time>
      </trkpt>
      <trkpt lat="45.75438603758812" lon="7.966233529150486">
        <ele>1478.1600000000001</ele>
        <time>2012-09-18T06:11:36Z</time>
      </trkpt>
      <trkpt lat="45.754447560757399" lon="7.966295471414924">
        <ele>1476.24</ele>
        <time>2012-09-18T06:11:20Z</time>
      </trkpt>
      <trkpt lat="45.754437251016498" lon="7.966378787532449">
        <ele>1475.28</ele>
        <time>2012-09-18T06:11:13Z</time>
      </trkpt>
      <trkpt lat="45.754478573799133" lon="7.966472916305065">
        <ele>1474.8</ele>
        <time>2012-09-18T06:11:03Z</time>
      </trkpt>
      <trkpt lat="45.754533810541034" lon="7.966571236029267">
        <ele>1472.8800000000001</ele>
        <time>2012-09-18T06:10:50Z</time>
      </trkpt>
      <trkpt lat="45.754605727270246" lon="7.96666712500155">
        <ele>1470.47</ele>
        <time>2012-09-18T06:10:33Z</time>
      </trkpt>
      <trkpt lat="45.754661550745368" lon="7.966725043952465">
        <ele>1468.0699999999999</ele>
        <time>2012-09-18T06:10:19Z</time>
      </trkpt>
      <trkpt lat="45.754738580435514" lon="7.966790674254298">
        <ele>1468.0699999999999</ele>
        <time>2012-09-18T06:10:04Z</time>
      </trkpt>
      <trkpt lat="45.754745872691274" lon="7.966793607920408">
        <ele>1468.0699999999999</ele>
        <time>2012-09-18T06:10:03Z</time>
      </trkpt>
      <trkpt lat="45.754770264029503" lon="7.966839792206883">
        <ele>1466.1500000000001</ele>
        <time>2012-09-18T06:09:56Z</time>
      </trkpt>
      <trkpt lat="45.754784932360053" lon="7.966941883787513">
        <ele>1463.26</ele>
        <time>2012-09-18T06:09:42Z</time>
      </trkpt>
      <trkpt lat="45.754779232665896" lon="7.967003071680665">
        <ele>1461.8199999999999</ele>
        <time>2012-09-18T06:09:35Z</time>
      </trkpt>
      <trkpt lat="45.754784261807799" lon="7.967062834650278">
        <ele>1460.8599999999999</ele>
        <time>2012-09-18T06:09:25Z</time>
      </trkpt>
      <trkpt lat="45.75481653213501" lon="7.967074066400528">
        <ele>1459.9000000000001</ele>
        <time>2012-09-18T06:09:18Z</time>
      </trkpt>
      <trkpt lat="45.754907056689262" lon="7.967161489650607">
        <ele>1458.46</ele>
        <time>2012-09-18T06:09:03Z</time>
      </trkpt>
      <trkpt lat="45.754919210448861" lon="7.967166183516383">
        <ele>1457.5</ele>
        <time>2012-09-18T06:09:01Z</time>
      </trkpt>
      <trkpt lat="45.754964388906956" lon="7.967243045568466">
        <ele>1455.0899999999999</ele>
        <time>2012-09-18T06:08:47Z</time>
      </trkpt>
      <trkpt lat="45.754985511302948" lon="7.967281686142087">
        <ele>1454.1300000000001</ele>
        <time>2012-09-18T06:08:33Z</time>
      </trkpt>
      <trkpt lat="45.755027504637837" lon="7.967390567064285">
        <ele>1454.1300000000001</ele>
        <time>2012-09-18T06:08:19Z</time>
      </trkpt>
      <trkpt lat="45.75503446161747" lon="7.967399200424552">
        <ele>1453.1700000000001</ele>
        <time>2012-09-18T06:08:16Z</time>
      </trkpt>
      <trkpt lat="45.75512976385653" lon="7.967454185709357">
        <ele>1453.1700000000001</ele>
        <time>2012-09-18T06:08:02Z</time>
      </trkpt>
      <trkpt lat="45.755142671987414" lon="7.96745041385293">
        <ele>1451.73</ele>
        <time>2012-09-18T06:08:00Z</time>
      </trkpt>
      <trkpt lat="45.755174355581403" lon="7.967465836554766">
        <ele>1451.25</ele>
        <time>2012-09-18T06:07:56Z</time>
      </trkpt>
      <trkpt lat="45.755205452442169" lon="7.967565329745412">
        <ele>1449.3199999999999</ele>
        <time>2012-09-18T06:07:42Z</time>
      </trkpt>
      <trkpt lat="45.755278207361698" lon="7.967616962268949">
        <ele>1446.9200000000001</ele>
        <time>2012-09-18T06:07:27Z</time>
      </trkpt>
      <trkpt lat="45.755346855148673" lon="7.967606065794826">
        <ele>1446.9200000000001</ele>
        <time>2012-09-18T06:07:20Z</time>
      </trkpt>
      <trkpt lat="45.755359595641494" lon="7.967616459354758">
        <ele>1446.9200000000001</ele>
        <time>2012-09-18T06:07:18Z</time>
      </trkpt>
      <trkpt lat="45.755397062748671" lon="7.967645460739732">
        <ele>1446.4400000000001</ele>
        <time>2012-09-18T06:07:13Z</time>
      </trkpt>
      <trkpt lat="45.755423381924629" lon="7.967705726623535">
        <ele>1445.48</ele>
        <time>2012-09-18T06:07:06Z</time>
      </trkpt>
      <trkpt lat="45.755474343895912" lon="7.967790635302663">
        <ele>1444.04</ele>
        <time>2012-09-18T06:06:53Z</time>
      </trkpt>
      <trkpt lat="45.755462357774377" lon="7.967851907014847">
        <ele>1443.5599999999999</ele>
        <time>2012-09-18T06:06:47Z</time>
      </trkpt>
      <trkpt lat="45.755464369431138" lon="7.967866575345397">
        <ele>1443.5599999999999</ele>
        <time>2012-09-18T06:06:45Z</time>
      </trkpt>
      <trkpt lat="45.755451964214444" lon="7.967954250052571">
        <ele>1441.6300000000001</ele>
        <time>2012-09-18T06:06:34Z</time>
      </trkpt>
      <trkpt lat="45.755436290055513" lon="7.967974534258246">
        <ele>1441.1500000000001</ele>
        <time>2012-09-18T06:06:31Z</time>
      </trkpt>
      <trkpt lat="45.755458921194077" lon="7.96806019730866">
        <ele>1439.71</ele>
        <time>2012-09-18T06:06:20Z</time>
      </trkpt>
      <trkpt lat="45.755517762154341" lon="7.968130437657237">
        <ele>1439.71</ele>
        <time>2012-09-18T06:06:12Z</time>
      </trkpt>
      <trkpt lat="45.755569897592068" lon="7.968255747109652">
        <ele>1438.27</ele>
        <time>2012-09-18T06:05:59Z</time>
      </trkpt>
      <trkpt lat="45.755623877048492" lon="7.968266392126679">
        <ele>1437.3099999999999</ele>
        <time>2012-09-18T06:05:52Z</time>
      </trkpt>
      <trkpt lat="45.755649274215102" lon="7.968296566978097">
        <ele>1436.3499999999999</ele>
        <time>2012-09-18T06:05:48Z</time>
      </trkpt>
      <trkpt lat="45.755706019699574" lon="7.968405866995454">
        <ele>1433.9400000000001</ele>
        <time>2012-09-18T06:05:32Z</time>
      </trkpt>
      <trkpt lat="45.755778774619102" lon="7.968491613864899">
        <ele>1432.5</ele>
        <time>2012-09-18T06:05:19Z</time>
      </trkpt>
      <trkpt lat="45.755835017189384" lon="7.968594627454877">
        <ele>1430.5799999999999</ele>
        <time>2012-09-18T06:05:06Z</time>
      </trkpt>
      <trkpt lat="45.755840549245477" lon="7.968598064035177">
        <ele>1430.0999999999999</ele>
        <time>2012-09-18T06:05:05Z</time>
      </trkpt>
      <trkpt lat="45.755885476246476" lon="7.968715745955706">
        <ele>1428.1800000000001</ele>
        <time>2012-09-18T06:04:49Z</time>
      </trkpt>
      <trkpt lat="45.755946161225438" lon="7.968748100101948">
        <ele>1426.25</ele>
        <time>2012-09-18T06:04:39Z</time>
      </trkpt>
      <trkpt lat="45.755955716595054" lon="7.968810210004449">
        <ele>1424.3299999999999</ele>
        <time>2012-09-18T06:04:27Z</time>
      </trkpt>
      <trkpt lat="45.755965858697891" lon="7.968892520293593">
        <ele>1424.3299999999999</ele>
        <time>2012-09-18T06:04:21Z</time>
      </trkpt>
      <trkpt lat="45.756009612232447" lon="7.968995282426477">
        <ele>1423.3699999999999</ele>
        <time>2012-09-18T06:04:10Z</time>
      </trkpt>
      <trkpt lat="45.756047582253814" lon="7.969121597707272">
        <ele>1422.4100000000001</ele>
        <time>2012-09-18T06:03:56Z</time>
      </trkpt>
      <trkpt lat="45.756084294989705" lon="7.969155628234148">
        <ele>1422.4100000000001</ele>
        <time>2012-09-18T06:03:51Z</time>
      </trkpt>
      <trkpt lat="45.756111117079854" lon="7.969244560226798">
        <ele>1420</ele>
        <time>2012-09-18T06:03:39Z</time>
      </trkpt>
      <trkpt lat="45.756099885329604" lon="7.969319494441152">
        <ele>1419.04</ele>
        <time>2012-09-18T06:03:31Z</time>
      </trkpt>
      <trkpt lat="45.756079601123929" lon="7.969463411718607">
        <ele>1417.1199999999999</ele>
        <time>2012-09-18T06:03:20Z</time>
      </trkpt>
      <trkpt lat="45.756077421829104" lon="7.969466680660844">
        <ele>1416.6400000000001</ele>
        <time>2012-09-18T06:03:19Z</time>
      </trkpt>
      <trkpt lat="45.756072560325265" lon="7.969625098630786">
        <ele>1414.72</ele>
        <time>2012-09-18T06:03:04Z</time>
      </trkpt>
      <trkpt lat="45.756073985248804" lon="7.96967513859272">
        <ele>1413.76</ele>
        <time>2012-09-18T06:03:00Z</time>
      </trkpt>
      <trkpt lat="45.756076918914914" lon="7.969716545194387">
        <ele>1413.76</ele>
        <time>2012-09-18T06:02:56Z</time>
      </trkpt>
      <trkpt lat="45.756091838702559" lon="7.969863312318921">
        <ele>1411.8299999999999</ele>
        <time>2012-09-18T06:02:43Z</time>
      </trkpt>
      <trkpt lat="45.756119666621089" lon="7.969982754439116">
        <ele>1410.3900000000001</ele>
        <time>2012-09-18T06:02:32Z</time>
      </trkpt>
      <trkpt lat="45.756139028817415" lon="7.97001963481307">
        <ele>1410.3900000000001</ele>
        <time>2012-09-18T06:02:29Z</time>
      </trkpt>
      <trkpt lat="45.756231900304556" lon="7.970042265951634">
        <ele>1410.3900000000001</ele>
        <time>2012-09-18T06:02:17Z</time>
      </trkpt>
      <trkpt lat="45.756264925003052" lon="7.970157684758306">
        <ele>1413.28</ele>
        <time>2012-09-18T06:02:06Z</time>
      </trkpt>
      <trkpt lat="45.756267942488194" lon="7.97020185738802">
        <ele>1413.28</ele>
        <time>2012-09-18T06:02:03Z</time>
      </trkpt>
      <trkpt lat="45.756298033520579" lon="7.97024343162775">
        <ele>1413.28</ele>
        <time>2012-09-18T06:01:59Z</time>
      </trkpt>
      <trkpt lat="45.756316892802715" lon="7.970279473811388">
        <ele>1412.3099999999999</ele>
        <time>2012-09-18T06:01:43Z</time>
      </trkpt>
      <trkpt lat="45.756324017420411" lon="7.970299590379">
        <ele>1412.3099999999999</ele>
        <time>2012-09-18T06:01:36Z</time>
      </trkpt>
      <trkpt lat="45.75632737018168" lon="7.970306798815727">
        <ele>1411.8299999999999</ele>
        <time>2012-09-18T06:01:21Z</time>
      </trkpt>
      <trkpt lat="45.756353102624416" lon="7.970430180430412">
        <ele>1410.3900000000001</ele>
        <time>2012-09-18T06:01:06Z</time>
      </trkpt>
      <trkpt lat="45.756354192271829" lon="7.970470581203699">
        <ele>1409.9100000000001</ele>
        <time>2012-09-18T06:01:02Z</time>
      </trkpt>
      <trkpt lat="45.756358299404383" lon="7.970517352223396">
        <ele>1409.4300000000001</ele>
        <time>2012-09-18T06:00:58Z</time>
      </trkpt>
      <trkpt lat="45.756399286910892" lon="7.97061768360436">
        <ele>1407.51</ele>
        <time>2012-09-18T06:00:45Z</time>
      </trkpt>
      <trkpt lat="45.756404483690858" lon="7.970711309462786">
        <ele>1405.0999999999999</ele>
        <time>2012-09-18T06:00:31Z</time>
      </trkpt>
      <trkpt lat="45.756383445113897" lon="7.970734359696508">
        <ele>1404.6199999999999</ele>
        <time>2012-09-18T06:00:28Z</time>
      </trkpt>
      <trkpt lat="45.756380008533597" lon="7.970762941986322">
        <ele>1404.1400000000001</ele>
        <time>2012-09-18T06:00:26Z</time>
      </trkpt>
      <trkpt lat="45.756344301626086" lon="7.970855897292495">
        <ele>1403.1800000000001</ele>
        <time>2012-09-18T06:00:19Z</time>
      </trkpt>
      <trkpt lat="45.756353689357638" lon="7.971011297777295">
        <ele>1401.26</ele>
        <time>2012-09-18T06:00:08Z</time>
      </trkpt>
      <trkpt lat="45.756372129544616" lon="7.971055135130882">
        <ele>1401.26</ele>
        <time>2012-09-18T06:00:04Z</time>
      </trkpt>
      <trkpt lat="45.756414625793695" lon="7.971097966656089">
        <ele>1401.26</ele>
        <time>2012-09-18T05:59:59Z</time>
      </trkpt>
      <trkpt lat="45.756415547803044" lon="7.971110958606005">
        <ele>1401.26</ele>
        <time>2012-09-18T05:59:58Z</time>
      </trkpt>
      <trkpt lat="45.756421163678169" lon="7.971204081550241">
        <ele>1398.8599999999999</ele>
        <time>2012-09-18T05:59:51Z</time>
      </trkpt>
      <trkpt lat="45.75643926858902" lon="7.971232831478119">
        <ele>1398.3699999999999</ele>
        <time>2012-09-18T05:59:48Z</time>
      </trkpt>
      <trkpt lat="45.756443962454796" lon="7.971272142603993">
        <ele>1398.3699999999999</ele>
        <time>2012-09-18T05:59:45Z</time>
      </trkpt>
      <trkpt lat="45.756451673805714" lon="7.971290498971939">
        <ele>1397.8900000000001</ele>
        <time>2012-09-18T05:59:29Z</time>
      </trkpt>
      <trkpt lat="45.756445303559303" lon="7.971375240013003">
        <ele>1395.97</ele>
        <time>2012-09-18T05:59:16Z</time>
      </trkpt>
      <trkpt lat="45.756429880857468" lon="7.971486132591963">
        <ele>1394.53</ele>
        <time>2012-09-18T05:59:02Z</time>
      </trkpt>
      <trkpt lat="45.756443627178669" lon="7.971570957452059">
        <ele>1393.5699999999999</ele>
        <time>2012-09-18T05:58:47Z</time>
      </trkpt>
      <trkpt lat="45.756414541974664" lon="7.971654692664743">
        <ele>1392.1300000000001</ele>
        <time>2012-09-18T05:58:38Z</time>
      </trkpt>
      <trkpt lat="45.756449662148952" lon="7.97171663492918">
        <ele>1391.1700000000001</ele>
        <time>2012-09-18T05:58:30Z</time>
      </trkpt>
      <trkpt lat="45.756453182548285" lon="7.971742954105139">
        <ele>1390.6800000000001</ele>
        <time>2012-09-18T05:58:27Z</time>
      </trkpt>
      <trkpt lat="45.756498696282506" lon="7.971824342384934">
        <ele>1388.28</ele>
        <time>2012-09-18T05:58:13Z</time>
      </trkpt>
      <trkpt lat="45.756506407633424" lon="7.971934396773577">
        <ele>1387.3199999999999</ele>
        <time>2012-09-18T05:58:01Z</time>
      </trkpt>
      <trkpt lat="45.756537336856127" lon="7.971963565796614">
        <ele>1387.3199999999999</ele>
        <time>2012-09-18T05:57:57Z</time>
      </trkpt>
      <trkpt lat="45.756604643538594" lon="7.972000110894442">
        <ele>1385.4000000000001</ele>
        <time>2012-09-18T05:57:47Z</time>
      </trkpt>
      <trkpt lat="45.756624592468143" lon="7.972053503617644">
        <ele>1384.9200000000001</ele>
        <time>2012-09-18T05:57:43Z</time>
      </trkpt>
      <trkpt lat="45.75662836432457" lon="7.972057778388262">
        <ele>1384.9200000000001</ele>
        <time>2012-09-18T05:57:42Z</time>
      </trkpt>
      <trkpt lat="45.75673833489418" lon="7.972057778388262">
        <ele>1382.51</ele>
        <time>2012-09-18T05:57:27Z</time>
      </trkpt>
      <trkpt lat="45.756753673776984" lon="7.972046546638012">
        <ele>1382.51</ele>
        <time>2012-09-18T05:57:25Z</time>
      </trkpt>
      <trkpt lat="45.756820309907198" lon="7.97207722440362">
        <ele>1382.99</ele>
        <time>2012-09-18T05:57:17Z</time>
      </trkpt>
      <trkpt lat="45.756893483921885" lon="7.972125252708793">
        <ele>1381.55</ele>
        <time>2012-09-18T05:57:04Z</time>
      </trkpt>
      <trkpt lat="45.756910918280482" lon="7.972153080627322">
        <ele>1381.0699999999999</ele>
        <time>2012-09-18T05:57:01Z</time>
      </trkpt>
      <trkpt lat="45.756997503340244" lon="7.972251065075398">
        <ele>1377.71</ele>
        <time>2012-09-18T05:56:45Z</time>
      </trkpt>
      <trkpt lat="45.757019128650427" lon="7.972266487777233">
        <ele>1377.23</ele>
        <time>2012-09-18T05:56:41Z</time>
      </trkpt>
      <trkpt lat="45.757068749517202" lon="7.972286604344845">
        <ele>1376.26</ele>
        <time>2012-09-18T05:56:34Z</time>
      </trkpt>
      <trkpt lat="45.757082495838404" lon="7.972329771146178">
        <ele>1375.3</ele>
        <time>2012-09-18T05:56:31Z</time>
      </trkpt>
      <trkpt lat="45.75711015611887" lon="7.972344690933824">
        <ele>1374.8199999999999</ele>
        <time>2012-09-18T05:56:28Z</time>
      </trkpt>
      <trkpt lat="45.757120884954929" lon="7.972367992624641">
        <ele>1374.3399999999999</ele>
        <time>2012-09-18T05:56:26Z</time>
      </trkpt>
      <trkpt lat="45.757209146395326" lon="7.9724011849612">
        <ele>1373.3800000000001</ele>
        <time>2012-09-18T05:56:16Z</time>
      </trkpt>
      <trkpt lat="45.757227838039398" lon="7.972404956817627">
        <ele>1373.3800000000001</ele>
        <time>2012-09-18T05:56:14Z</time>
      </trkpt>
      <trkpt lat="45.757303945720196" lon="7.972450805827975">
        <ele>1373.3800000000001</ele>
        <time>2012-09-18T05:56:05Z</time>
      </trkpt>
      <trkpt lat="45.757344178855419" lon="7.972459271550179">
        <ele>1373.3800000000001</ele>
        <time>2012-09-18T05:56:00Z</time>
      </trkpt>
      <trkpt lat="45.757386172190309" lon="7.972460025921464">
        <ele>1372.9000000000001</ele>
        <time>2012-09-18T05:55:55Z</time>
      </trkpt>
      <trkpt lat="45.757395476102829" lon="7.972469078376889">
        <ele>1371.46</ele>
        <time>2012-09-18T05:55:53Z</time>
      </trkpt>
      <trkpt lat="45.757466470822692" lon="7.972528757527471">
        <ele>1369.05</ele>
        <time>2012-09-18T05:55:38Z</time>
      </trkpt>
      <trkpt lat="45.757552636787295" lon="7.972652306780219">
        <ele>1366.6500000000001</ele>
        <time>2012-09-18T05:55:23Z</time>
      </trkpt>
      <trkpt lat="45.757570825517178" lon="7.972661275416613">
        <ele>1366.6500000000001</ele>
        <time>2012-09-18T05:55:21Z</time>
      </trkpt>
      <trkpt lat="45.757588176056743" lon="7.972681811079383">
        <ele>1366.6500000000001</ele>
        <time>2012-09-18T05:55:19Z</time>
      </trkpt>
      <trkpt lat="45.757666630670428" lon="7.972712488844991">
        <ele>1366.6500000000001</ele>
        <time>2012-09-18T05:55:10Z</time>
      </trkpt>
      <trkpt lat="45.757671827450395" lon="7.972717098891735">
        <ele>1366.6500000000001</ele>
        <time>2012-09-18T05:55:09Z</time>
      </trkpt>
      <trkpt lat="45.757768135517836" lon="7.9728052765131">
        <ele>1364.73</ele>
        <time>2012-09-18T05:54:54Z</time>
      </trkpt>
      <trkpt lat="45.757895288988948" lon="7.97285414300859">
        <ele>1362.3299999999999</ele>
        <time>2012-09-18T05:54:39Z</time>
      </trkpt>
      <trkpt lat="45.757918171584606" lon="7.972859675064683">
        <ele>1360.8800000000001</ele>
        <time>2012-09-18T05:54:35Z</time>
      </trkpt>
      <trkpt lat="45.75804591178894" lon="7.972905021160841">
        <ele>1360.8800000000001</ele>
        <time>2012-09-18T05:54:22Z</time>
      </trkpt>
      <trkpt lat="45.758156888186932" lon="7.972966376692057">
        <ele>1361.3599999999999</ele>
        <time>2012-09-18T05:54:07Z</time>
      </trkpt>
      <trkpt lat="45.758197624236345" lon="7.973030330613256">
        <ele>1360.4000000000001</ele>
        <time>2012-09-18T05:53:59Z</time>
      </trkpt>
      <trkpt lat="45.758215058594942" lon="7.973207859322429">
        <ele>1358</ele>
        <time>2012-09-18T05:53:47Z</time>
      </trkpt>
      <trkpt lat="45.758256800472736" lon="7.973241554573178">
        <ele>1357.52</ele>
        <time>2012-09-18T05:53:42Z</time>
      </trkpt>
      <trkpt lat="45.758333662524819" lon="7.97334473580122">
        <ele>1355.5999999999999</ele>
        <time>2012-09-18T05:53:29Z</time>
      </trkpt>
      <trkpt lat="45.758352354168892" lon="7.973442217335105">
        <ele>1354.6300000000001</ele>
        <time>2012-09-18T05:53:22Z</time>
      </trkpt>
      <trkpt lat="45.758404992520809" lon="7.973606251180172">
        <ele>1353.6700000000001</ele>
        <time>2012-09-18T05:53:11Z</time>
      </trkpt>
      <trkpt lat="45.758483782410622" lon="7.973744887858629">
        <ele>1353.6700000000001</ele>
        <time>2012-09-18T05:52:58Z</time>
      </trkpt>
      <trkpt lat="45.758517980575562" lon="7.973828790709376">
        <ele>1354.6300000000001</ele>
        <time>2012-09-18T05:52:51Z</time>
      </trkpt>
      <trkpt lat="45.758535582572222" lon="7.973886039108038">
        <ele>1355.5999999999999</ele>
        <time>2012-09-18T05:52:47Z</time>
      </trkpt>
      <trkpt lat="45.758576234802604" lon="7.973993495106697">
        <ele>1357.52</ele>
        <time>2012-09-18T05:52:38Z</time>
      </trkpt>
      <trkpt lat="45.758609175682068" lon="7.974112266674638">
        <ele>1357.04</ele>
        <time>2012-09-18T05:52:29Z</time>
      </trkpt>
      <trkpt lat="45.758644044399261" lon="7.974183512851596">
        <ele>1355.5999999999999</ele>
        <time>2012-09-18T05:52:23Z</time>
      </trkpt>
      <trkpt lat="45.758689222857356" lon="7.974206563085318">
        <ele>1355.5999999999999</ele>
        <time>2012-09-18T05:52:19Z</time>
      </trkpt>
      <trkpt lat="45.758750410750508" lon="7.974237324669957">
        <ele>1357.04</ele>
        <time>2012-09-18T05:52:13Z</time>
      </trkpt>
      <trkpt lat="45.758781675249338" lon="7.974228104576469">
        <ele>1356.5599999999999</ele>
        <time>2012-09-18T05:52:10Z</time>
      </trkpt>
      <trkpt lat="45.758800115436316" lon="7.974238665774465">
        <ele>1356.0799999999999</ele>
        <time>2012-09-18T05:52:08Z</time>
      </trkpt>
      <trkpt lat="45.758810760453343" lon="7.974248556420207">
        <ele>1356.0799999999999</ele>
        <time>2012-09-18T05:52:07Z</time>
      </trkpt>
      <trkpt lat="45.758831547573209" lon="7.974266828969121">
        <ele>1355.1199999999999</ele>
        <time>2012-09-18T05:52:03Z</time>
      </trkpt>
      <trkpt lat="45.758854765444994" lon="7.974282084032893">
        <ele>1355.1199999999999</ele>
        <time>2012-09-18T05:52:00Z</time>
      </trkpt>
      <trkpt lat="45.758843785151839" lon="7.974406890571117">
        <ele>1356.0799999999999</ele>
        <time>2012-09-18T05:51:51Z</time>
      </trkpt>
      <trkpt lat="45.758852083235979" lon="7.974458439275622">
        <ele>1356.0799999999999</ele>
        <time>2012-09-18T05:51:48Z</time>
      </trkpt>
      <trkpt lat="45.758880330249667" lon="7.974565057083964">
        <ele>1356.0799999999999</ele>
        <time>2012-09-18T05:51:39Z</time>
      </trkpt>
      <trkpt lat="45.75893959030509" lon="7.974629933014512">
        <ele>1355.5999999999999</ele>
        <time>2012-09-18T05:51:31Z</time>
      </trkpt>
      <trkpt lat="45.758991558104753" lon="7.974716769531369">
        <ele>1355.5999999999999</ele>
        <time>2012-09-18T05:51:24Z</time>
      </trkpt>
      <trkpt lat="45.759020978584886" lon="7.974738897755742">
        <ele>1355.5999999999999</ele>
        <time>2012-09-18T05:51:20Z</time>
      </trkpt>
      <trkpt lat="45.759099936112761" lon="7.97476077452302">
        <ele>1352.71</ele>
        <time>2012-09-18T05:51:08Z</time>
      </trkpt>
      <trkpt lat="45.759126171469688" lon="7.974766055122018">
        <ele>1352.23</ele>
        <time>2012-09-18T05:51:04Z</time>
      </trkpt>
      <trkpt lat="45.759216779842973" lon="7.974780891090632">
        <ele>1349.3499999999999</ele>
        <time>2012-09-18T05:50:50Z</time>
      </trkpt>
      <trkpt lat="45.759321134537458" lon="7.974789775907993">
        <ele>1346.9400000000001</ele>
        <time>2012-09-18T05:50:35Z</time>
      </trkpt>
      <trkpt lat="45.759418699890375" lon="7.974811652675271">
        <ele>1343.5799999999999</ele>
        <time>2012-09-18T05:50:21Z</time>
      </trkpt>
      <trkpt lat="45.759431524202228" lon="7.974838055670261">
        <ele>1342.6199999999999</ele>
        <time>2012-09-18T05:49:56Z</time>
      </trkpt>
      <trkpt lat="45.759431524202228" lon="7.974838055670261">
        <ele>1343.5799999999999</ele>
        <time>2012-09-18T05:49:54Z</time>
      </trkpt>
      <trkpt lat="45.759431524202228" lon="7.974838055670261">
        <ele>1342.1400000000001</ele>
        <time>2012-09-18T05:49:52Z</time>
      </trkpt>
      <trkpt lat="45.759433787316084" lon="7.974823722615838">
        <ele>1342.1400000000001</ele>
        <time>2012-09-18T05:49:35Z</time>
      </trkpt>
      <trkpt lat="45.759432027116418" lon="7.974824560806155">
        <ele>1342.1400000000001</ele>
        <time>2012-09-18T05:49:14Z</time>
      </trkpt>
      <trkpt lat="45.75943068601191" lon="7.974832858890295">
        <ele>1341.1800000000001</ele>
        <time>2012-09-18T05:49:12Z</time>
      </trkpt>
      <trkpt lat="45.759419705718756" lon="7.974857166409493">
        <ele>1341.1800000000001</ele>
        <time>2012-09-18T05:48:43Z</time>
      </trkpt>
      <trkpt lat="45.759419705718756" lon="7.974857166409493">
        <ele>1341.6600000000001</ele>
        <time>2012-09-18T05:48:32Z</time>
      </trkpt>
      <trkpt lat="45.7594692427665" lon="7.974893040955067">
        <ele>1339.73</ele>
        <time>2012-09-18T05:48:19Z</time>
      </trkpt>
      <trkpt lat="45.759606873616576" lon="7.975059086456895">
        <ele>1336.8499999999999</ele>
        <time>2012-09-18T05:48:02Z</time>
      </trkpt>
      <trkpt lat="45.759652303531766" lon="7.975169140845537">
        <ele>1335.8900000000001</ele>
        <time>2012-09-18T05:47:55Z</time>
      </trkpt>
      <trkpt lat="45.75965154916048" lon="7.97519369982183">
        <ele>1335.8900000000001</ele>
        <time>2012-09-18T05:47:53Z</time>
      </trkpt>
      <trkpt lat="45.759681304916739" lon="7.975285314023495">
        <ele>1333.49</ele>
        <time>2012-09-18T05:47:44Z</time>
      </trkpt>
      <trkpt lat="45.75975950807333" lon="7.97545705921948">
        <ele>1333.01</ele>
        <time>2012-09-18T05:47:31Z</time>
      </trkpt>
      <trkpt lat="45.759751545265317" lon="7.975510116666555">
        <ele>1331.5599999999999</ele>
        <time>2012-09-18T05:47:23Z</time>
      </trkpt>
      <trkpt lat="45.759740816429257" lon="7.975522521883249">
        <ele>1330.5999999999999</ele>
        <time>2012-09-18T05:47:20Z</time>
      </trkpt>
      <trkpt lat="45.759735284373164" lon="7.975551355630159">
        <ele>1330.5999999999999</ele>
        <time>2012-09-18T05:47:18Z</time>
      </trkpt>
      <trkpt lat="45.759807955473661" lon="7.975834328681231">
        <ele>1330.1199999999999</ele>
        <time>2012-09-18T05:47:06Z</time>
      </trkpt>
      <trkpt lat="45.759850954636931" lon="7.976020993664861">
        <ele>1328.2</ele>
        <time>2012-09-18T05:46:53Z</time>
      </trkpt>
      <trkpt lat="45.759850535541773" lon="7.976128030568361">
        <ele>1326.28</ele>
        <time>2012-09-18T05:46:43Z</time>
      </trkpt>
      <trkpt lat="45.759859001263976" lon="7.976159630343318">
        <ele>1326.28</ele>
        <time>2012-09-18T05:46:41Z</time>
      </trkpt>
      <trkpt lat="45.759873921051621" lon="7.976281503215432">
        <ele>1323.8699999999999</ele>
        <time>2012-09-18T05:46:29Z</time>
      </trkpt>
      <trkpt lat="45.759857492521405" lon="7.976291142404079">
        <ele>1323.8699999999999</ele>
        <time>2012-09-18T05:46:27Z</time>
      </trkpt>
      <trkpt lat="45.759765459224582" lon="7.976307570934296">
        <ele>1320.99</ele>
        <time>2012-09-18T05:46:14Z</time>
      </trkpt>
      <trkpt lat="45.759702092036605" lon="7.97634151764214">
        <ele>1317.6199999999999</ele>
        <time>2012-09-18T05:46:01Z</time>
      </trkpt>
      <trkpt lat="45.759656997397542" lon="7.976399855688214">
        <ele>1316.6600000000001</ele>
        <time>2012-09-18T05:45:55Z</time>
      </trkpt>
      <trkpt lat="45.759641071781516" lon="7.976407231763005">
        <ele>1316.6600000000001</ele>
        <time>2012-09-18T05:45:53Z</time>
      </trkpt>
      <trkpt lat="45.759637383744121" lon="7.976414859294891">
        <ele>1315.7</ele>
        <time>2012-09-18T05:45:26Z</time>
      </trkpt>
      <trkpt lat="45.759643251076341" lon="7.976495074108243">
        <ele>1315.7</ele>
        <time>2012-09-18T05:45:09Z</time>
      </trkpt>
      <trkpt lat="45.759700834751129" lon="7.976659275591373">
        <ele>1314.26</ele>
        <time>2012-09-18T05:44:58Z</time>
      </trkpt>
      <trkpt lat="45.759747354313731" lon="7.976778214797378">
        <ele>1312.8199999999999</ele>
        <time>2012-09-18T05:44:51Z</time>
      </trkpt>
      <trkpt lat="45.759823294356465" lon="7.976989606395364">
        <ele>1310.9000000000001</ele>
        <time>2012-09-18T05:44:38Z</time>
      </trkpt>
      <trkpt lat="45.759867718443274" lon="7.97701483592391">
        <ele>1309.9300000000001</ele>
        <time>2012-09-18T05:44:34Z</time>
      </trkpt>
      <trkpt lat="45.7599095441401" lon="7.977120028808713">
        <ele>1309.45</ele>
        <time>2012-09-18T05:44:28Z</time>
      </trkpt>
      <trkpt lat="45.75994810089469" lon="7.977193873375654">
        <ele>1308.01</ele>
        <time>2012-09-18T05:44:23Z</time>
      </trkpt>
      <trkpt lat="45.759976264089346" lon="7.97728749923408">
        <ele>1307.53</ele>
        <time>2012-09-18T05:44:17Z</time>
      </trkpt>
      <trkpt lat="45.760001074522734" lon="7.977356985211372">
        <ele>1306.0899999999999</ele>
        <time>2012-09-18T05:44:09Z</time>
      </trkpt>
      <trkpt lat="45.760021861642599" lon="7.977412389591336">
        <ele>1306.0899999999999</ele>
        <time>2012-09-18T05:43:54Z</time>
      </trkpt>
      <trkpt lat="45.760040050372481" lon="7.977462010458112">
        <ele>1306.0899999999999</ele>
        <time>2012-09-18T05:43:51Z</time>
      </trkpt>
      <trkpt lat="45.760049354285002" lon="7.977481875568628">
        <ele>1306.5699999999999</ele>
        <time>2012-09-18T05:43:50Z</time>
      </trkpt>
      <trkpt lat="45.760128563269973" lon="7.977430075407028">
        <ele>1308.01</ele>
        <time>2012-09-18T05:43:41Z</time>
      </trkpt>
      <trkpt lat="45.760128563269973" lon="7.977430075407028">
        <ele>1308.01</ele>
        <time>2012-09-18T05:43:20Z</time>
      </trkpt>
      <trkpt lat="45.760111128911376" lon="7.977490425109863">
        <ele>1307.05</ele>
        <time>2012-09-18T05:43:07Z</time>
      </trkpt>
      <trkpt lat="45.760109033435583" lon="7.977499309927225">
        <ele>1306.5699999999999</ele>
        <time>2012-09-18T05:42:52Z</time>
      </trkpt>
      <trkpt lat="45.760094113647938" lon="7.977566029876471">
        <ele>1306.0899999999999</ele>
        <time>2012-09-18T05:42:39Z</time>
      </trkpt>
      <trkpt lat="45.760140717029572" lon="7.977643562480807">
        <ele>1304.6500000000001</ele>
        <time>2012-09-18T05:42:26Z</time>
      </trkpt>
      <trkpt lat="45.760220680385828" lon="7.977731069549918">
        <ele>1303.2</ele>
        <time>2012-09-18T05:42:13Z</time>
      </trkpt>
      <trkpt lat="45.7602549623698" lon="7.977816062048078">
        <ele>1301.76</ele>
        <time>2012-09-18T05:42:05Z</time>
      </trkpt>
      <trkpt lat="45.760249933227897" lon="7.977844141423702">
        <ele>1301.76</ele>
        <time>2012-09-18T05:42:03Z</time>
      </trkpt>
      <trkpt lat="45.760285388678312" lon="7.977882279083133">
        <ele>1302.24</ele>
        <time>2012-09-18T05:41:57Z</time>
      </trkpt>
      <trkpt lat="45.760317407548428" lon="7.977933073416352">
        <ele>1302.24</ele>
        <time>2012-09-18T05:41:51Z</time>
      </trkpt>
      <trkpt lat="45.760352192446589" lon="7.978039942681789">
        <ele>1300.3199999999999</ele>
        <time>2012-09-18T05:41:37Z</time>
      </trkpt>
      <trkpt lat="45.760422013700008" lon="7.978234905749559">
        <ele>1298.8800000000001</ele>
        <time>2012-09-18T05:41:21Z</time>
      </trkpt>
      <trkpt lat="45.760480267927051" lon="7.978317886590958">
        <ele>1297.4400000000001</ele>
        <time>2012-09-18T05:41:08Z</time>
      </trkpt>
      <trkpt lat="45.760492505505681" lon="7.978320820257068">
        <ele>1296.96</ele>
        <time>2012-09-18T05:41:06Z</time>
      </trkpt>
      <trkpt lat="45.760568361729383" lon="7.978395838290453">
        <ele>1295.51</ele>
        <time>2012-09-18T05:40:53Z</time>
      </trkpt>
      <trkpt lat="45.760593339800835" lon="7.978409081697464">
        <ele>1295.03</ele>
        <time>2012-09-18T05:40:50Z</time>
      </trkpt>
      <trkpt lat="45.760640613734722" lon="7.978491727262735">
        <ele>1293.5899999999999</ele>
        <time>2012-09-18T05:40:40Z</time>
      </trkpt>
      <trkpt lat="45.760752595961094" lon="7.978578815236688">
        <ele>1293.1099999999999</ele>
        <time>2012-09-18T05:40:24Z</time>
      </trkpt>
      <trkpt lat="45.760791236534715" lon="7.978582251816988">
        <ele>1293.1099999999999</ele>
        <time>2012-09-18T05:40:20Z</time>
      </trkpt>
      <trkpt lat="45.760828536003828" lon="7.978619048371911">
        <ele>1293.1099999999999</ele>
        <time>2012-09-18T05:40:14Z</time>
      </trkpt>
      <trkpt lat="45.760857369750738" lon="7.978632794693112">
        <ele>1293.1099999999999</ele>
        <time>2012-09-18T05:40:11Z</time>
      </trkpt>
      <trkpt lat="45.760883521288633" lon="7.978625167161226">
        <ele>1293.1099999999999</ele>
        <time>2012-09-18T05:40:09Z</time>
      </trkpt>
      <trkpt lat="45.760962730273604" lon="7.978667160496116">
        <ele>1292.6300000000001</ele>
        <time>2012-09-18T05:39:58Z</time>
      </trkpt>
      <trkpt lat="45.761014362797141" lon="7.978710159659386">
        <ele>1292.6300000000001</ele>
        <time>2012-09-18T05:39:49Z</time>
      </trkpt>
      <trkpt lat="45.761029198765755" lon="7.978715607896447">
        <ele>1290.71</ele>
        <time>2012-09-18T05:39:44Z</time>
      </trkpt>
      <trkpt lat="45.761095751076937" lon="7.978796996176243">
        <ele>1289.27</ele>
        <time>2012-09-18T05:39:28Z</time>
      </trkpt>
      <trkpt lat="45.761180324479938" lon="7.978857597336173">
        <ele>1288.3</ele>
        <time>2012-09-18T05:39:15Z</time>
      </trkpt>
      <trkpt lat="45.761241093277931" lon="7.97894736751914">
        <ele>1287.3399999999999</ele>
        <time>2012-09-18T05:39:05Z</time>
      </trkpt>
      <trkpt lat="45.761254588142037" lon="7.978968406096101">
        <ele>1287.3399999999999</ele>
        <time>2012-09-18T05:39:03Z</time>
      </trkpt>
      <trkpt lat="45.761361960321665" lon="7.97900210134685">
        <ele>1286.3800000000001</ele>
        <time>2012-09-18T05:38:51Z</time>
      </trkpt>
      <trkpt lat="45.761439073830843" lon="7.979052979499102">
        <ele>1284.9400000000001</ele>
        <time>2012-09-18T05:38:36Z</time>
      </trkpt>
      <trkpt lat="45.761475618928671" lon="7.979097822681069">
        <ele>1283.5</ele>
        <time>2012-09-18T05:38:29Z</time>
      </trkpt>
      <trkpt lat="45.761530939489603" lon="7.979188514873385">
        <ele>1282.0599999999999</ele>
        <time>2012-09-18T05:38:16Z</time>
      </trkpt>
      <trkpt lat="45.761621547862887" lon="7.979310639202595">
        <ele>1280.1300000000001</ele>
        <time>2012-09-18T05:38:01Z</time>
      </trkpt>
      <trkpt lat="45.761688854545355" lon="7.979386663064361">
        <ele>1280.6099999999999</ele>
        <time>2012-09-18T05:37:50Z</time>
      </trkpt>
      <trkpt lat="45.761723723262548" lon="7.979457909241319">
        <ele>1279.1700000000001</ele>
        <time>2012-09-18T05:37:44Z</time>
      </trkpt>
      <trkpt lat="45.761760687455535" lon="7.979519013315439">
        <ele>1278.6900000000001</ele>
        <time>2012-09-18T05:37:37Z</time>
      </trkpt>
      <trkpt lat="45.761793879792094" lon="7.979645663872361">
        <ele>1277.25</ele>
        <time>2012-09-18T05:37:24Z</time>
      </trkpt>
      <trkpt lat="45.761839728802443" lon="7.979688411578536">
        <ele>1276.77</ele>
        <time>2012-09-18T05:37:19Z</time>
      </trkpt>
      <trkpt lat="45.761877363547683" lon="7.979739205911756">
        <ele>1275.3299999999999</ele>
        <time>2012-09-18T05:37:08Z</time>
      </trkpt>
      <trkpt lat="45.761898318305612" lon="7.97976728528738">
        <ele>1275.3299999999999</ele>
        <time>2012-09-18T05:37:04Z</time>
      </trkpt>
      <trkpt lat="45.761866634711623" lon="7.979931905865669">
        <ele>1274.3599999999999</ele>
        <time>2012-09-18T05:36:50Z</time>
      </trkpt>
      <trkpt lat="45.76185523532331" lon="7.979952273890376">
        <ele>1274.3599999999999</ele>
        <time>2012-09-18T05:36:48Z</time>
      </trkpt>
      <trkpt lat="45.761847691610456" lon="7.979997955262661">
        <ele>1273.8800000000001</ele>
        <time>2012-09-18T05:36:45Z</time>
      </trkpt>
      <trkpt lat="45.761847607791424" lon="7.980029890313745">
        <ele>1273.8800000000001</ele>
        <time>2012-09-18T05:36:42Z</time>
      </trkpt>
      <trkpt lat="45.76186110265553" lon="7.980125611647964">
        <ele>1272.9200000000001</ele>
        <time>2012-09-18T05:36:34Z</time>
      </trkpt>
      <trkpt lat="45.761866634711623" lon="7.980207754299045">
        <ele>1272.4400000000001</ele>
        <time>2012-09-18T05:36:28Z</time>
      </trkpt>
      <trkpt lat="45.761900246143341" lon="7.980333147570491">
        <ele>1271</ele>
        <time>2012-09-18T05:36:15Z</time>
      </trkpt>
      <trkpt lat="45.761935533955693" lon="7.980384025722742">
        <ele>1270.52</ele>
        <time>2012-09-18T05:36:09Z</time>
      </trkpt>
      <trkpt lat="45.761983981356025" lon="7.980470778420568">
        <ele>1269.0799999999999</ele>
        <time>2012-09-18T05:35:59Z</time>
      </trkpt>
      <trkpt lat="45.762001164257526" lon="7.980492068454623">
        <ele>1267.6400000000001</ele>
        <time>2012-09-18T05:35:57Z</time>
      </trkpt>
      <trkpt lat="45.762031842023134" lon="7.980517717078328">
        <ele>1267.6400000000001</ele>
        <time>2012-09-18T05:35:52Z</time>
      </trkpt>
      <trkpt lat="45.762106273323298" lon="7.980557614937425">
        <ele>1267.6400000000001</ele>
        <time>2012-09-18T05:35:43Z</time>
      </trkpt>
      <trkpt lat="45.762122366577387" lon="7.980640595778823">
        <ele>1267.1600000000001</ele>
        <time>2012-09-18T05:35:37Z</time>
      </trkpt>
      <trkpt lat="45.762118091806769" lon="7.980670938268304">
        <ele>1266.6700000000001</ele>
        <time>2012-09-18T05:35:35Z</time>
      </trkpt>
      <trkpt lat="45.762214316055179" lon="7.980785183608532">
        <ele>1264.75</ele>
        <time>2012-09-18T05:35:20Z</time>
      </trkpt>
      <trkpt lat="45.762222614139318" lon="7.980809239670634">
        <ele>1264.75</ele>
        <time>2012-09-18T05:35:18Z</time>
      </trkpt>
      <trkpt lat="45.762298302724957" lon="7.980834720656276">
        <ele>1263.3099999999999</ele>
        <time>2012-09-18T05:35:08Z</time>
      </trkpt>
      <trkpt lat="45.762318754568696" lon="7.980883000418544">
        <ele>1261.8699999999999</ele>
        <time>2012-09-18T05:35:02Z</time>
      </trkpt>
      <trkpt lat="45.762331830337644" lon="7.980911079794169">
        <ele>1261.3900000000001</ele>
        <time>2012-09-18T05:34:58Z</time>
      </trkpt>
      <trkpt lat="45.762332919985056" lon="7.98092189244926">
        <ele>1261.3900000000001</ele>
        <time>2012-09-18T05:34:57Z</time>
      </trkpt>
      <trkpt lat="45.76235949061811" lon="7.981074610725045">
        <ele>1259.9400000000001</ele>
        <time>2012-09-18T05:34:43Z</time>
      </trkpt>
      <trkpt lat="45.762412548065186" lon="7.981140073388815">
        <ele>1258.5</ele>
        <time>2012-09-18T05:34:35Z</time>
      </trkpt>
      <trkpt lat="45.762443812564015" lon="7.981190280988812">
        <ele>1258.5</ele>
        <time>2012-09-18T05:34:29Z</time>
      </trkpt>
      <trkpt lat="45.762557806447148" lon="7.981292121112347">
        <ele>1256.0999999999999</ele>
        <time>2012-09-18T05:34:13Z</time>
      </trkpt>
      <trkpt lat="45.762590831145644" lon="7.981345765292645">
        <ele>1255.1400000000001</ele>
        <time>2012-09-18T05:34:07Z</time>
      </trkpt>
      <trkpt lat="45.762600973248482" lon="7.981383483856916">
        <ele>1254.6600000000001</ele>
        <time>2012-09-18T05:34:04Z</time>
      </trkpt>
      <trkpt lat="45.762609522789717" lon="7.981408210471273">
        <ele>1254.6600000000001</ele>
        <time>2012-09-18T05:34:02Z</time>
      </trkpt>
      <trkpt lat="45.762716392055154" lon="7.981545925140381">
        <ele>1253.22</ele>
        <time>2012-09-18T05:33:47Z</time>
      </trkpt>
      <trkpt lat="45.762733574956656" lon="7.981554809957743">
        <ele>1251.77</ele>
        <time>2012-09-18T05:33:45Z</time>
      </trkpt>
      <trkpt lat="45.76280515640974" lon="7.981571741402149">
        <ele>1250.8099999999999</ele>
        <time>2012-09-18T05:33:35Z</time>
      </trkpt>
      <trkpt lat="45.762822926044464" lon="7.981593199074268">
        <ele>1250.8099999999999</ele>
        <time>2012-09-18T05:33:32Z</time>
      </trkpt>
      <trkpt lat="45.762850837782025" lon="7.981685064733028">
        <ele>1249.8499999999999</ele>
        <time>2012-09-18T05:33:24Z</time>
      </trkpt>
      <trkpt lat="45.762877911329269" lon="7.981720855459571">
        <ele>1249.3699999999999</ele>
        <time>2012-09-18T05:33:20Z</time>
      </trkpt>
      <trkpt lat="45.762889897450805" lon="7.981786737218499">
        <ele>1248.4100000000001</ele>
        <time>2012-09-18T05:33:14Z</time>
      </trkpt>
      <trkpt lat="45.762956868857145" lon="7.981992932036519">
        <ele>1246.49</ele>
        <time>2012-09-18T05:32:57Z</time>
      </trkpt>
      <trkpt lat="45.762982601299882" lon="7.982044229283929">
        <ele>1246.49</ele>
        <time>2012-09-18T05:32:53Z</time>
      </trkpt>
      <trkpt lat="45.762999868020415" lon="7.982060741633177">
        <ele>1246.49</ele>
        <time>2012-09-18T05:32:51Z</time>
      </trkpt>
      <trkpt lat="45.763108916580677" lon="7.982178339734674">
        <ele>1245.04</ele>
        <time>2012-09-18T05:32:34Z</time>
      </trkpt>
      <trkpt lat="45.763140516355634" lon="7.982216309756041">
        <ele>1244.5599999999999</ele>
        <time>2012-09-18T05:32:29Z</time>
      </trkpt>
      <trkpt lat="45.763181084766984" lon="7.982299039140344">
        <ele>1243.1199999999999</ele>
        <time>2012-09-18T05:32:21Z</time>
      </trkpt>
      <trkpt lat="45.763280410319567" lon="7.982410518452525">
        <ele>1241.2</ele>
        <time>2012-09-18T05:32:06Z</time>
      </trkpt>
      <trkpt lat="45.763336401432753" lon="7.982490146532655">
        <ele>1241.2</ele>
        <time>2012-09-18T05:31:59Z</time>
      </trkpt>
      <trkpt lat="45.763492053374648" lon="7.982672620564699">
        <ele>1241.2</ele>
        <time>2012-09-18T05:31:41Z</time>
      </trkpt>
      <trkpt lat="45.763500519096851" lon="7.982713105157018">
        <ele>1240.24</ele>
        <time>2012-09-18T05:31:38Z</time>
      </trkpt>
      <trkpt lat="45.763532537966967" lon="7.982770940288901">
        <ele>1239.76</ele>
        <time>2012-09-18T05:31:31Z</time>
      </trkpt>
      <trkpt lat="45.763615602627397" lon="7.982888957485557">
        <ele>1237.8299999999999</ele>
        <time>2012-09-18T05:31:17Z</time>
      </trkpt>
      <trkpt lat="45.763758849352598" lon="7.983077047392726">
        <ele>1235.9100000000001</ele>
        <time>2012-09-18T05:31:00Z</time>
      </trkpt>
      <trkpt lat="45.76377309858799" lon="7.983107138425112">
        <ele>1235.9100000000001</ele>
        <time>2012-09-18T05:30:58Z</time>
      </trkpt>
      <trkpt lat="45.763794640079141" lon="7.983158770948649">
        <ele>1235.9100000000001</ele>
        <time>2012-09-18T05:30:54Z</time>
      </trkpt>
      <trkpt lat="45.763851469382644" lon="7.983424980193377">
        <ele>1233.03</ele>
        <time>2012-09-18T05:30:38Z</time>
      </trkpt>
      <trkpt lat="45.763894552364945" lon="7.983603095635772">
        <ele>1231.1099999999999</ele>
        <time>2012-09-18T05:30:28Z</time>
      </trkpt>
      <trkpt lat="45.763928666710854" lon="7.983670318499208">
        <ele>1231.1099999999999</ele>
        <time>2012-09-18T05:30:23Z</time>
      </trkpt>
      <trkpt lat="45.763967055827379" lon="7.983738631010056">
        <ele>1231.5899999999999</ele>
        <time>2012-09-18T05:30:06Z</time>
      </trkpt>
      <trkpt lat="45.763979041948915" lon="7.98376377671957">
        <ele>1233.03</ele>
        <time>2012-09-18T05:29:56Z</time>
      </trkpt>
      <trkpt lat="45.763999242335558" lon="7.983752209693193">
        <ele>1231.5899999999999</ele>
        <time>2012-09-18T05:29:47Z</time>
      </trkpt>
      <trkpt lat="45.764084737747908" lon="7.983792861923575">
        <ele>1230.6199999999999</ele>
        <time>2012-09-18T05:29:32Z</time>
      </trkpt>
      <trkpt lat="45.764123294502497" lon="7.983827730640769">
        <ele>1229.6600000000001</ele>
        <time>2012-09-18T05:29:27Z</time>
      </trkpt>
      <trkpt lat="45.764139806851745" lon="7.983856648206711">
        <ele>1229.6600000000001</ele>
        <time>2012-09-18T05:29:24Z</time>
      </trkpt>
      <trkpt lat="45.764192529022694" lon="7.984003834426403">
        <ele>1228.7</ele>
        <time>2012-09-18T05:29:07Z</time>
      </trkpt>
      <trkpt lat="45.764220859855413" lon="7.984070722013712">
        <ele>1228.22</ele>
        <time>2012-09-18T05:29:01Z</time>
      </trkpt>
      <trkpt lat="45.764238210394979" lon="7.984130484983325">
        <ele>1228.22</ele>
        <time>2012-09-18T05:28:35Z</time>
      </trkpt>
      <trkpt lat="45.764251034706831" lon="7.984156804159284">
        <ele>1228.22</ele>
        <time>2012-09-18T05:28:16Z</time>
      </trkpt>
      <trkpt lat="45.764258578419685" lon="7.984183793887496">
        <ele>1227.74</ele>
        <time>2012-09-18T05:27:59Z</time>
      </trkpt>
      <trkpt lat="45.764359915629029" lon="7.984346654266119">
        <ele>1227.26</ele>
        <time>2012-09-18T05:27:44Z</time>
      </trkpt>
      <trkpt lat="45.764421857893467" lon="7.984362915158272">
        <ele>1224.3800000000001</ele>
        <time>2012-09-18T05:27:36Z</time>
      </trkpt>
      <trkpt lat="45.764488996937871" lon="7.984424941241741">
        <ele>1222.9300000000001</ele>
        <time>2012-09-18T05:27:27Z</time>
      </trkpt>
      <trkpt lat="45.764616904780269" lon="7.984569780528545">
        <ele>1221.01</ele>
        <time>2012-09-18T05:27:11Z</time>
      </trkpt>
      <trkpt lat="45.764634506776929" lon="7.984580425545573">
        <ele>1221.01</ele>
        <time>2012-09-18T05:27:07Z</time>
      </trkpt>
      <trkpt lat="45.764734754338861" lon="7.984642451629043">
        <ele>1219.0899999999999</ele>
        <time>2012-09-18T05:26:53Z</time>
      </trkpt>
      <trkpt lat="45.764841036871076" lon="7.984759043902159">
        <ele>1218.1300000000001</ele>
        <time>2012-09-18T05:26:38Z</time>
      </trkpt>
      <trkpt lat="45.764841036871076" lon="7.984771616756916">
        <ele>1216.21</ele>
        <time>2012-09-18T05:26:31Z</time>
      </trkpt>
      <trkpt lat="45.764841623604298" lon="7.984783351421356">
        <ele>1218.1300000000001</ele>
        <time>2012-09-18T05:26:27Z</time>
      </trkpt>
      <trkpt lat="45.764841623604298" lon="7.984783351421356">
        <ele>1218.1300000000001</ele>
        <time>2012-09-18T05:26:26Z</time>
      </trkpt>
      <trkpt lat="45.764841623604298" lon="7.984783351421356">
        <ele>1197.9400000000001</ele>
        <time>2012-09-18T05:26:24Z</time>
      </trkpt>
      <trkpt lat="45.764841036871076" lon="7.984784105792642">
        <ele>1197.9400000000001</ele>
        <time>2012-09-18T05:25:57Z</time>
      </trkpt>
      <trkpt lat="45.764844054356217" lon="7.98479232005775">
        <ele>1197.9400000000001</ele>
        <time>2012-09-18T05:25:38Z</time>
      </trkpt>
      <trkpt lat="45.764881940558553" lon="7.98482165671885">
        <ele>1196.98</ele>
        <time>2012-09-18T05:25:22Z</time>
      </trkpt>
      <trkpt lat="45.764894429594278" lon="7.98483531922102">
        <ele>1196.98</ele>
        <time>2012-09-18T05:25:16Z</time>
      </trkpt>
      <trkpt lat="45.764957796782255" lon="7.984888292849064">
        <ele>1194.0899999999999</ele>
        <time>2012-09-18T05:25:01Z</time>
      </trkpt>
      <trkpt lat="45.765090733766556" lon="7.984948139637709">
        <ele>1192.1700000000001</ele>
        <time>2012-09-18T05:24:45Z</time>
      </trkpt>
      <trkpt lat="45.765127949416637" lon="7.984972866252065">
        <ele>1190.73</ele>
        <time>2012-09-18T05:24:40Z</time>
      </trkpt>
      <trkpt lat="45.765203721821308" lon="7.985062971711159">
        <ele>1189.77</ele>
        <time>2012-09-18T05:24:26Z</time>
      </trkpt>
      <trkpt lat="45.765261808410287" lon="7.985143605619669">
        <ele>1187.3699999999999</ele>
        <time>2012-09-18T05:24:13Z</time>
      </trkpt>
      <trkpt lat="45.765318553894758" lon="7.985209319740534">
        <ele>1184.96</ele>
        <time>2012-09-18T05:23:59Z</time>
      </trkpt>
      <trkpt lat="45.765507314354181" lon="7.985336976125836">
        <ele>1184.96</ele>
        <time>2012-09-18T05:23:42Z</time>
      </trkpt>
      <trkpt lat="45.765535729005933" lon="7.985361199826002">
        <ele>1182.5599999999999</ele>
        <time>2012-09-18T05:23:40Z</time>
      </trkpt>
      <trkpt lat="45.765661876648664" lon="7.98545147292316">
        <ele>1181.1199999999999</ele>
        <time>2012-09-18T05:23:29Z</time>
      </trkpt>
      <trkpt lat="45.765731781721115" lon="7.985540237277746">
        <ele>1179.1900000000001</ele>
        <time>2012-09-18T05:23:20Z</time>
      </trkpt>
      <trkpt lat="45.765758939087391" lon="7.985595474019647">
        <ele>1179.1900000000001</ele>
        <time>2012-09-18T05:23:12Z</time>
      </trkpt>
      <trkpt lat="45.765882236883044" lon="7.98574517481029">
        <ele>1176.79</ele>
        <time>2012-09-18T05:22:56Z</time>
      </trkpt>
      <trkpt lat="45.765931438654661" lon="7.985820444300771">
        <ele>1176.3099999999999</ele>
        <time>2012-09-18T05:22:51Z</time>
      </trkpt>
      <trkpt lat="45.765963708981872" lon="7.985850619152188">
        <ele>1175.8299999999999</ele>
        <time>2012-09-18T05:22:48Z</time>
      </trkpt>
      <trkpt lat="45.766038475558162" lon="7.985938126221299">
        <ele>1175.3499999999999</ele>
        <time>2012-09-18T05:22:40Z</time>
      </trkpt>
      <trkpt lat="45.766053646802902" lon="7.985964277759194">
        <ele>1174.8699999999999</ele>
        <time>2012-09-18T05:22:37Z</time>
      </trkpt>
      <trkpt lat="45.766053646802902" lon="7.985964277759194">
        <ele>1174.8699999999999</ele>
        <time>2012-09-18T05:22:15Z</time>
      </trkpt>
      <trkpt lat="45.766151463612914" lon="7.986092017963529">
        <ele>1173.9100000000001</ele>
        <time>2012-09-18T05:22:01Z</time>
      </trkpt>
      <trkpt lat="45.766188930720091" lon="7.986128646880388">
        <ele>1173.4300000000001</ele>
        <time>2012-09-18T05:21:56Z</time>
      </trkpt>
      <trkpt lat="45.766206700354815" lon="7.986137615516782">
        <ele>1173.4300000000001</ele>
        <time>2012-09-18T05:21:54Z</time>
      </trkpt>
      <trkpt lat="45.766223547980189" lon="7.986154798418284">
        <ele>1173.4300000000001</ele>
        <time>2012-09-18T05:21:52Z</time>
      </trkpt>
      <trkpt lat="45.766257662326097" lon="7.986194780096412">
        <ele>1173.4300000000001</ele>
        <time>2012-09-18T05:21:46Z</time>
      </trkpt>
      <trkpt lat="45.76629395596683" lon="7.986245071515441">
        <ele>1173.4300000000001</ele>
        <time>2012-09-18T05:21:41Z</time>
      </trkpt>
      <trkpt lat="45.766343409195542" lon="7.986317910254002">
        <ele>1171.02</ele>
        <time>2012-09-18T05:21:33Z</time>
      </trkpt>
      <trkpt lat="45.766474585980177" lon="7.986532403156161">
        <ele>1170.0599999999999</ele>
        <time>2012-09-18T05:21:15Z</time>
      </trkpt>
      <trkpt lat="45.766493361443281" lon="7.986553190276027">
        <ele>1170.0599999999999</ele>
        <time>2012-09-18T05:21:13Z</time>
      </trkpt>
      <trkpt lat="45.766543485224247" lon="7.986667100340128">
        <ele>1169.0999999999999</ele>
        <time>2012-09-18T05:21:04Z</time>
      </trkpt>
      <trkpt lat="45.766566200181842" lon="7.986712446436286">
        <ele>1168.6199999999999</ele>
        <time>2012-09-18T05:20:59Z</time>
      </trkpt>
      <trkpt lat="45.766691593453288" lon="7.98687631264329">
        <ele>1167.6600000000001</ele>
        <time>2012-09-18T05:20:44Z</time>
      </trkpt>
      <trkpt lat="45.766707016155124" lon="7.986893076449633">
        <ele>1167.1800000000001</ele>
        <time>2012-09-18T05:20:42Z</time>
      </trkpt>
      <trkpt lat="45.766728222370148" lon="7.986935572698712">
        <ele>1167.1800000000001</ele>
        <time>2012-09-18T05:20:39Z</time>
      </trkpt>
      <trkpt lat="45.766838025301695" lon="7.987077729776502">
        <ele>1166.7</ele>
        <time>2012-09-18T05:20:28Z</time>
      </trkpt>
      <trkpt lat="45.766915054991841" lon="7.98717194236815">
        <ele>1165.74</ele>
        <time>2012-09-18T05:20:21Z</time>
      </trkpt>
      <trkpt lat="45.766935255378485" lon="7.987233800813556">
        <ele>1165.74</ele>
        <time>2012-09-18T05:20:17Z</time>
      </trkpt>
      <trkpt lat="45.766977500170469" lon="7.987343184649944">
        <ele>1165.74</ele>
        <time>2012-09-18T05:20:11Z</time>
      </trkpt>
      <trkpt lat="45.766988564282656" lon="7.987462710589171">
        <ele>1164.77</ele>
        <time>2012-09-18T05:20:00Z</time>
      </trkpt>
      <trkpt lat="45.766991665586829" lon="7.987502692267299">
        <ele>1164.77</ele>
        <time>2012-09-18T05:19:58Z</time>
      </trkpt>
      <trkpt lat="45.767040029168129" lon="7.987519623711705">
        <ele>1164.29</ele>
        <time>2012-09-18T05:19:53Z</time>
      </trkpt>
      <trkpt lat="45.76704690232873" lon="7.987525407224894">
        <ele>1163.8099999999999</ele>
        <time>2012-09-18T05:19:42Z</time>
      </trkpt>
      <trkpt lat="45.767089733853936" lon="7.987554576247931">
        <ele>1161.4100000000001</ele>
        <time>2012-09-18T05:19:35Z</time>
      </trkpt>
      <trkpt lat="45.767131140455604" lon="7.987651722505689">
        <ele>1160.9300000000001</ele>
        <time>2012-09-18T05:19:22Z</time>
      </trkpt>
      <trkpt lat="45.767219485715032" lon="7.987786754965782">
        <ele>1159.49</ele>
        <time>2012-09-18T05:19:07Z</time>
      </trkpt>
      <trkpt lat="45.76729902997613" lon="7.987898401916027">
        <ele>1158.53</ele>
        <time>2012-09-18T05:18:52Z</time>
      </trkpt>
      <trkpt lat="45.767324594780803" lon="7.987975431606174">
        <ele>1157.5599999999999</ele>
        <time>2012-09-18T05:18:46Z</time>
      </trkpt>
      <trkpt lat="45.76738603413105" lon="7.988156229257584">
        <ele>1156.1199999999999</ele>
        <time>2012-09-18T05:18:32Z</time>
      </trkpt>
      <trkpt lat="45.76739240437746" lon="7.988179614767432">
        <ele>1155.6400000000001</ele>
        <time>2012-09-18T05:18:30Z</time>
      </trkpt>
      <trkpt lat="45.767416208982468" lon="7.988312216475606">
        <ele>1154.6800000000001</ele>
        <time>2012-09-18T05:18:19Z</time>
      </trkpt>
      <trkpt lat="45.767471864819527" lon="7.988466694951057">
        <ele>1153.24</ele>
        <time>2012-09-18T05:18:05Z</time>
      </trkpt>
      <trkpt lat="45.767541937530041" lon="7.988596027716994">
        <ele>1150.8399999999999</ele>
        <time>2012-09-18T05:17:49Z</time>
      </trkpt>
      <trkpt lat="45.767545709386468" lon="7.988763581961393">
        <ele>1149.3900000000001</ele>
        <time>2012-09-18T05:17:34Z</time>
      </trkpt>
      <trkpt lat="45.767618967220187" lon="7.988905739039183">
        <ele>1147.95</ele>
        <time>2012-09-18T05:17:20Z</time>
      </trkpt>
      <trkpt lat="45.767643107101321" lon="7.988959299400449">
        <ele>1147.95</ele>
        <time>2012-09-18T05:17:15Z</time>
      </trkpt>
      <trkpt lat="45.767655596137047" lon="7.988981427624822">
        <ele>1147.47</ele>
        <time>2012-09-18T05:17:13Z</time>
      </trkpt>
      <trkpt lat="45.767703875899315" lon="7.989074885845184">
        <ele>1146.99</ele>
        <time>2012-09-18T05:17:06Z</time>
      </trkpt>
      <trkpt lat="45.767704546451569" lon="7.989182760939002">
        <ele>1146.99</ele>
        <time>2012-09-18T05:17:00Z</time>
      </trkpt>
      <trkpt lat="45.76773195527494" lon="7.989261634647846">
        <ele>1146.51</ele>
        <time>2012-09-18T05:16:53Z</time>
      </trkpt>
      <trkpt lat="45.7677529938519" lon="7.989362636581063">
        <ele>1146.03</ele>
        <time>2012-09-18T05:16:46Z</time>
      </trkpt>
      <trkpt lat="45.76777059584856" lon="7.989379903301597">
        <ele>1145.55</ele>
        <time>2012-09-18T05:16:44Z</time>
      </trkpt>
      <trkpt lat="45.76781552284956" lon="7.989503536373377">
        <ele>1144.1099999999999</ele>
        <time>2012-09-18T05:16:31Z</time>
      </trkpt>
      <trkpt lat="45.767953069880605" lon="7.98968450166285">
        <ele>1143.1400000000001</ele>
        <time>2012-09-18T05:16:14Z</time>
      </trkpt>
      <trkpt lat="45.768060106784105" lon="7.989754909649491">
        <ele>1141.7</ele>
        <time>2012-09-18T05:16:01Z</time>
      </trkpt>
      <trkpt lat="45.768098747357726" lon="7.989840824157">
        <ele>1139.78</ele>
        <time>2012-09-18T05:15:52Z</time>
      </trkpt>
      <trkpt lat="45.768182650208473" lon="7.989995889365673">
        <ele>1139.3</ele>
        <time>2012-09-18T05:15:37Z</time>
      </trkpt>
      <trkpt lat="45.768201677128673" lon="7.990060430020094">
        <ele>1137.8599999999999</ele>
        <time>2012-09-18T05:15:33Z</time>
      </trkpt>
      <trkpt lat="45.768304103985429" lon="7.990145422518253">
        <ele>1136.9000000000001</ele>
        <time>2012-09-18T05:15:20Z</time>
      </trkpt>
      <trkpt lat="45.768330423161387" lon="7.990176351740956">
        <ele>1136.4200000000001</ele>
        <time>2012-09-18T05:15:17Z</time>
      </trkpt>
      <trkpt lat="45.768350036814809" lon="7.990183895453811">
        <ele>1135.9400000000001</ele>
        <time>2012-09-18T05:15:15Z</time>
      </trkpt>
      <trkpt lat="45.768465120345354" lon="7.990231169387698">
        <ele>1134.49</ele>
        <time>2012-09-18T05:15:04Z</time>
      </trkpt>
      <trkpt lat="45.768462941050529" lon="7.990229912102222">
        <ele>1134.49</ele>
        <time>2012-09-18T05:15:01Z</time>
      </trkpt>
      <trkpt lat="45.768592525273561" lon="7.99027182161808">
        <ele>1134.01</ele>
        <time>2012-09-18T05:14:45Z</time>
      </trkpt>
      <trkpt lat="45.768716158345342" lon="7.990303505212069">
        <ele>1133.05</ele>
        <time>2012-09-18T05:14:32Z</time>
      </trkpt>
      <trkpt lat="45.76878153719008" lon="7.990440716966987">
        <ele>1132.5699999999999</ele>
        <time>2012-09-18T05:14:20Z</time>
      </trkpt>
      <trkpt lat="45.768778519704938" lon="7.990467706695199">
        <ele>1132.5699999999999</ele>
        <time>2012-09-18T05:14:18Z</time>
      </trkpt>
      <trkpt lat="45.768724456429482" lon="7.990578180179">
        <ele>1130.1700000000001</ele>
        <time>2012-09-18T05:14:03Z</time>
      </trkpt>
      <trkpt lat="45.76870383694768" lon="7.99072721041739">
        <ele>1128.73</ele>
        <time>2012-09-18T05:13:51Z</time>
      </trkpt>
      <trkpt lat="45.76867014169693" lon="7.990860315039754">
        <ele>1127.76</ele>
        <time>2012-09-18T05:13:38Z</time>
      </trkpt>
      <trkpt lat="45.768658993765712" lon="7.990878755226731">
        <ele>1127.76</ele>
        <time>2012-09-18T05:13:36Z</time>
      </trkpt>
      <trkpt lat="45.768661005422473" lon="7.99091043882072">
        <ele>1126.3199999999999</ele>
        <time>2012-09-18T05:13:34Z</time>
      </trkpt>
      <trkpt lat="45.768642816692591" lon="7.991018481552601">
        <ele>1125.3599999999999</ele>
        <time>2012-09-18T05:13:26Z</time>
      </trkpt>
      <trkpt lat="45.768591184169054" lon="7.991102300584316">
        <ele>1123.9200000000001</ele>
        <time>2012-09-18T05:13:14Z</time>
      </trkpt>
      <trkpt lat="45.768585065379739" lon="7.991116298362613">
        <ele>1123.9200000000001</ele>
        <time>2012-09-18T05:13:13Z</time>
      </trkpt>
      <trkpt lat="45.768477693200111" lon="7.991358786821365">
        <ele>1122.96</ele>
        <time>2012-09-18T05:12:57Z</time>
      </trkpt>
      <trkpt lat="45.768468640744686" lon="7.991388374939561">
        <ele>1122.96</ele>
        <time>2012-09-18T05:12:56Z</time>
      </trkpt>
      <trkpt lat="45.76842631213367" lon="7.991413017734885">
        <ele>1122.48</ele>
        <time>2012-09-18T05:12:36Z</time>
      </trkpt>
      <trkpt lat="45.76842631213367" lon="7.991413017734885">
        <ele>1122.48</ele>
        <time>2012-09-18T05:12:17Z</time>
      </trkpt>
      <trkpt lat="45.76842631213367" lon="7.991413017734885">
        <ele>1121.03</ele>
        <time>2012-09-18T05:12:04Z</time>
      </trkpt>
      <trkpt lat="45.768412733450532" lon="7.99146213568747">
        <ele>1119.5899999999999</ele>
        <time>2012-09-18T05:11:48Z</time>
      </trkpt>
      <trkpt lat="45.768379792571068" lon="7.991548972204328">
        <ele>1119.5899999999999</ele>
        <time>2012-09-18T05:11:35Z</time>
      </trkpt>
      <trkpt lat="45.768383983522654" lon="7.991547044366598">
        <ele>1119.5899999999999</ele>
        <time>2012-09-18T05:11:34Z</time>
      </trkpt>
      <trkpt lat="45.768379792571068" lon="7.991548972204328">
        <ele>1117.6700000000001</ele>
        <time>2012-09-18T05:11:20Z</time>
      </trkpt>
      <trkpt lat="45.768384737893939" lon="7.991563640534878">
        <ele>1117.6700000000001</ele>
        <time>2012-09-18T05:11:02Z</time>
      </trkpt>
      <trkpt lat="45.768384737893939" lon="7.991563640534878">
        <ele>1117.6700000000001</ele>
        <time>2012-09-18T05:10:40Z</time>
      </trkpt>
      <trkpt lat="45.76838381588459" lon="7.991563975811005">
        <ele>1117.6700000000001</ele>
        <time>2012-09-18T05:10:23Z</time>
      </trkpt>
      <trkpt lat="45.76838381588459" lon="7.991563975811005">
        <ele>1117.6700000000001</ele>
        <time>2012-09-18T05:10:06Z</time>
      </trkpt>
      <trkpt lat="45.7683833129704" lon="7.991575207561255">
        <ele>1117.6700000000001</ele>
        <time>2012-09-18T05:09:51Z</time>
      </trkpt>
      <trkpt lat="45.7683833129704" lon="7.991575207561255">
        <ele>1119.1099999999999</ele>
        <time>2012-09-18T05:09:34Z</time>
      </trkpt>
      <trkpt lat="45.768382223322988" lon="7.991572441533208">
        <ele>1117.1900000000001</ele>
        <time>2012-09-18T05:09:26Z</time>
      </trkpt>
      <trkpt lat="45.768381804227829" lon="7.991588618606329">
        <ele>1117.1900000000001</ele>
        <time>2012-09-18T05:09:12Z</time>
      </trkpt>
      <trkpt lat="45.768382893875241" lon="7.991593480110169">
        <ele>1117.1900000000001</ele>
        <time>2012-09-18T05:08:56Z</time>
      </trkpt>
      <trkpt lat="45.768389431759715" lon="7.991592306643724">
        <ele>1117.1900000000001</ele>
        <time>2012-09-18T05:08:40Z</time>
      </trkpt>
      <trkpt lat="45.768391946330667" lon="7.991592055186629">
        <ele>1118.6300000000001</ele>
        <time>2012-09-18T05:08:38Z</time>
      </trkpt>
      <trkpt lat="45.768389431759715" lon="7.991592306643724">
        <ele>1116.23</ele>
        <time>2012-09-18T05:08:24Z</time>
      </trkpt>
      <trkpt lat="45.768388258293271" lon="7.991598341614008">
        <ele>1116.23</ele>
        <time>2012-09-18T05:08:00Z</time>
      </trkpt>
      <trkpt lat="45.768388258293271" lon="7.991598341614008">
        <ele>1116.23</ele>
        <time>2012-09-18T05:07:43Z</time>
      </trkpt>
      <trkpt lat="45.768391694873571" lon="7.991601526737213">
        <ele>1116.23</ele>
        <time>2012-09-18T05:07:20Z</time>
      </trkpt>
      <trkpt lat="45.768393790349364" lon="7.991600856184959">
        <ele>1116.23</ele>
        <time>2012-09-18T05:06:50Z</time>
      </trkpt>
      <trkpt lat="45.768399406224489" lon="7.991607896983624">
        <ele>1116.23</ele>
        <time>2012-09-18T05:06:18Z</time>
      </trkpt>
      <trkpt lat="45.768404100090265" lon="7.991604544222355">
        <ele>1116.23</ele>
        <time>2012-09-18T05:05:44Z</time>
      </trkpt>
      <trkpt lat="45.76840678229928" lon="7.991608064621687">
        <ele>1116.23</ele>
        <time>2012-09-18T05:05:10Z</time>
      </trkpt>
      <trkpt lat="45.768405357375741" lon="7.991612339392304">
        <ele>1117.6700000000001</ele>
        <time>2012-09-18T05:04:36Z</time>
      </trkpt>
      <trkpt lat="45.768405357375741" lon="7.991612339392304">
        <ele>1116.71</ele>
        <time>2012-09-18T05:04:18Z</time>
      </trkpt>
      <trkpt lat="45.768405525013804" lon="7.99160965718329">
        <ele>1116.71</ele>
        <time>2012-09-18T05:03:48Z</time>
      </trkpt>
      <trkpt lat="45.768404519185424" lon="7.991607142612338">
        <ele>1116.71</ele>
        <time>2012-09-18T05:03:14Z</time>
      </trkpt>
      <trkpt lat="45.768407452851534" lon="7.99159943126142">
        <ele>1116.71</ele>
        <time>2012-09-18T05:02:43Z</time>
      </trkpt>
      <trkpt lat="45.768407452851534" lon="7.99159943126142">
        <ele>1116.23</ele>
        <time>2012-09-18T05:02:09Z</time>
      </trkpt>
      <trkpt lat="45.768411979079247" lon="7.991595910862088">
        <ele>1116.23</ele>
        <time>2012-09-18T05:01:36Z</time>
      </trkpt>
      <trkpt lat="45.76841164380312" lon="7.991588534787297">
        <ele>1116.23</ele>
        <time>2012-09-18T05:00:59Z</time>
      </trkpt>
      <trkpt lat="45.768419774249196" lon="7.991596329957247">
        <ele>1117.6700000000001</ele>
        <time>2012-09-18T05:00:27Z</time>
      </trkpt>
      <trkpt lat="45.768429664894938" lon="7.991603454574943">
        <ele>1117.6700000000001</ele>
        <time>2012-09-18T04:59:53Z</time>
      </trkpt>
      <trkpt lat="45.7684316765517" lon="7.991608316078782">
        <ele>1117.6700000000001</ele>
        <time>2012-09-18T04:59:20Z</time>
      </trkpt>
      <trkpt lat="45.7684316765517" lon="7.991608316078782">
        <ele>1117.6700000000001</ele>
        <time>2012-09-18T04:58:49Z</time>
      </trkpt>
      <trkpt lat="45.76842631213367" lon="7.991606136783958">
        <ele>1117.6700000000001</ele>
        <time>2012-09-18T04:58:16Z</time>
      </trkpt>
      <trkpt lat="45.768428323790431" lon="7.991608567535877">
        <ele>1117.6700000000001</ele>
        <time>2012-09-18T04:57:53Z</time>
      </trkpt>
      <trkpt lat="45.768429413437843" lon="7.991625666618347">
        <ele>1117.1900000000001</ele>
        <time>2012-09-18T04:57:27Z</time>
      </trkpt>
      <trkpt lat="45.768432095646858" lon="7.991578811779618">
        <ele>1117.6700000000001</ele>
        <time>2012-09-18T04:57:14Z</time>
      </trkpt>
      <trkpt lat="45.768397143110633" lon="7.991579649969935">
        <ele>1117.6700000000001</ele>
        <time>2012-09-18T04:57:10Z</time>
      </trkpt>
      <trkpt lat="45.768370907753706" lon="7.991616446524859">
        <ele>1116.71</ele>
        <time>2012-09-18T04:57:06Z</time>
      </trkpt>
      <trkpt lat="45.768466042354703" lon="7.991743180900812">
        <ele>1114.79</ele>
        <time>2012-09-18T04:57:02Z</time>
      </trkpt>
      <trkpt lat="45.768482470884919" lon="7.991796154528856">
        <ele>1114.3099999999999</ele>
        <time>2012-09-18T04:57:01Z</time>
      </trkpt>
      <trkpt lat="45.768521782010794" lon="7.991958511993289">
        <ele>1111.9000000000001</ele>
        <time>2012-09-18T04:56:59Z</time>
      </trkpt>
      <trkpt lat="45.768641559407115" lon="7.992367297410965">
        <ele>1107.5799999999999</ele>
        <time>2012-09-18T04:56:54Z</time>
      </trkpt>
      <trkpt lat="45.768772065639496" lon="7.992591764777899">
        <ele>1104.6900000000001</ele>
        <time>2012-09-18T04:56:51Z</time>
      </trkpt>
      <trkpt lat="45.768953450024128" lon="7.99288940615952">
        <ele>1102.29</ele>
        <time>2012-09-18T04:56:47Z</time>
      </trkpt>
      <trkpt lat="45.769193591549993" lon="7.993257706984878">
        <ele>1098.9200000000001</ele>
        <time>2012-09-18T04:56:43Z</time>
      </trkpt>
      <trkpt lat="45.769231393933296" lon="7.993298945948482">
        <ele>1098.4400000000001</ele>
        <time>2012-09-18T04:56:42Z</time>
      </trkpt>
      <trkpt lat="45.769311944022775" lon="7.993369102478027">
        <ele>1097.48</ele>
        <time>2012-09-18T04:56:40Z</time>
      </trkpt>
      <trkpt lat="45.769485114142299" lon="7.993486784398556">
        <ele>1096.04</ele>
        <time>2012-09-18T04:56:37Z</time>
      </trkpt>
      <trkpt lat="45.769643280655146" lon="7.993615111336112">
        <ele>1097.48</ele>
        <time>2012-09-18T04:56:34Z</time>
      </trkpt>
      <trkpt lat="45.769887194037437" lon="7.994011742994189">
        <ele>1097.48</ele>
        <time>2012-09-18T04:56:27Z</time>
      </trkpt>
      <trkpt lat="45.769934384152293" lon="7.994262864813209">
        <ele>1097.48</ele>
        <time>2012-09-18T04:56:24Z</time>
      </trkpt>
      <trkpt lat="45.769970510154963" lon="7.994427820667625">
        <ele>1096.52</ele>
        <time>2012-09-18T04:56:22Z</time>
      </trkpt>
      <trkpt lat="45.770016191527247" lon="7.994781704619527">
        <ele>1092.6800000000001</ele>
        <time>2012-09-18T04:56:17Z</time>
      </trkpt>
      <trkpt lat="45.770009150728583" lon="7.995035592466593">
        <ele>1089.3099999999999</ele>
        <time>2012-09-18T04:56:14Z</time>
      </trkpt>
      <trkpt lat="45.769983502104878" lon="7.995294844731689">
        <ele>1086.4300000000001</ele>
        <time>2012-09-18T04:56:11Z</time>
      </trkpt>
      <trkpt lat="45.769938910380006" lon="7.995585529133678">
        <ele>1083.0599999999999</ele>
        <time>2012-09-18T04:56:07Z</time>
      </trkpt>
      <trkpt lat="45.769877890124917" lon="7.995902029797435">
        <ele>1079.22</ele>
        <time>2012-09-18T04:56:02Z</time>
      </trkpt>
      <trkpt lat="45.769876213744283" lon="7.996088778600097">
        <ele>1076.8099999999999</ele>
        <time>2012-09-18T04:55:59Z</time>
      </trkpt>
      <trkpt lat="45.76989121735096" lon="7.996134543791413">
        <ele>1075.8499999999999</ele>
        <time>2012-09-18T04:55:58Z</time>
      </trkpt>
      <trkpt lat="45.769933713600039" lon="7.996209813281894">
        <ele>1074.4100000000001</ele>
        <time>2012-09-18T04:55:56Z</time>
      </trkpt>
      <trkpt lat="45.769957853481174" lon="7.996311485767365">
        <ele>1073.45</ele>
        <time>2012-09-18T04:55:52Z</time>
      </trkpt>
      <trkpt lat="45.769942933693528" lon="7.996527319774032">
        <ele>1070.0799999999999</ele>
        <time>2012-09-18T04:55:47Z</time>
      </trkpt>
      <trkpt lat="45.769999511539936" lon="7.996975500136614">
        <ele>1065.76</ele>
        <time>2012-09-18T04:55:42Z</time>
      </trkpt>
      <trkpt lat="45.770075200125575" lon="7.997124949470162">
        <ele>1064.3199999999999</ele>
        <time>2012-09-18T04:55:40Z</time>
      </trkpt>
      <trkpt lat="45.77012381516397" lon="7.997313961386681">
        <ele>1062.8699999999999</ele>
        <time>2012-09-18T04:55:38Z</time>
      </trkpt>
      <trkpt lat="45.770128425210714" lon="7.997571537271142">
        <ele>1060.95</ele>
        <time>2012-09-18T04:55:36Z</time>
      </trkpt>
      <trkpt lat="45.770112667232752" lon="7.997814696282148">
        <ele>1059.99</ele>
        <time>2012-09-18T04:55:34Z</time>
      </trkpt>
      <trkpt lat="45.77014091424644" lon="7.998236306011677">
        <ele>1059.51</ele>
        <time>2012-09-18T04:55:30Z</time>
      </trkpt>
      <trkpt lat="45.770169161260128" lon="7.998365722596645">
        <ele>1059.51</ele>
        <time>2012-09-18T04:55:28Z</time>
      </trkpt>
      <trkpt lat="45.770202772691846" lon="7.998487930744886">
        <ele>1058.55</ele>
        <time>2012-09-18T04:55:26Z</time>
      </trkpt>
      <trkpt lat="45.770196905359626" lon="7.99862589687109">
        <ele>1057.1099999999999</ele>
        <time>2012-09-18T04:55:24Z</time>
      </trkpt>
      <trkpt lat="45.770175699144602" lon="7.998796887695789">
        <ele>1056.1500000000001</ele>
        <time>2012-09-18T04:55:22Z</time>
      </trkpt>
      <trkpt lat="45.77018047682941" lon="7.998955138027668">
        <ele>1055.1800000000001</ele>
        <time>2012-09-18T04:55:20Z</time>
      </trkpt>
      <trkpt lat="45.77020151540637" lon="7.999151526018977">
        <ele>1053.26</ele>
        <time>2012-09-18T04:55:16Z</time>
      </trkpt>
      <trkpt lat="45.770268989726901" lon="7.999531896784902">
        <ele>1050.3800000000001</ele>
        <time>2012-09-18T04:55:03Z</time>
      </trkpt>
      <trkpt lat="45.770287262275815" lon="7.999797267839313">
        <ele>1046.53</ele>
        <time>2012-09-18T04:54:58Z</time>
      </trkpt>
      <trkpt lat="45.770231606438756" lon="8.000124748796225">
        <ele>1043.6500000000001</ele>
        <time>2012-09-18T04:54:54Z</time>
      </trkpt>
      <trkpt lat="45.770231187343597" lon="8.000393221154809">
        <ele>1039.8</ele>
        <time>2012-09-18T04:54:50Z</time>
      </trkpt>
      <trkpt lat="45.770214842632413" lon="8.000718103721738">
        <ele>1035</ele>
        <time>2012-09-18T04:54:45Z</time>
      </trkpt>
      <trkpt lat="45.770228756591678" lon="8.000780884176493">
        <ele>1034.52</ele>
        <time>2012-09-18T04:54:44Z</time>
      </trkpt>
      <trkpt lat="45.770343085750937" lon="8.001151531934738">
        <ele>1030.6700000000001</ele>
        <time>2012-09-18T04:54:39Z</time>
      </trkpt>
      <trkpt lat="45.770492451265454" lon="8.001738181337714">
        <ele>1027.3099999999999</ele>
        <time>2012-09-18T04:54:32Z</time>
      </trkpt>
      <trkpt lat="45.770504688844085" lon="8.001806158572435">
        <ele>1027.3099999999999</ele>
        <time>2012-09-18T04:54:31Z</time>
      </trkpt>
      <trkpt lat="45.770644666627049" lon="8.002325836569071">
        <ele>1023.46</ele>
        <time>2012-09-18T04:54:23Z</time>
      </trkpt>
      <trkpt lat="45.770869133993983" lon="8.002807376906276">
        <ele>1020.58</ele>
        <time>2012-09-18T04:54:15Z</time>
      </trkpt>
      <trkpt lat="45.77092370018363" lon="8.003051457926631">
        <ele>1019.62</ele>
        <time>2012-09-18T04:54:11Z</time>
      </trkpt>
      <trkpt lat="45.770799061283469" lon="8.00367783755064">
        <ele>1018.17</ele>
        <time>2012-09-18T04:54:01Z</time>
      </trkpt>
      <trkpt lat="45.77073217369616" lon="8.003764590248466">
        <ele>1017.21</ele>
        <time>2012-09-18T04:54:00Z</time>
      </trkpt>
      <trkpt lat="45.770610300824046" lon="8.003972629085183">
        <ele>1015.29</ele>
        <time>2012-09-18T04:53:56Z</time>
      </trkpt>
      <trkpt lat="45.770513825118542" lon="8.004066171124578">
        <ele>1013.37</ele>
        <time>2012-09-18T04:53:54Z</time>
      </trkpt>
      <trkpt lat="45.770462863147259" lon="8.004121407866478">
        <ele>1012.41</ele>
        <time>2012-09-18T04:53:53Z</time>
      </trkpt>
      <trkpt lat="45.770370494574308" lon="8.004443775862455">
        <ele>1009.04</ele>
        <time>2012-09-18T04:53:49Z</time>
      </trkpt>
      <trkpt lat="45.770360855385661" lon="8.004615437239409">
        <ele>1006.64</ele>
        <time>2012-09-18T04:53:47Z</time>
      </trkpt>
      <trkpt lat="45.770371835678816" lon="8.004693975672126">
        <ele>1005.6799999999999</ele>
        <time>2012-09-18T04:53:46Z</time>
      </trkpt>
      <trkpt lat="45.770400753244758" lon="8.004834959283471">
        <ele>1004.23</ele>
        <time>2012-09-18T04:53:44Z</time>
      </trkpt>
      <trkpt lat="45.77032414264977" lon="8.005146346986294">
        <ele>1003.75</ele>
        <time>2012-09-18T04:53:40Z</time>
      </trkpt>
      <trkpt lat="45.770224230363965" lon="8.00533133558929">
        <ele>1003.75</ele>
        <time>2012-09-18T04:53:37Z</time>
      </trkpt>
      <trkpt lat="45.770183326676488" lon="8.005538955330849">
        <ele>1001.83</ele>
        <time>2012-09-18T04:53:33Z</time>
      </trkpt>
      <trkpt lat="45.770219452679157" lon="8.005712712183595">
        <ele>999.90999999999997</ele>
        <time>2012-09-18T04:53:31Z</time>
      </trkpt>
      <trkpt lat="45.770264882594347" lon="8.006065674126148">
        <ele>996.53999999999996</ele>
        <time>2012-09-18T04:53:28Z</time>
      </trkpt>
      <trkpt lat="45.770311569795012" lon="8.006457947194576">
        <ele>993.17999999999995</ele>
        <time>2012-09-18T04:53:25Z</time>
      </trkpt>
      <trkpt lat="45.770379798486829" lon="8.006804119795561">
        <ele>989.33000000000004</ele>
        <time>2012-09-18T04:53:22Z</time>
      </trkpt>
      <trkpt lat="45.770483398810029" lon="8.007362941280007">
        <ele>984.04999999999995</ele>
        <time>2012-09-18T04:53:17Z</time>
      </trkpt>
      <trkpt lat="45.770502090454102" lon="8.007692266255617">
        <ele>981.63999999999999</ele>
        <time>2012-09-18T04:53:14Z</time>
      </trkpt>
      <trkpt lat="45.770480213686824" lon="8.008301546797156">
        <ele>977.79999999999995</ele>
        <time>2012-09-18T04:53:08Z</time>
      </trkpt>
      <trkpt lat="45.770401172339916" lon="8.008605474606156">
        <ele>974.42999999999995</ele>
        <time>2012-09-18T04:53:04Z</time>
      </trkpt>
      <trkpt lat="45.770362447947264" lon="8.008669009432197">
        <ele>974.42999999999995</ele>
        <time>2012-09-18T04:53:03Z</time>
      </trkpt>
      <trkpt lat="45.770157845690846" lon="8.008952988311648">
        <ele>970.59000000000003</ele>
        <time>2012-09-18T04:52:59Z</time>
      </trkpt>
      <trkpt lat="45.770062543451786" lon="8.009114004671574">
        <ele>966.74000000000001</ele>
        <time>2012-09-18T04:52:57Z</time>
      </trkpt>
      <trkpt lat="45.770001523196697" lon="8.009213749319315">
        <ele>965.77999999999997</ele>
        <time>2012-09-18T04:52:56Z</time>
      </trkpt>
      <trkpt lat="45.769882332533598" lon="8.009387422353029">
        <ele>962.89999999999998</ele>
        <time>2012-09-18T04:52:54Z</time>
      </trkpt>
      <trkpt lat="45.769761968404055" lon="8.009553886950016">
        <ele>959.52999999999997</ele>
        <time>2012-09-18T04:52:52Z</time>
      </trkpt>
      <trkpt lat="45.769585110247135" lon="8.009807439520955">
        <ele>955.21000000000004</ele>
        <time>2012-09-18T04:52:49Z</time>
      </trkpt>
      <trkpt lat="45.769321918487549" lon="8.010241957381368">
        <ele>951.84000000000003</ele>
        <time>2012-09-18T04:52:44Z</time>
      </trkpt>
      <trkpt lat="45.769048500806093" lon="8.010666836053133" />
      <trkpt lat="45.768743064254522" lon="8.011167151853442" />
      <trkpt lat="45.768545502796769" lon="8.011614829301834" />
      <trkpt lat="45.768222045153379" lon="8.011930743232369" />
      <trkpt lat="45.767916608601809" lon="8.012167783454061" />
      <trkpt lat="45.767826838418841" lon="8.012773459777236" />
      <trkpt lat="45.767844775691628" lon="8.013194734230638" />
    </trkseg>
  </trk>

</gpx>